<?xml version="1.0" encoding="utf-8"?>
<gpx xmlns:xsi="http://www.w3.org/2001/XMLSchema-instance" xmlns:xsd="http://www.w3.org/2001/XMLSchema" version="1.1" creator="Shapelink.com" xmlns="http://www.topografix.com/GPX/1/1" xmlns:gpxtpx="http://www.garmin.com/xmlschemas/TrackPointExtension/v1">
  <metadata>
    <name>Løping 9.90 km, 2012-10-08</name>
    <desc></desc>
    <author><name>Mikael Blom</name></author> 
    <time>2012-10-08T18:22:54Z</time>
  </metadata>
  <trk>
    <name>Løping 9.90 km, 2012-10-08</name>
    <trkseg>
      <trkpt lat="59.9789037" lon="17.7393683">
        <ele>38.1094</ele>
        <time>2012-10-08T18:22:54Z</time>
      </trkpt>
      <trkpt lat="59.9788867" lon="17.7393694">
        <ele>37.6287</ele>
        <time>2012-10-08T18:22:55Z</time>
      </trkpt>
      <trkpt lat="59.9788636" lon="17.7393729">
        <ele>38.1094</ele>
        <time>2012-10-08T18:22:56Z</time>
      </trkpt>
      <trkpt lat="59.978834" lon="17.7393693">
        <ele>38.1094</ele>
        <time>2012-10-08T18:22:57Z</time>
      </trkpt>
      <trkpt lat="59.9787999" lon="17.7393579">
        <ele>38.1094</ele>
        <time>2012-10-08T18:22:58Z</time>
      </trkpt>
      <trkpt lat="59.9787625" lon="17.7393387">
        <ele>38.1094</ele>
        <time>2012-10-08T18:22:59Z</time>
      </trkpt>
      <trkpt lat="59.9787241" lon="17.7393227">
        <ele>38.1094</ele>
        <time>2012-10-08T18:23:00Z</time>
      </trkpt>
      <trkpt lat="59.9786863" lon="17.7393196">
        <ele>38.1094</ele>
        <time>2012-10-08T18:23:01Z</time>
      </trkpt>
      <trkpt lat="59.97865" lon="17.7393147">
        <ele>38.5901</ele>
        <time>2012-10-08T18:23:02Z</time>
      </trkpt>
      <trkpt lat="59.9786148" lon="17.7393092">
        <ele>38.5901</ele>
        <time>2012-10-08T18:23:03Z</time>
      </trkpt>
      <trkpt lat="59.9785785" lon="17.7392937">
        <ele>38.5901</ele>
        <time>2012-10-08T18:23:04Z</time>
      </trkpt>
      <trkpt lat="59.978545" lon="17.7392798">
        <ele>38.5901</ele>
        <time>2012-10-08T18:23:05Z</time>
      </trkpt>
      <trkpt lat="59.9785128" lon="17.7392668">
        <ele>39.0707</ele>
        <time>2012-10-08T18:23:06Z</time>
      </trkpt>
      <trkpt lat="59.9784813" lon="17.7392637">
        <ele>38.5901</ele>
        <time>2012-10-08T18:23:07Z</time>
      </trkpt>
      <trkpt lat="59.9784476" lon="17.7392741">
        <ele>38.5901</ele>
        <time>2012-10-08T18:23:08Z</time>
      </trkpt>
      <trkpt lat="59.9784139" lon="17.7392855">
        <ele>39.0707</ele>
        <time>2012-10-08T18:23:09Z</time>
      </trkpt>
      <trkpt lat="59.9783838" lon="17.7392901">
        <ele>39.0707</ele>
        <time>2012-10-08T18:23:10Z</time>
      </trkpt>
      <trkpt lat="59.978361" lon="17.7392911">
        <ele>39.5513</ele>
        <time>2012-10-08T18:23:11Z</time>
      </trkpt>
      <trkpt lat="59.9783408" lon="17.7392803">
        <ele>40.0321</ele>
        <time>2012-10-08T18:23:12Z</time>
      </trkpt>
      <trkpt lat="59.9783154" lon="17.7392692">
        <ele>40.5128</ele>
        <time>2012-10-08T18:23:13Z</time>
      </trkpt>
      <trkpt lat="59.9782864" lon="17.7392738">
        <ele>40.0321</ele>
        <time>2012-10-08T18:23:14Z</time>
      </trkpt>
      <trkpt lat="59.9782588" lon="17.7392725">
        <ele>40.0321</ele>
        <time>2012-10-08T18:23:15Z</time>
      </trkpt>
      <trkpt lat="59.9782321" lon="17.7393014">
        <ele>40.5128</ele>
        <time>2012-10-08T18:23:16Z</time>
      </trkpt>
      <trkpt lat="59.9782052" lon="17.7393244">
        <ele>40.9934</ele>
        <time>2012-10-08T18:23:17Z</time>
      </trkpt>
      <trkpt lat="59.9781842" lon="17.7393165">
        <ele>41.474</ele>
        <time>2012-10-08T18:23:18Z</time>
      </trkpt>
      <trkpt lat="59.978161" lon="17.7393181">
        <ele>41.9547</ele>
        <time>2012-10-08T18:23:19Z</time>
      </trkpt>
      <trkpt lat="59.9781326" lon="17.7393159">
        <ele>41.9547</ele>
        <time>2012-10-08T18:23:20Z</time>
      </trkpt>
      <trkpt lat="59.9781009" lon="17.7393055">
        <ele>42.4354</ele>
        <time>2012-10-08T18:23:21Z</time>
      </trkpt>
      <trkpt lat="59.9780731" lon="17.739309">
        <ele>42.916</ele>
        <time>2012-10-08T18:23:22Z</time>
      </trkpt>
      <trkpt lat="59.9780512" lon="17.7392973">
        <ele>43.3966</ele>
        <time>2012-10-08T18:23:23Z</time>
      </trkpt>
      <trkpt lat="59.9780279" lon="17.7392735">
        <ele>43.8773</ele>
        <time>2012-10-08T18:23:24Z</time>
      </trkpt>
      <trkpt lat="59.9780015" lon="17.7392538">
        <ele>44.358</ele>
        <time>2012-10-08T18:23:25Z</time>
      </trkpt>
      <trkpt lat="59.9779719" lon="17.7392389">
        <ele>44.358</ele>
        <time>2012-10-08T18:23:26Z</time>
      </trkpt>
      <trkpt lat="59.9779455" lon="17.7392206">
        <ele>44.8386</ele>
        <time>2012-10-08T18:23:27Z</time>
      </trkpt>
      <trkpt lat="59.9779254" lon="17.7391943">
        <ele>44.8386</ele>
        <time>2012-10-08T18:23:28Z</time>
      </trkpt>
      <trkpt lat="59.9779061" lon="17.7391682">
        <ele>44.358</ele>
        <time>2012-10-08T18:23:29Z</time>
      </trkpt>
      <trkpt lat="59.9778877" lon="17.7391448">
        <ele>44.358</ele>
        <time>2012-10-08T18:23:30Z</time>
      </trkpt>
      <trkpt lat="59.9778712" lon="17.7391254">
        <ele>43.8773</ele>
        <time>2012-10-08T18:23:31Z</time>
      </trkpt>
      <trkpt lat="59.9778534" lon="17.7391139">
        <ele>43.3966</ele>
        <time>2012-10-08T18:23:32Z</time>
      </trkpt>
      <trkpt lat="59.977831" lon="17.7390998">
        <ele>42.916</ele>
        <time>2012-10-08T18:23:33Z</time>
      </trkpt>
      <trkpt lat="59.9778056" lon="17.7390869">
        <ele>42.916</ele>
        <time>2012-10-08T18:23:34Z</time>
      </trkpt>
      <trkpt lat="59.9777815" lon="17.7390756">
        <ele>43.3966</ele>
        <time>2012-10-08T18:23:35Z</time>
      </trkpt>
      <trkpt lat="59.9777586" lon="17.7390637">
        <ele>42.916</ele>
        <time>2012-10-08T18:23:36Z</time>
      </trkpt>
      <trkpt lat="59.9777307" lon="17.7390539">
        <ele>42.916</ele>
        <time>2012-10-08T18:23:37Z</time>
      </trkpt>
      <trkpt lat="59.9777097" lon="17.7390326">
        <ele>42.916</ele>
        <time>2012-10-08T18:23:38Z</time>
      </trkpt>
      <trkpt lat="59.9776862" lon="17.7390248">
        <ele>42.916</ele>
        <time>2012-10-08T18:23:39Z</time>
      </trkpt>
      <trkpt lat="59.9776592" lon="17.7390269">
        <ele>41.474</ele>
        <time>2012-10-08T18:23:40Z</time>
      </trkpt>
      <trkpt lat="59.9776338" lon="17.7390222">
        <ele>40.0321</ele>
        <time>2012-10-08T18:23:41Z</time>
      </trkpt>
      <trkpt lat="59.9776093" lon="17.7390208">
        <ele>38.5901</ele>
        <time>2012-10-08T18:23:42Z</time>
      </trkpt>
      <trkpt lat="59.977584" lon="17.7390233">
        <ele>37.6287</ele>
        <time>2012-10-08T18:23:43Z</time>
      </trkpt>
      <trkpt lat="59.9775581" lon="17.7390366">
        <ele>37.6287</ele>
        <time>2012-10-08T18:23:44Z</time>
      </trkpt>
      <trkpt lat="59.9775332" lon="17.7390679">
        <ele>37.1481</ele>
        <time>2012-10-08T18:23:45Z</time>
      </trkpt>
      <trkpt lat="59.977513" lon="17.7391021">
        <ele>36.6675</ele>
        <time>2012-10-08T18:23:46Z</time>
      </trkpt>
      <trkpt lat="59.977495" lon="17.7391181">
        <ele>35.7061</ele>
        <time>2012-10-08T18:23:47Z</time>
      </trkpt>
      <trkpt lat="59.9774758" lon="17.739126">
        <ele>34.7449</ele>
        <time>2012-10-08T18:23:48Z</time>
      </trkpt>
      <trkpt lat="59.9774571" lon="17.7391378">
        <ele>34.2642</ele>
        <time>2012-10-08T18:23:49Z</time>
      </trkpt>
      <trkpt lat="59.9774352" lon="17.73914">
        <ele>33.7834</ele>
        <time>2012-10-08T18:23:50Z</time>
      </trkpt>
      <trkpt lat="59.9774105" lon="17.7391412">
        <ele>33.3029</ele>
        <time>2012-10-08T18:23:51Z</time>
      </trkpt>
      <trkpt lat="59.9773867" lon="17.7391404">
        <ele>32.3416</ele>
        <time>2012-10-08T18:23:52Z</time>
      </trkpt>
      <trkpt lat="59.977359" lon="17.7391423">
        <ele>31.3801</ele>
        <time>2012-10-08T18:23:53Z</time>
      </trkpt>
      <trkpt lat="59.9773298" lon="17.7391498">
        <ele>30.4188</ele>
        <time>2012-10-08T18:23:54Z</time>
      </trkpt>
      <trkpt lat="59.9773018" lon="17.7391642">
        <ele>29.9381</ele>
        <time>2012-10-08T18:23:55Z</time>
      </trkpt>
      <trkpt lat="59.9772749" lon="17.7391786">
        <ele>29.9381</ele>
        <time>2012-10-08T18:23:56Z</time>
      </trkpt>
      <trkpt lat="59.9772541" lon="17.7391935">
        <ele>29.4575</ele>
        <time>2012-10-08T18:23:57Z</time>
      </trkpt>
      <trkpt lat="59.977229" lon="17.7392129">
        <ele>28.9769</ele>
        <time>2012-10-08T18:23:58Z</time>
      </trkpt>
      <trkpt lat="59.9772032" lon="17.7392274">
        <ele>28.9769</ele>
        <time>2012-10-08T18:23:59Z</time>
      </trkpt>
      <trkpt lat="59.9771816" lon="17.7392326">
        <ele>28.4962</ele>
        <time>2012-10-08T18:24:00Z</time>
      </trkpt>
      <trkpt lat="59.9771572" lon="17.7392445">
        <ele>28.0155</ele>
        <time>2012-10-08T18:24:01Z</time>
      </trkpt>
      <trkpt lat="59.9771375" lon="17.7392575">
        <ele>29.4575</ele>
        <time>2012-10-08T18:24:02Z</time>
      </trkpt>
      <trkpt lat="59.9771215" lon="17.7392632">
        <ele>29.9381</ele>
        <time>2012-10-08T18:24:03Z</time>
      </trkpt>
      <trkpt lat="59.9771" lon="17.7392652">
        <ele>29.9381</ele>
        <time>2012-10-08T18:24:04Z</time>
      </trkpt>
      <trkpt lat="59.9770726" lon="17.7392778">
        <ele>29.9381</ele>
        <time>2012-10-08T18:24:05Z</time>
      </trkpt>
      <trkpt lat="59.9770505" lon="17.7392786">
        <ele>30.4188</ele>
        <time>2012-10-08T18:24:06Z</time>
      </trkpt>
      <trkpt lat="59.9770342" lon="17.7392776">
        <ele>30.8995</ele>
        <time>2012-10-08T18:24:07Z</time>
      </trkpt>
      <trkpt lat="59.9770133" lon="17.7392942">
        <ele>31.3801</ele>
        <time>2012-10-08T18:24:08Z</time>
      </trkpt>
      <trkpt lat="59.976994" lon="17.7393196">
        <ele>31.3801</ele>
        <time>2012-10-08T18:24:09Z</time>
      </trkpt>
      <trkpt lat="59.9769729" lon="17.7393398">
        <ele>31.3801</ele>
        <time>2012-10-08T18:24:10Z</time>
      </trkpt>
      <trkpt lat="59.9769511" lon="17.7393643">
        <ele>31.8607</ele>
        <time>2012-10-08T18:24:11Z</time>
      </trkpt>
      <trkpt lat="59.9769279" lon="17.7393772">
        <ele>32.3416</ele>
        <time>2012-10-08T18:24:12Z</time>
      </trkpt>
      <trkpt lat="59.9769039" lon="17.7393925">
        <ele>32.8223</ele>
        <time>2012-10-08T18:24:13Z</time>
      </trkpt>
      <trkpt lat="59.9768754" lon="17.7394196">
        <ele>33.3029</ele>
        <time>2012-10-08T18:24:14Z</time>
      </trkpt>
      <trkpt lat="59.9768464" lon="17.7394423">
        <ele>33.7834</ele>
        <time>2012-10-08T18:24:15Z</time>
      </trkpt>
      <trkpt lat="59.976818" lon="17.7394553">
        <ele>34.2642</ele>
        <time>2012-10-08T18:24:16Z</time>
      </trkpt>
      <trkpt lat="59.9767895" lon="17.7394644">
        <ele>34.2642</ele>
        <time>2012-10-08T18:24:17Z</time>
      </trkpt>
      <trkpt lat="59.9767605" lon="17.7394723">
        <ele>33.7834</ele>
        <time>2012-10-08T18:24:18Z</time>
      </trkpt>
      <trkpt lat="59.9767302" lon="17.7394837">
        <ele>33.3029</ele>
        <time>2012-10-08T18:24:19Z</time>
      </trkpt>
      <trkpt lat="59.9767034" lon="17.7394921">
        <ele>34.2642</ele>
        <time>2012-10-08T18:24:20Z</time>
      </trkpt>
      <trkpt lat="59.9766805" lon="17.7394874">
        <ele>34.2642</ele>
        <time>2012-10-08T18:24:21Z</time>
      </trkpt>
      <trkpt lat="59.9766566" lon="17.7394916">
        <ele>34.7449</ele>
        <time>2012-10-08T18:24:22Z</time>
      </trkpt>
      <trkpt lat="59.9766329" lon="17.7395018">
        <ele>34.7449</ele>
        <time>2012-10-08T18:24:23Z</time>
      </trkpt>
      <trkpt lat="59.9766142" lon="17.7395035">
        <ele>35.7061</ele>
        <time>2012-10-08T18:24:24Z</time>
      </trkpt>
      <trkpt lat="59.9765993" lon="17.7394958">
        <ele>36.1868</ele>
        <time>2012-10-08T18:24:25Z</time>
      </trkpt>
      <trkpt lat="59.976575" lon="17.7395117">
        <ele>36.6675</ele>
        <time>2012-10-08T18:24:26Z</time>
      </trkpt>
      <trkpt lat="59.9765486" lon="17.7395368">
        <ele>37.6287</ele>
        <time>2012-10-08T18:24:27Z</time>
      </trkpt>
      <trkpt lat="59.9765247" lon="17.7395651">
        <ele>37.6287</ele>
        <time>2012-10-08T18:24:28Z</time>
      </trkpt>
      <trkpt lat="59.9765004" lon="17.739605">
        <ele>38.1094</ele>
        <time>2012-10-08T18:24:29Z</time>
      </trkpt>
      <trkpt lat="59.9764766" lon="17.7396499">
        <ele>38.1094</ele>
        <time>2012-10-08T18:24:30Z</time>
      </trkpt>
      <trkpt lat="59.9764532" lon="17.7396873">
        <ele>37.6287</ele>
        <time>2012-10-08T18:24:31Z</time>
      </trkpt>
      <trkpt lat="59.9764294" lon="17.7397243">
        <ele>37.6287</ele>
        <time>2012-10-08T18:24:32Z</time>
      </trkpt>
      <trkpt lat="59.9764067" lon="17.7397706">
        <ele>37.6287</ele>
        <time>2012-10-08T18:24:33Z</time>
      </trkpt>
      <trkpt lat="59.976386" lon="17.7398127">
        <ele>37.6287</ele>
        <time>2012-10-08T18:24:34Z</time>
      </trkpt>
      <trkpt lat="59.97637" lon="17.7398571">
        <ele>37.6287</ele>
        <time>2012-10-08T18:24:35Z</time>
      </trkpt>
      <trkpt lat="59.9763568" lon="17.7399073">
        <ele>37.6287</ele>
        <time>2012-10-08T18:24:36Z</time>
      </trkpt>
      <trkpt lat="59.9763414" lon="17.7399543">
        <ele>37.6287</ele>
        <time>2012-10-08T18:24:37Z</time>
      </trkpt>
      <trkpt lat="59.9763256" lon="17.7399972">
        <ele>37.6287</ele>
        <time>2012-10-08T18:24:38Z</time>
      </trkpt>
      <trkpt lat="59.9763176" lon="17.7400443">
        <ele>37.1481</ele>
        <time>2012-10-08T18:24:39Z</time>
      </trkpt>
      <trkpt lat="59.9763113" lon="17.7401039">
        <ele>38.1094</ele>
        <time>2012-10-08T18:24:40Z</time>
      </trkpt>
      <trkpt lat="59.9763087" lon="17.7401603">
        <ele>37.6287</ele>
        <time>2012-10-08T18:24:41Z</time>
      </trkpt>
      <trkpt lat="59.9763052" lon="17.7402075">
        <ele>37.6287</ele>
        <time>2012-10-08T18:24:42Z</time>
      </trkpt>
      <trkpt lat="59.9762875" lon="17.7402586">
        <ele>37.6287</ele>
        <time>2012-10-08T18:24:43Z</time>
      </trkpt>
      <trkpt lat="59.9762692" lon="17.7403117">
        <ele>38.1094</ele>
        <time>2012-10-08T18:24:44Z</time>
      </trkpt>
      <trkpt lat="59.9762575" lon="17.7403674">
        <ele>38.1094</ele>
        <time>2012-10-08T18:24:45Z</time>
      </trkpt>
      <trkpt lat="59.9762455" lon="17.740423">
        <ele>38.1094</ele>
        <time>2012-10-08T18:24:46Z</time>
      </trkpt>
      <trkpt lat="59.9762322" lon="17.7404752">
        <ele>38.1094</ele>
        <time>2012-10-08T18:24:47Z</time>
      </trkpt>
      <trkpt lat="59.9762227" lon="17.7405266">
        <ele>38.5901</ele>
        <time>2012-10-08T18:24:48Z</time>
      </trkpt>
      <trkpt lat="59.9762134" lon="17.7405798">
        <ele>38.5901</ele>
        <time>2012-10-08T18:24:49Z</time>
      </trkpt>
      <trkpt lat="59.9761966" lon="17.7406329">
        <ele>39.0707</ele>
        <time>2012-10-08T18:24:50Z</time>
      </trkpt>
      <trkpt lat="59.9761788" lon="17.7406794">
        <ele>40.0321</ele>
        <time>2012-10-08T18:24:51Z</time>
      </trkpt>
      <trkpt lat="59.9761625" lon="17.7407274">
        <ele>39.0707</ele>
        <time>2012-10-08T18:24:52Z</time>
      </trkpt>
      <trkpt lat="59.9761453" lon="17.7407711">
        <ele>39.0707</ele>
        <time>2012-10-08T18:24:53Z</time>
      </trkpt>
      <trkpt lat="59.9761289" lon="17.7408115">
        <ele>39.5513</ele>
        <time>2012-10-08T18:24:54Z</time>
      </trkpt>
      <trkpt lat="59.9761151" lon="17.740855">
        <ele>40.0321</ele>
        <time>2012-10-08T18:24:55Z</time>
      </trkpt>
      <trkpt lat="59.9761005" lon="17.7408975">
        <ele>40.0321</ele>
        <time>2012-10-08T18:24:56Z</time>
      </trkpt>
      <trkpt lat="59.9760887" lon="17.7409419">
        <ele>40.0321</ele>
        <time>2012-10-08T18:24:57Z</time>
      </trkpt>
      <trkpt lat="59.9760804" lon="17.7409923">
        <ele>40.0321</ele>
        <time>2012-10-08T18:24:58Z</time>
      </trkpt>
      <trkpt lat="59.9760688" lon="17.7410418">
        <ele>39.5513</ele>
        <time>2012-10-08T18:24:59Z</time>
      </trkpt>
      <trkpt lat="59.9760573" lon="17.741086">
        <ele>40.0321</ele>
        <time>2012-10-08T18:25:00Z</time>
      </trkpt>
      <trkpt lat="59.9760476" lon="17.7411361">
        <ele>39.5513</ele>
        <time>2012-10-08T18:25:01Z</time>
      </trkpt>
      <trkpt lat="59.9760373" lon="17.741182">
        <ele>40.0321</ele>
        <time>2012-10-08T18:25:02Z</time>
      </trkpt>
      <trkpt lat="59.9760295" lon="17.7412208">
        <ele>40.5128</ele>
        <time>2012-10-08T18:25:03Z</time>
      </trkpt>
      <trkpt lat="59.9760232" lon="17.741263">
        <ele>40.5128</ele>
        <time>2012-10-08T18:25:04Z</time>
      </trkpt>
      <trkpt lat="59.9760165" lon="17.7413097">
        <ele>40.5128</ele>
        <time>2012-10-08T18:25:05Z</time>
      </trkpt>
      <trkpt lat="59.9760055" lon="17.7413541">
        <ele>40.0321</ele>
        <time>2012-10-08T18:25:06Z</time>
      </trkpt>
      <trkpt lat="59.9759927" lon="17.7413961">
        <ele>40.5128</ele>
        <time>2012-10-08T18:25:07Z</time>
      </trkpt>
      <trkpt lat="59.9759827" lon="17.7414386">
        <ele>40.0321</ele>
        <time>2012-10-08T18:25:08Z</time>
      </trkpt>
      <trkpt lat="59.9759749" lon="17.7414831">
        <ele>40.5128</ele>
        <time>2012-10-08T18:25:09Z</time>
      </trkpt>
      <trkpt lat="59.9759729" lon="17.7415275">
        <ele>40.9934</ele>
        <time>2012-10-08T18:25:10Z</time>
      </trkpt>
      <trkpt lat="59.9759679" lon="17.7415734">
        <ele>40.9934</ele>
        <time>2012-10-08T18:25:11Z</time>
      </trkpt>
      <trkpt lat="59.9759585" lon="17.7416222">
        <ele>41.474</ele>
        <time>2012-10-08T18:25:12Z</time>
      </trkpt>
      <trkpt lat="59.9759518" lon="17.7416719">
        <ele>41.9547</ele>
        <time>2012-10-08T18:25:13Z</time>
      </trkpt>
      <trkpt lat="59.9759449" lon="17.7417256">
        <ele>41.9547</ele>
        <time>2012-10-08T18:25:14Z</time>
      </trkpt>
      <trkpt lat="59.9759372" lon="17.7417739">
        <ele>40.9934</ele>
        <time>2012-10-08T18:25:15Z</time>
      </trkpt>
      <trkpt lat="59.975929" lon="17.7418158">
        <ele>40.5128</ele>
        <time>2012-10-08T18:25:16Z</time>
      </trkpt>
      <trkpt lat="59.9759193" lon="17.7418587">
        <ele>40.5128</ele>
        <time>2012-10-08T18:25:17Z</time>
      </trkpt>
      <trkpt lat="59.9759074" lon="17.7419055">
        <ele>40.5128</ele>
        <time>2012-10-08T18:25:18Z</time>
      </trkpt>
      <trkpt lat="59.9758954" lon="17.7419511">
        <ele>40.0321</ele>
        <time>2012-10-08T18:25:19Z</time>
      </trkpt>
      <trkpt lat="59.9758819" lon="17.7419901">
        <ele>39.5513</ele>
        <time>2012-10-08T18:25:20Z</time>
      </trkpt>
      <trkpt lat="59.975872" lon="17.7420278">
        <ele>39.5513</ele>
        <time>2012-10-08T18:25:21Z</time>
      </trkpt>
      <trkpt lat="59.9758637" lon="17.7420702">
        <ele>39.0707</ele>
        <time>2012-10-08T18:25:22Z</time>
      </trkpt>
      <trkpt lat="59.9758502" lon="17.7421104">
        <ele>39.0707</ele>
        <time>2012-10-08T18:25:23Z</time>
      </trkpt>
      <trkpt lat="59.9758345" lon="17.7421562">
        <ele>40.0321</ele>
        <time>2012-10-08T18:25:24Z</time>
      </trkpt>
      <trkpt lat="59.9758234" lon="17.7422008">
        <ele>40.0321</ele>
        <time>2012-10-08T18:25:25Z</time>
      </trkpt>
      <trkpt lat="59.9758125" lon="17.7422464">
        <ele>40.5128</ele>
        <time>2012-10-08T18:25:26Z</time>
      </trkpt>
      <trkpt lat="59.9758021" lon="17.7422982">
        <ele>40.9934</ele>
        <time>2012-10-08T18:25:27Z</time>
      </trkpt>
      <trkpt lat="59.9757923" lon="17.7423443">
        <ele>41.474</ele>
        <time>2012-10-08T18:25:28Z</time>
      </trkpt>
      <trkpt lat="59.9757827" lon="17.7423842">
        <ele>41.9547</ele>
        <time>2012-10-08T18:25:29Z</time>
      </trkpt>
      <trkpt lat="59.9757665" lon="17.7424275">
        <ele>42.4354</ele>
        <time>2012-10-08T18:25:30Z</time>
      </trkpt>
      <trkpt lat="59.9757519" lon="17.7424726">
        <ele>41.474</ele>
        <time>2012-10-08T18:25:31Z</time>
      </trkpt>
      <trkpt lat="59.975741" lon="17.7425171">
        <ele>41.9547</ele>
        <time>2012-10-08T18:25:32Z</time>
      </trkpt>
      <trkpt lat="59.9757291" lon="17.7425635">
        <ele>41.474</ele>
        <time>2012-10-08T18:25:33Z</time>
      </trkpt>
      <trkpt lat="59.9757188" lon="17.742609">
        <ele>40.9934</ele>
        <time>2012-10-08T18:25:34Z</time>
      </trkpt>
      <trkpt lat="59.9757097" lon="17.7426545">
        <ele>40.9934</ele>
        <time>2012-10-08T18:25:35Z</time>
      </trkpt>
      <trkpt lat="59.9756989" lon="17.7426996">
        <ele>40.9934</ele>
        <time>2012-10-08T18:25:36Z</time>
      </trkpt>
      <trkpt lat="59.9756891" lon="17.7427463">
        <ele>40.9934</ele>
        <time>2012-10-08T18:25:37Z</time>
      </trkpt>
      <trkpt lat="59.9756802" lon="17.7427929">
        <ele>40.9934</ele>
        <time>2012-10-08T18:25:38Z</time>
      </trkpt>
      <trkpt lat="59.9756705" lon="17.7428434">
        <ele>40.0321</ele>
        <time>2012-10-08T18:25:39Z</time>
      </trkpt>
      <trkpt lat="59.9756591" lon="17.7428867">
        <ele>40.0321</ele>
        <time>2012-10-08T18:25:40Z</time>
      </trkpt>
      <trkpt lat="59.9756445" lon="17.7429244">
        <ele>40.5128</ele>
        <time>2012-10-08T18:25:41Z</time>
      </trkpt>
      <trkpt lat="59.9756269" lon="17.7429611">
        <ele>40.5128</ele>
        <time>2012-10-08T18:25:42Z</time>
      </trkpt>
      <trkpt lat="59.9756095" lon="17.7429971">
        <ele>40.0321</ele>
        <time>2012-10-08T18:25:43Z</time>
      </trkpt>
      <trkpt lat="59.975597" lon="17.7430387">
        <ele>39.5513</ele>
        <time>2012-10-08T18:25:44Z</time>
      </trkpt>
      <trkpt lat="59.9755847" lon="17.7430845">
        <ele>39.0707</ele>
        <time>2012-10-08T18:25:45Z</time>
      </trkpt>
      <trkpt lat="59.9755695" lon="17.7431271">
        <ele>39.0707</ele>
        <time>2012-10-08T18:25:46Z</time>
      </trkpt>
      <trkpt lat="59.975557" lon="17.7431731">
        <ele>38.1094</ele>
        <time>2012-10-08T18:25:47Z</time>
      </trkpt>
      <trkpt lat="59.9755456" lon="17.7432203">
        <ele>38.1094</ele>
        <time>2012-10-08T18:25:48Z</time>
      </trkpt>
      <trkpt lat="59.9755307" lon="17.7432651">
        <ele>38.5901</ele>
        <time>2012-10-08T18:25:49Z</time>
      </trkpt>
      <trkpt lat="59.9755147" lon="17.743307">
        <ele>39.0707</ele>
        <time>2012-10-08T18:25:50Z</time>
      </trkpt>
      <trkpt lat="59.9755001" lon="17.7433504">
        <ele>39.0707</ele>
        <time>2012-10-08T18:25:51Z</time>
      </trkpt>
      <trkpt lat="59.9754839" lon="17.743402">
        <ele>39.0707</ele>
        <time>2012-10-08T18:25:52Z</time>
      </trkpt>
      <trkpt lat="59.9754706" lon="17.7434511">
        <ele>39.5513</ele>
        <time>2012-10-08T18:25:53Z</time>
      </trkpt>
      <trkpt lat="59.97546" lon="17.7434994">
        <ele>39.5513</ele>
        <time>2012-10-08T18:25:54Z</time>
      </trkpt>
      <trkpt lat="59.9754495" lon="17.7435472">
        <ele>39.5513</ele>
        <time>2012-10-08T18:25:55Z</time>
      </trkpt>
      <trkpt lat="59.9754421" lon="17.7435828">
        <ele>39.5513</ele>
        <time>2012-10-08T18:25:56Z</time>
      </trkpt>
      <trkpt lat="59.9754394" lon="17.7436149">
        <ele>40.0321</ele>
        <time>2012-10-08T18:25:57Z</time>
      </trkpt>
      <trkpt lat="59.9754326" lon="17.7436574">
        <ele>40.5128</ele>
        <time>2012-10-08T18:25:58Z</time>
      </trkpt>
      <trkpt lat="59.9754188" lon="17.7437012">
        <ele>41.474</ele>
        <time>2012-10-08T18:25:59Z</time>
      </trkpt>
      <trkpt lat="59.9754032" lon="17.7437437">
        <ele>41.9547</ele>
        <time>2012-10-08T18:26:00Z</time>
      </trkpt>
      <trkpt lat="59.9753889" lon="17.7437869">
        <ele>42.4354</ele>
        <time>2012-10-08T18:26:01Z</time>
      </trkpt>
      <trkpt lat="59.9753769" lon="17.7438304">
        <ele>42.4354</ele>
        <time>2012-10-08T18:26:02Z</time>
      </trkpt>
      <trkpt lat="59.9753676" lon="17.7438704">
        <ele>42.916</ele>
        <time>2012-10-08T18:26:03Z</time>
      </trkpt>
      <trkpt lat="59.9753576" lon="17.7439142">
        <ele>43.3966</ele>
        <time>2012-10-08T18:26:04Z</time>
      </trkpt>
      <trkpt lat="59.9753466" lon="17.7439568">
        <ele>43.3966</ele>
        <time>2012-10-08T18:26:05Z</time>
      </trkpt>
      <trkpt lat="59.9753378" lon="17.7440029">
        <ele>43.3966</ele>
        <time>2012-10-08T18:26:06Z</time>
      </trkpt>
      <trkpt lat="59.9753269" lon="17.7440527">
        <ele>42.916</ele>
        <time>2012-10-08T18:26:07Z</time>
      </trkpt>
      <trkpt lat="59.9753165" lon="17.7441024">
        <ele>42.4354</ele>
        <time>2012-10-08T18:26:08Z</time>
      </trkpt>
      <trkpt lat="59.9753074" lon="17.7441445">
        <ele>42.4354</ele>
        <time>2012-10-08T18:26:09Z</time>
      </trkpt>
      <trkpt lat="59.9752961" lon="17.7441821">
        <ele>42.916</ele>
        <time>2012-10-08T18:26:10Z</time>
      </trkpt>
      <trkpt lat="59.9752831" lon="17.7442242">
        <ele>42.916</ele>
        <time>2012-10-08T18:26:11Z</time>
      </trkpt>
      <trkpt lat="59.9752758" lon="17.7442721">
        <ele>42.916</ele>
        <time>2012-10-08T18:26:12Z</time>
      </trkpt>
      <trkpt lat="59.9752732" lon="17.7443169">
        <ele>43.3966</ele>
        <time>2012-10-08T18:26:13Z</time>
      </trkpt>
      <trkpt lat="59.9752678" lon="17.7443628">
        <ele>43.3966</ele>
        <time>2012-10-08T18:26:14Z</time>
      </trkpt>
      <trkpt lat="59.9752608" lon="17.7444127">
        <ele>43.3966</ele>
        <time>2012-10-08T18:26:15Z</time>
      </trkpt>
      <trkpt lat="59.9752515" lon="17.7444636">
        <ele>43.3966</ele>
        <time>2012-10-08T18:26:16Z</time>
      </trkpt>
      <trkpt lat="59.9752396" lon="17.7445111">
        <ele>43.3966</ele>
        <time>2012-10-08T18:26:17Z</time>
      </trkpt>
      <trkpt lat="59.9752297" lon="17.7445501">
        <ele>43.3966</ele>
        <time>2012-10-08T18:26:18Z</time>
      </trkpt>
      <trkpt lat="59.9752186" lon="17.7445892">
        <ele>43.3966</ele>
        <time>2012-10-08T18:26:19Z</time>
      </trkpt>
      <trkpt lat="59.9752007" lon="17.7446342">
        <ele>43.3966</ele>
        <time>2012-10-08T18:26:20Z</time>
      </trkpt>
      <trkpt lat="59.9751815" lon="17.7446783">
        <ele>42.916</ele>
        <time>2012-10-08T18:26:21Z</time>
      </trkpt>
      <trkpt lat="59.9751668" lon="17.7447176">
        <ele>42.916</ele>
        <time>2012-10-08T18:26:22Z</time>
      </trkpt>
      <trkpt lat="59.9751546" lon="17.7447566">
        <ele>43.3966</ele>
        <time>2012-10-08T18:26:23Z</time>
      </trkpt>
      <trkpt lat="59.9751417" lon="17.7447961">
        <ele>42.916</ele>
        <time>2012-10-08T18:26:24Z</time>
      </trkpt>
      <trkpt lat="59.9751283" lon="17.7448334">
        <ele>42.916</ele>
        <time>2012-10-08T18:26:25Z</time>
      </trkpt>
      <trkpt lat="59.9751164" lon="17.7448738">
        <ele>43.3966</ele>
        <time>2012-10-08T18:26:26Z</time>
      </trkpt>
      <trkpt lat="59.9751043" lon="17.7449113">
        <ele>42.4354</ele>
        <time>2012-10-08T18:26:27Z</time>
      </trkpt>
      <trkpt lat="59.9750909" lon="17.7449538">
        <ele>41.9547</ele>
        <time>2012-10-08T18:26:28Z</time>
      </trkpt>
      <trkpt lat="59.9750794" lon="17.7450022">
        <ele>41.9547</ele>
        <time>2012-10-08T18:26:29Z</time>
      </trkpt>
      <trkpt lat="59.975065" lon="17.7450497">
        <ele>41.474</ele>
        <time>2012-10-08T18:26:30Z</time>
      </trkpt>
      <trkpt lat="59.9750515" lon="17.7450949">
        <ele>41.474</ele>
        <time>2012-10-08T18:26:31Z</time>
      </trkpt>
      <trkpt lat="59.9750366" lon="17.7451429">
        <ele>40.9934</ele>
        <time>2012-10-08T18:26:32Z</time>
      </trkpt>
      <trkpt lat="59.9750282" lon="17.745186">
        <ele>40.0321</ele>
        <time>2012-10-08T18:26:33Z</time>
      </trkpt>
      <trkpt lat="59.97502" lon="17.7452229">
        <ele>40.0321</ele>
        <time>2012-10-08T18:26:34Z</time>
      </trkpt>
      <trkpt lat="59.975009" lon="17.7452563">
        <ele>39.5513</ele>
        <time>2012-10-08T18:26:35Z</time>
      </trkpt>
      <trkpt lat="59.9749931" lon="17.7452893">
        <ele>39.0707</ele>
        <time>2012-10-08T18:26:36Z</time>
      </trkpt>
      <trkpt lat="59.9749759" lon="17.7453259">
        <ele>38.5901</ele>
        <time>2012-10-08T18:26:37Z</time>
      </trkpt>
      <trkpt lat="59.9749615" lon="17.7453636">
        <ele>38.5901</ele>
        <time>2012-10-08T18:26:38Z</time>
      </trkpt>
      <trkpt lat="59.97495" lon="17.745403">
        <ele>38.5901</ele>
        <time>2012-10-08T18:26:39Z</time>
      </trkpt>
      <trkpt lat="59.9749358" lon="17.7454473">
        <ele>39.5513</ele>
        <time>2012-10-08T18:26:40Z</time>
      </trkpt>
      <trkpt lat="59.9749232" lon="17.7454923">
        <ele>39.5513</ele>
        <time>2012-10-08T18:26:41Z</time>
      </trkpt>
      <trkpt lat="59.9749104" lon="17.7455348">
        <ele>39.5513</ele>
        <time>2012-10-08T18:26:42Z</time>
      </trkpt>
      <trkpt lat="59.9748915" lon="17.7455705">
        <ele>40.0321</ele>
        <time>2012-10-08T18:26:43Z</time>
      </trkpt>
      <trkpt lat="59.9748743" lon="17.7456025">
        <ele>40.5128</ele>
        <time>2012-10-08T18:26:44Z</time>
      </trkpt>
      <trkpt lat="59.9748581" lon="17.745643">
        <ele>40.5128</ele>
        <time>2012-10-08T18:26:45Z</time>
      </trkpt>
      <trkpt lat="59.9748402" lon="17.7456838">
        <ele>40.5128</ele>
        <time>2012-10-08T18:26:46Z</time>
      </trkpt>
      <trkpt lat="59.9748189" lon="17.7457278">
        <ele>40.5128</ele>
        <time>2012-10-08T18:26:47Z</time>
      </trkpt>
      <trkpt lat="59.9748011" lon="17.7457704">
        <ele>40.5128</ele>
        <time>2012-10-08T18:26:48Z</time>
      </trkpt>
      <trkpt lat="59.9747856" lon="17.7458173">
        <ele>40.5128</ele>
        <time>2012-10-08T18:26:49Z</time>
      </trkpt>
      <trkpt lat="59.9747697" lon="17.7458609">
        <ele>40.9934</ele>
        <time>2012-10-08T18:26:50Z</time>
      </trkpt>
      <trkpt lat="59.9747506" lon="17.7458989">
        <ele>40.9934</ele>
        <time>2012-10-08T18:26:51Z</time>
      </trkpt>
      <trkpt lat="59.9747231" lon="17.7459439">
        <ele>41.474</ele>
        <time>2012-10-08T18:26:52Z</time>
      </trkpt>
      <trkpt lat="59.9746946" lon="17.7459904">
        <ele>41.474</ele>
        <time>2012-10-08T18:26:53Z</time>
      </trkpt>
      <trkpt lat="59.974674" lon="17.7460263">
        <ele>41.474</ele>
        <time>2012-10-08T18:26:54Z</time>
      </trkpt>
      <trkpt lat="59.9746578" lon="17.7460632">
        <ele>41.9547</ele>
        <time>2012-10-08T18:26:55Z</time>
      </trkpt>
      <trkpt lat="59.9746397" lon="17.7460957">
        <ele>42.4354</ele>
        <time>2012-10-08T18:26:56Z</time>
      </trkpt>
      <trkpt lat="59.9746205" lon="17.746126">
        <ele>42.916</ele>
        <time>2012-10-08T18:26:57Z</time>
      </trkpt>
      <trkpt lat="59.9745988" lon="17.7461582">
        <ele>42.916</ele>
        <time>2012-10-08T18:26:58Z</time>
      </trkpt>
      <trkpt lat="59.974576" lon="17.7461888">
        <ele>42.916</ele>
        <time>2012-10-08T18:26:59Z</time>
      </trkpt>
      <trkpt lat="59.9745571" lon="17.746217">
        <ele>43.3966</ele>
        <time>2012-10-08T18:27:00Z</time>
      </trkpt>
      <trkpt lat="59.9745352" lon="17.7462464">
        <ele>43.8773</ele>
        <time>2012-10-08T18:27:01Z</time>
      </trkpt>
      <trkpt lat="59.9745121" lon="17.7462734">
        <ele>44.358</ele>
        <time>2012-10-08T18:27:02Z</time>
      </trkpt>
      <trkpt lat="59.9744893" lon="17.7463035">
        <ele>44.8386</ele>
        <time>2012-10-08T18:27:03Z</time>
      </trkpt>
      <trkpt lat="59.9744698" lon="17.7463358">
        <ele>45.3192</ele>
        <time>2012-10-08T18:27:04Z</time>
      </trkpt>
      <trkpt lat="59.9744464" lon="17.7463734">
        <ele>45.7999</ele>
        <time>2012-10-08T18:27:05Z</time>
      </trkpt>
      <trkpt lat="59.9744212" lon="17.7464039">
        <ele>45.7999</ele>
        <time>2012-10-08T18:27:06Z</time>
      </trkpt>
      <trkpt lat="59.9743969" lon="17.7464306">
        <ele>45.3192</ele>
        <time>2012-10-08T18:27:07Z</time>
      </trkpt>
      <trkpt lat="59.9743719" lon="17.7464604">
        <ele>45.7999</ele>
        <time>2012-10-08T18:27:08Z</time>
      </trkpt>
      <trkpt lat="59.9743475" lon="17.7464892">
        <ele>45.7999</ele>
        <time>2012-10-08T18:27:09Z</time>
      </trkpt>
      <trkpt lat="59.9743261" lon="17.7465142">
        <ele>46.2806</ele>
        <time>2012-10-08T18:27:10Z</time>
      </trkpt>
      <trkpt lat="59.9743025" lon="17.7465381">
        <ele>46.2806</ele>
        <time>2012-10-08T18:27:11Z</time>
      </trkpt>
      <trkpt lat="59.974274" lon="17.7465655">
        <ele>46.2806</ele>
        <time>2012-10-08T18:27:12Z</time>
      </trkpt>
      <trkpt lat="59.9742481" lon="17.7465904">
        <ele>46.2806</ele>
        <time>2012-10-08T18:27:13Z</time>
      </trkpt>
      <trkpt lat="59.9742263" lon="17.746609">
        <ele>45.3192</ele>
        <time>2012-10-08T18:27:14Z</time>
      </trkpt>
      <trkpt lat="59.9742009" lon="17.746637">
        <ele>45.3192</ele>
        <time>2012-10-08T18:27:15Z</time>
      </trkpt>
      <trkpt lat="59.9741779" lon="17.7466609">
        <ele>45.3192</ele>
        <time>2012-10-08T18:27:16Z</time>
      </trkpt>
      <trkpt lat="59.9741544" lon="17.7466856">
        <ele>44.8386</ele>
        <time>2012-10-08T18:27:17Z</time>
      </trkpt>
      <trkpt lat="59.9741277" lon="17.7467136">
        <ele>44.8386</ele>
        <time>2012-10-08T18:27:18Z</time>
      </trkpt>
      <trkpt lat="59.9741018" lon="17.74674">
        <ele>44.8386</ele>
        <time>2012-10-08T18:27:19Z</time>
      </trkpt>
      <trkpt lat="59.9740804" lon="17.7467686">
        <ele>44.358</ele>
        <time>2012-10-08T18:27:20Z</time>
      </trkpt>
      <trkpt lat="59.9740563" lon="17.746797">
        <ele>44.8386</ele>
        <time>2012-10-08T18:27:21Z</time>
      </trkpt>
      <trkpt lat="59.9740306" lon="17.7468248">
        <ele>44.8386</ele>
        <time>2012-10-08T18:27:22Z</time>
      </trkpt>
      <trkpt lat="59.9740107" lon="17.7468466">
        <ele>44.358</ele>
        <time>2012-10-08T18:27:23Z</time>
      </trkpt>
      <trkpt lat="59.9739937" lon="17.7468676">
        <ele>44.358</ele>
        <time>2012-10-08T18:27:24Z</time>
      </trkpt>
      <trkpt lat="59.973973" lon="17.7468901">
        <ele>43.8773</ele>
        <time>2012-10-08T18:27:25Z</time>
      </trkpt>
      <trkpt lat="59.9739518" lon="17.7469105">
        <ele>43.3966</ele>
        <time>2012-10-08T18:27:26Z</time>
      </trkpt>
      <trkpt lat="59.9739277" lon="17.7469347">
        <ele>42.916</ele>
        <time>2012-10-08T18:27:27Z</time>
      </trkpt>
      <trkpt lat="59.9739093" lon="17.7469581">
        <ele>42.916</ele>
        <time>2012-10-08T18:27:28Z</time>
      </trkpt>
      <trkpt lat="59.9738901" lon="17.7469867">
        <ele>42.4354</ele>
        <time>2012-10-08T18:27:29Z</time>
      </trkpt>
      <trkpt lat="59.9738715" lon="17.7470105">
        <ele>41.9547</ele>
        <time>2012-10-08T18:27:30Z</time>
      </trkpt>
      <trkpt lat="59.9738495" lon="17.7470364">
        <ele>41.9547</ele>
        <time>2012-10-08T18:27:31Z</time>
      </trkpt>
      <trkpt lat="59.9738252" lon="17.7470613">
        <ele>41.474</ele>
        <time>2012-10-08T18:27:32Z</time>
      </trkpt>
      <trkpt lat="59.9738009" lon="17.7470916">
        <ele>40.9934</ele>
        <time>2012-10-08T18:27:33Z</time>
      </trkpt>
      <trkpt lat="59.973778" lon="17.7471178">
        <ele>40.5128</ele>
        <time>2012-10-08T18:27:34Z</time>
      </trkpt>
      <trkpt lat="59.9737574" lon="17.7471422">
        <ele>39.5513</ele>
        <time>2012-10-08T18:27:35Z</time>
      </trkpt>
      <trkpt lat="59.9737347" lon="17.7471705">
        <ele>40.0321</ele>
        <time>2012-10-08T18:27:36Z</time>
      </trkpt>
      <trkpt lat="59.9737102" lon="17.7471973">
        <ele>40.0321</ele>
        <time>2012-10-08T18:27:37Z</time>
      </trkpt>
      <trkpt lat="59.9736865" lon="17.7472224">
        <ele>40.0321</ele>
        <time>2012-10-08T18:27:38Z</time>
      </trkpt>
      <trkpt lat="59.9736667" lon="17.7472415">
        <ele>39.5513</ele>
        <time>2012-10-08T18:27:39Z</time>
      </trkpt>
      <trkpt lat="59.9736465" lon="17.7472596">
        <ele>39.5513</ele>
        <time>2012-10-08T18:27:40Z</time>
      </trkpt>
      <trkpt lat="59.9736273" lon="17.7472833">
        <ele>39.5513</ele>
        <time>2012-10-08T18:27:41Z</time>
      </trkpt>
      <trkpt lat="59.9736058" lon="17.7473093">
        <ele>39.5513</ele>
        <time>2012-10-08T18:27:42Z</time>
      </trkpt>
      <trkpt lat="59.9735845" lon="17.7473287">
        <ele>39.5513</ele>
        <time>2012-10-08T18:27:43Z</time>
      </trkpt>
      <trkpt lat="59.9735665" lon="17.7473472">
        <ele>39.5513</ele>
        <time>2012-10-08T18:27:44Z</time>
      </trkpt>
      <trkpt lat="59.9735472" lon="17.7473677">
        <ele>39.5513</ele>
        <time>2012-10-08T18:27:45Z</time>
      </trkpt>
      <trkpt lat="59.9735278" lon="17.7473782">
        <ele>39.0707</ele>
        <time>2012-10-08T18:27:46Z</time>
      </trkpt>
      <trkpt lat="59.9735079" lon="17.747398">
        <ele>38.5901</ele>
        <time>2012-10-08T18:27:47Z</time>
      </trkpt>
      <trkpt lat="59.9734902" lon="17.7474224">
        <ele>38.1094</ele>
        <time>2012-10-08T18:27:48Z</time>
      </trkpt>
      <trkpt lat="59.9734696" lon="17.7474399">
        <ele>37.6287</ele>
        <time>2012-10-08T18:27:49Z</time>
      </trkpt>
      <trkpt lat="59.9734396" lon="17.7474669">
        <ele>37.6287</ele>
        <time>2012-10-08T18:27:50Z</time>
      </trkpt>
      <trkpt lat="59.9734152" lon="17.7474973">
        <ele>37.1481</ele>
        <time>2012-10-08T18:27:51Z</time>
      </trkpt>
      <trkpt lat="59.9733969" lon="17.7475203">
        <ele>36.6675</ele>
        <time>2012-10-08T18:27:52Z</time>
      </trkpt>
      <trkpt lat="59.9733769" lon="17.7475426">
        <ele>36.1868</ele>
        <time>2012-10-08T18:27:53Z</time>
      </trkpt>
      <trkpt lat="59.973356" lon="17.7475689">
        <ele>35.2255</ele>
        <time>2012-10-08T18:27:54Z</time>
      </trkpt>
      <trkpt lat="59.9733336" lon="17.7475921">
        <ele>35.2255</ele>
        <time>2012-10-08T18:27:55Z</time>
      </trkpt>
      <trkpt lat="59.9733105" lon="17.7476122">
        <ele>34.7449</ele>
        <time>2012-10-08T18:27:56Z</time>
      </trkpt>
      <trkpt lat="59.9732877" lon="17.7476295">
        <ele>34.2642</ele>
        <time>2012-10-08T18:27:57Z</time>
      </trkpt>
      <trkpt lat="59.9732659" lon="17.7476461">
        <ele>33.7834</ele>
        <time>2012-10-08T18:27:58Z</time>
      </trkpt>
      <trkpt lat="59.973245" lon="17.7476689">
        <ele>33.3029</ele>
        <time>2012-10-08T18:27:59Z</time>
      </trkpt>
      <trkpt lat="59.9732245" lon="17.7476933">
        <ele>33.3029</ele>
        <time>2012-10-08T18:28:00Z</time>
      </trkpt>
      <trkpt lat="59.9732027" lon="17.747719">
        <ele>32.8223</ele>
        <time>2012-10-08T18:28:01Z</time>
      </trkpt>
      <trkpt lat="59.9731794" lon="17.7477465">
        <ele>32.3416</ele>
        <time>2012-10-08T18:28:02Z</time>
      </trkpt>
      <trkpt lat="59.9731588" lon="17.7477718">
        <ele>31.8607</ele>
        <time>2012-10-08T18:28:03Z</time>
      </trkpt>
      <trkpt lat="59.9731359" lon="17.7477954">
        <ele>31.8607</ele>
        <time>2012-10-08T18:28:04Z</time>
      </trkpt>
      <trkpt lat="59.9731114" lon="17.7478174">
        <ele>31.8607</ele>
        <time>2012-10-08T18:28:05Z</time>
      </trkpt>
      <trkpt lat="59.9730919" lon="17.7478357">
        <ele>32.3416</ele>
        <time>2012-10-08T18:28:06Z</time>
      </trkpt>
      <trkpt lat="59.9730754" lon="17.7478449">
        <ele>32.3416</ele>
        <time>2012-10-08T18:28:07Z</time>
      </trkpt>
      <trkpt lat="59.9730551" lon="17.747862">
        <ele>32.8223</ele>
        <time>2012-10-08T18:28:08Z</time>
      </trkpt>
      <trkpt lat="59.9730347" lon="17.7478862">
        <ele>33.3029</ele>
        <time>2012-10-08T18:28:09Z</time>
      </trkpt>
      <trkpt lat="59.9730171" lon="17.7479072">
        <ele>33.3029</ele>
        <time>2012-10-08T18:28:10Z</time>
      </trkpt>
      <trkpt lat="59.9729974" lon="17.7479282">
        <ele>33.3029</ele>
        <time>2012-10-08T18:28:11Z</time>
      </trkpt>
      <trkpt lat="59.9729769" lon="17.7479586">
        <ele>33.3029</ele>
        <time>2012-10-08T18:28:12Z</time>
      </trkpt>
      <trkpt lat="59.9729549" lon="17.7479947">
        <ele>33.3029</ele>
        <time>2012-10-08T18:28:13Z</time>
      </trkpt>
      <trkpt lat="59.9729302" lon="17.748033">
        <ele>33.3029</ele>
        <time>2012-10-08T18:28:14Z</time>
      </trkpt>
      <trkpt lat="59.9729104" lon="17.7480754">
        <ele>33.3029</ele>
        <time>2012-10-08T18:28:15Z</time>
      </trkpt>
      <trkpt lat="59.9728883" lon="17.7481176">
        <ele>34.2642</ele>
        <time>2012-10-08T18:28:16Z</time>
      </trkpt>
      <trkpt lat="59.9728694" lon="17.7481501">
        <ele>34.2642</ele>
        <time>2012-10-08T18:28:17Z</time>
      </trkpt>
      <trkpt lat="59.9728524" lon="17.7481894">
        <ele>34.7449</ele>
        <time>2012-10-08T18:28:18Z</time>
      </trkpt>
      <trkpt lat="59.9728327" lon="17.7482277">
        <ele>34.7449</ele>
        <time>2012-10-08T18:28:19Z</time>
      </trkpt>
      <trkpt lat="59.9728164" lon="17.7482621">
        <ele>35.2255</ele>
        <time>2012-10-08T18:28:20Z</time>
      </trkpt>
      <trkpt lat="59.9728026" lon="17.7482966">
        <ele>35.7061</ele>
        <time>2012-10-08T18:28:21Z</time>
      </trkpt>
      <trkpt lat="59.9727846" lon="17.7483308">
        <ele>35.7061</ele>
        <time>2012-10-08T18:28:22Z</time>
      </trkpt>
      <trkpt lat="59.9727691" lon="17.7483647">
        <ele>35.7061</ele>
        <time>2012-10-08T18:28:23Z</time>
      </trkpt>
      <trkpt lat="59.972753" lon="17.748406">
        <ele>35.7061</ele>
        <time>2012-10-08T18:28:24Z</time>
      </trkpt>
      <trkpt lat="59.9727325" lon="17.748449">
        <ele>35.7061</ele>
        <time>2012-10-08T18:28:25Z</time>
      </trkpt>
      <trkpt lat="59.9727087" lon="17.748496">
        <ele>36.1868</ele>
        <time>2012-10-08T18:28:26Z</time>
      </trkpt>
      <trkpt lat="59.9726868" lon="17.7485443">
        <ele>37.1481</ele>
        <time>2012-10-08T18:28:27Z</time>
      </trkpt>
      <trkpt lat="59.9726618" lon="17.7485851">
        <ele>37.6287</ele>
        <time>2012-10-08T18:28:28Z</time>
      </trkpt>
      <trkpt lat="59.9726477" lon="17.7486219">
        <ele>38.1094</ele>
        <time>2012-10-08T18:28:29Z</time>
      </trkpt>
      <trkpt lat="59.9726384" lon="17.7486639">
        <ele>38.5901</ele>
        <time>2012-10-08T18:28:30Z</time>
      </trkpt>
      <trkpt lat="59.972625" lon="17.7487038">
        <ele>39.0707</ele>
        <time>2012-10-08T18:28:31Z</time>
      </trkpt>
      <trkpt lat="59.972604" lon="17.7487479">
        <ele>39.5513</ele>
        <time>2012-10-08T18:28:32Z</time>
      </trkpt>
      <trkpt lat="59.972578" lon="17.7487907">
        <ele>40.5128</ele>
        <time>2012-10-08T18:28:33Z</time>
      </trkpt>
      <trkpt lat="59.9725564" lon="17.7488256">
        <ele>40.5128</ele>
        <time>2012-10-08T18:28:34Z</time>
      </trkpt>
      <trkpt lat="59.9725469" lon="17.7488629">
        <ele>40.9934</ele>
        <time>2012-10-08T18:28:35Z</time>
      </trkpt>
      <trkpt lat="59.9725387" lon="17.748892">
        <ele>41.474</ele>
        <time>2012-10-08T18:28:36Z</time>
      </trkpt>
      <trkpt lat="59.9725296" lon="17.7489202">
        <ele>41.9547</ele>
        <time>2012-10-08T18:28:37Z</time>
      </trkpt>
      <trkpt lat="59.9725183" lon="17.7489516">
        <ele>41.9547</ele>
        <time>2012-10-08T18:28:38Z</time>
      </trkpt>
      <trkpt lat="59.9725048" lon="17.7489875">
        <ele>41.474</ele>
        <time>2012-10-08T18:28:39Z</time>
      </trkpt>
      <trkpt lat="59.9724894" lon="17.7490318">
        <ele>41.9547</ele>
        <time>2012-10-08T18:28:40Z</time>
      </trkpt>
      <trkpt lat="59.9724725" lon="17.7490689">
        <ele>42.4354</ele>
        <time>2012-10-08T18:28:41Z</time>
      </trkpt>
      <trkpt lat="59.97246" lon="17.7491048">
        <ele>42.4354</ele>
        <time>2012-10-08T18:28:42Z</time>
      </trkpt>
      <trkpt lat="59.972448" lon="17.7491448">
        <ele>42.4354</ele>
        <time>2012-10-08T18:28:43Z</time>
      </trkpt>
      <trkpt lat="59.9724312" lon="17.7491773">
        <ele>42.4354</ele>
        <time>2012-10-08T18:28:44Z</time>
      </trkpt>
      <trkpt lat="59.9724118" lon="17.7492129">
        <ele>42.4354</ele>
        <time>2012-10-08T18:28:45Z</time>
      </trkpt>
      <trkpt lat="59.9723895" lon="17.7492529">
        <ele>42.4354</ele>
        <time>2012-10-08T18:28:46Z</time>
      </trkpt>
      <trkpt lat="59.9723685" lon="17.7492911">
        <ele>42.4354</ele>
        <time>2012-10-08T18:28:47Z</time>
      </trkpt>
      <trkpt lat="59.9723501" lon="17.7493289">
        <ele>42.4354</ele>
        <time>2012-10-08T18:28:48Z</time>
      </trkpt>
      <trkpt lat="59.9723308" lon="17.7493758">
        <ele>42.4354</ele>
        <time>2012-10-08T18:28:49Z</time>
      </trkpt>
      <trkpt lat="59.9723112" lon="17.7494176">
        <ele>41.9547</ele>
        <time>2012-10-08T18:28:50Z</time>
      </trkpt>
      <trkpt lat="59.9722916" lon="17.7494563">
        <ele>41.9547</ele>
        <time>2012-10-08T18:28:51Z</time>
      </trkpt>
      <trkpt lat="59.9722776" lon="17.7494955">
        <ele>41.9547</ele>
        <time>2012-10-08T18:28:52Z</time>
      </trkpt>
      <trkpt lat="59.972266" lon="17.7495327">
        <ele>41.474</ele>
        <time>2012-10-08T18:28:53Z</time>
      </trkpt>
      <trkpt lat="59.9722489" lon="17.7495699">
        <ele>41.9547</ele>
        <time>2012-10-08T18:28:54Z</time>
      </trkpt>
      <trkpt lat="59.9722304" lon="17.7496099">
        <ele>41.9547</ele>
        <time>2012-10-08T18:28:55Z</time>
      </trkpt>
      <trkpt lat="59.9722159" lon="17.749658">
        <ele>41.9547</ele>
        <time>2012-10-08T18:28:56Z</time>
      </trkpt>
      <trkpt lat="59.9722129" lon="17.7496964">
        <ele>41.474</ele>
        <time>2012-10-08T18:28:57Z</time>
      </trkpt>
      <trkpt lat="59.9722092" lon="17.7497325">
        <ele>41.474</ele>
        <time>2012-10-08T18:28:58Z</time>
      </trkpt>
      <trkpt lat="59.9722039" lon="17.7497585">
        <ele>41.474</ele>
        <time>2012-10-08T18:28:59Z</time>
      </trkpt>
      <trkpt lat="59.9721926" lon="17.7497927">
        <ele>41.9547</ele>
        <time>2012-10-08T18:29:00Z</time>
      </trkpt>
      <trkpt lat="59.9721819" lon="17.7498307">
        <ele>42.4354</ele>
        <time>2012-10-08T18:29:01Z</time>
      </trkpt>
      <trkpt lat="59.9721715" lon="17.7498668">
        <ele>41.9547</ele>
        <time>2012-10-08T18:29:02Z</time>
      </trkpt>
      <trkpt lat="59.9721564" lon="17.7499008">
        <ele>40.9934</ele>
        <time>2012-10-08T18:29:03Z</time>
      </trkpt>
      <trkpt lat="59.9721372" lon="17.7499374">
        <ele>40.0321</ele>
        <time>2012-10-08T18:29:04Z</time>
      </trkpt>
      <trkpt lat="59.9721202" lon="17.7499816">
        <ele>39.0707</ele>
        <time>2012-10-08T18:29:05Z</time>
      </trkpt>
      <trkpt lat="59.9721046" lon="17.7500227">
        <ele>39.0707</ele>
        <time>2012-10-08T18:29:06Z</time>
      </trkpt>
      <trkpt lat="59.9720885" lon="17.7500521">
        <ele>38.1094</ele>
        <time>2012-10-08T18:29:07Z</time>
      </trkpt>
      <trkpt lat="59.9720684" lon="17.7500868">
        <ele>37.6287</ele>
        <time>2012-10-08T18:29:08Z</time>
      </trkpt>
      <trkpt lat="59.9720498" lon="17.7501186">
        <ele>37.1481</ele>
        <time>2012-10-08T18:29:09Z</time>
      </trkpt>
      <trkpt lat="59.9720346" lon="17.7501547">
        <ele>36.6675</ele>
        <time>2012-10-08T18:29:10Z</time>
      </trkpt>
      <trkpt lat="59.9720239" lon="17.7501974">
        <ele>36.1868</ele>
        <time>2012-10-08T18:29:11Z</time>
      </trkpt>
      <trkpt lat="59.9720107" lon="17.750239">
        <ele>36.1868</ele>
        <time>2012-10-08T18:29:12Z</time>
      </trkpt>
      <trkpt lat="59.9719932" lon="17.7502744">
        <ele>35.7061</ele>
        <time>2012-10-08T18:29:13Z</time>
      </trkpt>
      <trkpt lat="59.9719752" lon="17.7503065">
        <ele>35.2255</ele>
        <time>2012-10-08T18:29:14Z</time>
      </trkpt>
      <trkpt lat="59.9719588" lon="17.7503434">
        <ele>34.7449</ele>
        <time>2012-10-08T18:29:15Z</time>
      </trkpt>
      <trkpt lat="59.9719376" lon="17.750386">
        <ele>34.2642</ele>
        <time>2012-10-08T18:29:16Z</time>
      </trkpt>
      <trkpt lat="59.9719189" lon="17.7504252">
        <ele>33.3029</ele>
        <time>2012-10-08T18:29:17Z</time>
      </trkpt>
      <trkpt lat="59.9719058" lon="17.7504611">
        <ele>32.8223</ele>
        <time>2012-10-08T18:29:18Z</time>
      </trkpt>
      <trkpt lat="59.9718959" lon="17.7504996">
        <ele>32.3416</ele>
        <time>2012-10-08T18:29:19Z</time>
      </trkpt>
      <trkpt lat="59.9718844" lon="17.7505325">
        <ele>31.8607</ele>
        <time>2012-10-08T18:29:20Z</time>
      </trkpt>
      <trkpt lat="59.9718668" lon="17.7505703">
        <ele>31.3801</ele>
        <time>2012-10-08T18:29:21Z</time>
      </trkpt>
      <trkpt lat="59.9718461" lon="17.750605">
        <ele>31.3801</ele>
        <time>2012-10-08T18:29:22Z</time>
      </trkpt>
      <trkpt lat="59.9718217" lon="17.7506364">
        <ele>30.4188</ele>
        <time>2012-10-08T18:29:23Z</time>
      </trkpt>
      <trkpt lat="59.9717957" lon="17.7506734">
        <ele>30.4188</ele>
        <time>2012-10-08T18:29:24Z</time>
      </trkpt>
      <trkpt lat="59.9717725" lon="17.7507173">
        <ele>29.9381</ele>
        <time>2012-10-08T18:29:25Z</time>
      </trkpt>
      <trkpt lat="59.97175" lon="17.7507569">
        <ele>29.4575</ele>
        <time>2012-10-08T18:29:26Z</time>
      </trkpt>
      <trkpt lat="59.971728" lon="17.7507869">
        <ele>28.9769</ele>
        <time>2012-10-08T18:29:27Z</time>
      </trkpt>
      <trkpt lat="59.9717031" lon="17.7508167">
        <ele>28.9769</ele>
        <time>2012-10-08T18:29:28Z</time>
      </trkpt>
      <trkpt lat="59.9716788" lon="17.7508515">
        <ele>28.9769</ele>
        <time>2012-10-08T18:29:29Z</time>
      </trkpt>
      <trkpt lat="59.9716558" lon="17.7508872">
        <ele>28.9769</ele>
        <time>2012-10-08T18:29:30Z</time>
      </trkpt>
      <trkpt lat="59.9716342" lon="17.7509102">
        <ele>28.9769</ele>
        <time>2012-10-08T18:29:31Z</time>
      </trkpt>
      <trkpt lat="59.9716155" lon="17.750936">
        <ele>28.4962</ele>
        <time>2012-10-08T18:29:32Z</time>
      </trkpt>
      <trkpt lat="59.9715923" lon="17.750962">
        <ele>28.0155</ele>
        <time>2012-10-08T18:29:33Z</time>
      </trkpt>
      <trkpt lat="59.9715677" lon="17.7509902">
        <ele>27.5349</ele>
        <time>2012-10-08T18:29:34Z</time>
      </trkpt>
      <trkpt lat="59.9715444" lon="17.7510185">
        <ele>27.5349</ele>
        <time>2012-10-08T18:29:35Z</time>
      </trkpt>
      <trkpt lat="59.9715243" lon="17.7510411">
        <ele>27.0543</ele>
        <time>2012-10-08T18:29:36Z</time>
      </trkpt>
      <trkpt lat="59.9715038" lon="17.7510634">
        <ele>27.0543</ele>
        <time>2012-10-08T18:29:37Z</time>
      </trkpt>
      <trkpt lat="59.9714809" lon="17.7510966">
        <ele>27.0543</ele>
        <time>2012-10-08T18:29:38Z</time>
      </trkpt>
      <trkpt lat="59.9714568" lon="17.7511256">
        <ele>26.5736</ele>
        <time>2012-10-08T18:29:39Z</time>
      </trkpt>
      <trkpt lat="59.9714285" lon="17.7511555">
        <ele>26.0929</ele>
        <time>2012-10-08T18:29:40Z</time>
      </trkpt>
      <trkpt lat="59.971398" lon="17.7511883">
        <ele>26.0929</ele>
        <time>2012-10-08T18:29:41Z</time>
      </trkpt>
      <trkpt lat="59.9713731" lon="17.7512207">
        <ele>26.0929</ele>
        <time>2012-10-08T18:29:42Z</time>
      </trkpt>
      <trkpt lat="59.9713503" lon="17.7512533">
        <ele>26.0929</ele>
        <time>2012-10-08T18:29:43Z</time>
      </trkpt>
      <trkpt lat="59.971325" lon="17.7512846">
        <ele>26.0929</ele>
        <time>2012-10-08T18:29:44Z</time>
      </trkpt>
      <trkpt lat="59.9712991" lon="17.7513072">
        <ele>26.5736</ele>
        <time>2012-10-08T18:29:45Z</time>
      </trkpt>
      <trkpt lat="59.9712759" lon="17.7513285">
        <ele>27.0543</ele>
        <time>2012-10-08T18:29:46Z</time>
      </trkpt>
      <trkpt lat="59.9712531" lon="17.7513561">
        <ele>26.5736</ele>
        <time>2012-10-08T18:29:47Z</time>
      </trkpt>
      <trkpt lat="59.9712296" lon="17.751388">
        <ele>27.0543</ele>
        <time>2012-10-08T18:29:48Z</time>
      </trkpt>
      <trkpt lat="59.9712078" lon="17.7514136">
        <ele>27.0543</ele>
        <time>2012-10-08T18:29:49Z</time>
      </trkpt>
      <trkpt lat="59.9711861" lon="17.7514424">
        <ele>27.0543</ele>
        <time>2012-10-08T18:29:50Z</time>
      </trkpt>
      <trkpt lat="59.9711654" lon="17.7514633">
        <ele>27.0543</ele>
        <time>2012-10-08T18:29:51Z</time>
      </trkpt>
      <trkpt lat="59.9711474" lon="17.7514792">
        <ele>27.5349</ele>
        <time>2012-10-08T18:29:52Z</time>
      </trkpt>
      <trkpt lat="59.97113" lon="17.7514968">
        <ele>27.5349</ele>
        <time>2012-10-08T18:29:53Z</time>
      </trkpt>
      <trkpt lat="59.9711079" lon="17.7515165">
        <ele>28.0155</ele>
        <time>2012-10-08T18:29:54Z</time>
      </trkpt>
      <trkpt lat="59.9710885" lon="17.7515219">
        <ele>29.4575</ele>
        <time>2012-10-08T18:29:55Z</time>
      </trkpt>
      <trkpt lat="59.9710695" lon="17.7515341">
        <ele>29.9381</ele>
        <time>2012-10-08T18:29:56Z</time>
      </trkpt>
      <trkpt lat="59.9710445" lon="17.7515482">
        <ele>30.8995</ele>
        <time>2012-10-08T18:29:57Z</time>
      </trkpt>
      <trkpt lat="59.971021" lon="17.7515707">
        <ele>30.8995</ele>
        <time>2012-10-08T18:29:58Z</time>
      </trkpt>
      <trkpt lat="59.9710027" lon="17.7515952">
        <ele>31.3801</ele>
        <time>2012-10-08T18:29:59Z</time>
      </trkpt>
      <trkpt lat="59.9709852" lon="17.7516089">
        <ele>31.3801</ele>
        <time>2012-10-08T18:30:00Z</time>
      </trkpt>
      <trkpt lat="59.9709655" lon="17.7516322">
        <ele>31.3801</ele>
        <time>2012-10-08T18:30:01Z</time>
      </trkpt>
      <trkpt lat="59.9709437" lon="17.751661">
        <ele>31.8607</ele>
        <time>2012-10-08T18:30:02Z</time>
      </trkpt>
      <trkpt lat="59.9709256" lon="17.7516766">
        <ele>32.3416</ele>
        <time>2012-10-08T18:30:03Z</time>
      </trkpt>
      <trkpt lat="59.9709122" lon="17.7516871">
        <ele>32.8223</ele>
        <time>2012-10-08T18:30:04Z</time>
      </trkpt>
      <trkpt lat="59.970901" lon="17.7516959">
        <ele>32.8223</ele>
        <time>2012-10-08T18:30:05Z</time>
      </trkpt>
      <trkpt lat="59.9708879" lon="17.7517072">
        <ele>33.3029</ele>
        <time>2012-10-08T18:30:06Z</time>
      </trkpt>
      <trkpt lat="59.9708744" lon="17.7517296">
        <ele>32.8223</ele>
        <time>2012-10-08T18:30:07Z</time>
      </trkpt>
      <trkpt lat="59.9708602" lon="17.7517706">
        <ele>33.3029</ele>
        <time>2012-10-08T18:30:08Z</time>
      </trkpt>
      <trkpt lat="59.9708422" lon="17.7518004">
        <ele>34.2642</ele>
        <time>2012-10-08T18:30:09Z</time>
      </trkpt>
      <trkpt lat="59.9708233" lon="17.7518311">
        <ele>34.2642</ele>
        <time>2012-10-08T18:30:10Z</time>
      </trkpt>
      <trkpt lat="59.9708038" lon="17.7518689">
        <ele>35.2255</ele>
        <time>2012-10-08T18:30:11Z</time>
      </trkpt>
      <trkpt lat="59.9707817" lon="17.7519117">
        <ele>35.7061</ele>
        <time>2012-10-08T18:30:12Z</time>
      </trkpt>
      <trkpt lat="59.9707594" lon="17.7519518">
        <ele>35.2255</ele>
        <time>2012-10-08T18:30:13Z</time>
      </trkpt>
      <trkpt lat="59.9707359" lon="17.7519941">
        <ele>36.1868</ele>
        <time>2012-10-08T18:30:14Z</time>
      </trkpt>
      <trkpt lat="59.970713" lon="17.7520337">
        <ele>36.6675</ele>
        <time>2012-10-08T18:30:15Z</time>
      </trkpt>
      <trkpt lat="59.970694" lon="17.7520626">
        <ele>38.1094</ele>
        <time>2012-10-08T18:30:16Z</time>
      </trkpt>
      <trkpt lat="59.9706801" lon="17.752085">
        <ele>39.0707</ele>
        <time>2012-10-08T18:30:17Z</time>
      </trkpt>
      <trkpt lat="59.9706614" lon="17.7521256">
        <ele>38.5901</ele>
        <time>2012-10-08T18:30:18Z</time>
      </trkpt>
      <trkpt lat="59.970636" lon="17.7521774">
        <ele>39.5513</ele>
        <time>2012-10-08T18:30:19Z</time>
      </trkpt>
      <trkpt lat="59.9706115" lon="17.7522192">
        <ele>40.0321</ele>
        <time>2012-10-08T18:30:20Z</time>
      </trkpt>
      <trkpt lat="59.9705971" lon="17.7522527">
        <ele>39.5513</ele>
        <time>2012-10-08T18:30:21Z</time>
      </trkpt>
      <trkpt lat="59.9705827" lon="17.7522921">
        <ele>39.5513</ele>
        <time>2012-10-08T18:30:22Z</time>
      </trkpt>
      <trkpt lat="59.9705675" lon="17.7523264">
        <ele>40.0321</ele>
        <time>2012-10-08T18:30:23Z</time>
      </trkpt>
      <trkpt lat="59.9705547" lon="17.7523562">
        <ele>40.0321</ele>
        <time>2012-10-08T18:30:24Z</time>
      </trkpt>
      <trkpt lat="59.9705433" lon="17.7523946">
        <ele>40.0321</ele>
        <time>2012-10-08T18:30:25Z</time>
      </trkpt>
      <trkpt lat="59.9705284" lon="17.7524321">
        <ele>40.0321</ele>
        <time>2012-10-08T18:30:26Z</time>
      </trkpt>
      <trkpt lat="59.9705123" lon="17.7524688">
        <ele>40.5128</ele>
        <time>2012-10-08T18:30:27Z</time>
      </trkpt>
      <trkpt lat="59.9704957" lon="17.7525111">
        <ele>40.0321</ele>
        <time>2012-10-08T18:30:28Z</time>
      </trkpt>
      <trkpt lat="59.9704783" lon="17.752553">
        <ele>40.5128</ele>
        <time>2012-10-08T18:30:29Z</time>
      </trkpt>
      <trkpt lat="59.9704621" lon="17.7525976">
        <ele>40.9934</ele>
        <time>2012-10-08T18:30:30Z</time>
      </trkpt>
      <trkpt lat="59.9704484" lon="17.7526382">
        <ele>40.9934</ele>
        <time>2012-10-08T18:30:31Z</time>
      </trkpt>
      <trkpt lat="59.9704358" lon="17.752674">
        <ele>40.9934</ele>
        <time>2012-10-08T18:30:32Z</time>
      </trkpt>
      <trkpt lat="59.970421" lon="17.7527127">
        <ele>40.9934</ele>
        <time>2012-10-08T18:30:33Z</time>
      </trkpt>
      <trkpt lat="59.9704007" lon="17.7527582">
        <ele>41.9547</ele>
        <time>2012-10-08T18:30:34Z</time>
      </trkpt>
      <trkpt lat="59.9703812" lon="17.7528048">
        <ele>41.9547</ele>
        <time>2012-10-08T18:30:35Z</time>
      </trkpt>
      <trkpt lat="59.9703685" lon="17.7528561">
        <ele>41.474</ele>
        <time>2012-10-08T18:30:36Z</time>
      </trkpt>
      <trkpt lat="59.9703558" lon="17.7529061">
        <ele>41.474</ele>
        <time>2012-10-08T18:30:37Z</time>
      </trkpt>
      <trkpt lat="59.9703392" lon="17.7529562">
        <ele>41.9547</ele>
        <time>2012-10-08T18:30:38Z</time>
      </trkpt>
      <trkpt lat="59.9703257" lon="17.7530029">
        <ele>41.9547</ele>
        <time>2012-10-08T18:30:39Z</time>
      </trkpt>
      <trkpt lat="59.9703122" lon="17.7530482">
        <ele>41.9547</ele>
        <time>2012-10-08T18:30:40Z</time>
      </trkpt>
      <trkpt lat="59.9702993" lon="17.7530954">
        <ele>41.9547</ele>
        <time>2012-10-08T18:30:41Z</time>
      </trkpt>
      <trkpt lat="59.9702904" lon="17.7531437">
        <ele>41.9547</ele>
        <time>2012-10-08T18:30:42Z</time>
      </trkpt>
      <trkpt lat="59.9702843" lon="17.7531881">
        <ele>41.9547</ele>
        <time>2012-10-08T18:30:43Z</time>
      </trkpt>
      <trkpt lat="59.9702713" lon="17.7532297">
        <ele>41.9547</ele>
        <time>2012-10-08T18:30:44Z</time>
      </trkpt>
      <trkpt lat="59.9702585" lon="17.7532739">
        <ele>41.474</ele>
        <time>2012-10-08T18:30:45Z</time>
      </trkpt>
      <trkpt lat="59.9702419" lon="17.7533172">
        <ele>41.9547</ele>
        <time>2012-10-08T18:30:46Z</time>
      </trkpt>
      <trkpt lat="59.9702253" lon="17.753355">
        <ele>41.474</ele>
        <time>2012-10-08T18:30:47Z</time>
      </trkpt>
      <trkpt lat="59.9702121" lon="17.7533882">
        <ele>40.9934</ele>
        <time>2012-10-08T18:30:48Z</time>
      </trkpt>
      <trkpt lat="59.9702015" lon="17.7534241">
        <ele>40.9934</ele>
        <time>2012-10-08T18:30:49Z</time>
      </trkpt>
      <trkpt lat="59.9701906" lon="17.7534628">
        <ele>40.5128</ele>
        <time>2012-10-08T18:30:50Z</time>
      </trkpt>
      <trkpt lat="59.9701786" lon="17.7535023">
        <ele>40.5128</ele>
        <time>2012-10-08T18:30:51Z</time>
      </trkpt>
      <trkpt lat="59.9701706" lon="17.753544">
        <ele>40.0321</ele>
        <time>2012-10-08T18:30:52Z</time>
      </trkpt>
      <trkpt lat="59.9701609" lon="17.7535823">
        <ele>39.5513</ele>
        <time>2012-10-08T18:30:53Z</time>
      </trkpt>
      <trkpt lat="59.9701449" lon="17.7536194">
        <ele>39.5513</ele>
        <time>2012-10-08T18:30:54Z</time>
      </trkpt>
      <trkpt lat="59.9701302" lon="17.753656">
        <ele>39.0707</ele>
        <time>2012-10-08T18:30:55Z</time>
      </trkpt>
      <trkpt lat="59.9701144" lon="17.7536995">
        <ele>39.0707</ele>
        <time>2012-10-08T18:30:56Z</time>
      </trkpt>
      <trkpt lat="59.970101" lon="17.7537379">
        <ele>39.0707</ele>
        <time>2012-10-08T18:30:57Z</time>
      </trkpt>
      <trkpt lat="59.9700838" lon="17.7537804">
        <ele>38.5901</ele>
        <time>2012-10-08T18:30:58Z</time>
      </trkpt>
      <trkpt lat="59.9700649" lon="17.7538232">
        <ele>38.5901</ele>
        <time>2012-10-08T18:30:59Z</time>
      </trkpt>
      <trkpt lat="59.9700486" lon="17.753862">
        <ele>39.0707</ele>
        <time>2012-10-08T18:31:00Z</time>
      </trkpt>
      <trkpt lat="59.9700313" lon="17.7538964">
        <ele>39.0707</ele>
        <time>2012-10-08T18:31:01Z</time>
      </trkpt>
      <trkpt lat="59.9700129" lon="17.7539327">
        <ele>39.0707</ele>
        <time>2012-10-08T18:31:02Z</time>
      </trkpt>
      <trkpt lat="59.9699931" lon="17.7539718">
        <ele>39.5513</ele>
        <time>2012-10-08T18:31:03Z</time>
      </trkpt>
      <trkpt lat="59.9699672" lon="17.7540176">
        <ele>39.5513</ele>
        <time>2012-10-08T18:31:04Z</time>
      </trkpt>
      <trkpt lat="59.969949" lon="17.7540585">
        <ele>38.5901</ele>
        <time>2012-10-08T18:31:05Z</time>
      </trkpt>
      <trkpt lat="59.9699361" lon="17.7540958">
        <ele>38.5901</ele>
        <time>2012-10-08T18:31:06Z</time>
      </trkpt>
      <trkpt lat="59.969921" lon="17.7541348">
        <ele>38.1094</ele>
        <time>2012-10-08T18:31:07Z</time>
      </trkpt>
      <trkpt lat="59.9699016" lon="17.7541715">
        <ele>37.6287</ele>
        <time>2012-10-08T18:31:08Z</time>
      </trkpt>
      <trkpt lat="59.9698807" lon="17.7542087">
        <ele>37.1481</ele>
        <time>2012-10-08T18:31:09Z</time>
      </trkpt>
      <trkpt lat="59.9698631" lon="17.7542414">
        <ele>36.6675</ele>
        <time>2012-10-08T18:31:10Z</time>
      </trkpt>
      <trkpt lat="59.9698444" lon="17.7542751">
        <ele>36.1868</ele>
        <time>2012-10-08T18:31:11Z</time>
      </trkpt>
      <trkpt lat="59.9698239" lon="17.754306">
        <ele>35.7061</ele>
        <time>2012-10-08T18:31:12Z</time>
      </trkpt>
      <trkpt lat="59.9698061" lon="17.7543371">
        <ele>35.2255</ele>
        <time>2012-10-08T18:31:13Z</time>
      </trkpt>
      <trkpt lat="59.9697916" lon="17.7543761">
        <ele>34.7449</ele>
        <time>2012-10-08T18:31:14Z</time>
      </trkpt>
      <trkpt lat="59.9697787" lon="17.7544169">
        <ele>34.7449</ele>
        <time>2012-10-08T18:31:15Z</time>
      </trkpt>
      <trkpt lat="59.9697652" lon="17.7544569">
        <ele>34.7449</ele>
        <time>2012-10-08T18:31:16Z</time>
      </trkpt>
      <trkpt lat="59.9697484" lon="17.7544958">
        <ele>34.7449</ele>
        <time>2012-10-08T18:31:17Z</time>
      </trkpt>
      <trkpt lat="59.9697325" lon="17.7545355">
        <ele>34.7449</ele>
        <time>2012-10-08T18:31:18Z</time>
      </trkpt>
      <trkpt lat="59.9697192" lon="17.7545712">
        <ele>34.2642</ele>
        <time>2012-10-08T18:31:19Z</time>
      </trkpt>
      <trkpt lat="59.9697039" lon="17.7546062">
        <ele>34.2642</ele>
        <time>2012-10-08T18:31:20Z</time>
      </trkpt>
      <trkpt lat="59.9696827" lon="17.7546409">
        <ele>34.2642</ele>
        <time>2012-10-08T18:31:21Z</time>
      </trkpt>
      <trkpt lat="59.9696596" lon="17.7546754">
        <ele>34.2642</ele>
        <time>2012-10-08T18:31:22Z</time>
      </trkpt>
      <trkpt lat="59.9696352" lon="17.7547102">
        <ele>33.7834</ele>
        <time>2012-10-08T18:31:23Z</time>
      </trkpt>
      <trkpt lat="59.9696123" lon="17.7547409">
        <ele>32.8223</ele>
        <time>2012-10-08T18:31:24Z</time>
      </trkpt>
      <trkpt lat="59.9695946" lon="17.7547714">
        <ele>32.8223</ele>
        <time>2012-10-08T18:31:25Z</time>
      </trkpt>
      <trkpt lat="59.9695762" lon="17.7548035">
        <ele>32.3416</ele>
        <time>2012-10-08T18:31:26Z</time>
      </trkpt>
      <trkpt lat="59.9695542" lon="17.7548381">
        <ele>32.3416</ele>
        <time>2012-10-08T18:31:27Z</time>
      </trkpt>
      <trkpt lat="59.9695316" lon="17.7548734">
        <ele>32.8223</ele>
        <time>2012-10-08T18:31:28Z</time>
      </trkpt>
      <trkpt lat="59.9695123" lon="17.7549028">
        <ele>32.8223</ele>
        <time>2012-10-08T18:31:29Z</time>
      </trkpt>
      <trkpt lat="59.9694917" lon="17.754937">
        <ele>32.8223</ele>
        <time>2012-10-08T18:31:30Z</time>
      </trkpt>
      <trkpt lat="59.9694659" lon="17.7549892">
        <ele>33.3029</ele>
        <time>2012-10-08T18:31:31Z</time>
      </trkpt>
      <trkpt lat="59.9694425" lon="17.7550391">
        <ele>33.7834</ele>
        <time>2012-10-08T18:31:32Z</time>
      </trkpt>
      <trkpt lat="59.969424" lon="17.7550807">
        <ele>33.7834</ele>
        <time>2012-10-08T18:31:33Z</time>
      </trkpt>
      <trkpt lat="59.9694083" lon="17.7551192">
        <ele>34.2642</ele>
        <time>2012-10-08T18:31:34Z</time>
      </trkpt>
      <trkpt lat="59.9693929" lon="17.7551562">
        <ele>34.7449</ele>
        <time>2012-10-08T18:31:35Z</time>
      </trkpt>
      <trkpt lat="59.9693742" lon="17.7551912">
        <ele>35.2255</ele>
        <time>2012-10-08T18:31:36Z</time>
      </trkpt>
      <trkpt lat="59.9693571" lon="17.7552247">
        <ele>35.2255</ele>
        <time>2012-10-08T18:31:37Z</time>
      </trkpt>
      <trkpt lat="59.9693436" lon="17.7552584">
        <ele>35.7061</ele>
        <time>2012-10-08T18:31:38Z</time>
      </trkpt>
      <trkpt lat="59.9693297" lon="17.7552926">
        <ele>36.1868</ele>
        <time>2012-10-08T18:31:39Z</time>
      </trkpt>
      <trkpt lat="59.9693218" lon="17.7553178">
        <ele>36.1868</ele>
        <time>2012-10-08T18:31:40Z</time>
      </trkpt>
      <trkpt lat="59.9693118" lon="17.755342">
        <ele>36.6675</ele>
        <time>2012-10-08T18:31:41Z</time>
      </trkpt>
      <trkpt lat="59.9692986" lon="17.7553706">
        <ele>37.6287</ele>
        <time>2012-10-08T18:31:42Z</time>
      </trkpt>
      <trkpt lat="59.9692839" lon="17.7554063">
        <ele>37.6287</ele>
        <time>2012-10-08T18:31:43Z</time>
      </trkpt>
      <trkpt lat="59.9692694" lon="17.7554421">
        <ele>38.1094</ele>
        <time>2012-10-08T18:31:44Z</time>
      </trkpt>
      <trkpt lat="59.9692519" lon="17.7554816">
        <ele>38.5901</ele>
        <time>2012-10-08T18:31:45Z</time>
      </trkpt>
      <trkpt lat="59.9692353" lon="17.7555194">
        <ele>38.1094</ele>
        <time>2012-10-08T18:31:46Z</time>
      </trkpt>
      <trkpt lat="59.9692199" lon="17.7555556">
        <ele>38.5901</ele>
        <time>2012-10-08T18:31:47Z</time>
      </trkpt>
      <trkpt lat="59.9692026" lon="17.7555948">
        <ele>38.5901</ele>
        <time>2012-10-08T18:31:48Z</time>
      </trkpt>
      <trkpt lat="59.9691845" lon="17.7556312">
        <ele>39.0707</ele>
        <time>2012-10-08T18:31:49Z</time>
      </trkpt>
      <trkpt lat="59.9691673" lon="17.7556705">
        <ele>40.0321</ele>
        <time>2012-10-08T18:31:50Z</time>
      </trkpt>
      <trkpt lat="59.9691503" lon="17.75571">
        <ele>40.5128</ele>
        <time>2012-10-08T18:31:51Z</time>
      </trkpt>
      <trkpt lat="59.9691327" lon="17.7557473">
        <ele>40.9934</ele>
        <time>2012-10-08T18:31:52Z</time>
      </trkpt>
      <trkpt lat="59.9691172" lon="17.7557781">
        <ele>41.474</ele>
        <time>2012-10-08T18:31:53Z</time>
      </trkpt>
      <trkpt lat="59.969099" lon="17.7558141">
        <ele>42.4354</ele>
        <time>2012-10-08T18:31:54Z</time>
      </trkpt>
      <trkpt lat="59.9690816" lon="17.7558494">
        <ele>42.4354</ele>
        <time>2012-10-08T18:31:55Z</time>
      </trkpt>
      <trkpt lat="59.9690654" lon="17.7558834">
        <ele>43.3966</ele>
        <time>2012-10-08T18:31:56Z</time>
      </trkpt>
      <trkpt lat="59.9690497" lon="17.7559149">
        <ele>43.3966</ele>
        <time>2012-10-08T18:31:57Z</time>
      </trkpt>
      <trkpt lat="59.9690348" lon="17.7559445">
        <ele>43.8773</ele>
        <time>2012-10-08T18:31:58Z</time>
      </trkpt>
      <trkpt lat="59.9690186" lon="17.7559799">
        <ele>44.358</ele>
        <time>2012-10-08T18:31:59Z</time>
      </trkpt>
      <trkpt lat="59.9690001" lon="17.75602">
        <ele>43.8773</ele>
        <time>2012-10-08T18:32:00Z</time>
      </trkpt>
      <trkpt lat="59.9689799" lon="17.7560689">
        <ele>43.3966</ele>
        <time>2012-10-08T18:32:01Z</time>
      </trkpt>
      <trkpt lat="59.9689634" lon="17.7561031">
        <ele>42.916</ele>
        <time>2012-10-08T18:32:02Z</time>
      </trkpt>
      <trkpt lat="59.9689468" lon="17.7561378">
        <ele>42.916</ele>
        <time>2012-10-08T18:32:03Z</time>
      </trkpt>
      <trkpt lat="59.9689313" lon="17.7561756">
        <ele>42.916</ele>
        <time>2012-10-08T18:32:04Z</time>
      </trkpt>
      <trkpt lat="59.968916" lon="17.7562113">
        <ele>42.916</ele>
        <time>2012-10-08T18:32:05Z</time>
      </trkpt>
      <trkpt lat="59.9688974" lon="17.7562459">
        <ele>42.916</ele>
        <time>2012-10-08T18:32:06Z</time>
      </trkpt>
      <trkpt lat="59.9688799" lon="17.7562787">
        <ele>42.916</ele>
        <time>2012-10-08T18:32:07Z</time>
      </trkpt>
      <trkpt lat="59.9688614" lon="17.7563186">
        <ele>43.3966</ele>
        <time>2012-10-08T18:32:08Z</time>
      </trkpt>
      <trkpt lat="59.968842" lon="17.756359">
        <ele>43.3966</ele>
        <time>2012-10-08T18:32:09Z</time>
      </trkpt>
      <trkpt lat="59.9688276" lon="17.7563876">
        <ele>43.3966</ele>
        <time>2012-10-08T18:32:10Z</time>
      </trkpt>
      <trkpt lat="59.9688131" lon="17.7564205">
        <ele>42.916</ele>
        <time>2012-10-08T18:32:11Z</time>
      </trkpt>
      <trkpt lat="59.9687945" lon="17.75646">
        <ele>42.916</ele>
        <time>2012-10-08T18:32:12Z</time>
      </trkpt>
      <trkpt lat="59.9687725" lon="17.7565035">
        <ele>43.3966</ele>
        <time>2012-10-08T18:32:13Z</time>
      </trkpt>
      <trkpt lat="59.9687549" lon="17.7565424">
        <ele>43.3966</ele>
        <time>2012-10-08T18:32:14Z</time>
      </trkpt>
      <trkpt lat="59.9687368" lon="17.7565792">
        <ele>43.3966</ele>
        <time>2012-10-08T18:32:15Z</time>
      </trkpt>
      <trkpt lat="59.9687137" lon="17.7566218">
        <ele>44.358</ele>
        <time>2012-10-08T18:32:16Z</time>
      </trkpt>
      <trkpt lat="59.9686915" lon="17.7566661">
        <ele>44.8386</ele>
        <time>2012-10-08T18:32:17Z</time>
      </trkpt>
      <trkpt lat="59.9686687" lon="17.7567086">
        <ele>45.3192</ele>
        <time>2012-10-08T18:32:18Z</time>
      </trkpt>
      <trkpt lat="59.96865" lon="17.7567273">
        <ele>45.3192</ele>
        <time>2012-10-08T18:32:19Z</time>
      </trkpt>
      <trkpt lat="59.9686261" lon="17.7567551">
        <ele>45.3192</ele>
        <time>2012-10-08T18:32:20Z</time>
      </trkpt>
      <trkpt lat="59.9686021" lon="17.7567829">
        <ele>44.8386</ele>
        <time>2012-10-08T18:32:21Z</time>
      </trkpt>
      <trkpt lat="59.9685836" lon="17.7568041">
        <ele>43.8773</ele>
        <time>2012-10-08T18:32:22Z</time>
      </trkpt>
      <trkpt lat="59.9685666" lon="17.7568278">
        <ele>44.8386</ele>
        <time>2012-10-08T18:32:23Z</time>
      </trkpt>
      <trkpt lat="59.9685539" lon="17.7568438">
        <ele>45.3192</ele>
        <time>2012-10-08T18:32:24Z</time>
      </trkpt>
      <trkpt lat="59.9685408" lon="17.7568639">
        <ele>44.8386</ele>
        <time>2012-10-08T18:32:25Z</time>
      </trkpt>
      <trkpt lat="59.9685189" lon="17.7568932">
        <ele>44.8386</ele>
        <time>2012-10-08T18:32:26Z</time>
      </trkpt>
      <trkpt lat="59.9684964" lon="17.7569247">
        <ele>44.8386</ele>
        <time>2012-10-08T18:32:27Z</time>
      </trkpt>
      <trkpt lat="59.9684781" lon="17.7569527">
        <ele>45.3192</ele>
        <time>2012-10-08T18:32:28Z</time>
      </trkpt>
      <trkpt lat="59.9684618" lon="17.7569786">
        <ele>45.3192</ele>
        <time>2012-10-08T18:32:29Z</time>
      </trkpt>
      <trkpt lat="59.9684379" lon="17.7570143">
        <ele>45.3192</ele>
        <time>2012-10-08T18:32:30Z</time>
      </trkpt>
      <trkpt lat="59.9684133" lon="17.757048">
        <ele>45.3192</ele>
        <time>2012-10-08T18:32:31Z</time>
      </trkpt>
      <trkpt lat="59.9683934" lon="17.757076">
        <ele>46.2806</ele>
        <time>2012-10-08T18:32:32Z</time>
      </trkpt>
      <trkpt lat="59.9683754" lon="17.757105">
        <ele>45.7999</ele>
        <time>2012-10-08T18:32:33Z</time>
      </trkpt>
      <trkpt lat="59.9683519" lon="17.7571354">
        <ele>46.2806</ele>
        <time>2012-10-08T18:32:34Z</time>
      </trkpt>
      <trkpt lat="59.9683312" lon="17.7571604">
        <ele>45.7999</ele>
        <time>2012-10-08T18:32:35Z</time>
      </trkpt>
      <trkpt lat="59.9683134" lon="17.7571847">
        <ele>46.2806</ele>
        <time>2012-10-08T18:32:36Z</time>
      </trkpt>
      <trkpt lat="59.9682946" lon="17.7572096">
        <ele>45.7999</ele>
        <time>2012-10-08T18:32:37Z</time>
      </trkpt>
      <trkpt lat="59.9682776" lon="17.7572246">
        <ele>46.7612</ele>
        <time>2012-10-08T18:32:38Z</time>
      </trkpt>
      <trkpt lat="59.9682685" lon="17.7572265">
        <ele>46.2806</ele>
        <time>2012-10-08T18:32:39Z</time>
      </trkpt>
      <trkpt lat="59.9682511" lon="17.7572394">
        <ele>46.7612</ele>
        <time>2012-10-08T18:32:40Z</time>
      </trkpt>
      <trkpt lat="59.9682376" lon="17.7572464">
        <ele>46.2806</ele>
        <time>2012-10-08T18:32:41Z</time>
      </trkpt>
      <trkpt lat="59.9682255" lon="17.7572532">
        <ele>45.7999</ele>
        <time>2012-10-08T18:32:42Z</time>
      </trkpt>
      <trkpt lat="59.9682053" lon="17.7572781">
        <ele>45.7999</ele>
        <time>2012-10-08T18:32:43Z</time>
      </trkpt>
      <trkpt lat="59.9681805" lon="17.7573163">
        <ele>45.3192</ele>
        <time>2012-10-08T18:32:44Z</time>
      </trkpt>
      <trkpt lat="59.9681551" lon="17.7573546">
        <ele>44.8386</ele>
        <time>2012-10-08T18:32:45Z</time>
      </trkpt>
      <trkpt lat="59.9681309" lon="17.7573883">
        <ele>44.358</ele>
        <time>2012-10-08T18:32:46Z</time>
      </trkpt>
      <trkpt lat="59.9681082" lon="17.7574209">
        <ele>43.3966</ele>
        <time>2012-10-08T18:32:47Z</time>
      </trkpt>
      <trkpt lat="59.9680913" lon="17.7574472">
        <ele>42.4354</ele>
        <time>2012-10-08T18:32:48Z</time>
      </trkpt>
      <trkpt lat="59.9680747" lon="17.7574702">
        <ele>41.474</ele>
        <time>2012-10-08T18:32:49Z</time>
      </trkpt>
      <trkpt lat="59.9680533" lon="17.7574924">
        <ele>40.5128</ele>
        <time>2012-10-08T18:32:50Z</time>
      </trkpt>
      <trkpt lat="59.9680293" lon="17.7575168">
        <ele>40.0321</ele>
        <time>2012-10-08T18:32:51Z</time>
      </trkpt>
      <trkpt lat="59.9680071" lon="17.7575475">
        <ele>39.5513</ele>
        <time>2012-10-08T18:32:52Z</time>
      </trkpt>
      <trkpt lat="59.9679883" lon="17.7575794">
        <ele>39.5513</ele>
        <time>2012-10-08T18:32:53Z</time>
      </trkpt>
      <trkpt lat="59.9679701" lon="17.7576062">
        <ele>38.5901</ele>
        <time>2012-10-08T18:32:54Z</time>
      </trkpt>
      <trkpt lat="59.96795" lon="17.757627">
        <ele>38.1094</ele>
        <time>2012-10-08T18:32:55Z</time>
      </trkpt>
      <trkpt lat="59.9679314" lon="17.7576396">
        <ele>38.5901</ele>
        <time>2012-10-08T18:32:56Z</time>
      </trkpt>
      <trkpt lat="59.9679112" lon="17.7576566">
        <ele>36.6675</ele>
        <time>2012-10-08T18:32:57Z</time>
      </trkpt>
      <trkpt lat="59.9678853" lon="17.7576861">
        <ele>36.1868</ele>
        <time>2012-10-08T18:32:58Z</time>
      </trkpt>
      <trkpt lat="59.967862" lon="17.7577172">
        <ele>36.6675</ele>
        <time>2012-10-08T18:32:59Z</time>
      </trkpt>
      <trkpt lat="59.9678439" lon="17.7577448">
        <ele>35.7061</ele>
        <time>2012-10-08T18:33:00Z</time>
      </trkpt>
      <trkpt lat="59.9678266" lon="17.7577561">
        <ele>35.2255</ele>
        <time>2012-10-08T18:33:01Z</time>
      </trkpt>
      <trkpt lat="59.9678132" lon="17.757752">
        <ele>34.7449</ele>
        <time>2012-10-08T18:33:02Z</time>
      </trkpt>
      <trkpt lat="59.9677916" lon="17.7577712">
        <ele>34.7449</ele>
        <time>2012-10-08T18:33:03Z</time>
      </trkpt>
      <trkpt lat="59.9677661" lon="17.7578094">
        <ele>33.7834</ele>
        <time>2012-10-08T18:33:04Z</time>
      </trkpt>
      <trkpt lat="59.9677403" lon="17.7578473">
        <ele>33.7834</ele>
        <time>2012-10-08T18:33:05Z</time>
      </trkpt>
      <trkpt lat="59.9677237" lon="17.7578731">
        <ele>33.3029</ele>
        <time>2012-10-08T18:33:06Z</time>
      </trkpt>
      <trkpt lat="59.9677045" lon="17.7578983">
        <ele>33.3029</ele>
        <time>2012-10-08T18:33:07Z</time>
      </trkpt>
      <trkpt lat="59.9676817" lon="17.7579227">
        <ele>32.8223</ele>
        <time>2012-10-08T18:33:08Z</time>
      </trkpt>
      <trkpt lat="59.9676588" lon="17.7579422">
        <ele>33.3029</ele>
        <time>2012-10-08T18:33:09Z</time>
      </trkpt>
      <trkpt lat="59.9676368" lon="17.7579575">
        <ele>32.8223</ele>
        <time>2012-10-08T18:33:10Z</time>
      </trkpt>
      <trkpt lat="59.9676148" lon="17.7579774">
        <ele>31.8607</ele>
        <time>2012-10-08T18:33:11Z</time>
      </trkpt>
      <trkpt lat="59.9675916" lon="17.7580023">
        <ele>32.3416</ele>
        <time>2012-10-08T18:33:12Z</time>
      </trkpt>
      <trkpt lat="59.9675747" lon="17.7580147">
        <ele>32.8223</ele>
        <time>2012-10-08T18:33:13Z</time>
      </trkpt>
      <trkpt lat="59.9675554" lon="17.7580295">
        <ele>32.8223</ele>
        <time>2012-10-08T18:33:14Z</time>
      </trkpt>
      <trkpt lat="59.9675374" lon="17.7580522">
        <ele>32.3416</ele>
        <time>2012-10-08T18:33:15Z</time>
      </trkpt>
      <trkpt lat="59.9675197" lon="17.7580813">
        <ele>32.3416</ele>
        <time>2012-10-08T18:33:16Z</time>
      </trkpt>
      <trkpt lat="59.9674992" lon="17.7581042">
        <ele>32.8223</ele>
        <time>2012-10-08T18:33:17Z</time>
      </trkpt>
      <trkpt lat="59.9674802" lon="17.7581083">
        <ele>33.3029</ele>
        <time>2012-10-08T18:33:18Z</time>
      </trkpt>
      <trkpt lat="59.9674583" lon="17.7581249">
        <ele>33.7834</ele>
        <time>2012-10-08T18:33:19Z</time>
      </trkpt>
      <trkpt lat="59.967436" lon="17.7581499">
        <ele>33.7834</ele>
        <time>2012-10-08T18:33:20Z</time>
      </trkpt>
      <trkpt lat="59.9674094" lon="17.7581814">
        <ele>34.7449</ele>
        <time>2012-10-08T18:33:21Z</time>
      </trkpt>
      <trkpt lat="59.9673855" lon="17.7582119">
        <ele>35.2255</ele>
        <time>2012-10-08T18:33:22Z</time>
      </trkpt>
      <trkpt lat="59.9673615" lon="17.7582462">
        <ele>36.1868</ele>
        <time>2012-10-08T18:33:23Z</time>
      </trkpt>
      <trkpt lat="59.967342" lon="17.7582745">
        <ele>36.1868</ele>
        <time>2012-10-08T18:33:24Z</time>
      </trkpt>
      <trkpt lat="59.9673186" lon="17.7583003">
        <ele>37.6287</ele>
        <time>2012-10-08T18:33:25Z</time>
      </trkpt>
      <trkpt lat="59.9672949" lon="17.758329">
        <ele>37.6287</ele>
        <time>2012-10-08T18:33:26Z</time>
      </trkpt>
      <trkpt lat="59.9672739" lon="17.7583554">
        <ele>38.1094</ele>
        <time>2012-10-08T18:33:27Z</time>
      </trkpt>
      <trkpt lat="59.9672497" lon="17.7583825">
        <ele>38.5901</ele>
        <time>2012-10-08T18:33:28Z</time>
      </trkpt>
      <trkpt lat="59.9672269" lon="17.7584068">
        <ele>39.0707</ele>
        <time>2012-10-08T18:33:29Z</time>
      </trkpt>
      <trkpt lat="59.9672016" lon="17.7584255">
        <ele>39.0707</ele>
        <time>2012-10-08T18:33:30Z</time>
      </trkpt>
      <trkpt lat="59.9671753" lon="17.7584443">
        <ele>39.5513</ele>
        <time>2012-10-08T18:33:31Z</time>
      </trkpt>
      <trkpt lat="59.9671485" lon="17.7584638">
        <ele>40.0321</ele>
        <time>2012-10-08T18:33:32Z</time>
      </trkpt>
      <trkpt lat="59.9671198" lon="17.7584886">
        <ele>40.9934</ele>
        <time>2012-10-08T18:33:33Z</time>
      </trkpt>
      <trkpt lat="59.9670938" lon="17.7585088">
        <ele>41.474</ele>
        <time>2012-10-08T18:33:34Z</time>
      </trkpt>
      <trkpt lat="59.9670672" lon="17.7585234">
        <ele>42.4354</ele>
        <time>2012-10-08T18:33:35Z</time>
      </trkpt>
      <trkpt lat="59.9670389" lon="17.7585397">
        <ele>43.3966</ele>
        <time>2012-10-08T18:33:36Z</time>
      </trkpt>
      <trkpt lat="59.9670136" lon="17.7585624">
        <ele>43.3966</ele>
        <time>2012-10-08T18:33:37Z</time>
      </trkpt>
      <trkpt lat="59.9669903" lon="17.7585931">
        <ele>43.3966</ele>
        <time>2012-10-08T18:33:38Z</time>
      </trkpt>
      <trkpt lat="59.9669626" lon="17.7586236">
        <ele>44.8386</ele>
        <time>2012-10-08T18:33:39Z</time>
      </trkpt>
      <trkpt lat="59.9669377" lon="17.7586417">
        <ele>45.7999</ele>
        <time>2012-10-08T18:33:40Z</time>
      </trkpt>
      <trkpt lat="59.9669157" lon="17.7586621">
        <ele>46.2806</ele>
        <time>2012-10-08T18:33:41Z</time>
      </trkpt>
      <trkpt lat="59.9668883" lon="17.758695">
        <ele>47.2418</ele>
        <time>2012-10-08T18:33:42Z</time>
      </trkpt>
      <trkpt lat="59.96686" lon="17.7587186">
        <ele>47.7225</ele>
        <time>2012-10-08T18:33:43Z</time>
      </trkpt>
      <trkpt lat="59.9668368" lon="17.7587382">
        <ele>48.684</ele>
        <time>2012-10-08T18:33:44Z</time>
      </trkpt>
      <trkpt lat="59.966816" lon="17.7587588">
        <ele>49.1646</ele>
        <time>2012-10-08T18:33:45Z</time>
      </trkpt>
      <trkpt lat="59.9667903" lon="17.7587686">
        <ele>50.126</ele>
        <time>2012-10-08T18:33:46Z</time>
      </trkpt>
      <trkpt lat="59.9667631" lon="17.7587844">
        <ele>50.6066</ele>
        <time>2012-10-08T18:33:47Z</time>
      </trkpt>
      <trkpt lat="59.9667379" lon="17.7587981">
        <ele>51.0872</ele>
        <time>2012-10-08T18:33:48Z</time>
      </trkpt>
      <trkpt lat="59.9667121" lon="17.7588148">
        <ele>51.5679</ele>
        <time>2012-10-08T18:33:49Z</time>
      </trkpt>
      <trkpt lat="59.9666851" lon="17.7588424">
        <ele>52.0486</ele>
        <time>2012-10-08T18:33:50Z</time>
      </trkpt>
      <trkpt lat="59.9666607" lon="17.7588688">
        <ele>52.0486</ele>
        <time>2012-10-08T18:33:51Z</time>
      </trkpt>
      <trkpt lat="59.9666379" lon="17.7588867">
        <ele>52.5292</ele>
        <time>2012-10-08T18:33:52Z</time>
      </trkpt>
      <trkpt lat="59.9666131" lon="17.7589049">
        <ele>52.5292</ele>
        <time>2012-10-08T18:33:53Z</time>
      </trkpt>
      <trkpt lat="59.9665894" lon="17.7589336">
        <ele>52.5292</ele>
        <time>2012-10-08T18:33:54Z</time>
      </trkpt>
      <trkpt lat="59.9665699" lon="17.7589589">
        <ele>52.5292</ele>
        <time>2012-10-08T18:33:55Z</time>
      </trkpt>
      <trkpt lat="59.9665473" lon="17.7589857">
        <ele>52.5292</ele>
        <time>2012-10-08T18:33:56Z</time>
      </trkpt>
      <trkpt lat="59.9665214" lon="17.7590195">
        <ele>52.0486</ele>
        <time>2012-10-08T18:33:57Z</time>
      </trkpt>
      <trkpt lat="59.9664946" lon="17.7590543">
        <ele>51.5679</ele>
        <time>2012-10-08T18:33:58Z</time>
      </trkpt>
      <trkpt lat="59.9664664" lon="17.7590942">
        <ele>51.0872</ele>
        <time>2012-10-08T18:33:59Z</time>
      </trkpt>
      <trkpt lat="59.9664381" lon="17.7591356">
        <ele>51.0872</ele>
        <time>2012-10-08T18:34:00Z</time>
      </trkpt>
      <trkpt lat="59.9664178" lon="17.7591645">
        <ele>50.126</ele>
        <time>2012-10-08T18:34:01Z</time>
      </trkpt>
      <trkpt lat="59.9663976" lon="17.7592029">
        <ele>49.6453</ele>
        <time>2012-10-08T18:34:02Z</time>
      </trkpt>
      <trkpt lat="59.9663769" lon="17.7592341">
        <ele>48.684</ele>
        <time>2012-10-08T18:34:03Z</time>
      </trkpt>
      <trkpt lat="59.9663567" lon="17.7592588">
        <ele>47.7225</ele>
        <time>2012-10-08T18:34:04Z</time>
      </trkpt>
      <trkpt lat="59.9663374" lon="17.7592825">
        <ele>46.7612</ele>
        <time>2012-10-08T18:34:05Z</time>
      </trkpt>
      <trkpt lat="59.9663199" lon="17.7593048">
        <ele>45.3192</ele>
        <time>2012-10-08T18:34:06Z</time>
      </trkpt>
      <trkpt lat="59.9663068" lon="17.7593257">
        <ele>44.358</ele>
        <time>2012-10-08T18:34:07Z</time>
      </trkpt>
      <trkpt lat="59.9662918" lon="17.7593474">
        <ele>43.3966</ele>
        <time>2012-10-08T18:34:08Z</time>
      </trkpt>
      <trkpt lat="59.9662768" lon="17.7593687">
        <ele>41.9547</ele>
        <time>2012-10-08T18:34:09Z</time>
      </trkpt>
      <trkpt lat="59.9662582" lon="17.7593969">
        <ele>40.9934</ele>
        <time>2012-10-08T18:34:10Z</time>
      </trkpt>
      <trkpt lat="59.9662411" lon="17.7594218">
        <ele>40.0321</ele>
        <time>2012-10-08T18:34:11Z</time>
      </trkpt>
      <trkpt lat="59.966228" lon="17.7594437">
        <ele>38.5901</ele>
        <time>2012-10-08T18:34:12Z</time>
      </trkpt>
      <trkpt lat="59.9662163" lon="17.7594705">
        <ele>36.6675</ele>
        <time>2012-10-08T18:34:13Z</time>
      </trkpt>
      <trkpt lat="59.966199" lon="17.7595007">
        <ele>35.2255</ele>
        <time>2012-10-08T18:34:14Z</time>
      </trkpt>
      <trkpt lat="59.9661859" lon="17.7595261">
        <ele>33.7834</ele>
        <time>2012-10-08T18:34:15Z</time>
      </trkpt>
      <trkpt lat="59.9661775" lon="17.7595485">
        <ele>32.8223</ele>
        <time>2012-10-08T18:34:16Z</time>
      </trkpt>
      <trkpt lat="59.9661712" lon="17.7595717">
        <ele>31.8607</ele>
        <time>2012-10-08T18:34:17Z</time>
      </trkpt>
      <trkpt lat="59.9661644" lon="17.7595919">
        <ele>30.8995</ele>
        <time>2012-10-08T18:34:18Z</time>
      </trkpt>
      <trkpt lat="59.9661541" lon="17.7596104">
        <ele>30.4188</ele>
        <time>2012-10-08T18:34:19Z</time>
      </trkpt>
      <trkpt lat="59.9661428" lon="17.7596293">
        <ele>29.4575</ele>
        <time>2012-10-08T18:34:20Z</time>
      </trkpt>
      <trkpt lat="59.9661298" lon="17.7596577">
        <ele>28.4962</ele>
        <time>2012-10-08T18:34:21Z</time>
      </trkpt>
      <trkpt lat="59.9661094" lon="17.7596935">
        <ele>28.0155</ele>
        <time>2012-10-08T18:34:22Z</time>
      </trkpt>
      <trkpt lat="59.9660936" lon="17.7597318">
        <ele>27.0543</ele>
        <time>2012-10-08T18:34:23Z</time>
      </trkpt>
      <trkpt lat="59.9660831" lon="17.7597545">
        <ele>26.5736</ele>
        <time>2012-10-08T18:34:24Z</time>
      </trkpt>
      <trkpt lat="59.9660743" lon="17.7597675">
        <ele>26.0929</ele>
        <time>2012-10-08T18:34:25Z</time>
      </trkpt>
      <trkpt lat="59.9660636" lon="17.7597794">
        <ele>25.1317</ele>
        <time>2012-10-08T18:34:26Z</time>
      </trkpt>
      <trkpt lat="59.966051" lon="17.7597971">
        <ele>24.1703</ele>
        <time>2012-10-08T18:34:27Z</time>
      </trkpt>
      <trkpt lat="59.9660416" lon="17.7598199">
        <ele>23.209</ele>
        <time>2012-10-08T18:34:28Z</time>
      </trkpt>
      <trkpt lat="59.9660287" lon="17.7598406">
        <ele>22.7283</ele>
        <time>2012-10-08T18:34:29Z</time>
      </trkpt>
      <trkpt lat="59.9660174" lon="17.7598597">
        <ele>22.2476</ele>
        <time>2012-10-08T18:34:30Z</time>
      </trkpt>
      <trkpt lat="59.9660028" lon="17.7598871">
        <ele>21.2864</ele>
        <time>2012-10-08T18:34:31Z</time>
      </trkpt>
      <trkpt lat="59.9659841" lon="17.7599136">
        <ele>21.2864</ele>
        <time>2012-10-08T18:34:32Z</time>
      </trkpt>
      <trkpt lat="59.9659668" lon="17.7599395">
        <ele>20.8057</ele>
        <time>2012-10-08T18:34:33Z</time>
      </trkpt>
      <trkpt lat="59.9659506" lon="17.759972">
        <ele>20.8057</ele>
        <time>2012-10-08T18:34:34Z</time>
      </trkpt>
      <trkpt lat="59.96593" lon="17.7600043">
        <ele>19.8444</ele>
        <time>2012-10-08T18:34:35Z</time>
      </trkpt>
      <trkpt lat="59.965909" lon="17.7600393">
        <ele>19.3638</ele>
        <time>2012-10-08T18:34:36Z</time>
      </trkpt>
      <trkpt lat="59.9658896" lon="17.7600763">
        <ele>18.4023</ele>
        <time>2012-10-08T18:34:37Z</time>
      </trkpt>
      <trkpt lat="59.9658728" lon="17.760114">
        <ele>17.4412</ele>
        <time>2012-10-08T18:34:38Z</time>
      </trkpt>
      <trkpt lat="59.9658543" lon="17.7601477">
        <ele>17.4412</ele>
        <time>2012-10-08T18:34:39Z</time>
      </trkpt>
      <trkpt lat="59.9658355" lon="17.7601721">
        <ele>16.9604</ele>
        <time>2012-10-08T18:34:40Z</time>
      </trkpt>
      <trkpt lat="59.965817" lon="17.7601995">
        <ele>17.4412</ele>
        <time>2012-10-08T18:34:41Z</time>
      </trkpt>
      <trkpt lat="59.9657993" lon="17.7602223">
        <ele>17.4412</ele>
        <time>2012-10-08T18:34:42Z</time>
      </trkpt>
      <trkpt lat="59.965782" lon="17.760248">
        <ele>16.9604</ele>
        <time>2012-10-08T18:34:43Z</time>
      </trkpt>
      <trkpt lat="59.965763" lon="17.76028">
        <ele>17.9218</ele>
        <time>2012-10-08T18:34:44Z</time>
      </trkpt>
      <trkpt lat="59.965744" lon="17.7603128">
        <ele>17.9218</ele>
        <time>2012-10-08T18:34:45Z</time>
      </trkpt>
      <trkpt lat="59.9657284" lon="17.7603492">
        <ele>18.4023</ele>
        <time>2012-10-08T18:34:46Z</time>
      </trkpt>
      <trkpt lat="59.9657129" lon="17.7603825">
        <ele>17.9218</ele>
        <time>2012-10-08T18:34:47Z</time>
      </trkpt>
      <trkpt lat="59.9656942" lon="17.7604156">
        <ele>17.4412</ele>
        <time>2012-10-08T18:34:48Z</time>
      </trkpt>
      <trkpt lat="59.9656717" lon="17.7604451">
        <ele>17.9218</ele>
        <time>2012-10-08T18:34:49Z</time>
      </trkpt>
      <trkpt lat="59.9656502" lon="17.7604802">
        <ele>17.4412</ele>
        <time>2012-10-08T18:34:50Z</time>
      </trkpt>
      <trkpt lat="59.9656295" lon="17.7605187">
        <ele>17.4412</ele>
        <time>2012-10-08T18:34:51Z</time>
      </trkpt>
      <trkpt lat="59.9656087" lon="17.7605559">
        <ele>17.4412</ele>
        <time>2012-10-08T18:34:52Z</time>
      </trkpt>
      <trkpt lat="59.9655885" lon="17.7605943">
        <ele>16.9604</ele>
        <time>2012-10-08T18:34:53Z</time>
      </trkpt>
      <trkpt lat="59.9655734" lon="17.7606289">
        <ele>16.4797</ele>
        <time>2012-10-08T18:34:54Z</time>
      </trkpt>
      <trkpt lat="59.9655542" lon="17.7606581">
        <ele>16.9604</ele>
        <time>2012-10-08T18:34:55Z</time>
      </trkpt>
      <trkpt lat="59.9655365" lon="17.7606844">
        <ele>16.9604</ele>
        <time>2012-10-08T18:34:56Z</time>
      </trkpt>
      <trkpt lat="59.9655196" lon="17.7607181">
        <ele>16.9604</ele>
        <time>2012-10-08T18:34:57Z</time>
      </trkpt>
      <trkpt lat="59.9654999" lon="17.7607424">
        <ele>16.9604</ele>
        <time>2012-10-08T18:34:58Z</time>
      </trkpt>
      <trkpt lat="59.9654813" lon="17.7607744">
        <ele>16.9604</ele>
        <time>2012-10-08T18:34:59Z</time>
      </trkpt>
      <trkpt lat="59.9654647" lon="17.7608103">
        <ele>16.4797</ele>
        <time>2012-10-08T18:35:00Z</time>
      </trkpt>
      <trkpt lat="59.9654465" lon="17.7608443">
        <ele>16.4797</ele>
        <time>2012-10-08T18:35:01Z</time>
      </trkpt>
      <trkpt lat="59.9654322" lon="17.7608787">
        <ele>16.4797</ele>
        <time>2012-10-08T18:35:02Z</time>
      </trkpt>
      <trkpt lat="59.9654181" lon="17.7609085">
        <ele>16.4797</ele>
        <time>2012-10-08T18:35:03Z</time>
      </trkpt>
      <trkpt lat="59.9654032" lon="17.7609438">
        <ele>16.4797</ele>
        <time>2012-10-08T18:35:04Z</time>
      </trkpt>
      <trkpt lat="59.9653895" lon="17.7609821">
        <ele>16.4797</ele>
        <time>2012-10-08T18:35:05Z</time>
      </trkpt>
      <trkpt lat="59.9653736" lon="17.7610175">
        <ele>16.4797</ele>
        <time>2012-10-08T18:35:06Z</time>
      </trkpt>
      <trkpt lat="59.9653591" lon="17.7610527">
        <ele>16.4797</ele>
        <time>2012-10-08T18:35:07Z</time>
      </trkpt>
      <trkpt lat="59.9653481" lon="17.7610894">
        <ele>16.9604</ele>
        <time>2012-10-08T18:35:08Z</time>
      </trkpt>
      <trkpt lat="59.9653383" lon="17.7611262">
        <ele>16.4797</ele>
        <time>2012-10-08T18:35:09Z</time>
      </trkpt>
      <trkpt lat="59.9653277" lon="17.7611634">
        <ele>16.9604</ele>
        <time>2012-10-08T18:35:10Z</time>
      </trkpt>
      <trkpt lat="59.9653159" lon="17.7612035">
        <ele>16.9604</ele>
        <time>2012-10-08T18:35:11Z</time>
      </trkpt>
      <trkpt lat="59.9653047" lon="17.7612376">
        <ele>16.9604</ele>
        <time>2012-10-08T18:35:12Z</time>
      </trkpt>
      <trkpt lat="59.9652933" lon="17.7612785">
        <ele>17.4412</ele>
        <time>2012-10-08T18:35:13Z</time>
      </trkpt>
      <trkpt lat="59.9652787" lon="17.7613241">
        <ele>17.9218</ele>
        <time>2012-10-08T18:35:14Z</time>
      </trkpt>
      <trkpt lat="59.9652611" lon="17.7613704">
        <ele>17.9218</ele>
        <time>2012-10-08T18:35:15Z</time>
      </trkpt>
      <trkpt lat="59.9652455" lon="17.7614084">
        <ele>18.4023</ele>
        <time>2012-10-08T18:35:16Z</time>
      </trkpt>
      <trkpt lat="59.9652285" lon="17.7614449">
        <ele>18.4023</ele>
        <time>2012-10-08T18:35:17Z</time>
      </trkpt>
      <trkpt lat="59.9652211" lon="17.7614831">
        <ele>18.4023</ele>
        <time>2012-10-08T18:35:18Z</time>
      </trkpt>
      <trkpt lat="59.9652063" lon="17.7615169">
        <ele>18.8831</ele>
        <time>2012-10-08T18:35:19Z</time>
      </trkpt>
      <trkpt lat="59.9651824" lon="17.7615546">
        <ele>18.8831</ele>
        <time>2012-10-08T18:35:20Z</time>
      </trkpt>
      <trkpt lat="59.9651626" lon="17.7615993">
        <ele>19.3638</ele>
        <time>2012-10-08T18:35:21Z</time>
      </trkpt>
      <trkpt lat="59.9651509" lon="17.7616437">
        <ele>19.3638</ele>
        <time>2012-10-08T18:35:22Z</time>
      </trkpt>
      <trkpt lat="59.9651358" lon="17.7616847">
        <ele>19.3638</ele>
        <time>2012-10-08T18:35:23Z</time>
      </trkpt>
      <trkpt lat="59.9651104" lon="17.7617313">
        <ele>19.3638</ele>
        <time>2012-10-08T18:35:24Z</time>
      </trkpt>
      <trkpt lat="59.9650912" lon="17.761772">
        <ele>19.8444</ele>
        <time>2012-10-08T18:35:25Z</time>
      </trkpt>
      <trkpt lat="59.9650705" lon="17.7618229">
        <ele>20.325</ele>
        <time>2012-10-08T18:35:26Z</time>
      </trkpt>
      <trkpt lat="59.9650563" lon="17.7618655">
        <ele>20.325</ele>
        <time>2012-10-08T18:35:27Z</time>
      </trkpt>
      <trkpt lat="59.965044" lon="17.761906">
        <ele>20.325</ele>
        <time>2012-10-08T18:35:28Z</time>
      </trkpt>
      <trkpt lat="59.9650328" lon="17.7619396">
        <ele>20.8057</ele>
        <time>2012-10-08T18:35:29Z</time>
      </trkpt>
      <trkpt lat="59.9650192" lon="17.7619747">
        <ele>20.8057</ele>
        <time>2012-10-08T18:35:30Z</time>
      </trkpt>
      <trkpt lat="59.9650076" lon="17.76201">
        <ele>21.2864</ele>
        <time>2012-10-08T18:35:31Z</time>
      </trkpt>
      <trkpt lat="59.9649833" lon="17.7620597">
        <ele>22.7283</ele>
        <time>2012-10-08T18:35:32Z</time>
      </trkpt>
      <trkpt lat="59.9649678" lon="17.7621001">
        <ele>22.7283</ele>
        <time>2012-10-08T18:35:33Z</time>
      </trkpt>
      <trkpt lat="59.9649551" lon="17.7621473">
        <ele>23.209</ele>
        <time>2012-10-08T18:35:34Z</time>
      </trkpt>
      <trkpt lat="59.9649431" lon="17.7621856">
        <ele>22.7283</ele>
        <time>2012-10-08T18:35:35Z</time>
      </trkpt>
      <trkpt lat="59.9649322" lon="17.7622214">
        <ele>22.2476</ele>
        <time>2012-10-08T18:35:36Z</time>
      </trkpt>
      <trkpt lat="59.9649221" lon="17.7622555">
        <ele>22.2476</ele>
        <time>2012-10-08T18:35:37Z</time>
      </trkpt>
      <trkpt lat="59.9649129" lon="17.7622948">
        <ele>22.7283</ele>
        <time>2012-10-08T18:35:38Z</time>
      </trkpt>
      <trkpt lat="59.9649015" lon="17.7623396">
        <ele>22.7283</ele>
        <time>2012-10-08T18:35:39Z</time>
      </trkpt>
      <trkpt lat="59.9648888" lon="17.7623793">
        <ele>22.2476</ele>
        <time>2012-10-08T18:35:40Z</time>
      </trkpt>
      <trkpt lat="59.9648731" lon="17.7624258">
        <ele>21.767</ele>
        <time>2012-10-08T18:35:41Z</time>
      </trkpt>
      <trkpt lat="59.964858" lon="17.7624726">
        <ele>22.2476</ele>
        <time>2012-10-08T18:35:42Z</time>
      </trkpt>
      <trkpt lat="59.9648466" lon="17.7625119">
        <ele>22.2476</ele>
        <time>2012-10-08T18:35:43Z</time>
      </trkpt>
      <trkpt lat="59.9648312" lon="17.7625503">
        <ele>22.2476</ele>
        <time>2012-10-08T18:35:44Z</time>
      </trkpt>
      <trkpt lat="59.9648136" lon="17.7625907">
        <ele>22.7283</ele>
        <time>2012-10-08T18:35:45Z</time>
      </trkpt>
      <trkpt lat="59.9647999" lon="17.7626357">
        <ele>22.7283</ele>
        <time>2012-10-08T18:35:46Z</time>
      </trkpt>
      <trkpt lat="59.9647844" lon="17.7626747">
        <ele>22.7283</ele>
        <time>2012-10-08T18:35:47Z</time>
      </trkpt>
      <trkpt lat="59.9647683" lon="17.762713">
        <ele>22.7283</ele>
        <time>2012-10-08T18:35:48Z</time>
      </trkpt>
      <trkpt lat="59.9647564" lon="17.7627518">
        <ele>23.209</ele>
        <time>2012-10-08T18:35:49Z</time>
      </trkpt>
      <trkpt lat="59.9647483" lon="17.7627932">
        <ele>23.6896</ele>
        <time>2012-10-08T18:35:50Z</time>
      </trkpt>
      <trkpt lat="59.964739" lon="17.7628398">
        <ele>23.6896</ele>
        <time>2012-10-08T18:35:51Z</time>
      </trkpt>
      <trkpt lat="59.9647281" lon="17.7628909">
        <ele>23.6896</ele>
        <time>2012-10-08T18:35:52Z</time>
      </trkpt>
      <trkpt lat="59.9647219" lon="17.7629372">
        <ele>23.6896</ele>
        <time>2012-10-08T18:35:53Z</time>
      </trkpt>
      <trkpt lat="59.9647177" lon="17.7629734">
        <ele>23.6896</ele>
        <time>2012-10-08T18:35:54Z</time>
      </trkpt>
      <trkpt lat="59.9647115" lon="17.7630088">
        <ele>23.6896</ele>
        <time>2012-10-08T18:35:55Z</time>
      </trkpt>
      <trkpt lat="59.9647021" lon="17.7630448">
        <ele>23.6896</ele>
        <time>2012-10-08T18:35:56Z</time>
      </trkpt>
      <trkpt lat="59.9646917" lon="17.7630779">
        <ele>24.651</ele>
        <time>2012-10-08T18:35:57Z</time>
      </trkpt>
      <trkpt lat="59.9646808" lon="17.7631207">
        <ele>24.651</ele>
        <time>2012-10-08T18:35:58Z</time>
      </trkpt>
      <trkpt lat="59.9646681" lon="17.7631714">
        <ele>25.1317</ele>
        <time>2012-10-08T18:35:59Z</time>
      </trkpt>
      <trkpt lat="59.9646597" lon="17.7632122">
        <ele>25.6123</ele>
        <time>2012-10-08T18:36:00Z</time>
      </trkpt>
      <trkpt lat="59.9646494" lon="17.7632603">
        <ele>25.6123</ele>
        <time>2012-10-08T18:36:01Z</time>
      </trkpt>
      <trkpt lat="59.9646337" lon="17.7633069">
        <ele>25.6123</ele>
        <time>2012-10-08T18:36:02Z</time>
      </trkpt>
      <trkpt lat="59.9646166" lon="17.763354">
        <ele>25.6123</ele>
        <time>2012-10-08T18:36:03Z</time>
      </trkpt>
      <trkpt lat="59.9646012" lon="17.7634092">
        <ele>26.0929</ele>
        <time>2012-10-08T18:36:04Z</time>
      </trkpt>
      <trkpt lat="59.9645902" lon="17.7634702">
        <ele>26.0929</ele>
        <time>2012-10-08T18:36:05Z</time>
      </trkpt>
      <trkpt lat="59.9645847" lon="17.7635163">
        <ele>27.0543</ele>
        <time>2012-10-08T18:36:06Z</time>
      </trkpt>
      <trkpt lat="59.9645756" lon="17.7635633">
        <ele>27.0543</ele>
        <time>2012-10-08T18:36:07Z</time>
      </trkpt>
      <trkpt lat="59.9645659" lon="17.7636075">
        <ele>27.0543</ele>
        <time>2012-10-08T18:36:08Z</time>
      </trkpt>
      <trkpt lat="59.9645559" lon="17.7636432">
        <ele>27.5349</ele>
        <time>2012-10-08T18:36:09Z</time>
      </trkpt>
      <trkpt lat="59.9645476" lon="17.7636785">
        <ele>27.0543</ele>
        <time>2012-10-08T18:36:10Z</time>
      </trkpt>
      <trkpt lat="59.9645421" lon="17.7637174">
        <ele>27.5349</ele>
        <time>2012-10-08T18:36:11Z</time>
      </trkpt>
      <trkpt lat="59.9645368" lon="17.7637576">
        <ele>28.0155</ele>
        <time>2012-10-08T18:36:12Z</time>
      </trkpt>
      <trkpt lat="59.9645233" lon="17.7637995">
        <ele>27.5349</ele>
        <time>2012-10-08T18:36:13Z</time>
      </trkpt>
      <trkpt lat="59.9645116" lon="17.7638405">
        <ele>27.0543</ele>
        <time>2012-10-08T18:36:14Z</time>
      </trkpt>
      <trkpt lat="59.9644984" lon="17.7638897">
        <ele>27.5349</ele>
        <time>2012-10-08T18:36:15Z</time>
      </trkpt>
      <trkpt lat="59.9644852" lon="17.7639381">
        <ele>27.5349</ele>
        <time>2012-10-08T18:36:16Z</time>
      </trkpt>
      <trkpt lat="59.9644725" lon="17.7639816">
        <ele>27.5349</ele>
        <time>2012-10-08T18:36:17Z</time>
      </trkpt>
      <trkpt lat="59.964457" lon="17.7640248">
        <ele>27.5349</ele>
        <time>2012-10-08T18:36:18Z</time>
      </trkpt>
      <trkpt lat="59.9644431" lon="17.7640732">
        <ele>27.0543</ele>
        <time>2012-10-08T18:36:19Z</time>
      </trkpt>
      <trkpt lat="59.9644333" lon="17.7641224">
        <ele>27.0543</ele>
        <time>2012-10-08T18:36:20Z</time>
      </trkpt>
      <trkpt lat="59.9644164" lon="17.7641706">
        <ele>27.5349</ele>
        <time>2012-10-08T18:36:21Z</time>
      </trkpt>
      <trkpt lat="59.9643986" lon="17.7642162">
        <ele>27.5349</ele>
        <time>2012-10-08T18:36:22Z</time>
      </trkpt>
      <trkpt lat="59.9643841" lon="17.7642597">
        <ele>27.5349</ele>
        <time>2012-10-08T18:36:23Z</time>
      </trkpt>
      <trkpt lat="59.9643672" lon="17.7643053">
        <ele>27.5349</ele>
        <time>2012-10-08T18:36:24Z</time>
      </trkpt>
      <trkpt lat="59.9643547" lon="17.7643509">
        <ele>28.0155</ele>
        <time>2012-10-08T18:36:25Z</time>
      </trkpt>
      <trkpt lat="59.9643418" lon="17.7643973">
        <ele>29.4575</ele>
        <time>2012-10-08T18:36:26Z</time>
      </trkpt>
      <trkpt lat="59.9643314" lon="17.7644444">
        <ele>29.4575</ele>
        <time>2012-10-08T18:36:27Z</time>
      </trkpt>
      <trkpt lat="59.9643241" lon="17.7644943">
        <ele>30.4188</ele>
        <time>2012-10-08T18:36:28Z</time>
      </trkpt>
      <trkpt lat="59.9643158" lon="17.7645393">
        <ele>30.4188</ele>
        <time>2012-10-08T18:36:29Z</time>
      </trkpt>
      <trkpt lat="59.9643083" lon="17.7645845">
        <ele>30.4188</ele>
        <time>2012-10-08T18:36:30Z</time>
      </trkpt>
      <trkpt lat="59.9643032" lon="17.7646286">
        <ele>30.4188</ele>
        <time>2012-10-08T18:36:31Z</time>
      </trkpt>
      <trkpt lat="59.9642956" lon="17.764669">
        <ele>29.9381</ele>
        <time>2012-10-08T18:36:32Z</time>
      </trkpt>
      <trkpt lat="59.9642861" lon="17.7647105">
        <ele>30.4188</ele>
        <time>2012-10-08T18:36:33Z</time>
      </trkpt>
      <trkpt lat="59.9642785" lon="17.7647535">
        <ele>30.4188</ele>
        <time>2012-10-08T18:36:34Z</time>
      </trkpt>
      <trkpt lat="59.9642722" lon="17.764798">
        <ele>30.8995</ele>
        <time>2012-10-08T18:36:35Z</time>
      </trkpt>
      <trkpt lat="59.9642671" lon="17.7648439">
        <ele>31.3801</ele>
        <time>2012-10-08T18:36:36Z</time>
      </trkpt>
      <trkpt lat="59.9642603" lon="17.7648887">
        <ele>32.3416</ele>
        <time>2012-10-08T18:36:37Z</time>
      </trkpt>
      <trkpt lat="59.96425" lon="17.7649352">
        <ele>32.3416</ele>
        <time>2012-10-08T18:36:38Z</time>
      </trkpt>
      <trkpt lat="59.9642397" lon="17.7649787">
        <ele>33.3029</ele>
        <time>2012-10-08T18:36:39Z</time>
      </trkpt>
      <trkpt lat="59.9642276" lon="17.7650306">
        <ele>33.7834</ele>
        <time>2012-10-08T18:36:40Z</time>
      </trkpt>
      <trkpt lat="59.9642182" lon="17.7650829">
        <ele>34.7449</ele>
        <time>2012-10-08T18:36:41Z</time>
      </trkpt>
      <trkpt lat="59.9642097" lon="17.765129">
        <ele>35.2255</ele>
        <time>2012-10-08T18:36:42Z</time>
      </trkpt>
      <trkpt lat="59.9642065" lon="17.7651807">
        <ele>36.1868</ele>
        <time>2012-10-08T18:36:43Z</time>
      </trkpt>
      <trkpt lat="59.9641992" lon="17.7652356">
        <ele>36.6675</ele>
        <time>2012-10-08T18:36:44Z</time>
      </trkpt>
      <trkpt lat="59.9641919" lon="17.7652885">
        <ele>36.6675</ele>
        <time>2012-10-08T18:36:45Z</time>
      </trkpt>
      <trkpt lat="59.9641895" lon="17.765345">
        <ele>37.1481</ele>
        <time>2012-10-08T18:36:46Z</time>
      </trkpt>
      <trkpt lat="59.9641879" lon="17.765404">
        <ele>37.1481</ele>
        <time>2012-10-08T18:36:47Z</time>
      </trkpt>
      <trkpt lat="59.9641863" lon="17.7654511">
        <ele>37.6287</ele>
        <time>2012-10-08T18:36:48Z</time>
      </trkpt>
      <trkpt lat="59.9641841" lon="17.7654986">
        <ele>38.1094</ele>
        <time>2012-10-08T18:36:49Z</time>
      </trkpt>
      <trkpt lat="59.9641798" lon="17.7655511">
        <ele>38.1094</ele>
        <time>2012-10-08T18:36:50Z</time>
      </trkpt>
      <trkpt lat="59.9641734" lon="17.7656015">
        <ele>38.1094</ele>
        <time>2012-10-08T18:36:51Z</time>
      </trkpt>
      <trkpt lat="59.9641655" lon="17.765648">
        <ele>38.1094</ele>
        <time>2012-10-08T18:36:52Z</time>
      </trkpt>
      <trkpt lat="59.9641593" lon="17.7656928">
        <ele>39.0707</ele>
        <time>2012-10-08T18:36:53Z</time>
      </trkpt>
      <trkpt lat="59.9641562" lon="17.7657367">
        <ele>39.5513</ele>
        <time>2012-10-08T18:36:54Z</time>
      </trkpt>
      <trkpt lat="59.9641509" lon="17.765782">
        <ele>39.5513</ele>
        <time>2012-10-08T18:36:55Z</time>
      </trkpt>
      <trkpt lat="59.9641441" lon="17.7658304">
        <ele>40.0321</ele>
        <time>2012-10-08T18:36:56Z</time>
      </trkpt>
      <trkpt lat="59.9641379" lon="17.7658806">
        <ele>40.0321</ele>
        <time>2012-10-08T18:36:57Z</time>
      </trkpt>
      <trkpt lat="59.9641298" lon="17.7659303">
        <ele>40.5128</ele>
        <time>2012-10-08T18:36:58Z</time>
      </trkpt>
      <trkpt lat="59.9641241" lon="17.7659717">
        <ele>40.5128</ele>
        <time>2012-10-08T18:36:59Z</time>
      </trkpt>
      <trkpt lat="59.9641189" lon="17.7660199">
        <ele>40.9934</ele>
        <time>2012-10-08T18:37:00Z</time>
      </trkpt>
      <trkpt lat="59.9641113" lon="17.7660664">
        <ele>40.9934</ele>
        <time>2012-10-08T18:37:01Z</time>
      </trkpt>
      <trkpt lat="59.9641074" lon="17.7661057">
        <ele>40.9934</ele>
        <time>2012-10-08T18:37:02Z</time>
      </trkpt>
      <trkpt lat="59.9641039" lon="17.766152">
        <ele>41.474</ele>
        <time>2012-10-08T18:37:03Z</time>
      </trkpt>
      <trkpt lat="59.9641019" lon="17.7661986">
        <ele>41.474</ele>
        <time>2012-10-08T18:37:04Z</time>
      </trkpt>
      <trkpt lat="59.9641024" lon="17.7662417">
        <ele>41.474</ele>
        <time>2012-10-08T18:37:05Z</time>
      </trkpt>
      <trkpt lat="59.9641018" lon="17.7662849">
        <ele>40.5128</ele>
        <time>2012-10-08T18:37:06Z</time>
      </trkpt>
      <trkpt lat="59.9641011" lon="17.7663236">
        <ele>39.5513</ele>
        <time>2012-10-08T18:37:07Z</time>
      </trkpt>
      <trkpt lat="59.9641002" lon="17.7663686">
        <ele>39.5513</ele>
        <time>2012-10-08T18:37:08Z</time>
      </trkpt>
      <trkpt lat="59.964099" lon="17.7664177">
        <ele>39.0707</ele>
        <time>2012-10-08T18:37:09Z</time>
      </trkpt>
      <trkpt lat="59.9641009" lon="17.7664638">
        <ele>38.5901</ele>
        <time>2012-10-08T18:37:10Z</time>
      </trkpt>
      <trkpt lat="59.9641073" lon="17.766502">
        <ele>39.0707</ele>
        <time>2012-10-08T18:37:11Z</time>
      </trkpt>
      <trkpt lat="59.9641162" lon="17.7665393">
        <ele>38.5901</ele>
        <time>2012-10-08T18:37:12Z</time>
      </trkpt>
      <trkpt lat="59.9641266" lon="17.7665859">
        <ele>38.5901</ele>
        <time>2012-10-08T18:37:13Z</time>
      </trkpt>
      <trkpt lat="59.9641361" lon="17.7666306">
        <ele>39.0707</ele>
        <time>2012-10-08T18:37:14Z</time>
      </trkpt>
      <trkpt lat="59.9641428" lon="17.7666784">
        <ele>39.5513</ele>
        <time>2012-10-08T18:37:15Z</time>
      </trkpt>
      <trkpt lat="59.9641402" lon="17.7667209">
        <ele>39.5513</ele>
        <time>2012-10-08T18:37:16Z</time>
      </trkpt>
      <trkpt lat="59.964139" lon="17.7667675">
        <ele>39.0707</ele>
        <time>2012-10-08T18:37:17Z</time>
      </trkpt>
      <trkpt lat="59.9641369" lon="17.7668157">
        <ele>39.0707</ele>
        <time>2012-10-08T18:37:18Z</time>
      </trkpt>
      <trkpt lat="59.9641303" lon="17.7668576">
        <ele>38.1094</ele>
        <time>2012-10-08T18:37:19Z</time>
      </trkpt>
      <trkpt lat="59.9641257" lon="17.7668964">
        <ele>37.6287</ele>
        <time>2012-10-08T18:37:20Z</time>
      </trkpt>
      <trkpt lat="59.9641229" lon="17.7669363">
        <ele>37.1481</ele>
        <time>2012-10-08T18:37:21Z</time>
      </trkpt>
      <trkpt lat="59.9641205" lon="17.7669808">
        <ele>36.1868</ele>
        <time>2012-10-08T18:37:22Z</time>
      </trkpt>
      <trkpt lat="59.9641189" lon="17.7670329">
        <ele>36.1868</ele>
        <time>2012-10-08T18:37:23Z</time>
      </trkpt>
      <trkpt lat="59.9641078" lon="17.7670863">
        <ele>35.2255</ele>
        <time>2012-10-08T18:37:24Z</time>
      </trkpt>
      <trkpt lat="59.9640955" lon="17.7671383">
        <ele>35.2255</ele>
        <time>2012-10-08T18:37:25Z</time>
      </trkpt>
      <trkpt lat="59.9640867" lon="17.7671937">
        <ele>34.7449</ele>
        <time>2012-10-08T18:37:26Z</time>
      </trkpt>
      <trkpt lat="59.9640794" lon="17.7672477">
        <ele>34.2642</ele>
        <time>2012-10-08T18:37:27Z</time>
      </trkpt>
      <trkpt lat="59.9640748" lon="17.7672952">
        <ele>34.2642</ele>
        <time>2012-10-08T18:37:28Z</time>
      </trkpt>
      <trkpt lat="59.9640719" lon="17.7673455">
        <ele>34.2642</ele>
        <time>2012-10-08T18:37:29Z</time>
      </trkpt>
      <trkpt lat="59.9640672" lon="17.7673937">
        <ele>34.2642</ele>
        <time>2012-10-08T18:37:30Z</time>
      </trkpt>
      <trkpt lat="59.9640571" lon="17.7674387">
        <ele>34.2642</ele>
        <time>2012-10-08T18:37:31Z</time>
      </trkpt>
      <trkpt lat="59.9640484" lon="17.7674833">
        <ele>34.2642</ele>
        <time>2012-10-08T18:37:32Z</time>
      </trkpt>
      <trkpt lat="59.964039" lon="17.7675302">
        <ele>34.2642</ele>
        <time>2012-10-08T18:37:33Z</time>
      </trkpt>
      <trkpt lat="59.9640304" lon="17.7675764">
        <ele>34.2642</ele>
        <time>2012-10-08T18:37:34Z</time>
      </trkpt>
      <trkpt lat="59.9640226" lon="17.7676246">
        <ele>34.2642</ele>
        <time>2012-10-08T18:37:35Z</time>
      </trkpt>
      <trkpt lat="59.9640122" lon="17.7676712">
        <ele>34.2642</ele>
        <time>2012-10-08T18:37:36Z</time>
      </trkpt>
      <trkpt lat="59.9640034" lon="17.7677142">
        <ele>34.2642</ele>
        <time>2012-10-08T18:37:37Z</time>
      </trkpt>
      <trkpt lat="59.9639956" lon="17.7677592">
        <ele>34.7449</ele>
        <time>2012-10-08T18:37:38Z</time>
      </trkpt>
      <trkpt lat="59.9639853" lon="17.7678034">
        <ele>34.7449</ele>
        <time>2012-10-08T18:37:39Z</time>
      </trkpt>
      <trkpt lat="59.9639755" lon="17.7678488">
        <ele>35.2255</ele>
        <time>2012-10-08T18:37:40Z</time>
      </trkpt>
      <trkpt lat="59.9639655" lon="17.7678946">
        <ele>35.2255</ele>
        <time>2012-10-08T18:37:41Z</time>
      </trkpt>
      <trkpt lat="59.9639626" lon="17.7679391">
        <ele>35.7061</ele>
        <time>2012-10-08T18:37:42Z</time>
      </trkpt>
      <trkpt lat="59.9639541" lon="17.7679857">
        <ele>35.7061</ele>
        <time>2012-10-08T18:37:43Z</time>
      </trkpt>
      <trkpt lat="59.9639445" lon="17.7680334">
        <ele>36.1868</ele>
        <time>2012-10-08T18:37:44Z</time>
      </trkpt>
      <trkpt lat="59.9639366" lon="17.7680811">
        <ele>36.6675</ele>
        <time>2012-10-08T18:37:45Z</time>
      </trkpt>
      <trkpt lat="59.963926" lon="17.7681287">
        <ele>36.6675</ele>
        <time>2012-10-08T18:37:46Z</time>
      </trkpt>
      <trkpt lat="59.9639122" lon="17.7681779">
        <ele>35.7061</ele>
        <time>2012-10-08T18:37:47Z</time>
      </trkpt>
      <trkpt lat="59.9638941" lon="17.7682246">
        <ele>35.2255</ele>
        <time>2012-10-08T18:37:48Z</time>
      </trkpt>
      <trkpt lat="59.9638787" lon="17.7682712">
        <ele>35.2255</ele>
        <time>2012-10-08T18:37:49Z</time>
      </trkpt>
      <trkpt lat="59.9638639" lon="17.768315">
        <ele>34.7449</ele>
        <time>2012-10-08T18:37:50Z</time>
      </trkpt>
      <trkpt lat="59.9638527" lon="17.7683536">
        <ele>34.7449</ele>
        <time>2012-10-08T18:37:51Z</time>
      </trkpt>
      <trkpt lat="59.96384" lon="17.7683976">
        <ele>33.7834</ele>
        <time>2012-10-08T18:37:52Z</time>
      </trkpt>
      <trkpt lat="59.9638261" lon="17.7684409">
        <ele>33.3029</ele>
        <time>2012-10-08T18:37:53Z</time>
      </trkpt>
      <trkpt lat="59.9638128" lon="17.7684815">
        <ele>33.3029</ele>
        <time>2012-10-08T18:37:54Z</time>
      </trkpt>
      <trkpt lat="59.9637997" lon="17.7685282">
        <ele>33.3029</ele>
        <time>2012-10-08T18:37:55Z</time>
      </trkpt>
      <trkpt lat="59.9637884" lon="17.7685771">
        <ele>33.3029</ele>
        <time>2012-10-08T18:37:56Z</time>
      </trkpt>
      <trkpt lat="59.9637786" lon="17.7686223">
        <ele>33.7834</ele>
        <time>2012-10-08T18:37:57Z</time>
      </trkpt>
      <trkpt lat="59.9637688" lon="17.7686659">
        <ele>34.2642</ele>
        <time>2012-10-08T18:37:58Z</time>
      </trkpt>
      <trkpt lat="59.9637554" lon="17.7687121">
        <ele>33.7834</ele>
        <time>2012-10-08T18:37:59Z</time>
      </trkpt>
      <trkpt lat="59.9637418" lon="17.7687589">
        <ele>33.3029</ele>
        <time>2012-10-08T18:38:00Z</time>
      </trkpt>
      <trkpt lat="59.9637299" lon="17.7688001">
        <ele>33.7834</ele>
        <time>2012-10-08T18:38:01Z</time>
      </trkpt>
      <trkpt lat="59.9637186" lon="17.7688411">
        <ele>33.7834</ele>
        <time>2012-10-08T18:38:02Z</time>
      </trkpt>
      <trkpt lat="59.9637148" lon="17.7688812">
        <ele>33.3029</ele>
        <time>2012-10-08T18:38:03Z</time>
      </trkpt>
      <trkpt lat="59.9637106" lon="17.7689214">
        <ele>33.3029</ele>
        <time>2012-10-08T18:38:04Z</time>
      </trkpt>
      <trkpt lat="59.9637003" lon="17.7689625">
        <ele>33.3029</ele>
        <time>2012-10-08T18:38:05Z</time>
      </trkpt>
      <trkpt lat="59.9636919" lon="17.7690045">
        <ele>33.7834</ele>
        <time>2012-10-08T18:38:06Z</time>
      </trkpt>
      <trkpt lat="59.9636834" lon="17.7690519">
        <ele>33.7834</ele>
        <time>2012-10-08T18:38:07Z</time>
      </trkpt>
      <trkpt lat="59.9636698" lon="17.7690936">
        <ele>33.7834</ele>
        <time>2012-10-08T18:38:08Z</time>
      </trkpt>
      <trkpt lat="59.9636564" lon="17.7691355">
        <ele>33.7834</ele>
        <time>2012-10-08T18:38:09Z</time>
      </trkpt>
      <trkpt lat="59.9636496" lon="17.7691819">
        <ele>33.3029</ele>
        <time>2012-10-08T18:38:10Z</time>
      </trkpt>
      <trkpt lat="59.9636424" lon="17.7692274">
        <ele>32.8223</ele>
        <time>2012-10-08T18:38:11Z</time>
      </trkpt>
      <trkpt lat="59.9636335" lon="17.7692723">
        <ele>32.8223</ele>
        <time>2012-10-08T18:38:12Z</time>
      </trkpt>
      <trkpt lat="59.9636232" lon="17.7693181">
        <ele>32.8223</ele>
        <time>2012-10-08T18:38:13Z</time>
      </trkpt>
      <trkpt lat="59.9636122" lon="17.769358">
        <ele>32.8223</ele>
        <time>2012-10-08T18:38:14Z</time>
      </trkpt>
      <trkpt lat="59.9636034" lon="17.769403">
        <ele>33.3029</ele>
        <time>2012-10-08T18:38:15Z</time>
      </trkpt>
      <trkpt lat="59.9635988" lon="17.7694471">
        <ele>33.3029</ele>
        <time>2012-10-08T18:38:16Z</time>
      </trkpt>
      <trkpt lat="59.963595" lon="17.7694859">
        <ele>33.7834</ele>
        <time>2012-10-08T18:38:17Z</time>
      </trkpt>
      <trkpt lat="59.9635884" lon="17.7695311">
        <ele>33.7834</ele>
        <time>2012-10-08T18:38:18Z</time>
      </trkpt>
      <trkpt lat="59.9635807" lon="17.7695765">
        <ele>34.2642</ele>
        <time>2012-10-08T18:38:19Z</time>
      </trkpt>
      <trkpt lat="59.9635781" lon="17.769621">
        <ele>34.7449</ele>
        <time>2012-10-08T18:38:20Z</time>
      </trkpt>
      <trkpt lat="59.9635724" lon="17.7696698">
        <ele>34.7449</ele>
        <time>2012-10-08T18:38:21Z</time>
      </trkpt>
      <trkpt lat="59.9635656" lon="17.7697107">
        <ele>34.7449</ele>
        <time>2012-10-08T18:38:22Z</time>
      </trkpt>
      <trkpt lat="59.9635624" lon="17.769753">
        <ele>34.7449</ele>
        <time>2012-10-08T18:38:23Z</time>
      </trkpt>
      <trkpt lat="59.9635588" lon="17.7697987">
        <ele>34.2642</ele>
        <time>2012-10-08T18:38:24Z</time>
      </trkpt>
      <trkpt lat="59.9635541" lon="17.7698492">
        <ele>34.2642</ele>
        <time>2012-10-08T18:38:25Z</time>
      </trkpt>
      <trkpt lat="59.9635531" lon="17.7698971">
        <ele>34.2642</ele>
        <time>2012-10-08T18:38:26Z</time>
      </trkpt>
      <trkpt lat="59.9635511" lon="17.7699406">
        <ele>33.7834</ele>
        <time>2012-10-08T18:38:27Z</time>
      </trkpt>
      <trkpt lat="59.9635486" lon="17.7699846">
        <ele>33.3029</ele>
        <time>2012-10-08T18:38:28Z</time>
      </trkpt>
      <trkpt lat="59.9635445" lon="17.7700354">
        <ele>32.8223</ele>
        <time>2012-10-08T18:38:29Z</time>
      </trkpt>
      <trkpt lat="59.963545" lon="17.7700867">
        <ele>31.3801</ele>
        <time>2012-10-08T18:38:30Z</time>
      </trkpt>
      <trkpt lat="59.9635512" lon="17.7701292">
        <ele>30.8995</ele>
        <time>2012-10-08T18:38:31Z</time>
      </trkpt>
      <trkpt lat="59.963553" lon="17.7701741">
        <ele>30.4188</ele>
        <time>2012-10-08T18:38:32Z</time>
      </trkpt>
      <trkpt lat="59.9635552" lon="17.7702246">
        <ele>29.4575</ele>
        <time>2012-10-08T18:38:33Z</time>
      </trkpt>
      <trkpt lat="59.9635679" lon="17.7702722">
        <ele>28.4962</ele>
        <time>2012-10-08T18:38:34Z</time>
      </trkpt>
      <trkpt lat="59.963576" lon="17.7703189">
        <ele>27.5349</ele>
        <time>2012-10-08T18:38:35Z</time>
      </trkpt>
      <trkpt lat="59.9635791" lon="17.7703691">
        <ele>27.0543</ele>
        <time>2012-10-08T18:38:36Z</time>
      </trkpt>
      <trkpt lat="59.9635915" lon="17.7704132">
        <ele>25.1317</ele>
        <time>2012-10-08T18:38:37Z</time>
      </trkpt>
      <trkpt lat="59.9636005" lon="17.7704617">
        <ele>24.651</ele>
        <time>2012-10-08T18:38:38Z</time>
      </trkpt>
      <trkpt lat="59.9635966" lon="17.7705169">
        <ele>24.651</ele>
        <time>2012-10-08T18:38:39Z</time>
      </trkpt>
      <trkpt lat="59.9635983" lon="17.7705743">
        <ele>24.1703</ele>
        <time>2012-10-08T18:38:40Z</time>
      </trkpt>
      <trkpt lat="59.9636045" lon="17.7706296">
        <ele>24.1703</ele>
        <time>2012-10-08T18:38:41Z</time>
      </trkpt>
      <trkpt lat="59.9636049" lon="17.770681">
        <ele>24.1703</ele>
        <time>2012-10-08T18:38:42Z</time>
      </trkpt>
      <trkpt lat="59.9636096" lon="17.7707291">
        <ele>24.1703</ele>
        <time>2012-10-08T18:38:43Z</time>
      </trkpt>
      <trkpt lat="59.9636194" lon="17.770771">
        <ele>24.1703</ele>
        <time>2012-10-08T18:38:44Z</time>
      </trkpt>
      <trkpt lat="59.9636211" lon="17.7708156">
        <ele>23.6896</ele>
        <time>2012-10-08T18:38:45Z</time>
      </trkpt>
      <trkpt lat="59.9636163" lon="17.7708655">
        <ele>22.7283</ele>
        <time>2012-10-08T18:38:46Z</time>
      </trkpt>
      <trkpt lat="59.9636226" lon="17.7709182">
        <ele>21.767</ele>
        <time>2012-10-08T18:38:47Z</time>
      </trkpt>
      <trkpt lat="59.9636251" lon="17.7709686">
        <ele>21.2864</ele>
        <time>2012-10-08T18:38:48Z</time>
      </trkpt>
      <trkpt lat="59.9636272" lon="17.7710182">
        <ele>20.8057</ele>
        <time>2012-10-08T18:38:49Z</time>
      </trkpt>
      <trkpt lat="59.9636307" lon="17.7710699">
        <ele>20.325</ele>
        <time>2012-10-08T18:38:50Z</time>
      </trkpt>
      <trkpt lat="59.9636354" lon="17.7711217">
        <ele>19.3638</ele>
        <time>2012-10-08T18:38:51Z</time>
      </trkpt>
      <trkpt lat="59.9636456" lon="17.7711698">
        <ele>20.325</ele>
        <time>2012-10-08T18:38:52Z</time>
      </trkpt>
      <trkpt lat="59.9636506" lon="17.7712238">
        <ele>20.325</ele>
        <time>2012-10-08T18:38:53Z</time>
      </trkpt>
      <trkpt lat="59.963658" lon="17.7712736">
        <ele>20.325</ele>
        <time>2012-10-08T18:38:54Z</time>
      </trkpt>
      <trkpt lat="59.9636635" lon="17.7713243">
        <ele>20.8057</ele>
        <time>2012-10-08T18:38:55Z</time>
      </trkpt>
      <trkpt lat="59.9636728" lon="17.7713761">
        <ele>20.325</ele>
        <time>2012-10-08T18:38:56Z</time>
      </trkpt>
      <trkpt lat="59.9636831" lon="17.7714238">
        <ele>20.325</ele>
        <time>2012-10-08T18:38:57Z</time>
      </trkpt>
      <trkpt lat="59.963689" lon="17.7714735">
        <ele>20.325</ele>
        <time>2012-10-08T18:38:58Z</time>
      </trkpt>
      <trkpt lat="59.9636971" lon="17.7715238">
        <ele>20.325</ele>
        <time>2012-10-08T18:38:59Z</time>
      </trkpt>
      <trkpt lat="59.9637061" lon="17.7715717">
        <ele>20.325</ele>
        <time>2012-10-08T18:39:00Z</time>
      </trkpt>
      <trkpt lat="59.9637153" lon="17.7716211">
        <ele>20.8057</ele>
        <time>2012-10-08T18:39:01Z</time>
      </trkpt>
      <trkpt lat="59.963722" lon="17.771667">
        <ele>20.325</ele>
        <time>2012-10-08T18:39:02Z</time>
      </trkpt>
      <trkpt lat="59.9637307" lon="17.7717112">
        <ele>19.8444</ele>
        <time>2012-10-08T18:39:03Z</time>
      </trkpt>
      <trkpt lat="59.9637378" lon="17.7717574">
        <ele>19.8444</ele>
        <time>2012-10-08T18:39:04Z</time>
      </trkpt>
      <trkpt lat="59.9637531" lon="17.7718021">
        <ele>19.3638</ele>
        <time>2012-10-08T18:39:05Z</time>
      </trkpt>
      <trkpt lat="59.9637739" lon="17.7718465">
        <ele>19.3638</ele>
        <time>2012-10-08T18:39:06Z</time>
      </trkpt>
      <trkpt lat="59.9637842" lon="17.7718911">
        <ele>18.8831</ele>
        <time>2012-10-08T18:39:07Z</time>
      </trkpt>
      <trkpt lat="59.96379" lon="17.7719382">
        <ele>18.4023</ele>
        <time>2012-10-08T18:39:08Z</time>
      </trkpt>
      <trkpt lat="59.9637977" lon="17.7719862">
        <ele>18.4023</ele>
        <time>2012-10-08T18:39:09Z</time>
      </trkpt>
      <trkpt lat="59.963806" lon="17.7720344">
        <ele>18.4023</ele>
        <time>2012-10-08T18:39:10Z</time>
      </trkpt>
      <trkpt lat="59.9638129" lon="17.7720858">
        <ele>17.9218</ele>
        <time>2012-10-08T18:39:11Z</time>
      </trkpt>
      <trkpt lat="59.9638221" lon="17.7721341">
        <ele>18.4023</ele>
        <time>2012-10-08T18:39:12Z</time>
      </trkpt>
      <trkpt lat="59.9638324" lon="17.7721791">
        <ele>18.4023</ele>
        <time>2012-10-08T18:39:13Z</time>
      </trkpt>
      <trkpt lat="59.9638418" lon="17.7722291">
        <ele>18.4023</ele>
        <time>2012-10-08T18:39:14Z</time>
      </trkpt>
      <trkpt lat="59.9638501" lon="17.7722776">
        <ele>18.4023</ele>
        <time>2012-10-08T18:39:15Z</time>
      </trkpt>
      <trkpt lat="59.963859" lon="17.7723267">
        <ele>18.8831</ele>
        <time>2012-10-08T18:39:16Z</time>
      </trkpt>
      <trkpt lat="59.9638687" lon="17.7723846">
        <ele>18.4023</ele>
        <time>2012-10-08T18:39:17Z</time>
      </trkpt>
      <trkpt lat="59.9638779" lon="17.7724376">
        <ele>18.8831</ele>
        <time>2012-10-08T18:39:18Z</time>
      </trkpt>
      <trkpt lat="59.9638859" lon="17.7724883">
        <ele>19.3638</ele>
        <time>2012-10-08T18:39:19Z</time>
      </trkpt>
      <trkpt lat="59.9638931" lon="17.7725411">
        <ele>19.3638</ele>
        <time>2012-10-08T18:39:20Z</time>
      </trkpt>
      <trkpt lat="59.9639003" lon="17.7725924">
        <ele>19.8444</ele>
        <time>2012-10-08T18:39:21Z</time>
      </trkpt>
      <trkpt lat="59.9639071" lon="17.7726412">
        <ele>20.8057</ele>
        <time>2012-10-08T18:39:22Z</time>
      </trkpt>
      <trkpt lat="59.9639156" lon="17.7726932">
        <ele>20.325</ele>
        <time>2012-10-08T18:39:23Z</time>
      </trkpt>
      <trkpt lat="59.963925" lon="17.7727478">
        <ele>20.8057</ele>
        <time>2012-10-08T18:39:24Z</time>
      </trkpt>
      <trkpt lat="59.9639302" lon="17.7727969">
        <ele>21.767</ele>
        <time>2012-10-08T18:39:25Z</time>
      </trkpt>
      <trkpt lat="59.9639355" lon="17.7728453">
        <ele>22.7283</ele>
        <time>2012-10-08T18:39:26Z</time>
      </trkpt>
      <trkpt lat="59.9639398" lon="17.7728965">
        <ele>23.209</ele>
        <time>2012-10-08T18:39:27Z</time>
      </trkpt>
      <trkpt lat="59.9639437" lon="17.7729502">
        <ele>23.6896</ele>
        <time>2012-10-08T18:39:28Z</time>
      </trkpt>
      <trkpt lat="59.9639431" lon="17.7730026">
        <ele>23.6896</ele>
        <time>2012-10-08T18:39:29Z</time>
      </trkpt>
      <trkpt lat="59.9639437" lon="17.7730528">
        <ele>24.1703</ele>
        <time>2012-10-08T18:39:30Z</time>
      </trkpt>
      <trkpt lat="59.9639397" lon="17.7731025">
        <ele>24.651</ele>
        <time>2012-10-08T18:39:31Z</time>
      </trkpt>
      <trkpt lat="59.9639355" lon="17.7731466">
        <ele>25.1317</ele>
        <time>2012-10-08T18:39:32Z</time>
      </trkpt>
      <trkpt lat="59.9639325" lon="17.7731928">
        <ele>25.6123</ele>
        <time>2012-10-08T18:39:33Z</time>
      </trkpt>
      <trkpt lat="59.9639272" lon="17.7732434">
        <ele>26.0929</ele>
        <time>2012-10-08T18:39:34Z</time>
      </trkpt>
      <trkpt lat="59.9639195" lon="17.7732897">
        <ele>26.0929</ele>
        <time>2012-10-08T18:39:35Z</time>
      </trkpt>
      <trkpt lat="59.9639146" lon="17.7733328">
        <ele>26.5736</ele>
        <time>2012-10-08T18:39:36Z</time>
      </trkpt>
      <trkpt lat="59.9639065" lon="17.7733784">
        <ele>27.0543</ele>
        <time>2012-10-08T18:39:37Z</time>
      </trkpt>
      <trkpt lat="59.9638946" lon="17.7734296">
        <ele>27.5349</ele>
        <time>2012-10-08T18:39:38Z</time>
      </trkpt>
      <trkpt lat="59.9638862" lon="17.7734899">
        <ele>28.0155</ele>
        <time>2012-10-08T18:39:39Z</time>
      </trkpt>
      <trkpt lat="59.9638775" lon="17.773547">
        <ele>28.4962</ele>
        <time>2012-10-08T18:39:40Z</time>
      </trkpt>
      <trkpt lat="59.9638693" lon="17.7735994">
        <ele>28.9769</ele>
        <time>2012-10-08T18:39:41Z</time>
      </trkpt>
      <trkpt lat="59.9638625" lon="17.7736474">
        <ele>29.4575</ele>
        <time>2012-10-08T18:39:42Z</time>
      </trkpt>
      <trkpt lat="59.9638556" lon="17.7736959">
        <ele>29.9381</ele>
        <time>2012-10-08T18:39:43Z</time>
      </trkpt>
      <trkpt lat="59.9638533" lon="17.773743">
        <ele>30.4188</ele>
        <time>2012-10-08T18:39:44Z</time>
      </trkpt>
      <trkpt lat="59.9638471" lon="17.7737911">
        <ele>30.8995</ele>
        <time>2012-10-08T18:39:45Z</time>
      </trkpt>
      <trkpt lat="59.9638401" lon="17.7738394">
        <ele>31.8607</ele>
        <time>2012-10-08T18:39:46Z</time>
      </trkpt>
      <trkpt lat="59.9638343" lon="17.7738904">
        <ele>32.3416</ele>
        <time>2012-10-08T18:39:47Z</time>
      </trkpt>
      <trkpt lat="59.9638234" lon="17.7739418">
        <ele>33.3029</ele>
        <time>2012-10-08T18:39:48Z</time>
      </trkpt>
      <trkpt lat="59.9638076" lon="17.7739909">
        <ele>34.2642</ele>
        <time>2012-10-08T18:39:49Z</time>
      </trkpt>
      <trkpt lat="59.9637921" lon="17.7740336">
        <ele>35.2255</ele>
        <time>2012-10-08T18:39:50Z</time>
      </trkpt>
      <trkpt lat="59.9637817" lon="17.7740785">
        <ele>36.1868</ele>
        <time>2012-10-08T18:39:51Z</time>
      </trkpt>
      <trkpt lat="59.9637716" lon="17.7741189">
        <ele>37.1481</ele>
        <time>2012-10-08T18:39:52Z</time>
      </trkpt>
      <trkpt lat="59.9637604" lon="17.7741593">
        <ele>37.1481</ele>
        <time>2012-10-08T18:39:53Z</time>
      </trkpt>
      <trkpt lat="59.9637527" lon="17.7742058">
        <ele>38.1094</ele>
        <time>2012-10-08T18:39:54Z</time>
      </trkpt>
      <trkpt lat="59.9637455" lon="17.7742501">
        <ele>38.5901</ele>
        <time>2012-10-08T18:39:55Z</time>
      </trkpt>
      <trkpt lat="59.9637416" lon="17.7742975">
        <ele>39.0707</ele>
        <time>2012-10-08T18:39:56Z</time>
      </trkpt>
      <trkpt lat="59.963739" lon="17.774346">
        <ele>40.0321</ele>
        <time>2012-10-08T18:39:57Z</time>
      </trkpt>
      <trkpt lat="59.9637242" lon="17.7743985">
        <ele>40.9934</ele>
        <time>2012-10-08T18:39:58Z</time>
      </trkpt>
      <trkpt lat="59.9637093" lon="17.774447">
        <ele>41.474</ele>
        <time>2012-10-08T18:39:59Z</time>
      </trkpt>
      <trkpt lat="59.9636935" lon="17.7744998">
        <ele>42.4354</ele>
        <time>2012-10-08T18:40:00Z</time>
      </trkpt>
      <trkpt lat="59.9636719" lon="17.7745548">
        <ele>43.3966</ele>
        <time>2012-10-08T18:40:01Z</time>
      </trkpt>
      <trkpt lat="59.963662" lon="17.7746064">
        <ele>43.8773</ele>
        <time>2012-10-08T18:40:02Z</time>
      </trkpt>
      <trkpt lat="59.9636574" lon="17.7746576">
        <ele>44.8386</ele>
        <time>2012-10-08T18:40:03Z</time>
      </trkpt>
      <trkpt lat="59.9636502" lon="17.7747071">
        <ele>44.358</ele>
        <time>2012-10-08T18:40:04Z</time>
      </trkpt>
      <trkpt lat="59.9636502" lon="17.7747585">
        <ele>45.3192</ele>
        <time>2012-10-08T18:40:05Z</time>
      </trkpt>
      <trkpt lat="59.9636454" lon="17.7748217">
        <ele>45.3192</ele>
        <time>2012-10-08T18:40:06Z</time>
      </trkpt>
      <trkpt lat="59.9636421" lon="17.7748908">
        <ele>45.3192</ele>
        <time>2012-10-08T18:40:07Z</time>
      </trkpt>
      <trkpt lat="59.9636356" lon="17.7749412">
        <ele>45.7999</ele>
        <time>2012-10-08T18:40:08Z</time>
      </trkpt>
      <trkpt lat="59.9636247" lon="17.7749865">
        <ele>46.2806</ele>
        <time>2012-10-08T18:40:09Z</time>
      </trkpt>
      <trkpt lat="59.9636139" lon="17.7750332">
        <ele>46.2806</ele>
        <time>2012-10-08T18:40:10Z</time>
      </trkpt>
      <trkpt lat="59.9636039" lon="17.7750789">
        <ele>45.7999</ele>
        <time>2012-10-08T18:40:11Z</time>
      </trkpt>
      <trkpt lat="59.9635833" lon="17.7751243">
        <ele>46.2806</ele>
        <time>2012-10-08T18:40:12Z</time>
      </trkpt>
      <trkpt lat="59.963563" lon="17.7751721">
        <ele>46.7612</ele>
        <time>2012-10-08T18:40:13Z</time>
      </trkpt>
      <trkpt lat="59.9635492" lon="17.7752223">
        <ele>46.7612</ele>
        <time>2012-10-08T18:40:14Z</time>
      </trkpt>
      <trkpt lat="59.963533" lon="17.7752726">
        <ele>47.2418</ele>
        <time>2012-10-08T18:40:15Z</time>
      </trkpt>
      <trkpt lat="59.9635064" lon="17.7753316">
        <ele>48.2034</ele>
        <time>2012-10-08T18:40:16Z</time>
      </trkpt>
      <trkpt lat="59.9634786" lon="17.7753942">
        <ele>48.684</ele>
        <time>2012-10-08T18:40:17Z</time>
      </trkpt>
      <trkpt lat="59.9634691" lon="17.7754394">
        <ele>49.1646</ele>
        <time>2012-10-08T18:40:18Z</time>
      </trkpt>
      <trkpt lat="59.9634632" lon="17.7754808">
        <ele>49.6453</ele>
        <time>2012-10-08T18:40:19Z</time>
      </trkpt>
      <trkpt lat="59.9634529" lon="17.7755187">
        <ele>49.1646</ele>
        <time>2012-10-08T18:40:20Z</time>
      </trkpt>
      <trkpt lat="59.9634432" lon="17.7755617">
        <ele>49.6453</ele>
        <time>2012-10-08T18:40:21Z</time>
      </trkpt>
      <trkpt lat="59.9634323" lon="17.7756041">
        <ele>50.126</ele>
        <time>2012-10-08T18:40:22Z</time>
      </trkpt>
      <trkpt lat="59.9634195" lon="17.7756347">
        <ele>50.6066</ele>
        <time>2012-10-08T18:40:23Z</time>
      </trkpt>
      <trkpt lat="59.9634068" lon="17.7756653">
        <ele>51.5679</ele>
        <time>2012-10-08T18:40:24Z</time>
      </trkpt>
      <trkpt lat="59.963391" lon="17.7757036">
        <ele>51.5679</ele>
        <time>2012-10-08T18:40:25Z</time>
      </trkpt>
      <trkpt lat="59.9633807" lon="17.7757533">
        <ele>51.0872</ele>
        <time>2012-10-08T18:40:26Z</time>
      </trkpt>
      <trkpt lat="59.9633756" lon="17.7757974">
        <ele>51.5679</ele>
        <time>2012-10-08T18:40:27Z</time>
      </trkpt>
      <trkpt lat="59.9633604" lon="17.7758341">
        <ele>52.0486</ele>
        <time>2012-10-08T18:40:28Z</time>
      </trkpt>
      <trkpt lat="59.963344" lon="17.7758691">
        <ele>52.0486</ele>
        <time>2012-10-08T18:40:29Z</time>
      </trkpt>
      <trkpt lat="59.9633321" lon="17.7759087">
        <ele>52.0486</ele>
        <time>2012-10-08T18:40:30Z</time>
      </trkpt>
      <trkpt lat="59.9633181" lon="17.7759563">
        <ele>51.0872</ele>
        <time>2012-10-08T18:40:31Z</time>
      </trkpt>
      <trkpt lat="59.9633063" lon="17.7760008">
        <ele>50.6066</ele>
        <time>2012-10-08T18:40:32Z</time>
      </trkpt>
      <trkpt lat="59.9632937" lon="17.7760433">
        <ele>50.126</ele>
        <time>2012-10-08T18:40:33Z</time>
      </trkpt>
      <trkpt lat="59.9632822" lon="17.7760824">
        <ele>49.6453</ele>
        <time>2012-10-08T18:40:34Z</time>
      </trkpt>
      <trkpt lat="59.9632702" lon="17.7761226">
        <ele>49.6453</ele>
        <time>2012-10-08T18:40:35Z</time>
      </trkpt>
      <trkpt lat="59.9632591" lon="17.776161">
        <ele>50.126</ele>
        <time>2012-10-08T18:40:36Z</time>
      </trkpt>
      <trkpt lat="59.9632483" lon="17.7762014">
        <ele>49.6453</ele>
        <time>2012-10-08T18:40:37Z</time>
      </trkpt>
      <trkpt lat="59.9632387" lon="17.7762387">
        <ele>49.1646</ele>
        <time>2012-10-08T18:40:38Z</time>
      </trkpt>
      <trkpt lat="59.9632278" lon="17.7762787">
        <ele>49.1646</ele>
        <time>2012-10-08T18:40:39Z</time>
      </trkpt>
      <trkpt lat="59.9632155" lon="17.7763173">
        <ele>48.684</ele>
        <time>2012-10-08T18:40:40Z</time>
      </trkpt>
      <trkpt lat="59.9632053" lon="17.7763519">
        <ele>48.684</ele>
        <time>2012-10-08T18:40:41Z</time>
      </trkpt>
      <trkpt lat="59.9631966" lon="17.7763884">
        <ele>48.684</ele>
        <time>2012-10-08T18:40:42Z</time>
      </trkpt>
      <trkpt lat="59.9631868" lon="17.7764284">
        <ele>49.1646</ele>
        <time>2012-10-08T18:40:43Z</time>
      </trkpt>
      <trkpt lat="59.9631765" lon="17.7764678">
        <ele>48.684</ele>
        <time>2012-10-08T18:40:44Z</time>
      </trkpt>
      <trkpt lat="59.9631632" lon="17.7765125">
        <ele>48.2034</ele>
        <time>2012-10-08T18:40:45Z</time>
      </trkpt>
      <trkpt lat="59.9631483" lon="17.7765542">
        <ele>48.2034</ele>
        <time>2012-10-08T18:40:46Z</time>
      </trkpt>
      <trkpt lat="59.9631413" lon="17.7765991">
        <ele>47.7225</ele>
        <time>2012-10-08T18:40:47Z</time>
      </trkpt>
      <trkpt lat="59.9631347" lon="17.7766449">
        <ele>47.2418</ele>
        <time>2012-10-08T18:40:48Z</time>
      </trkpt>
      <trkpt lat="59.9631268" lon="17.7766872">
        <ele>47.2418</ele>
        <time>2012-10-08T18:40:49Z</time>
      </trkpt>
      <trkpt lat="59.9631212" lon="17.7767229">
        <ele>46.7612</ele>
        <time>2012-10-08T18:40:50Z</time>
      </trkpt>
      <trkpt lat="59.9631134" lon="17.7767562">
        <ele>45.7999</ele>
        <time>2012-10-08T18:40:51Z</time>
      </trkpt>
      <trkpt lat="59.9631019" lon="17.7767954">
        <ele>45.7999</ele>
        <time>2012-10-08T18:40:52Z</time>
      </trkpt>
      <trkpt lat="59.9630899" lon="17.77684">
        <ele>44.8386</ele>
        <time>2012-10-08T18:40:53Z</time>
      </trkpt>
      <trkpt lat="59.9630809" lon="17.7768857">
        <ele>43.8773</ele>
        <time>2012-10-08T18:40:54Z</time>
      </trkpt>
      <trkpt lat="59.9630716" lon="17.77693">
        <ele>43.8773</ele>
        <time>2012-10-08T18:40:55Z</time>
      </trkpt>
      <trkpt lat="59.9630539" lon="17.7769727">
        <ele>42.916</ele>
        <time>2012-10-08T18:40:56Z</time>
      </trkpt>
      <trkpt lat="59.9630363" lon="17.7770108">
        <ele>42.4354</ele>
        <time>2012-10-08T18:40:57Z</time>
      </trkpt>
      <trkpt lat="59.9630205" lon="17.7770499">
        <ele>41.9547</ele>
        <time>2012-10-08T18:40:58Z</time>
      </trkpt>
      <trkpt lat="59.9630046" lon="17.7770914">
        <ele>41.474</ele>
        <time>2012-10-08T18:40:59Z</time>
      </trkpt>
      <trkpt lat="59.9629879" lon="17.7771328">
        <ele>40.9934</ele>
        <time>2012-10-08T18:41:00Z</time>
      </trkpt>
      <trkpt lat="59.9629722" lon="17.7771712">
        <ele>40.5128</ele>
        <time>2012-10-08T18:41:01Z</time>
      </trkpt>
      <trkpt lat="59.9629578" lon="17.7772094">
        <ele>40.5128</ele>
        <time>2012-10-08T18:41:02Z</time>
      </trkpt>
      <trkpt lat="59.9629395" lon="17.7772488">
        <ele>40.0321</ele>
        <time>2012-10-08T18:41:03Z</time>
      </trkpt>
      <trkpt lat="59.9629208" lon="17.7772878">
        <ele>39.5513</ele>
        <time>2012-10-08T18:41:04Z</time>
      </trkpt>
      <trkpt lat="59.9629022" lon="17.7773254">
        <ele>39.5513</ele>
        <time>2012-10-08T18:41:05Z</time>
      </trkpt>
      <trkpt lat="59.962882" lon="17.7773638">
        <ele>39.0707</ele>
        <time>2012-10-08T18:41:06Z</time>
      </trkpt>
      <trkpt lat="59.9628631" lon="17.7773997">
        <ele>38.5901</ele>
        <time>2012-10-08T18:41:07Z</time>
      </trkpt>
      <trkpt lat="59.9628458" lon="17.7774368">
        <ele>38.5901</ele>
        <time>2012-10-08T18:41:08Z</time>
      </trkpt>
      <trkpt lat="59.9628274" lon="17.7774731">
        <ele>38.5901</ele>
        <time>2012-10-08T18:41:09Z</time>
      </trkpt>
      <trkpt lat="59.9628074" lon="17.7775045">
        <ele>38.5901</ele>
        <time>2012-10-08T18:41:10Z</time>
      </trkpt>
      <trkpt lat="59.9627893" lon="17.7775378">
        <ele>38.5901</ele>
        <time>2012-10-08T18:41:11Z</time>
      </trkpt>
      <trkpt lat="59.9627705" lon="17.7775744">
        <ele>38.1094</ele>
        <time>2012-10-08T18:41:12Z</time>
      </trkpt>
      <trkpt lat="59.9627517" lon="17.7776083">
        <ele>38.1094</ele>
        <time>2012-10-08T18:41:13Z</time>
      </trkpt>
      <trkpt lat="59.9627333" lon="17.7776425">
        <ele>38.1094</ele>
        <time>2012-10-08T18:41:14Z</time>
      </trkpt>
      <trkpt lat="59.9627146" lon="17.7776794">
        <ele>38.1094</ele>
        <time>2012-10-08T18:41:15Z</time>
      </trkpt>
      <trkpt lat="59.9626954" lon="17.7777144">
        <ele>38.1094</ele>
        <time>2012-10-08T18:41:16Z</time>
      </trkpt>
      <trkpt lat="59.9626762" lon="17.7777491">
        <ele>37.6287</ele>
        <time>2012-10-08T18:41:17Z</time>
      </trkpt>
      <trkpt lat="59.9626585" lon="17.7777847">
        <ele>37.1481</ele>
        <time>2012-10-08T18:41:18Z</time>
      </trkpt>
      <trkpt lat="59.9626403" lon="17.7778228">
        <ele>37.1481</ele>
        <time>2012-10-08T18:41:19Z</time>
      </trkpt>
      <trkpt lat="59.9626208" lon="17.777856">
        <ele>36.6675</ele>
        <time>2012-10-08T18:41:20Z</time>
      </trkpt>
      <trkpt lat="59.962604" lon="17.777888">
        <ele>36.1868</ele>
        <time>2012-10-08T18:41:21Z</time>
      </trkpt>
      <trkpt lat="59.9625871" lon="17.7779237">
        <ele>36.1868</ele>
        <time>2012-10-08T18:41:22Z</time>
      </trkpt>
      <trkpt lat="59.9625683" lon="17.7779607">
        <ele>35.7061</ele>
        <time>2012-10-08T18:41:23Z</time>
      </trkpt>
      <trkpt lat="59.9625507" lon="17.7779961">
        <ele>35.7061</ele>
        <time>2012-10-08T18:41:24Z</time>
      </trkpt>
      <trkpt lat="59.9625338" lon="17.7780326">
        <ele>36.1868</ele>
        <time>2012-10-08T18:41:25Z</time>
      </trkpt>
      <trkpt lat="59.9625149" lon="17.7780681">
        <ele>35.7061</ele>
        <time>2012-10-08T18:41:26Z</time>
      </trkpt>
      <trkpt lat="59.9624968" lon="17.778101">
        <ele>35.7061</ele>
        <time>2012-10-08T18:41:27Z</time>
      </trkpt>
      <trkpt lat="59.9624785" lon="17.7781356">
        <ele>36.1868</ele>
        <time>2012-10-08T18:41:28Z</time>
      </trkpt>
      <trkpt lat="59.9624597" lon="17.7781724">
        <ele>35.7061</ele>
        <time>2012-10-08T18:41:29Z</time>
      </trkpt>
      <trkpt lat="59.9624422" lon="17.7782066">
        <ele>35.7061</ele>
        <time>2012-10-08T18:41:30Z</time>
      </trkpt>
      <trkpt lat="59.9624266" lon="17.7782411">
        <ele>36.1868</ele>
        <time>2012-10-08T18:41:31Z</time>
      </trkpt>
      <trkpt lat="59.9624095" lon="17.7782843">
        <ele>36.1868</ele>
        <time>2012-10-08T18:41:32Z</time>
      </trkpt>
      <trkpt lat="59.9623939" lon="17.7783262">
        <ele>36.1868</ele>
        <time>2012-10-08T18:41:33Z</time>
      </trkpt>
      <trkpt lat="59.9623792" lon="17.7783623">
        <ele>36.6675</ele>
        <time>2012-10-08T18:41:34Z</time>
      </trkpt>
      <trkpt lat="59.9623623" lon="17.7783978">
        <ele>37.1481</ele>
        <time>2012-10-08T18:41:35Z</time>
      </trkpt>
      <trkpt lat="59.9623464" lon="17.7784366">
        <ele>36.6675</ele>
        <time>2012-10-08T18:41:36Z</time>
      </trkpt>
      <trkpt lat="59.9623301" lon="17.7784763">
        <ele>36.6675</ele>
        <time>2012-10-08T18:41:37Z</time>
      </trkpt>
      <trkpt lat="59.9623104" lon="17.7785183">
        <ele>36.1868</ele>
        <time>2012-10-08T18:41:38Z</time>
      </trkpt>
      <trkpt lat="59.9622928" lon="17.7785573">
        <ele>36.1868</ele>
        <time>2012-10-08T18:41:39Z</time>
      </trkpt>
      <trkpt lat="59.962278" lon="17.7785944">
        <ele>36.1868</ele>
        <time>2012-10-08T18:41:40Z</time>
      </trkpt>
      <trkpt lat="59.9622593" lon="17.7786335">
        <ele>36.1868</ele>
        <time>2012-10-08T18:41:41Z</time>
      </trkpt>
      <trkpt lat="59.9622412" lon="17.7786711">
        <ele>36.1868</ele>
        <time>2012-10-08T18:41:42Z</time>
      </trkpt>
      <trkpt lat="59.9622261" lon="17.7787047">
        <ele>36.6675</ele>
        <time>2012-10-08T18:41:43Z</time>
      </trkpt>
      <trkpt lat="59.9622075" lon="17.7787406">
        <ele>36.6675</ele>
        <time>2012-10-08T18:41:44Z</time>
      </trkpt>
      <trkpt lat="59.9621888" lon="17.7787795">
        <ele>36.1868</ele>
        <time>2012-10-08T18:41:45Z</time>
      </trkpt>
      <trkpt lat="59.9621728" lon="17.7788195">
        <ele>36.1868</ele>
        <time>2012-10-08T18:41:46Z</time>
      </trkpt>
      <trkpt lat="59.9621562" lon="17.7788592">
        <ele>36.6675</ele>
        <time>2012-10-08T18:41:47Z</time>
      </trkpt>
      <trkpt lat="59.9621409" lon="17.7788988">
        <ele>36.1868</ele>
        <time>2012-10-08T18:41:48Z</time>
      </trkpt>
      <trkpt lat="59.9621256" lon="17.7789353">
        <ele>36.1868</ele>
        <time>2012-10-08T18:41:49Z</time>
      </trkpt>
      <trkpt lat="59.962109" lon="17.7789742">
        <ele>36.1868</ele>
        <time>2012-10-08T18:41:50Z</time>
      </trkpt>
      <trkpt lat="59.9620933" lon="17.779009">
        <ele>35.7061</ele>
        <time>2012-10-08T18:41:51Z</time>
      </trkpt>
      <trkpt lat="59.9620795" lon="17.77904">
        <ele>36.1868</ele>
        <time>2012-10-08T18:41:52Z</time>
      </trkpt>
      <trkpt lat="59.962064" lon="17.7790773">
        <ele>36.1868</ele>
        <time>2012-10-08T18:41:53Z</time>
      </trkpt>
      <trkpt lat="59.9620467" lon="17.7791142">
        <ele>35.7061</ele>
        <time>2012-10-08T18:41:54Z</time>
      </trkpt>
      <trkpt lat="59.9620332" lon="17.7791435">
        <ele>36.1868</ele>
        <time>2012-10-08T18:41:55Z</time>
      </trkpt>
      <trkpt lat="59.9620144" lon="17.77918">
        <ele>35.7061</ele>
        <time>2012-10-08T18:41:56Z</time>
      </trkpt>
      <trkpt lat="59.9619973" lon="17.7792181">
        <ele>35.7061</ele>
        <time>2012-10-08T18:41:57Z</time>
      </trkpt>
      <trkpt lat="59.9619832" lon="17.7792565">
        <ele>35.7061</ele>
        <time>2012-10-08T18:41:58Z</time>
      </trkpt>
      <trkpt lat="59.9619671" lon="17.7792979">
        <ele>35.7061</ele>
        <time>2012-10-08T18:41:59Z</time>
      </trkpt>
      <trkpt lat="59.9619501" lon="17.7793336">
        <ele>35.2255</ele>
        <time>2012-10-08T18:42:00Z</time>
      </trkpt>
      <trkpt lat="59.9619319" lon="17.7793659">
        <ele>34.7449</ele>
        <time>2012-10-08T18:42:01Z</time>
      </trkpt>
      <trkpt lat="59.9619107" lon="17.7793996">
        <ele>34.7449</ele>
        <time>2012-10-08T18:42:02Z</time>
      </trkpt>
      <trkpt lat="59.9618892" lon="17.7794382">
        <ele>34.2642</ele>
        <time>2012-10-08T18:42:03Z</time>
      </trkpt>
      <trkpt lat="59.9618752" lon="17.7794768">
        <ele>34.7449</ele>
        <time>2012-10-08T18:42:04Z</time>
      </trkpt>
      <trkpt lat="59.9618607" lon="17.7795227">
        <ele>35.2255</ele>
        <time>2012-10-08T18:42:05Z</time>
      </trkpt>
      <trkpt lat="59.9618454" lon="17.7795688">
        <ele>35.2255</ele>
        <time>2012-10-08T18:42:06Z</time>
      </trkpt>
      <trkpt lat="59.9618298" lon="17.779612">
        <ele>35.2255</ele>
        <time>2012-10-08T18:42:07Z</time>
      </trkpt>
      <trkpt lat="59.9618115" lon="17.779652">
        <ele>35.2255</ele>
        <time>2012-10-08T18:42:08Z</time>
      </trkpt>
      <trkpt lat="59.9617905" lon="17.7796843">
        <ele>35.2255</ele>
        <time>2012-10-08T18:42:09Z</time>
      </trkpt>
      <trkpt lat="59.9617711" lon="17.7797161">
        <ele>35.2255</ele>
        <time>2012-10-08T18:42:10Z</time>
      </trkpt>
      <trkpt lat="59.9617573" lon="17.7797543">
        <ele>35.7061</ele>
        <time>2012-10-08T18:42:11Z</time>
      </trkpt>
      <trkpt lat="59.9617438" lon="17.7797948">
        <ele>35.7061</ele>
        <time>2012-10-08T18:42:12Z</time>
      </trkpt>
      <trkpt lat="59.9617293" lon="17.7798331">
        <ele>35.7061</ele>
        <time>2012-10-08T18:42:13Z</time>
      </trkpt>
      <trkpt lat="59.9617122" lon="17.7798719">
        <ele>35.7061</ele>
        <time>2012-10-08T18:42:14Z</time>
      </trkpt>
      <trkpt lat="59.9616931" lon="17.7799108">
        <ele>35.2255</ele>
        <time>2012-10-08T18:42:15Z</time>
      </trkpt>
      <trkpt lat="59.9616779" lon="17.7799485">
        <ele>35.2255</ele>
        <time>2012-10-08T18:42:16Z</time>
      </trkpt>
      <trkpt lat="59.9616624" lon="17.7799847">
        <ele>35.2255</ele>
        <time>2012-10-08T18:42:17Z</time>
      </trkpt>
      <trkpt lat="59.9616453" lon="17.78002">
        <ele>35.2255</ele>
        <time>2012-10-08T18:42:18Z</time>
      </trkpt>
      <trkpt lat="59.9616293" lon="17.7800567">
        <ele>35.2255</ele>
        <time>2012-10-08T18:42:19Z</time>
      </trkpt>
      <trkpt lat="59.9616163" lon="17.7800935">
        <ele>35.7061</ele>
        <time>2012-10-08T18:42:20Z</time>
      </trkpt>
      <trkpt lat="59.9615989" lon="17.7801264">
        <ele>35.2255</ele>
        <time>2012-10-08T18:42:21Z</time>
      </trkpt>
      <trkpt lat="59.9615817" lon="17.7801612">
        <ele>35.2255</ele>
        <time>2012-10-08T18:42:22Z</time>
      </trkpt>
      <trkpt lat="59.9615635" lon="17.7802008">
        <ele>34.2642</ele>
        <time>2012-10-08T18:42:23Z</time>
      </trkpt>
      <trkpt lat="59.9615453" lon="17.780233">
        <ele>33.7834</ele>
        <time>2012-10-08T18:42:24Z</time>
      </trkpt>
      <trkpt lat="59.9615294" lon="17.78026">
        <ele>33.7834</ele>
        <time>2012-10-08T18:42:25Z</time>
      </trkpt>
      <trkpt lat="59.9615124" lon="17.7802928">
        <ele>33.3029</ele>
        <time>2012-10-08T18:42:26Z</time>
      </trkpt>
      <trkpt lat="59.9614945" lon="17.7803277">
        <ele>33.3029</ele>
        <time>2012-10-08T18:42:27Z</time>
      </trkpt>
      <trkpt lat="59.9614781" lon="17.7803575">
        <ele>33.3029</ele>
        <time>2012-10-08T18:42:28Z</time>
      </trkpt>
      <trkpt lat="59.9614611" lon="17.7803895">
        <ele>33.3029</ele>
        <time>2012-10-08T18:42:29Z</time>
      </trkpt>
      <trkpt lat="59.961444" lon="17.7804212">
        <ele>33.7834</ele>
        <time>2012-10-08T18:42:30Z</time>
      </trkpt>
      <trkpt lat="59.9614288" lon="17.7804501">
        <ele>33.7834</ele>
        <time>2012-10-08T18:42:31Z</time>
      </trkpt>
      <trkpt lat="59.9614123" lon="17.7804817">
        <ele>33.7834</ele>
        <time>2012-10-08T18:42:32Z</time>
      </trkpt>
      <trkpt lat="59.9613914" lon="17.7805164">
        <ele>33.7834</ele>
        <time>2012-10-08T18:42:33Z</time>
      </trkpt>
      <trkpt lat="59.961373" lon="17.780547">
        <ele>33.7834</ele>
        <time>2012-10-08T18:42:34Z</time>
      </trkpt>
      <trkpt lat="59.9613547" lon="17.7805812">
        <ele>33.3029</ele>
        <time>2012-10-08T18:42:35Z</time>
      </trkpt>
      <trkpt lat="59.9613341" lon="17.7806143">
        <ele>33.3029</ele>
        <time>2012-10-08T18:42:36Z</time>
      </trkpt>
      <trkpt lat="59.9613153" lon="17.7806454">
        <ele>32.8223</ele>
        <time>2012-10-08T18:42:37Z</time>
      </trkpt>
      <trkpt lat="59.9612966" lon="17.7806806">
        <ele>32.8223</ele>
        <time>2012-10-08T18:42:38Z</time>
      </trkpt>
      <trkpt lat="59.9612761" lon="17.7807152">
        <ele>32.3416</ele>
        <time>2012-10-08T18:42:39Z</time>
      </trkpt>
      <trkpt lat="59.9612583" lon="17.7807469">
        <ele>32.8223</ele>
        <time>2012-10-08T18:42:40Z</time>
      </trkpt>
      <trkpt lat="59.9612419" lon="17.7807817">
        <ele>32.8223</ele>
        <time>2012-10-08T18:42:41Z</time>
      </trkpt>
      <trkpt lat="59.9612221" lon="17.7808184">
        <ele>32.3416</ele>
        <time>2012-10-08T18:42:42Z</time>
      </trkpt>
      <trkpt lat="59.9612003" lon="17.7808557">
        <ele>32.3416</ele>
        <time>2012-10-08T18:42:43Z</time>
      </trkpt>
      <trkpt lat="59.9611812" lon="17.7808904">
        <ele>31.3801</ele>
        <time>2012-10-08T18:42:44Z</time>
      </trkpt>
      <trkpt lat="59.9611611" lon="17.780922">
        <ele>30.8995</ele>
        <time>2012-10-08T18:42:45Z</time>
      </trkpt>
      <trkpt lat="59.9611396" lon="17.7809541">
        <ele>29.9381</ele>
        <time>2012-10-08T18:42:46Z</time>
      </trkpt>
      <trkpt lat="59.9611192" lon="17.7809877">
        <ele>29.4575</ele>
        <time>2012-10-08T18:42:47Z</time>
      </trkpt>
      <trkpt lat="59.9610989" lon="17.7810209">
        <ele>29.4575</ele>
        <time>2012-10-08T18:42:48Z</time>
      </trkpt>
      <trkpt lat="59.9610782" lon="17.7810578">
        <ele>28.9769</ele>
        <time>2012-10-08T18:42:49Z</time>
      </trkpt>
      <trkpt lat="59.9610602" lon="17.7810895">
        <ele>28.9769</ele>
        <time>2012-10-08T18:42:50Z</time>
      </trkpt>
      <trkpt lat="59.96104" lon="17.7811205">
        <ele>28.4962</ele>
        <time>2012-10-08T18:42:51Z</time>
      </trkpt>
      <trkpt lat="59.9610181" lon="17.7811547">
        <ele>28.0155</ele>
        <time>2012-10-08T18:42:52Z</time>
      </trkpt>
      <trkpt lat="59.9610006" lon="17.7811878">
        <ele>28.4962</ele>
        <time>2012-10-08T18:42:53Z</time>
      </trkpt>
      <trkpt lat="59.9609829" lon="17.7812203">
        <ele>28.4962</ele>
        <time>2012-10-08T18:42:54Z</time>
      </trkpt>
      <trkpt lat="59.9609642" lon="17.7812542">
        <ele>28.0155</ele>
        <time>2012-10-08T18:42:55Z</time>
      </trkpt>
      <trkpt lat="59.9609477" lon="17.781291">
        <ele>28.4962</ele>
        <time>2012-10-08T18:42:56Z</time>
      </trkpt>
      <trkpt lat="59.9609295" lon="17.7813264">
        <ele>28.4962</ele>
        <time>2012-10-08T18:42:57Z</time>
      </trkpt>
      <trkpt lat="59.9609103" lon="17.7813545">
        <ele>28.4962</ele>
        <time>2012-10-08T18:42:58Z</time>
      </trkpt>
      <trkpt lat="59.9608928" lon="17.7813847">
        <ele>28.9769</ele>
        <time>2012-10-08T18:42:59Z</time>
      </trkpt>
      <trkpt lat="59.960876" lon="17.7814178">
        <ele>29.4575</ele>
        <time>2012-10-08T18:43:00Z</time>
      </trkpt>
      <trkpt lat="59.9608556" lon="17.7814504">
        <ele>29.4575</ele>
        <time>2012-10-08T18:43:01Z</time>
      </trkpt>
      <trkpt lat="59.9608368" lon="17.781481">
        <ele>29.4575</ele>
        <time>2012-10-08T18:43:02Z</time>
      </trkpt>
      <trkpt lat="59.9608208" lon="17.7815119">
        <ele>30.4188</ele>
        <time>2012-10-08T18:43:03Z</time>
      </trkpt>
      <trkpt lat="59.9608026" lon="17.7815399">
        <ele>30.4188</ele>
        <time>2012-10-08T18:43:04Z</time>
      </trkpt>
      <trkpt lat="59.960784" lon="17.7815669">
        <ele>30.4188</ele>
        <time>2012-10-08T18:43:05Z</time>
      </trkpt>
      <trkpt lat="59.9607695" lon="17.781596">
        <ele>30.4188</ele>
        <time>2012-10-08T18:43:06Z</time>
      </trkpt>
      <trkpt lat="59.9607523" lon="17.781627">
        <ele>30.4188</ele>
        <time>2012-10-08T18:43:07Z</time>
      </trkpt>
      <trkpt lat="59.9607321" lon="17.7816603">
        <ele>30.4188</ele>
        <time>2012-10-08T18:43:08Z</time>
      </trkpt>
      <trkpt lat="59.960716" lon="17.7816929">
        <ele>30.4188</ele>
        <time>2012-10-08T18:43:09Z</time>
      </trkpt>
      <trkpt lat="59.9606998" lon="17.7817295">
        <ele>30.4188</ele>
        <time>2012-10-08T18:43:10Z</time>
      </trkpt>
      <trkpt lat="59.9606829" lon="17.7817662">
        <ele>30.4188</ele>
        <time>2012-10-08T18:43:11Z</time>
      </trkpt>
      <trkpt lat="59.9606669" lon="17.7817991">
        <ele>30.4188</ele>
        <time>2012-10-08T18:43:12Z</time>
      </trkpt>
      <trkpt lat="59.9606504" lon="17.7818348">
        <ele>29.9381</ele>
        <time>2012-10-08T18:43:13Z</time>
      </trkpt>
      <trkpt lat="59.9606354" lon="17.7818669">
        <ele>29.9381</ele>
        <time>2012-10-08T18:43:14Z</time>
      </trkpt>
      <trkpt lat="59.9606221" lon="17.7818963">
        <ele>30.4188</ele>
        <time>2012-10-08T18:43:15Z</time>
      </trkpt>
      <trkpt lat="59.9606072" lon="17.7819358">
        <ele>30.4188</ele>
        <time>2012-10-08T18:43:16Z</time>
      </trkpt>
      <trkpt lat="59.9605944" lon="17.7819767">
        <ele>30.8995</ele>
        <time>2012-10-08T18:43:17Z</time>
      </trkpt>
      <trkpt lat="59.9605787" lon="17.7820165">
        <ele>30.8995</ele>
        <time>2012-10-08T18:43:18Z</time>
      </trkpt>
      <trkpt lat="59.9605595" lon="17.7820537">
        <ele>31.3801</ele>
        <time>2012-10-08T18:43:19Z</time>
      </trkpt>
      <trkpt lat="59.9605452" lon="17.7820897">
        <ele>31.3801</ele>
        <time>2012-10-08T18:43:20Z</time>
      </trkpt>
      <trkpt lat="59.9605344" lon="17.7821275">
        <ele>30.8995</ele>
        <time>2012-10-08T18:43:21Z</time>
      </trkpt>
      <trkpt lat="59.9605227" lon="17.7821698">
        <ele>30.8995</ele>
        <time>2012-10-08T18:43:22Z</time>
      </trkpt>
      <trkpt lat="59.9605079" lon="17.7822134">
        <ele>31.3801</ele>
        <time>2012-10-08T18:43:23Z</time>
      </trkpt>
      <trkpt lat="59.9604953" lon="17.7822559">
        <ele>31.8607</ele>
        <time>2012-10-08T18:43:24Z</time>
      </trkpt>
      <trkpt lat="59.9604878" lon="17.7822964">
        <ele>31.8607</ele>
        <time>2012-10-08T18:43:25Z</time>
      </trkpt>
      <trkpt lat="59.9604866" lon="17.7823373">
        <ele>31.3801</ele>
        <time>2012-10-08T18:43:26Z</time>
      </trkpt>
      <trkpt lat="59.9604859" lon="17.7823761">
        <ele>31.3801</ele>
        <time>2012-10-08T18:43:27Z</time>
      </trkpt>
      <trkpt lat="59.9604774" lon="17.7824139">
        <ele>31.3801</ele>
        <time>2012-10-08T18:43:28Z</time>
      </trkpt>
      <trkpt lat="59.9604648" lon="17.7824527">
        <ele>31.8607</ele>
        <time>2012-10-08T18:43:29Z</time>
      </trkpt>
      <trkpt lat="59.9604502" lon="17.7825009">
        <ele>32.3416</ele>
        <time>2012-10-08T18:43:30Z</time>
      </trkpt>
      <trkpt lat="59.9604385" lon="17.7825434">
        <ele>32.8223</ele>
        <time>2012-10-08T18:43:31Z</time>
      </trkpt>
      <trkpt lat="59.9604276" lon="17.7825765">
        <ele>33.3029</ele>
        <time>2012-10-08T18:43:32Z</time>
      </trkpt>
      <trkpt lat="59.9604151" lon="17.7826152">
        <ele>33.3029</ele>
        <time>2012-10-08T18:43:33Z</time>
      </trkpt>
      <trkpt lat="59.9604041" lon="17.7826558">
        <ele>34.2642</ele>
        <time>2012-10-08T18:43:34Z</time>
      </trkpt>
      <trkpt lat="59.9603956" lon="17.7826962">
        <ele>35.2255</ele>
        <time>2012-10-08T18:43:35Z</time>
      </trkpt>
      <trkpt lat="59.9603787" lon="17.7827411">
        <ele>36.1868</ele>
        <time>2012-10-08T18:43:36Z</time>
      </trkpt>
      <trkpt lat="59.9603596" lon="17.7827861">
        <ele>36.6675</ele>
        <time>2012-10-08T18:43:37Z</time>
      </trkpt>
      <trkpt lat="59.9603451" lon="17.7828271">
        <ele>37.1481</ele>
        <time>2012-10-08T18:43:38Z</time>
      </trkpt>
      <trkpt lat="59.9603337" lon="17.782864">
        <ele>37.6287</ele>
        <time>2012-10-08T18:43:39Z</time>
      </trkpt>
      <trkpt lat="59.9603238" lon="17.7829071">
        <ele>38.1094</ele>
        <time>2012-10-08T18:43:40Z</time>
      </trkpt>
      <trkpt lat="59.9603129" lon="17.7829503">
        <ele>38.1094</ele>
        <time>2012-10-08T18:43:41Z</time>
      </trkpt>
      <trkpt lat="59.9602971" lon="17.7829869">
        <ele>38.1094</ele>
        <time>2012-10-08T18:43:42Z</time>
      </trkpt>
      <trkpt lat="59.9602799" lon="17.7830227">
        <ele>38.1094</ele>
        <time>2012-10-08T18:43:43Z</time>
      </trkpt>
      <trkpt lat="59.960265" lon="17.7830608">
        <ele>38.1094</ele>
        <time>2012-10-08T18:43:44Z</time>
      </trkpt>
      <trkpt lat="59.9602471" lon="17.7831016">
        <ele>37.6287</ele>
        <time>2012-10-08T18:43:45Z</time>
      </trkpt>
      <trkpt lat="59.9602307" lon="17.783137">
        <ele>37.6287</ele>
        <time>2012-10-08T18:43:46Z</time>
      </trkpt>
      <trkpt lat="59.9602203" lon="17.7831723">
        <ele>37.1481</ele>
        <time>2012-10-08T18:43:47Z</time>
      </trkpt>
      <trkpt lat="59.9602096" lon="17.7832169">
        <ele>37.1481</ele>
        <time>2012-10-08T18:43:48Z</time>
      </trkpt>
      <trkpt lat="59.9601955" lon="17.7832665">
        <ele>37.1481</ele>
        <time>2012-10-08T18:43:49Z</time>
      </trkpt>
      <trkpt lat="59.9601835" lon="17.7833156">
        <ele>37.1481</ele>
        <time>2012-10-08T18:43:50Z</time>
      </trkpt>
      <trkpt lat="59.9601731" lon="17.7833613">
        <ele>36.6675</ele>
        <time>2012-10-08T18:43:51Z</time>
      </trkpt>
      <trkpt lat="59.9601603" lon="17.7833996">
        <ele>36.6675</ele>
        <time>2012-10-08T18:43:52Z</time>
      </trkpt>
      <trkpt lat="59.9601487" lon="17.7834368">
        <ele>36.1868</ele>
        <time>2012-10-08T18:43:53Z</time>
      </trkpt>
      <trkpt lat="59.9601401" lon="17.7834816">
        <ele>36.1868</ele>
        <time>2012-10-08T18:43:54Z</time>
      </trkpt>
      <trkpt lat="59.9601308" lon="17.7835236">
        <ele>36.1868</ele>
        <time>2012-10-08T18:43:55Z</time>
      </trkpt>
      <trkpt lat="59.9601119" lon="17.7835611">
        <ele>36.1868</ele>
        <time>2012-10-08T18:43:56Z</time>
      </trkpt>
      <trkpt lat="59.9600935" lon="17.7836015">
        <ele>36.1868</ele>
        <time>2012-10-08T18:43:57Z</time>
      </trkpt>
      <trkpt lat="59.9600769" lon="17.7836416">
        <ele>36.1868</ele>
        <time>2012-10-08T18:43:58Z</time>
      </trkpt>
      <trkpt lat="59.9600513" lon="17.7836818">
        <ele>36.6675</ele>
        <time>2012-10-08T18:43:59Z</time>
      </trkpt>
      <trkpt lat="59.9600169" lon="17.7837263">
        <ele>37.1481</ele>
        <time>2012-10-08T18:44:00Z</time>
      </trkpt>
      <trkpt lat="59.9599975" lon="17.78377">
        <ele>37.6287</ele>
        <time>2012-10-08T18:44:01Z</time>
      </trkpt>
      <trkpt lat="59.9599829" lon="17.7838104">
        <ele>37.6287</ele>
        <time>2012-10-08T18:44:02Z</time>
      </trkpt>
      <trkpt lat="59.9599685" lon="17.7838442">
        <ele>37.6287</ele>
        <time>2012-10-08T18:44:03Z</time>
      </trkpt>
      <trkpt lat="59.9599555" lon="17.7838807">
        <ele>37.6287</ele>
        <time>2012-10-08T18:44:04Z</time>
      </trkpt>
      <trkpt lat="59.9599404" lon="17.7839212">
        <ele>37.6287</ele>
        <time>2012-10-08T18:44:05Z</time>
      </trkpt>
      <trkpt lat="59.9599162" lon="17.7839622">
        <ele>37.6287</ele>
        <time>2012-10-08T18:44:06Z</time>
      </trkpt>
      <trkpt lat="59.9598956" lon="17.7840012">
        <ele>37.1481</ele>
        <time>2012-10-08T18:44:07Z</time>
      </trkpt>
      <trkpt lat="59.9598765" lon="17.7840426">
        <ele>37.1481</ele>
        <time>2012-10-08T18:44:08Z</time>
      </trkpt>
      <trkpt lat="59.9598603" lon="17.7840762">
        <ele>37.1481</ele>
        <time>2012-10-08T18:44:09Z</time>
      </trkpt>
      <trkpt lat="59.9598486" lon="17.7841062">
        <ele>36.6675</ele>
        <time>2012-10-08T18:44:10Z</time>
      </trkpt>
      <trkpt lat="59.9598298" lon="17.784144">
        <ele>36.6675</ele>
        <time>2012-10-08T18:44:11Z</time>
      </trkpt>
      <trkpt lat="59.9598116" lon="17.7841778">
        <ele>36.1868</ele>
        <time>2012-10-08T18:44:12Z</time>
      </trkpt>
      <trkpt lat="59.9597977" lon="17.7842079">
        <ele>35.7061</ele>
        <time>2012-10-08T18:44:13Z</time>
      </trkpt>
      <trkpt lat="59.9597799" lon="17.7842383">
        <ele>35.7061</ele>
        <time>2012-10-08T18:44:14Z</time>
      </trkpt>
      <trkpt lat="59.9597593" lon="17.7842709">
        <ele>35.2255</ele>
        <time>2012-10-08T18:44:15Z</time>
      </trkpt>
      <trkpt lat="59.9597415" lon="17.7843044">
        <ele>34.7449</ele>
        <time>2012-10-08T18:44:16Z</time>
      </trkpt>
      <trkpt lat="59.9597229" lon="17.7843376">
        <ele>34.2642</ele>
        <time>2012-10-08T18:44:17Z</time>
      </trkpt>
      <trkpt lat="59.9597059" lon="17.7843718">
        <ele>33.7834</ele>
        <time>2012-10-08T18:44:18Z</time>
      </trkpt>
      <trkpt lat="59.9596965" lon="17.7843994">
        <ele>33.3029</ele>
        <time>2012-10-08T18:44:19Z</time>
      </trkpt>
      <trkpt lat="59.9596792" lon="17.7844285">
        <ele>32.8223</ele>
        <time>2012-10-08T18:44:20Z</time>
      </trkpt>
      <trkpt lat="59.9596604" lon="17.7844575">
        <ele>32.3416</ele>
        <time>2012-10-08T18:44:21Z</time>
      </trkpt>
      <trkpt lat="59.9596447" lon="17.7844813">
        <ele>31.8607</ele>
        <time>2012-10-08T18:44:22Z</time>
      </trkpt>
      <trkpt lat="59.9596257" lon="17.7845118">
        <ele>31.3801</ele>
        <time>2012-10-08T18:44:23Z</time>
      </trkpt>
      <trkpt lat="59.959606" lon="17.784546">
        <ele>31.3801</ele>
        <time>2012-10-08T18:44:24Z</time>
      </trkpt>
      <trkpt lat="59.9595884" lon="17.7845793">
        <ele>30.8995</ele>
        <time>2012-10-08T18:44:25Z</time>
      </trkpt>
      <trkpt lat="59.9595711" lon="17.7846113">
        <ele>30.8995</ele>
        <time>2012-10-08T18:44:26Z</time>
      </trkpt>
      <trkpt lat="59.9595475" lon="17.7846474">
        <ele>29.4575</ele>
        <time>2012-10-08T18:44:27Z</time>
      </trkpt>
      <trkpt lat="59.9595276" lon="17.7846803">
        <ele>28.9769</ele>
        <time>2012-10-08T18:44:28Z</time>
      </trkpt>
      <trkpt lat="59.9595085" lon="17.78471">
        <ele>28.4962</ele>
        <time>2012-10-08T18:44:29Z</time>
      </trkpt>
      <trkpt lat="59.9594887" lon="17.7847385">
        <ele>28.9769</ele>
        <time>2012-10-08T18:44:30Z</time>
      </trkpt>
      <trkpt lat="59.9594698" lon="17.7847698">
        <ele>28.4962</ele>
        <time>2012-10-08T18:44:31Z</time>
      </trkpt>
      <trkpt lat="59.9594489" lon="17.7848054">
        <ele>28.9769</ele>
        <time>2012-10-08T18:44:32Z</time>
      </trkpt>
      <trkpt lat="59.9594266" lon="17.7848372">
        <ele>28.4962</ele>
        <time>2012-10-08T18:44:33Z</time>
      </trkpt>
      <trkpt lat="59.9594035" lon="17.7848677">
        <ele>28.0155</ele>
        <time>2012-10-08T18:44:34Z</time>
      </trkpt>
      <trkpt lat="59.9593815" lon="17.7849014">
        <ele>27.5349</ele>
        <time>2012-10-08T18:44:35Z</time>
      </trkpt>
      <trkpt lat="59.9593601" lon="17.7849349">
        <ele>27.5349</ele>
        <time>2012-10-08T18:44:36Z</time>
      </trkpt>
      <trkpt lat="59.9593392" lon="17.784963">
        <ele>26.5736</ele>
        <time>2012-10-08T18:44:37Z</time>
      </trkpt>
      <trkpt lat="59.9593191" lon="17.7849899">
        <ele>26.5736</ele>
        <time>2012-10-08T18:44:38Z</time>
      </trkpt>
      <trkpt lat="59.9593008" lon="17.7850167">
        <ele>26.5736</ele>
        <time>2012-10-08T18:44:39Z</time>
      </trkpt>
      <trkpt lat="59.9592786" lon="17.7850406">
        <ele>26.5736</ele>
        <time>2012-10-08T18:44:40Z</time>
      </trkpt>
      <trkpt lat="59.9592567" lon="17.785064">
        <ele>26.0929</ele>
        <time>2012-10-08T18:44:41Z</time>
      </trkpt>
      <trkpt lat="59.9592351" lon="17.7850915">
        <ele>26.0929</ele>
        <time>2012-10-08T18:44:42Z</time>
      </trkpt>
      <trkpt lat="59.9592137" lon="17.7851147">
        <ele>26.5736</ele>
        <time>2012-10-08T18:44:43Z</time>
      </trkpt>
      <trkpt lat="59.9591907" lon="17.7851366">
        <ele>26.5736</ele>
        <time>2012-10-08T18:44:44Z</time>
      </trkpt>
      <trkpt lat="59.9591672" lon="17.7851628">
        <ele>26.0929</ele>
        <time>2012-10-08T18:44:45Z</time>
      </trkpt>
      <trkpt lat="59.9591451" lon="17.785185">
        <ele>26.0929</ele>
        <time>2012-10-08T18:44:46Z</time>
      </trkpt>
      <trkpt lat="59.9591205" lon="17.7852059">
        <ele>26.0929</ele>
        <time>2012-10-08T18:44:47Z</time>
      </trkpt>
      <trkpt lat="59.9590942" lon="17.7852317">
        <ele>25.6123</ele>
        <time>2012-10-08T18:44:48Z</time>
      </trkpt>
      <trkpt lat="59.9590686" lon="17.7852604">
        <ele>25.6123</ele>
        <time>2012-10-08T18:44:49Z</time>
      </trkpt>
      <trkpt lat="59.9590428" lon="17.7852811">
        <ele>25.6123</ele>
        <time>2012-10-08T18:44:50Z</time>
      </trkpt>
      <trkpt lat="59.959016" lon="17.7852961">
        <ele>25.1317</ele>
        <time>2012-10-08T18:44:51Z</time>
      </trkpt>
      <trkpt lat="59.9589917" lon="17.7853115">
        <ele>25.1317</ele>
        <time>2012-10-08T18:44:52Z</time>
      </trkpt>
      <trkpt lat="59.9589709" lon="17.7853307">
        <ele>24.1703</ele>
        <time>2012-10-08T18:44:53Z</time>
      </trkpt>
      <trkpt lat="59.9589471" lon="17.7853495">
        <ele>24.1703</ele>
        <time>2012-10-08T18:44:54Z</time>
      </trkpt>
      <trkpt lat="59.9589212" lon="17.7853648">
        <ele>24.1703</ele>
        <time>2012-10-08T18:44:55Z</time>
      </trkpt>
      <trkpt lat="59.9588969" lon="17.7853806">
        <ele>23.6896</ele>
        <time>2012-10-08T18:44:56Z</time>
      </trkpt>
      <trkpt lat="59.9588749" lon="17.7853923">
        <ele>23.6896</ele>
        <time>2012-10-08T18:44:57Z</time>
      </trkpt>
      <trkpt lat="59.9588513" lon="17.7854039">
        <ele>23.6896</ele>
        <time>2012-10-08T18:44:58Z</time>
      </trkpt>
      <trkpt lat="59.958829" lon="17.7854182">
        <ele>23.6896</ele>
        <time>2012-10-08T18:44:59Z</time>
      </trkpt>
      <trkpt lat="59.9588062" lon="17.7854313">
        <ele>23.209</ele>
        <time>2012-10-08T18:45:00Z</time>
      </trkpt>
      <trkpt lat="59.9587796" lon="17.7854448">
        <ele>23.209</ele>
        <time>2012-10-08T18:45:01Z</time>
      </trkpt>
      <trkpt lat="59.9587565" lon="17.7854581">
        <ele>23.209</ele>
        <time>2012-10-08T18:45:02Z</time>
      </trkpt>
      <trkpt lat="59.9587358" lon="17.7854743">
        <ele>23.209</ele>
        <time>2012-10-08T18:45:03Z</time>
      </trkpt>
      <trkpt lat="59.9587124" lon="17.7854969">
        <ele>23.209</ele>
        <time>2012-10-08T18:45:04Z</time>
      </trkpt>
      <trkpt lat="59.9586896" lon="17.7855188">
        <ele>23.209</ele>
        <time>2012-10-08T18:45:05Z</time>
      </trkpt>
      <trkpt lat="59.9586703" lon="17.7855368">
        <ele>23.209</ele>
        <time>2012-10-08T18:45:06Z</time>
      </trkpt>
      <trkpt lat="59.9586486" lon="17.7855541">
        <ele>22.7283</ele>
        <time>2012-10-08T18:45:07Z</time>
      </trkpt>
      <trkpt lat="59.9586257" lon="17.7855788">
        <ele>22.7283</ele>
        <time>2012-10-08T18:45:08Z</time>
      </trkpt>
      <trkpt lat="59.9586041" lon="17.7856084">
        <ele>22.2476</ele>
        <time>2012-10-08T18:45:09Z</time>
      </trkpt>
      <trkpt lat="59.9585809" lon="17.7856332">
        <ele>21.767</ele>
        <time>2012-10-08T18:45:10Z</time>
      </trkpt>
      <trkpt lat="59.9585589" lon="17.785655">
        <ele>21.767</ele>
        <time>2012-10-08T18:45:11Z</time>
      </trkpt>
      <trkpt lat="59.9585364" lon="17.7856774">
        <ele>21.767</ele>
        <time>2012-10-08T18:45:12Z</time>
      </trkpt>
      <trkpt lat="59.9585107" lon="17.7857053">
        <ele>21.767</ele>
        <time>2012-10-08T18:45:13Z</time>
      </trkpt>
      <trkpt lat="59.9584866" lon="17.7857245">
        <ele>21.2864</ele>
        <time>2012-10-08T18:45:14Z</time>
      </trkpt>
      <trkpt lat="59.9584689" lon="17.7857381">
        <ele>20.8057</ele>
        <time>2012-10-08T18:45:15Z</time>
      </trkpt>
      <trkpt lat="59.958452" lon="17.7857557">
        <ele>20.325</ele>
        <time>2012-10-08T18:45:16Z</time>
      </trkpt>
      <trkpt lat="59.9584326" lon="17.7857764">
        <ele>19.3638</ele>
        <time>2012-10-08T18:45:17Z</time>
      </trkpt>
      <trkpt lat="59.9584108" lon="17.7857999">
        <ele>17.9218</ele>
        <time>2012-10-08T18:45:18Z</time>
      </trkpt>
      <trkpt lat="59.9583882" lon="17.7858261">
        <ele>16.9604</ele>
        <time>2012-10-08T18:45:19Z</time>
      </trkpt>
      <trkpt lat="59.9583659" lon="17.7858479">
        <ele>16.9604</ele>
        <time>2012-10-08T18:45:20Z</time>
      </trkpt>
      <trkpt lat="59.9583466" lon="17.7858591">
        <ele>16.9604</ele>
        <time>2012-10-08T18:45:21Z</time>
      </trkpt>
      <trkpt lat="59.9583281" lon="17.7858721">
        <ele>15.999</ele>
        <time>2012-10-08T18:45:22Z</time>
      </trkpt>
      <trkpt lat="59.9583082" lon="17.7858943">
        <ele>15.5184</ele>
        <time>2012-10-08T18:45:23Z</time>
      </trkpt>
      <trkpt lat="59.9582861" lon="17.7859178">
        <ele>15.999</ele>
        <time>2012-10-08T18:45:24Z</time>
      </trkpt>
      <trkpt lat="59.9582676" lon="17.7859352">
        <ele>15.0377</ele>
        <time>2012-10-08T18:45:25Z</time>
      </trkpt>
      <trkpt lat="59.9582488" lon="17.7859595">
        <ele>15.0377</ele>
        <time>2012-10-08T18:45:26Z</time>
      </trkpt>
      <trkpt lat="59.9582281" lon="17.7859828">
        <ele>15.0377</ele>
        <time>2012-10-08T18:45:27Z</time>
      </trkpt>
      <trkpt lat="59.958207" lon="17.7860097">
        <ele>15.0377</ele>
        <time>2012-10-08T18:45:28Z</time>
      </trkpt>
      <trkpt lat="59.9581902" lon="17.7860344">
        <ele>14.557</ele>
        <time>2012-10-08T18:45:29Z</time>
      </trkpt>
      <trkpt lat="59.9581701" lon="17.7860589">
        <ele>14.557</ele>
        <time>2012-10-08T18:45:30Z</time>
      </trkpt>
      <trkpt lat="59.9581523" lon="17.7860807">
        <ele>14.0764</ele>
        <time>2012-10-08T18:45:31Z</time>
      </trkpt>
      <trkpt lat="59.9581338" lon="17.7861021">
        <ele>13.1151</ele>
        <time>2012-10-08T18:45:32Z</time>
      </trkpt>
      <trkpt lat="59.958113" lon="17.7861197">
        <ele>13.5958</ele>
        <time>2012-10-08T18:45:33Z</time>
      </trkpt>
      <trkpt lat="59.9580929" lon="17.7861361">
        <ele>12.6344</ele>
        <time>2012-10-08T18:45:34Z</time>
      </trkpt>
      <trkpt lat="59.9580716" lon="17.7861589">
        <ele>12.1538</ele>
        <time>2012-10-08T18:45:35Z</time>
      </trkpt>
      <trkpt lat="59.9580482" lon="17.7861819">
        <ele>12.6344</ele>
        <time>2012-10-08T18:45:36Z</time>
      </trkpt>
      <trkpt lat="59.9580259" lon="17.786205">
        <ele>11.6732</ele>
        <time>2012-10-08T18:45:37Z</time>
      </trkpt>
      <trkpt lat="59.9580073" lon="17.78623">
        <ele>12.1538</ele>
        <time>2012-10-08T18:45:38Z</time>
      </trkpt>
      <trkpt lat="59.9579913" lon="17.7862555">
        <ele>12.1538</ele>
        <time>2012-10-08T18:45:39Z</time>
      </trkpt>
      <trkpt lat="59.9579743" lon="17.7862788">
        <ele>11.6732</ele>
        <time>2012-10-08T18:45:40Z</time>
      </trkpt>
      <trkpt lat="59.9579528" lon="17.7863077">
        <ele>11.6732</ele>
        <time>2012-10-08T18:45:41Z</time>
      </trkpt>
      <trkpt lat="59.9579323" lon="17.7863346">
        <ele>12.1538</ele>
        <time>2012-10-08T18:45:42Z</time>
      </trkpt>
      <trkpt lat="59.957913" lon="17.7863557">
        <ele>12.1538</ele>
        <time>2012-10-08T18:45:43Z</time>
      </trkpt>
      <trkpt lat="59.9578922" lon="17.7863828">
        <ele>12.6344</ele>
        <time>2012-10-08T18:45:44Z</time>
      </trkpt>
      <trkpt lat="59.9578712" lon="17.7864094">
        <ele>13.1151</ele>
        <time>2012-10-08T18:45:45Z</time>
      </trkpt>
      <trkpt lat="59.9578509" lon="17.786431">
        <ele>13.5958</ele>
        <time>2012-10-08T18:45:46Z</time>
      </trkpt>
      <trkpt lat="59.9578334" lon="17.7864579">
        <ele>14.0764</ele>
        <time>2012-10-08T18:45:47Z</time>
      </trkpt>
      <trkpt lat="59.9578143" lon="17.7864916">
        <ele>14.557</ele>
        <time>2012-10-08T18:45:48Z</time>
      </trkpt>
      <trkpt lat="59.9577969" lon="17.7865139">
        <ele>15.0377</ele>
        <time>2012-10-08T18:45:49Z</time>
      </trkpt>
      <trkpt lat="59.9577837" lon="17.7865317">
        <ele>15.5184</ele>
        <time>2012-10-08T18:45:50Z</time>
      </trkpt>
      <trkpt lat="59.9577691" lon="17.7865605">
        <ele>15.5184</ele>
        <time>2012-10-08T18:45:51Z</time>
      </trkpt>
      <trkpt lat="59.957753" lon="17.7865988">
        <ele>15.999</ele>
        <time>2012-10-08T18:45:52Z</time>
      </trkpt>
      <trkpt lat="59.9577369" lon="17.7866386">
        <ele>16.4797</ele>
        <time>2012-10-08T18:45:53Z</time>
      </trkpt>
      <trkpt lat="59.9577247" lon="17.7866782">
        <ele>16.4797</ele>
        <time>2012-10-08T18:45:54Z</time>
      </trkpt>
      <trkpt lat="59.9577111" lon="17.786719">
        <ele>17.4412</ele>
        <time>2012-10-08T18:45:55Z</time>
      </trkpt>
      <trkpt lat="59.9576988" lon="17.7867593">
        <ele>17.4412</ele>
        <time>2012-10-08T18:45:56Z</time>
      </trkpt>
      <trkpt lat="59.9576886" lon="17.786804">
        <ele>18.4023</ele>
        <time>2012-10-08T18:45:57Z</time>
      </trkpt>
      <trkpt lat="59.9576759" lon="17.7868479">
        <ele>19.8444</ele>
        <time>2012-10-08T18:45:58Z</time>
      </trkpt>
      <trkpt lat="59.9576657" lon="17.7868896">
        <ele>20.325</ele>
        <time>2012-10-08T18:45:59Z</time>
      </trkpt>
      <trkpt lat="59.9576567" lon="17.7869371">
        <ele>20.8057</ele>
        <time>2012-10-08T18:46:00Z</time>
      </trkpt>
      <trkpt lat="59.957648" lon="17.7869844">
        <ele>20.8057</ele>
        <time>2012-10-08T18:46:01Z</time>
      </trkpt>
      <trkpt lat="59.9576446" lon="17.7870292">
        <ele>21.2864</ele>
        <time>2012-10-08T18:46:02Z</time>
      </trkpt>
      <trkpt lat="59.9576417" lon="17.787074">
        <ele>22.2476</ele>
        <time>2012-10-08T18:46:03Z</time>
      </trkpt>
      <trkpt lat="59.9576338" lon="17.7871188">
        <ele>22.7283</ele>
        <time>2012-10-08T18:46:04Z</time>
      </trkpt>
      <trkpt lat="59.9576273" lon="17.7871646">
        <ele>22.7283</ele>
        <time>2012-10-08T18:46:05Z</time>
      </trkpt>
      <trkpt lat="59.9576234" lon="17.7872112">
        <ele>23.6896</ele>
        <time>2012-10-08T18:46:06Z</time>
      </trkpt>
      <trkpt lat="59.9576118" lon="17.787265">
        <ele>24.1703</ele>
        <time>2012-10-08T18:46:07Z</time>
      </trkpt>
      <trkpt lat="59.9576087" lon="17.7873216">
        <ele>24.651</ele>
        <time>2012-10-08T18:46:08Z</time>
      </trkpt>
      <trkpt lat="59.9576086" lon="17.7873723">
        <ele>24.651</ele>
        <time>2012-10-08T18:46:09Z</time>
      </trkpt>
      <trkpt lat="59.9576028" lon="17.787421">
        <ele>25.1317</ele>
        <time>2012-10-08T18:46:10Z</time>
      </trkpt>
      <trkpt lat="59.9576013" lon="17.7874692">
        <ele>24.651</ele>
        <time>2012-10-08T18:46:11Z</time>
      </trkpt>
      <trkpt lat="59.957598" lon="17.7875193">
        <ele>24.1703</ele>
        <time>2012-10-08T18:46:12Z</time>
      </trkpt>
      <trkpt lat="59.9575869" lon="17.7875665">
        <ele>24.1703</ele>
        <time>2012-10-08T18:46:13Z</time>
      </trkpt>
      <trkpt lat="59.9575742" lon="17.7876093">
        <ele>23.6896</ele>
        <time>2012-10-08T18:46:14Z</time>
      </trkpt>
      <trkpt lat="59.9575621" lon="17.7876572">
        <ele>23.6896</ele>
        <time>2012-10-08T18:46:15Z</time>
      </trkpt>
      <trkpt lat="59.9575521" lon="17.7877065">
        <ele>23.209</ele>
        <time>2012-10-08T18:46:16Z</time>
      </trkpt>
      <trkpt lat="59.9575481" lon="17.7877519">
        <ele>23.209</ele>
        <time>2012-10-08T18:46:17Z</time>
      </trkpt>
      <trkpt lat="59.9575333" lon="17.7877981">
        <ele>22.7283</ele>
        <time>2012-10-08T18:46:18Z</time>
      </trkpt>
      <trkpt lat="59.9575127" lon="17.7878463">
        <ele>23.209</ele>
        <time>2012-10-08T18:46:19Z</time>
      </trkpt>
      <trkpt lat="59.9574926" lon="17.7878944">
        <ele>23.209</ele>
        <time>2012-10-08T18:46:20Z</time>
      </trkpt>
      <trkpt lat="59.9574769" lon="17.7879352">
        <ele>23.6896</ele>
        <time>2012-10-08T18:46:21Z</time>
      </trkpt>
      <trkpt lat="59.957465" lon="17.7879769">
        <ele>24.651</ele>
        <time>2012-10-08T18:46:22Z</time>
      </trkpt>
      <trkpt lat="59.9574552" lon="17.7880245">
        <ele>25.6123</ele>
        <time>2012-10-08T18:46:23Z</time>
      </trkpt>
      <trkpt lat="59.9574417" lon="17.7880729">
        <ele>26.0929</ele>
        <time>2012-10-08T18:46:24Z</time>
      </trkpt>
      <trkpt lat="59.9574288" lon="17.7881161">
        <ele>26.5736</ele>
        <time>2012-10-08T18:46:25Z</time>
      </trkpt>
      <trkpt lat="59.9574153" lon="17.7881623">
        <ele>27.5349</ele>
        <time>2012-10-08T18:46:26Z</time>
      </trkpt>
      <trkpt lat="59.9573999" lon="17.7882087">
        <ele>27.5349</ele>
        <time>2012-10-08T18:46:27Z</time>
      </trkpt>
      <trkpt lat="59.9573842" lon="17.7882477">
        <ele>27.5349</ele>
        <time>2012-10-08T18:46:28Z</time>
      </trkpt>
      <trkpt lat="59.9573661" lon="17.7882919">
        <ele>28.0155</ele>
        <time>2012-10-08T18:46:29Z</time>
      </trkpt>
      <trkpt lat="59.9573553" lon="17.7883317">
        <ele>28.9769</ele>
        <time>2012-10-08T18:46:30Z</time>
      </trkpt>
      <trkpt lat="59.9573455" lon="17.788371">
        <ele>29.4575</ele>
        <time>2012-10-08T18:46:31Z</time>
      </trkpt>
      <trkpt lat="59.9573352" lon="17.7884088">
        <ele>29.9381</ele>
        <time>2012-10-08T18:46:32Z</time>
      </trkpt>
      <trkpt lat="59.9573241" lon="17.7884496">
        <ele>30.4188</ele>
        <time>2012-10-08T18:46:33Z</time>
      </trkpt>
      <trkpt lat="59.9573136" lon="17.7884902">
        <ele>30.4188</ele>
        <time>2012-10-08T18:46:34Z</time>
      </trkpt>
      <trkpt lat="59.9573075" lon="17.7885228">
        <ele>31.3801</ele>
        <time>2012-10-08T18:46:35Z</time>
      </trkpt>
      <trkpt lat="59.9572979" lon="17.7885571">
        <ele>31.8607</ele>
        <time>2012-10-08T18:46:36Z</time>
      </trkpt>
      <trkpt lat="59.9572805" lon="17.7885951">
        <ele>32.3416</ele>
        <time>2012-10-08T18:46:37Z</time>
      </trkpt>
      <trkpt lat="59.9572644" lon="17.7886306">
        <ele>32.8223</ele>
        <time>2012-10-08T18:46:38Z</time>
      </trkpt>
      <trkpt lat="59.9572489" lon="17.7886681">
        <ele>33.3029</ele>
        <time>2012-10-08T18:46:39Z</time>
      </trkpt>
      <trkpt lat="59.9572299" lon="17.7887114">
        <ele>33.7834</ele>
        <time>2012-10-08T18:46:40Z</time>
      </trkpt>
      <trkpt lat="59.9572128" lon="17.7887528">
        <ele>32.8223</ele>
        <time>2012-10-08T18:46:41Z</time>
      </trkpt>
      <trkpt lat="59.9571994" lon="17.7887941">
        <ele>33.3029</ele>
        <time>2012-10-08T18:46:42Z</time>
      </trkpt>
      <trkpt lat="59.9571834" lon="17.7888367">
        <ele>33.7834</ele>
        <time>2012-10-08T18:46:43Z</time>
      </trkpt>
      <trkpt lat="59.9571658" lon="17.7888724">
        <ele>33.7834</ele>
        <time>2012-10-08T18:46:44Z</time>
      </trkpt>
      <trkpt lat="59.9571489" lon="17.7889086">
        <ele>33.7834</ele>
        <time>2012-10-08T18:46:45Z</time>
      </trkpt>
      <trkpt lat="59.957128" lon="17.7889499">
        <ele>33.7834</ele>
        <time>2012-10-08T18:46:46Z</time>
      </trkpt>
      <trkpt lat="59.957104" lon="17.788986">
        <ele>33.7834</ele>
        <time>2012-10-08T18:46:47Z</time>
      </trkpt>
      <trkpt lat="59.9570824" lon="17.789017">
        <ele>33.3029</ele>
        <time>2012-10-08T18:46:48Z</time>
      </trkpt>
      <trkpt lat="59.9570642" lon="17.7890449">
        <ele>33.3029</ele>
        <time>2012-10-08T18:46:49Z</time>
      </trkpt>
      <trkpt lat="59.9570479" lon="17.7890703">
        <ele>32.8223</ele>
        <time>2012-10-08T18:46:50Z</time>
      </trkpt>
      <trkpt lat="59.9570295" lon="17.7890934">
        <ele>32.3416</ele>
        <time>2012-10-08T18:46:51Z</time>
      </trkpt>
      <trkpt lat="59.9570082" lon="17.7891128">
        <ele>31.8607</ele>
        <time>2012-10-08T18:46:52Z</time>
      </trkpt>
      <trkpt lat="59.9569878" lon="17.7891355">
        <ele>31.8607</ele>
        <time>2012-10-08T18:46:53Z</time>
      </trkpt>
      <trkpt lat="59.9569665" lon="17.78916">
        <ele>31.3801</ele>
        <time>2012-10-08T18:46:54Z</time>
      </trkpt>
      <trkpt lat="59.9569482" lon="17.7891832">
        <ele>30.8995</ele>
        <time>2012-10-08T18:46:55Z</time>
      </trkpt>
      <trkpt lat="59.9569325" lon="17.7892063">
        <ele>30.4188</ele>
        <time>2012-10-08T18:46:56Z</time>
      </trkpt>
      <trkpt lat="59.9569155" lon="17.7892283">
        <ele>29.9381</ele>
        <time>2012-10-08T18:46:57Z</time>
      </trkpt>
      <trkpt lat="59.9568989" lon="17.7892527">
        <ele>29.9381</ele>
        <time>2012-10-08T18:46:58Z</time>
      </trkpt>
      <trkpt lat="59.9568827" lon="17.7892795">
        <ele>28.9769</ele>
        <time>2012-10-08T18:46:59Z</time>
      </trkpt>
      <trkpt lat="59.9568682" lon="17.7893008">
        <ele>28.4962</ele>
        <time>2012-10-08T18:47:00Z</time>
      </trkpt>
      <trkpt lat="59.9568528" lon="17.789325">
        <ele>28.0155</ele>
        <time>2012-10-08T18:47:01Z</time>
      </trkpt>
      <trkpt lat="59.9568356" lon="17.7893468">
        <ele>27.5349</ele>
        <time>2012-10-08T18:47:02Z</time>
      </trkpt>
      <trkpt lat="59.9568137" lon="17.7893718">
        <ele>27.0543</ele>
        <time>2012-10-08T18:47:03Z</time>
      </trkpt>
      <trkpt lat="59.9567889" lon="17.7893987">
        <ele>26.0929</ele>
        <time>2012-10-08T18:47:04Z</time>
      </trkpt>
      <trkpt lat="59.9567661" lon="17.7894224">
        <ele>25.6123</ele>
        <time>2012-10-08T18:47:05Z</time>
      </trkpt>
      <trkpt lat="59.9567443" lon="17.7894465">
        <ele>25.1317</ele>
        <time>2012-10-08T18:47:06Z</time>
      </trkpt>
      <trkpt lat="59.9567198" lon="17.789477">
        <ele>24.651</ele>
        <time>2012-10-08T18:47:07Z</time>
      </trkpt>
      <trkpt lat="59.9566973" lon="17.7895054">
        <ele>23.6896</ele>
        <time>2012-10-08T18:47:08Z</time>
      </trkpt>
      <trkpt lat="59.9566817" lon="17.7895277">
        <ele>23.6896</ele>
        <time>2012-10-08T18:47:09Z</time>
      </trkpt>
      <trkpt lat="59.9566678" lon="17.7895542">
        <ele>23.6896</ele>
        <time>2012-10-08T18:47:10Z</time>
      </trkpt>
      <trkpt lat="59.956657" lon="17.7895824">
        <ele>23.209</ele>
        <time>2012-10-08T18:47:11Z</time>
      </trkpt>
      <trkpt lat="59.9566435" lon="17.7896127">
        <ele>23.209</ele>
        <time>2012-10-08T18:47:12Z</time>
      </trkpt>
      <trkpt lat="59.9566291" lon="17.7896422">
        <ele>23.209</ele>
        <time>2012-10-08T18:47:13Z</time>
      </trkpt>
      <trkpt lat="59.9566218" lon="17.7896755">
        <ele>23.209</ele>
        <time>2012-10-08T18:47:14Z</time>
      </trkpt>
      <trkpt lat="59.9566167" lon="17.7897137">
        <ele>23.209</ele>
        <time>2012-10-08T18:47:15Z</time>
      </trkpt>
      <trkpt lat="59.956613" lon="17.7897614">
        <ele>22.7283</ele>
        <time>2012-10-08T18:47:16Z</time>
      </trkpt>
      <trkpt lat="59.9566068" lon="17.7898096">
        <ele>22.7283</ele>
        <time>2012-10-08T18:47:17Z</time>
      </trkpt>
      <trkpt lat="59.9566016" lon="17.7898625">
        <ele>22.2476</ele>
        <time>2012-10-08T18:47:18Z</time>
      </trkpt>
      <trkpt lat="59.9565968" lon="17.7899105">
        <ele>22.2476</ele>
        <time>2012-10-08T18:47:19Z</time>
      </trkpt>
      <trkpt lat="59.9565946" lon="17.7899658">
        <ele>23.6896</ele>
        <time>2012-10-08T18:47:20Z</time>
      </trkpt>
      <trkpt lat="59.9566068" lon="17.79003">
        <ele>23.6896</ele>
        <time>2012-10-08T18:47:21Z</time>
      </trkpt>
      <trkpt lat="59.9566264" lon="17.7900965">
        <ele>23.6896</ele>
        <time>2012-10-08T18:47:22Z</time>
      </trkpt>
      <trkpt lat="59.9566355" lon="17.7901525">
        <ele>23.6896</ele>
        <time>2012-10-08T18:47:23Z</time>
      </trkpt>
      <trkpt lat="59.9566433" lon="17.7902063">
        <ele>24.1703</ele>
        <time>2012-10-08T18:47:24Z</time>
      </trkpt>
      <trkpt lat="59.9566469" lon="17.7902659">
        <ele>23.6896</ele>
        <time>2012-10-08T18:47:25Z</time>
      </trkpt>
      <trkpt lat="59.956654" lon="17.7903224">
        <ele>23.6896</ele>
        <time>2012-10-08T18:47:26Z</time>
      </trkpt>
      <trkpt lat="59.9566596" lon="17.7903689">
        <ele>24.1703</ele>
        <time>2012-10-08T18:47:27Z</time>
      </trkpt>
      <trkpt lat="59.9566659" lon="17.7904135">
        <ele>24.651</ele>
        <time>2012-10-08T18:47:28Z</time>
      </trkpt>
      <trkpt lat="59.9566771" lon="17.7904591">
        <ele>25.6123</ele>
        <time>2012-10-08T18:47:29Z</time>
      </trkpt>
      <trkpt lat="59.9566865" lon="17.7905094">
        <ele>25.6123</ele>
        <time>2012-10-08T18:47:30Z</time>
      </trkpt>
      <trkpt lat="59.9566942" lon="17.7905592">
        <ele>25.6123</ele>
        <time>2012-10-08T18:47:31Z</time>
      </trkpt>
      <trkpt lat="59.9567052" lon="17.7906052">
        <ele>25.6123</ele>
        <time>2012-10-08T18:47:32Z</time>
      </trkpt>
      <trkpt lat="59.9567164" lon="17.7906514">
        <ele>24.651</ele>
        <time>2012-10-08T18:47:33Z</time>
      </trkpt>
      <trkpt lat="59.956734" lon="17.7906994">
        <ele>24.651</ele>
        <time>2012-10-08T18:47:34Z</time>
      </trkpt>
      <trkpt lat="59.9567497" lon="17.7907467">
        <ele>24.651</ele>
        <time>2012-10-08T18:47:35Z</time>
      </trkpt>
      <trkpt lat="59.9567725" lon="17.7907979">
        <ele>24.1703</ele>
        <time>2012-10-08T18:47:36Z</time>
      </trkpt>
      <trkpt lat="59.9567967" lon="17.7908487">
        <ele>24.651</ele>
        <time>2012-10-08T18:47:37Z</time>
      </trkpt>
      <trkpt lat="59.9568117" lon="17.7908972">
        <ele>24.651</ele>
        <time>2012-10-08T18:47:38Z</time>
      </trkpt>
      <trkpt lat="59.9568247" lon="17.7909415">
        <ele>24.651</ele>
        <time>2012-10-08T18:47:39Z</time>
      </trkpt>
      <trkpt lat="59.9568275" lon="17.7909843">
        <ele>24.651</ele>
        <time>2012-10-08T18:47:40Z</time>
      </trkpt>
      <trkpt lat="59.9568284" lon="17.791031">
        <ele>25.1317</ele>
        <time>2012-10-08T18:47:41Z</time>
      </trkpt>
      <trkpt lat="59.9568332" lon="17.7910801">
        <ele>25.1317</ele>
        <time>2012-10-08T18:47:42Z</time>
      </trkpt>
      <trkpt lat="59.9568455" lon="17.7911271">
        <ele>24.651</ele>
        <time>2012-10-08T18:47:43Z</time>
      </trkpt>
      <trkpt lat="59.956846" lon="17.7911766">
        <ele>24.651</ele>
        <time>2012-10-08T18:47:44Z</time>
      </trkpt>
      <trkpt lat="59.9568401" lon="17.7912292">
        <ele>24.651</ele>
        <time>2012-10-08T18:47:45Z</time>
      </trkpt>
      <trkpt lat="59.95683" lon="17.7912802">
        <ele>24.1703</ele>
        <time>2012-10-08T18:47:46Z</time>
      </trkpt>
      <trkpt lat="59.956815" lon="17.7913271">
        <ele>24.1703</ele>
        <time>2012-10-08T18:47:47Z</time>
      </trkpt>
      <trkpt lat="59.9567963" lon="17.7913782">
        <ele>24.651</ele>
        <time>2012-10-08T18:47:48Z</time>
      </trkpt>
      <trkpt lat="59.9567871" lon="17.7914303">
        <ele>24.651</ele>
        <time>2012-10-08T18:47:49Z</time>
      </trkpt>
      <trkpt lat="59.9567799" lon="17.7914783">
        <ele>24.651</ele>
        <time>2012-10-08T18:47:50Z</time>
      </trkpt>
      <trkpt lat="59.9567777" lon="17.7915251">
        <ele>25.1317</ele>
        <time>2012-10-08T18:47:51Z</time>
      </trkpt>
      <trkpt lat="59.9567648" lon="17.7915764">
        <ele>25.1317</ele>
        <time>2012-10-08T18:47:52Z</time>
      </trkpt>
      <trkpt lat="59.9567547" lon="17.7916253">
        <ele>25.1317</ele>
        <time>2012-10-08T18:47:53Z</time>
      </trkpt>
      <trkpt lat="59.9567491" lon="17.7916697">
        <ele>25.1317</ele>
        <time>2012-10-08T18:47:54Z</time>
      </trkpt>
      <trkpt lat="59.9567405" lon="17.7917164">
        <ele>25.1317</ele>
        <time>2012-10-08T18:47:55Z</time>
      </trkpt>
      <trkpt lat="59.9567316" lon="17.791762">
        <ele>25.6123</ele>
        <time>2012-10-08T18:47:56Z</time>
      </trkpt>
      <trkpt lat="59.9567238" lon="17.791807">
        <ele>26.0929</ele>
        <time>2012-10-08T18:47:57Z</time>
      </trkpt>
      <trkpt lat="59.9567165" lon="17.7918622">
        <ele>27.0543</ele>
        <time>2012-10-08T18:47:58Z</time>
      </trkpt>
      <trkpt lat="59.9567082" lon="17.7919226">
        <ele>27.0543</ele>
        <time>2012-10-08T18:47:59Z</time>
      </trkpt>
      <trkpt lat="59.9567062" lon="17.7919744">
        <ele>28.0155</ele>
        <time>2012-10-08T18:48:00Z</time>
      </trkpt>
      <trkpt lat="59.9566996" lon="17.7920251">
        <ele>28.4962</ele>
        <time>2012-10-08T18:48:01Z</time>
      </trkpt>
      <trkpt lat="59.9566875" lon="17.7920736">
        <ele>28.9769</ele>
        <time>2012-10-08T18:48:02Z</time>
      </trkpt>
      <trkpt lat="59.9566778" lon="17.7921207">
        <ele>28.4962</ele>
        <time>2012-10-08T18:48:03Z</time>
      </trkpt>
      <trkpt lat="59.9566766" lon="17.7921676">
        <ele>28.9769</ele>
        <time>2012-10-08T18:48:04Z</time>
      </trkpt>
      <trkpt lat="59.9566724" lon="17.7922146">
        <ele>29.9381</ele>
        <time>2012-10-08T18:48:05Z</time>
      </trkpt>
      <trkpt lat="59.9566672" lon="17.7922597">
        <ele>29.9381</ele>
        <time>2012-10-08T18:48:06Z</time>
      </trkpt>
      <trkpt lat="59.9566622" lon="17.7923028">
        <ele>30.8995</ele>
        <time>2012-10-08T18:48:07Z</time>
      </trkpt>
      <trkpt lat="59.9566555" lon="17.7923478">
        <ele>31.3801</ele>
        <time>2012-10-08T18:48:08Z</time>
      </trkpt>
      <trkpt lat="59.9566475" lon="17.7923913">
        <ele>31.3801</ele>
        <time>2012-10-08T18:48:09Z</time>
      </trkpt>
      <trkpt lat="59.956641" lon="17.7924321">
        <ele>31.8607</ele>
        <time>2012-10-08T18:48:10Z</time>
      </trkpt>
      <trkpt lat="59.9566305" lon="17.7924746">
        <ele>31.8607</ele>
        <time>2012-10-08T18:48:11Z</time>
      </trkpt>
      <trkpt lat="59.956621" lon="17.7925145">
        <ele>31.8607</ele>
        <time>2012-10-08T18:48:12Z</time>
      </trkpt>
      <trkpt lat="59.9566162" lon="17.7925556">
        <ele>32.8223</ele>
        <time>2012-10-08T18:48:13Z</time>
      </trkpt>
      <trkpt lat="59.9566109" lon="17.792606">
        <ele>33.3029</ele>
        <time>2012-10-08T18:48:14Z</time>
      </trkpt>
      <trkpt lat="59.9566021" lon="17.792656">
        <ele>32.8223</ele>
        <time>2012-10-08T18:48:15Z</time>
      </trkpt>
      <trkpt lat="59.956596" lon="17.7926977">
        <ele>33.3029</ele>
        <time>2012-10-08T18:48:16Z</time>
      </trkpt>
      <trkpt lat="59.9565872" lon="17.7927438">
        <ele>33.3029</ele>
        <time>2012-10-08T18:48:17Z</time>
      </trkpt>
      <trkpt lat="59.956578" lon="17.7927901">
        <ele>32.8223</ele>
        <time>2012-10-08T18:48:18Z</time>
      </trkpt>
      <trkpt lat="59.9565716" lon="17.7928329">
        <ele>33.3029</ele>
        <time>2012-10-08T18:48:19Z</time>
      </trkpt>
      <trkpt lat="59.9565653" lon="17.7928757">
        <ele>33.7834</ele>
        <time>2012-10-08T18:48:20Z</time>
      </trkpt>
      <trkpt lat="59.9565542" lon="17.7929252">
        <ele>33.3029</ele>
        <time>2012-10-08T18:48:21Z</time>
      </trkpt>
      <trkpt lat="59.9565466" lon="17.792973">
        <ele>33.3029</ele>
        <time>2012-10-08T18:48:22Z</time>
      </trkpt>
      <trkpt lat="59.9565398" lon="17.7930184">
        <ele>32.8223</ele>
        <time>2012-10-08T18:48:23Z</time>
      </trkpt>
      <trkpt lat="59.9565304" lon="17.7930619">
        <ele>33.3029</ele>
        <time>2012-10-08T18:48:24Z</time>
      </trkpt>
      <trkpt lat="59.9565206" lon="17.7931004">
        <ele>32.8223</ele>
        <time>2012-10-08T18:48:25Z</time>
      </trkpt>
      <trkpt lat="59.9565143" lon="17.7931377">
        <ele>33.3029</ele>
        <time>2012-10-08T18:48:26Z</time>
      </trkpt>
      <trkpt lat="59.9565047" lon="17.7931803">
        <ele>33.7834</ele>
        <time>2012-10-08T18:48:27Z</time>
      </trkpt>
      <trkpt lat="59.9564943" lon="17.7932261">
        <ele>33.3029</ele>
        <time>2012-10-08T18:48:28Z</time>
      </trkpt>
      <trkpt lat="59.9564839" lon="17.7932661">
        <ele>33.7834</ele>
        <time>2012-10-08T18:48:29Z</time>
      </trkpt>
      <trkpt lat="59.956475" lon="17.7933054">
        <ele>34.2642</ele>
        <time>2012-10-08T18:48:30Z</time>
      </trkpt>
      <trkpt lat="59.9564649" lon="17.7933486">
        <ele>34.2642</ele>
        <time>2012-10-08T18:48:31Z</time>
      </trkpt>
      <trkpt lat="59.9564544" lon="17.7933916">
        <ele>34.2642</ele>
        <time>2012-10-08T18:48:32Z</time>
      </trkpt>
      <trkpt lat="59.9564452" lon="17.7934321">
        <ele>34.7449</ele>
        <time>2012-10-08T18:48:33Z</time>
      </trkpt>
      <trkpt lat="59.9564353" lon="17.7934743">
        <ele>35.2255</ele>
        <time>2012-10-08T18:48:34Z</time>
      </trkpt>
      <trkpt lat="59.9564248" lon="17.793518">
        <ele>35.2255</ele>
        <time>2012-10-08T18:48:35Z</time>
      </trkpt>
      <trkpt lat="59.9564186" lon="17.7935593">
        <ele>35.7061</ele>
        <time>2012-10-08T18:48:36Z</time>
      </trkpt>
      <trkpt lat="59.9564104" lon="17.7936039">
        <ele>35.7061</ele>
        <time>2012-10-08T18:48:37Z</time>
      </trkpt>
      <trkpt lat="59.9563979" lon="17.7936489">
        <ele>34.7449</ele>
        <time>2012-10-08T18:48:38Z</time>
      </trkpt>
      <trkpt lat="59.9563893" lon="17.7936908">
        <ele>35.7061</ele>
        <time>2012-10-08T18:48:39Z</time>
      </trkpt>
      <trkpt lat="59.9563793" lon="17.7937319">
        <ele>36.1868</ele>
        <time>2012-10-08T18:48:40Z</time>
      </trkpt>
      <trkpt lat="59.9563684" lon="17.793776">
        <ele>35.7061</ele>
        <time>2012-10-08T18:48:41Z</time>
      </trkpt>
      <trkpt lat="59.9563576" lon="17.7938201">
        <ele>36.1868</ele>
        <time>2012-10-08T18:48:42Z</time>
      </trkpt>
      <trkpt lat="59.9563481" lon="17.7938682">
        <ele>36.1868</ele>
        <time>2012-10-08T18:48:43Z</time>
      </trkpt>
      <trkpt lat="59.9563363" lon="17.7939149">
        <ele>35.7061</ele>
        <time>2012-10-08T18:48:44Z</time>
      </trkpt>
      <trkpt lat="59.9563229" lon="17.7939609">
        <ele>35.7061</ele>
        <time>2012-10-08T18:48:45Z</time>
      </trkpt>
      <trkpt lat="59.9563119" lon="17.794005">
        <ele>35.7061</ele>
        <time>2012-10-08T18:48:46Z</time>
      </trkpt>
      <trkpt lat="59.9563017" lon="17.7940506">
        <ele>35.7061</ele>
        <time>2012-10-08T18:48:47Z</time>
      </trkpt>
      <trkpt lat="59.9562939" lon="17.7940954">
        <ele>35.7061</ele>
        <time>2012-10-08T18:48:48Z</time>
      </trkpt>
      <trkpt lat="59.9562866" lon="17.7941374">
        <ele>36.1868</ele>
        <time>2012-10-08T18:48:49Z</time>
      </trkpt>
      <trkpt lat="59.9562762" lon="17.7941842">
        <ele>36.6675</ele>
        <time>2012-10-08T18:48:50Z</time>
      </trkpt>
      <trkpt lat="59.956268" lon="17.7942292">
        <ele>36.1868</ele>
        <time>2012-10-08T18:48:51Z</time>
      </trkpt>
      <trkpt lat="59.9562624" lon="17.7942697">
        <ele>36.6675</ele>
        <time>2012-10-08T18:48:52Z</time>
      </trkpt>
      <trkpt lat="59.9562579" lon="17.7943041">
        <ele>37.1481</ele>
        <time>2012-10-08T18:48:53Z</time>
      </trkpt>
      <trkpt lat="59.9562499" lon="17.7943383">
        <ele>37.1481</ele>
        <time>2012-10-08T18:48:54Z</time>
      </trkpt>
      <trkpt lat="59.95624" lon="17.794383">
        <ele>37.1481</ele>
        <time>2012-10-08T18:48:55Z</time>
      </trkpt>
      <trkpt lat="59.9562339" lon="17.7944261">
        <ele>37.1481</ele>
        <time>2012-10-08T18:48:56Z</time>
      </trkpt>
      <trkpt lat="59.956227" lon="17.794467">
        <ele>36.6675</ele>
        <time>2012-10-08T18:48:57Z</time>
      </trkpt>
      <trkpt lat="59.9562192" lon="17.7945064">
        <ele>37.1481</ele>
        <time>2012-10-08T18:48:58Z</time>
      </trkpt>
      <trkpt lat="59.9562072" lon="17.7945483">
        <ele>37.1481</ele>
        <time>2012-10-08T18:48:59Z</time>
      </trkpt>
      <trkpt lat="59.956194" lon="17.7945944">
        <ele>37.1481</ele>
        <time>2012-10-08T18:49:00Z</time>
      </trkpt>
      <trkpt lat="59.9561809" lon="17.79464">
        <ele>36.6675</ele>
        <time>2012-10-08T18:49:01Z</time>
      </trkpt>
      <trkpt lat="59.9561688" lon="17.7946871">
        <ele>35.7061</ele>
        <time>2012-10-08T18:49:02Z</time>
      </trkpt>
      <trkpt lat="59.9561535" lon="17.7947338">
        <ele>35.7061</ele>
        <time>2012-10-08T18:49:03Z</time>
      </trkpt>
      <trkpt lat="59.9561389" lon="17.7947781">
        <ele>35.2255</ele>
        <time>2012-10-08T18:49:04Z</time>
      </trkpt>
      <trkpt lat="59.9561297" lon="17.794824">
        <ele>34.7449</ele>
        <time>2012-10-08T18:49:05Z</time>
      </trkpt>
      <trkpt lat="59.9561208" lon="17.7948637">
        <ele>33.7834</ele>
        <time>2012-10-08T18:49:06Z</time>
      </trkpt>
      <trkpt lat="59.9561084" lon="17.7949011">
        <ele>33.7834</ele>
        <time>2012-10-08T18:49:07Z</time>
      </trkpt>
      <trkpt lat="59.9561004" lon="17.7949379">
        <ele>33.3029</ele>
        <time>2012-10-08T18:49:08Z</time>
      </trkpt>
      <trkpt lat="59.9560922" lon="17.7949782">
        <ele>33.3029</ele>
        <time>2012-10-08T18:49:09Z</time>
      </trkpt>
      <trkpt lat="59.9560851" lon="17.7950228">
        <ele>32.3416</ele>
        <time>2012-10-08T18:49:10Z</time>
      </trkpt>
      <trkpt lat="59.9560785" lon="17.7950656">
        <ele>32.8223</ele>
        <time>2012-10-08T18:49:11Z</time>
      </trkpt>
      <trkpt lat="59.95607" lon="17.7951067">
        <ele>32.8223</ele>
        <time>2012-10-08T18:49:12Z</time>
      </trkpt>
      <trkpt lat="59.956059" lon="17.7951508">
        <ele>32.8223</ele>
        <time>2012-10-08T18:49:13Z</time>
      </trkpt>
      <trkpt lat="59.9560503" lon="17.7951921">
        <ele>32.8223</ele>
        <time>2012-10-08T18:49:14Z</time>
      </trkpt>
      <trkpt lat="59.9560385" lon="17.7952377">
        <ele>32.8223</ele>
        <time>2012-10-08T18:49:15Z</time>
      </trkpt>
      <trkpt lat="59.9560271" lon="17.7952859">
        <ele>32.8223</ele>
        <time>2012-10-08T18:49:16Z</time>
      </trkpt>
      <trkpt lat="59.9560209" lon="17.7953305">
        <ele>33.3029</ele>
        <time>2012-10-08T18:49:17Z</time>
      </trkpt>
      <trkpt lat="59.9560146" lon="17.795373">
        <ele>33.3029</ele>
        <time>2012-10-08T18:49:18Z</time>
      </trkpt>
      <trkpt lat="59.9560051" lon="17.7954159">
        <ele>33.3029</ele>
        <time>2012-10-08T18:49:19Z</time>
      </trkpt>
      <trkpt lat="59.955996" lon="17.7954552">
        <ele>33.3029</ele>
        <time>2012-10-08T18:49:20Z</time>
      </trkpt>
      <trkpt lat="59.9559857" lon="17.7954977">
        <ele>32.8223</ele>
        <time>2012-10-08T18:49:21Z</time>
      </trkpt>
      <trkpt lat="59.9559738" lon="17.7955418">
        <ele>32.8223</ele>
        <time>2012-10-08T18:49:22Z</time>
      </trkpt>
      <trkpt lat="59.9559663" lon="17.7955833">
        <ele>32.8223</ele>
        <time>2012-10-08T18:49:23Z</time>
      </trkpt>
      <trkpt lat="59.9559618" lon="17.7956298">
        <ele>32.8223</ele>
        <time>2012-10-08T18:49:24Z</time>
      </trkpt>
      <trkpt lat="59.955957" lon="17.7956751">
        <ele>33.3029</ele>
        <time>2012-10-08T18:49:25Z</time>
      </trkpt>
      <trkpt lat="59.9559505" lon="17.7957174">
        <ele>33.3029</ele>
        <time>2012-10-08T18:49:26Z</time>
      </trkpt>
      <trkpt lat="59.9559458" lon="17.7957612">
        <ele>33.3029</ele>
        <time>2012-10-08T18:49:27Z</time>
      </trkpt>
      <trkpt lat="59.9559381" lon="17.7958096">
        <ele>33.3029</ele>
        <time>2012-10-08T18:49:28Z</time>
      </trkpt>
      <trkpt lat="59.9559286" lon="17.7958563">
        <ele>32.8223</ele>
        <time>2012-10-08T18:49:29Z</time>
      </trkpt>
      <trkpt lat="59.9559235" lon="17.795898">
        <ele>33.3029</ele>
        <time>2012-10-08T18:49:30Z</time>
      </trkpt>
      <trkpt lat="59.9559186" lon="17.7959402">
        <ele>33.3029</ele>
        <time>2012-10-08T18:49:31Z</time>
      </trkpt>
      <trkpt lat="59.9559132" lon="17.7959826">
        <ele>32.8223</ele>
        <time>2012-10-08T18:49:32Z</time>
      </trkpt>
      <trkpt lat="59.9559085" lon="17.796026">
        <ele>32.8223</ele>
        <time>2012-10-08T18:49:33Z</time>
      </trkpt>
      <trkpt lat="59.9559047" lon="17.7960711">
        <ele>32.8223</ele>
        <time>2012-10-08T18:49:34Z</time>
      </trkpt>
      <trkpt lat="59.9559003" lon="17.7961192">
        <ele>32.8223</ele>
        <time>2012-10-08T18:49:35Z</time>
      </trkpt>
      <trkpt lat="59.9558949" lon="17.7961672">
        <ele>32.8223</ele>
        <time>2012-10-08T18:49:36Z</time>
      </trkpt>
      <trkpt lat="59.9558878" lon="17.796215">
        <ele>32.8223</ele>
        <time>2012-10-08T18:49:37Z</time>
      </trkpt>
      <trkpt lat="59.9558806" lon="17.7962629">
        <ele>32.8223</ele>
        <time>2012-10-08T18:49:38Z</time>
      </trkpt>
      <trkpt lat="59.955872" lon="17.7963094">
        <ele>32.8223</ele>
        <time>2012-10-08T18:49:39Z</time>
      </trkpt>
      <trkpt lat="59.9558634" lon="17.7963546">
        <ele>32.8223</ele>
        <time>2012-10-08T18:49:40Z</time>
      </trkpt>
      <trkpt lat="59.9558554" lon="17.7964008">
        <ele>32.3416</ele>
        <time>2012-10-08T18:49:41Z</time>
      </trkpt>
      <trkpt lat="59.9558468" lon="17.7964452">
        <ele>32.8223</ele>
        <time>2012-10-08T18:49:42Z</time>
      </trkpt>
      <trkpt lat="59.9558383" lon="17.7964873">
        <ele>32.8223</ele>
        <time>2012-10-08T18:49:43Z</time>
      </trkpt>
      <trkpt lat="59.9558302" lon="17.7965311">
        <ele>32.8223</ele>
        <time>2012-10-08T18:49:44Z</time>
      </trkpt>
      <trkpt lat="59.9558203" lon="17.7965761">
        <ele>32.8223</ele>
        <time>2012-10-08T18:49:45Z</time>
      </trkpt>
      <trkpt lat="59.955812" lon="17.7966168">
        <ele>33.3029</ele>
        <time>2012-10-08T18:49:46Z</time>
      </trkpt>
      <trkpt lat="59.9558054" lon="17.7966626">
        <ele>33.7834</ele>
        <time>2012-10-08T18:49:47Z</time>
      </trkpt>
      <trkpt lat="59.9557969" lon="17.7967115">
        <ele>33.7834</ele>
        <time>2012-10-08T18:49:48Z</time>
      </trkpt>
      <trkpt lat="59.9557872" lon="17.7967559">
        <ele>33.3029</ele>
        <time>2012-10-08T18:49:49Z</time>
      </trkpt>
      <trkpt lat="59.9557787" lon="17.7967991">
        <ele>33.3029</ele>
        <time>2012-10-08T18:49:50Z</time>
      </trkpt>
      <trkpt lat="59.9557666" lon="17.7968424">
        <ele>33.7834</ele>
        <time>2012-10-08T18:49:51Z</time>
      </trkpt>
      <trkpt lat="59.9557537" lon="17.7968845">
        <ele>33.7834</ele>
        <time>2012-10-08T18:49:52Z</time>
      </trkpt>
      <trkpt lat="59.9557443" lon="17.79693">
        <ele>33.7834</ele>
        <time>2012-10-08T18:49:53Z</time>
      </trkpt>
      <trkpt lat="59.9557332" lon="17.796977">
        <ele>33.7834</ele>
        <time>2012-10-08T18:49:54Z</time>
      </trkpt>
      <trkpt lat="59.9557204" lon="17.7970212">
        <ele>33.7834</ele>
        <time>2012-10-08T18:49:55Z</time>
      </trkpt>
      <trkpt lat="59.95571" lon="17.7970652">
        <ele>33.7834</ele>
        <time>2012-10-08T18:49:56Z</time>
      </trkpt>
      <trkpt lat="59.9557005" lon="17.7971083">
        <ele>33.7834</ele>
        <time>2012-10-08T18:49:57Z</time>
      </trkpt>
      <trkpt lat="59.9556893" lon="17.7971518">
        <ele>34.2642</ele>
        <time>2012-10-08T18:49:58Z</time>
      </trkpt>
      <trkpt lat="59.9556809" lon="17.7971916">
        <ele>34.2642</ele>
        <time>2012-10-08T18:49:59Z</time>
      </trkpt>
      <trkpt lat="59.9556697" lon="17.7972305">
        <ele>34.2642</ele>
        <time>2012-10-08T18:50:00Z</time>
      </trkpt>
      <trkpt lat="59.9556552" lon="17.7972688">
        <ele>34.2642</ele>
        <time>2012-10-08T18:50:01Z</time>
      </trkpt>
      <trkpt lat="59.9556422" lon="17.7973062">
        <ele>33.7834</ele>
        <time>2012-10-08T18:50:02Z</time>
      </trkpt>
      <trkpt lat="59.9556298" lon="17.7973455">
        <ele>33.7834</ele>
        <time>2012-10-08T18:50:03Z</time>
      </trkpt>
      <trkpt lat="59.9556172" lon="17.7973827">
        <ele>33.7834</ele>
        <time>2012-10-08T18:50:04Z</time>
      </trkpt>
      <trkpt lat="59.9556073" lon="17.7974164">
        <ele>33.7834</ele>
        <time>2012-10-08T18:50:05Z</time>
      </trkpt>
      <trkpt lat="59.955596" lon="17.7974564">
        <ele>33.7834</ele>
        <time>2012-10-08T18:50:06Z</time>
      </trkpt>
      <trkpt lat="59.955581" lon="17.7974958">
        <ele>33.7834</ele>
        <time>2012-10-08T18:50:07Z</time>
      </trkpt>
      <trkpt lat="59.9555645" lon="17.7975324">
        <ele>33.3029</ele>
        <time>2012-10-08T18:50:08Z</time>
      </trkpt>
      <trkpt lat="59.9555503" lon="17.7975671">
        <ele>33.3029</ele>
        <time>2012-10-08T18:50:09Z</time>
      </trkpt>
      <trkpt lat="59.9555371" lon="17.7976082">
        <ele>32.8223</ele>
        <time>2012-10-08T18:50:10Z</time>
      </trkpt>
      <trkpt lat="59.9555273" lon="17.7976464">
        <ele>32.8223</ele>
        <time>2012-10-08T18:50:11Z</time>
      </trkpt>
      <trkpt lat="59.9555168" lon="17.7976797">
        <ele>32.3416</ele>
        <time>2012-10-08T18:50:12Z</time>
      </trkpt>
      <trkpt lat="59.9555032" lon="17.7977133">
        <ele>31.8607</ele>
        <time>2012-10-08T18:50:13Z</time>
      </trkpt>
      <trkpt lat="59.9554903" lon="17.7977476">
        <ele>31.8607</ele>
        <time>2012-10-08T18:50:14Z</time>
      </trkpt>
      <trkpt lat="59.9554765" lon="17.7977823">
        <ele>31.3801</ele>
        <time>2012-10-08T18:50:15Z</time>
      </trkpt>
      <trkpt lat="59.9554622" lon="17.7978216">
        <ele>30.8995</ele>
        <time>2012-10-08T18:50:16Z</time>
      </trkpt>
      <trkpt lat="59.9554457" lon="17.7978651">
        <ele>30.4188</ele>
        <time>2012-10-08T18:50:17Z</time>
      </trkpt>
      <trkpt lat="59.9554288" lon="17.7979051">
        <ele>30.4188</ele>
        <time>2012-10-08T18:50:18Z</time>
      </trkpt>
      <trkpt lat="59.9554125" lon="17.7979418">
        <ele>30.4188</ele>
        <time>2012-10-08T18:50:19Z</time>
      </trkpt>
      <trkpt lat="59.9553972" lon="17.7979846">
        <ele>29.9381</ele>
        <time>2012-10-08T18:50:20Z</time>
      </trkpt>
      <trkpt lat="59.9553842" lon="17.7980303">
        <ele>29.4575</ele>
        <time>2012-10-08T18:50:21Z</time>
      </trkpt>
      <trkpt lat="59.9553732" lon="17.7980754">
        <ele>29.4575</ele>
        <time>2012-10-08T18:50:22Z</time>
      </trkpt>
      <trkpt lat="59.9553628" lon="17.7981146">
        <ele>29.4575</ele>
        <time>2012-10-08T18:50:23Z</time>
      </trkpt>
      <trkpt lat="59.9553521" lon="17.7981491">
        <ele>29.4575</ele>
        <time>2012-10-08T18:50:24Z</time>
      </trkpt>
      <trkpt lat="59.9553423" lon="17.7981826">
        <ele>29.4575</ele>
        <time>2012-10-08T18:50:25Z</time>
      </trkpt>
      <trkpt lat="59.9553301" lon="17.7982189">
        <ele>29.4575</ele>
        <time>2012-10-08T18:50:26Z</time>
      </trkpt>
      <trkpt lat="59.9553154" lon="17.7982551">
        <ele>29.4575</ele>
        <time>2012-10-08T18:50:27Z</time>
      </trkpt>
      <trkpt lat="59.9553051" lon="17.7982948">
        <ele>29.4575</ele>
        <time>2012-10-08T18:50:28Z</time>
      </trkpt>
      <trkpt lat="59.9552956" lon="17.7983383">
        <ele>29.4575</ele>
        <time>2012-10-08T18:50:29Z</time>
      </trkpt>
      <trkpt lat="59.9552796" lon="17.7983779">
        <ele>29.4575</ele>
        <time>2012-10-08T18:50:30Z</time>
      </trkpt>
      <trkpt lat="59.9552646" lon="17.7984121">
        <ele>28.9769</ele>
        <time>2012-10-08T18:50:31Z</time>
      </trkpt>
      <trkpt lat="59.9552501" lon="17.7984479">
        <ele>28.9769</ele>
        <time>2012-10-08T18:50:32Z</time>
      </trkpt>
      <trkpt lat="59.9552343" lon="17.7984824">
        <ele>28.9769</ele>
        <time>2012-10-08T18:50:33Z</time>
      </trkpt>
      <trkpt lat="59.9552184" lon="17.7985167">
        <ele>28.9769</ele>
        <time>2012-10-08T18:50:34Z</time>
      </trkpt>
      <trkpt lat="59.9552032" lon="17.7985549">
        <ele>29.4575</ele>
        <time>2012-10-08T18:50:35Z</time>
      </trkpt>
      <trkpt lat="59.9551848" lon="17.798596">
        <ele>29.4575</ele>
        <time>2012-10-08T18:50:36Z</time>
      </trkpt>
      <trkpt lat="59.9551645" lon="17.7986346">
        <ele>29.4575</ele>
        <time>2012-10-08T18:50:37Z</time>
      </trkpt>
      <trkpt lat="59.9551466" lon="17.798668">
        <ele>29.9381</ele>
        <time>2012-10-08T18:50:38Z</time>
      </trkpt>
      <trkpt lat="59.9551307" lon="17.7987">
        <ele>30.4188</ele>
        <time>2012-10-08T18:50:39Z</time>
      </trkpt>
      <trkpt lat="59.9551142" lon="17.7987336">
        <ele>30.4188</ele>
        <time>2012-10-08T18:50:40Z</time>
      </trkpt>
      <trkpt lat="59.9550977" lon="17.7987649">
        <ele>30.8995</ele>
        <time>2012-10-08T18:50:41Z</time>
      </trkpt>
      <trkpt lat="59.9550827" lon="17.7987919">
        <ele>31.3801</ele>
        <time>2012-10-08T18:50:42Z</time>
      </trkpt>
      <trkpt lat="59.9550655" lon="17.7988213">
        <ele>31.3801</ele>
        <time>2012-10-08T18:50:43Z</time>
      </trkpt>
      <trkpt lat="59.9550481" lon="17.7988541">
        <ele>31.3801</ele>
        <time>2012-10-08T18:50:44Z</time>
      </trkpt>
      <trkpt lat="59.9550308" lon="17.7988829">
        <ele>31.3801</ele>
        <time>2012-10-08T18:50:45Z</time>
      </trkpt>
      <trkpt lat="59.9550107" lon="17.798916">
        <ele>31.3801</ele>
        <time>2012-10-08T18:50:46Z</time>
      </trkpt>
      <trkpt lat="59.9549889" lon="17.7989492">
        <ele>30.8995</ele>
        <time>2012-10-08T18:50:47Z</time>
      </trkpt>
      <trkpt lat="59.9549662" lon="17.7989856">
        <ele>30.4188</ele>
        <time>2012-10-08T18:50:48Z</time>
      </trkpt>
      <trkpt lat="59.9549464" lon="17.7990224">
        <ele>30.4188</ele>
        <time>2012-10-08T18:50:49Z</time>
      </trkpt>
      <trkpt lat="59.9549269" lon="17.7990586">
        <ele>30.8995</ele>
        <time>2012-10-08T18:50:50Z</time>
      </trkpt>
      <trkpt lat="59.9549086" lon="17.7990927">
        <ele>30.8995</ele>
        <time>2012-10-08T18:50:51Z</time>
      </trkpt>
      <trkpt lat="59.9548911" lon="17.799128">
        <ele>30.4188</ele>
        <time>2012-10-08T18:50:52Z</time>
      </trkpt>
      <trkpt lat="59.9548734" lon="17.7991612">
        <ele>30.8995</ele>
        <time>2012-10-08T18:50:53Z</time>
      </trkpt>
      <trkpt lat="59.9548569" lon="17.7991923">
        <ele>30.4188</ele>
        <time>2012-10-08T18:50:54Z</time>
      </trkpt>
      <trkpt lat="59.954838" lon="17.7992283">
        <ele>29.9381</ele>
        <time>2012-10-08T18:50:55Z</time>
      </trkpt>
      <trkpt lat="59.9548155" lon="17.7992632">
        <ele>29.9381</ele>
        <time>2012-10-08T18:50:56Z</time>
      </trkpt>
      <trkpt lat="59.9547907" lon="17.7993011">
        <ele>28.9769</ele>
        <time>2012-10-08T18:50:57Z</time>
      </trkpt>
      <trkpt lat="59.9547669" lon="17.799344">
        <ele>28.9769</ele>
        <time>2012-10-08T18:50:58Z</time>
      </trkpt>
      <trkpt lat="59.9547464" lon="17.7993829">
        <ele>28.4962</ele>
        <time>2012-10-08T18:50:59Z</time>
      </trkpt>
      <trkpt lat="59.9547285" lon="17.7994139">
        <ele>28.0155</ele>
        <time>2012-10-08T18:51:00Z</time>
      </trkpt>
      <trkpt lat="59.9547082" lon="17.7994471">
        <ele>28.0155</ele>
        <time>2012-10-08T18:51:01Z</time>
      </trkpt>
      <trkpt lat="59.9546887" lon="17.7994839">
        <ele>28.0155</ele>
        <time>2012-10-08T18:51:02Z</time>
      </trkpt>
      <trkpt lat="59.9546702" lon="17.7995204">
        <ele>27.5349</ele>
        <time>2012-10-08T18:51:03Z</time>
      </trkpt>
      <trkpt lat="59.9546538" lon="17.7995533">
        <ele>27.5349</ele>
        <time>2012-10-08T18:51:04Z</time>
      </trkpt>
      <trkpt lat="59.9546397" lon="17.7995862">
        <ele>27.0543</ele>
        <time>2012-10-08T18:51:05Z</time>
      </trkpt>
      <trkpt lat="59.9546238" lon="17.7996137">
        <ele>27.0543</ele>
        <time>2012-10-08T18:51:06Z</time>
      </trkpt>
      <trkpt lat="59.9546077" lon="17.799644">
        <ele>26.5736</ele>
        <time>2012-10-08T18:51:07Z</time>
      </trkpt>
      <trkpt lat="59.9545907" lon="17.7996828">
        <ele>26.5736</ele>
        <time>2012-10-08T18:51:08Z</time>
      </trkpt>
      <trkpt lat="59.9545723" lon="17.7997237">
        <ele>27.0543</ele>
        <time>2012-10-08T18:51:09Z</time>
      </trkpt>
      <trkpt lat="59.954554" lon="17.7997579">
        <ele>27.0543</ele>
        <time>2012-10-08T18:51:10Z</time>
      </trkpt>
      <trkpt lat="59.9545368" lon="17.7997916">
        <ele>27.5349</ele>
        <time>2012-10-08T18:51:11Z</time>
      </trkpt>
      <trkpt lat="59.9545202" lon="17.7998278">
        <ele>27.5349</ele>
        <time>2012-10-08T18:51:12Z</time>
      </trkpt>
      <trkpt lat="59.9545061" lon="17.7998636">
        <ele>27.5349</ele>
        <time>2012-10-08T18:51:13Z</time>
      </trkpt>
      <trkpt lat="59.9544918" lon="17.7998993">
        <ele>28.0155</ele>
        <time>2012-10-08T18:51:14Z</time>
      </trkpt>
      <trkpt lat="59.9544756" lon="17.7999341">
        <ele>28.0155</ele>
        <time>2012-10-08T18:51:15Z</time>
      </trkpt>
      <trkpt lat="59.9544638" lon="17.7999703">
        <ele>28.4962</ele>
        <time>2012-10-08T18:51:16Z</time>
      </trkpt>
      <trkpt lat="59.9544523" lon="17.800007">
        <ele>28.4962</ele>
        <time>2012-10-08T18:51:17Z</time>
      </trkpt>
      <trkpt lat="59.9544387" lon="17.8000391">
        <ele>28.4962</ele>
        <time>2012-10-08T18:51:18Z</time>
      </trkpt>
      <trkpt lat="59.9544236" lon="17.8000706">
        <ele>28.4962</ele>
        <time>2012-10-08T18:51:19Z</time>
      </trkpt>
      <trkpt lat="59.9544063" lon="17.8001045">
        <ele>28.4962</ele>
        <time>2012-10-08T18:51:20Z</time>
      </trkpt>
      <trkpt lat="59.9543902" lon="17.8001392">
        <ele>28.9769</ele>
        <time>2012-10-08T18:51:21Z</time>
      </trkpt>
      <trkpt lat="59.9543737" lon="17.8001769">
        <ele>28.4962</ele>
        <time>2012-10-08T18:51:22Z</time>
      </trkpt>
      <trkpt lat="59.9543606" lon="17.8002143">
        <ele>28.9769</ele>
        <time>2012-10-08T18:51:23Z</time>
      </trkpt>
      <trkpt lat="59.9543472" lon="17.8002517">
        <ele>28.9769</ele>
        <time>2012-10-08T18:51:24Z</time>
      </trkpt>
      <trkpt lat="59.9543316" lon="17.8002898">
        <ele>28.9769</ele>
        <time>2012-10-08T18:51:25Z</time>
      </trkpt>
      <trkpt lat="59.9543208" lon="17.8003282">
        <ele>28.9769</ele>
        <time>2012-10-08T18:51:26Z</time>
      </trkpt>
      <trkpt lat="59.9543148" lon="17.8003593">
        <ele>29.4575</ele>
        <time>2012-10-08T18:51:27Z</time>
      </trkpt>
      <trkpt lat="59.9543098" lon="17.8003847">
        <ele>28.4962</ele>
        <time>2012-10-08T18:51:28Z</time>
      </trkpt>
      <trkpt lat="59.9543014" lon="17.8004142">
        <ele>28.9769</ele>
        <time>2012-10-08T18:51:29Z</time>
      </trkpt>
      <trkpt lat="59.9542907" lon="17.8004422">
        <ele>28.4962</ele>
        <time>2012-10-08T18:51:30Z</time>
      </trkpt>
      <trkpt lat="59.9542815" lon="17.8004753">
        <ele>28.0155</ele>
        <time>2012-10-08T18:51:31Z</time>
      </trkpt>
      <trkpt lat="59.9542741" lon="17.8005116">
        <ele>28.0155</ele>
        <time>2012-10-08T18:51:32Z</time>
      </trkpt>
      <trkpt lat="59.9542628" lon="17.8005539">
        <ele>27.5349</ele>
        <time>2012-10-08T18:51:33Z</time>
      </trkpt>
      <trkpt lat="59.954255" lon="17.8005896">
        <ele>27.5349</ele>
        <time>2012-10-08T18:51:34Z</time>
      </trkpt>
      <trkpt lat="59.9542424" lon="17.8006194">
        <ele>27.0543</ele>
        <time>2012-10-08T18:51:35Z</time>
      </trkpt>
      <trkpt lat="59.954231" lon="17.8006484">
        <ele>27.0543</ele>
        <time>2012-10-08T18:51:36Z</time>
      </trkpt>
      <trkpt lat="59.9542149" lon="17.8006855">
        <ele>27.0543</ele>
        <time>2012-10-08T18:51:37Z</time>
      </trkpt>
      <trkpt lat="59.9541975" lon="17.8007204">
        <ele>27.0543</ele>
        <time>2012-10-08T18:51:38Z</time>
      </trkpt>
      <trkpt lat="59.9541807" lon="17.8007541">
        <ele>27.5349</ele>
        <time>2012-10-08T18:51:39Z</time>
      </trkpt>
      <trkpt lat="59.9541631" lon="17.8007966">
        <ele>27.0543</ele>
        <time>2012-10-08T18:51:40Z</time>
      </trkpt>
      <trkpt lat="59.9541508" lon="17.800838">
        <ele>26.5736</ele>
        <time>2012-10-08T18:51:41Z</time>
      </trkpt>
      <trkpt lat="59.954142" lon="17.800873">
        <ele>26.5736</ele>
        <time>2012-10-08T18:51:42Z</time>
      </trkpt>
      <trkpt lat="59.954126" lon="17.800909">
        <ele>26.5736</ele>
        <time>2012-10-08T18:51:43Z</time>
      </trkpt>
      <trkpt lat="59.9541104" lon="17.8009453">
        <ele>26.5736</ele>
        <time>2012-10-08T18:51:44Z</time>
      </trkpt>
      <trkpt lat="59.954096" lon="17.8009836">
        <ele>26.0929</ele>
        <time>2012-10-08T18:51:45Z</time>
      </trkpt>
      <trkpt lat="59.9540847" lon="17.8010242">
        <ele>26.0929</ele>
        <time>2012-10-08T18:51:46Z</time>
      </trkpt>
      <trkpt lat="59.95407" lon="17.801066">
        <ele>25.6123</ele>
        <time>2012-10-08T18:51:47Z</time>
      </trkpt>
      <trkpt lat="59.9540513" lon="17.8011063">
        <ele>25.1317</ele>
        <time>2012-10-08T18:51:48Z</time>
      </trkpt>
      <trkpt lat="59.9540349" lon="17.801145">
        <ele>24.651</ele>
        <time>2012-10-08T18:51:49Z</time>
      </trkpt>
      <trkpt lat="59.9540225" lon="17.8011773">
        <ele>24.1703</ele>
        <time>2012-10-08T18:51:50Z</time>
      </trkpt>
      <trkpt lat="59.9540109" lon="17.8012099">
        <ele>23.6896</ele>
        <time>2012-10-08T18:51:51Z</time>
      </trkpt>
      <trkpt lat="59.9540009" lon="17.8012485">
        <ele>23.209</ele>
        <time>2012-10-08T18:51:52Z</time>
      </trkpt>
      <trkpt lat="59.9539953" lon="17.8012782">
        <ele>22.7283</ele>
        <time>2012-10-08T18:51:53Z</time>
      </trkpt>
      <trkpt lat="59.9539861" lon="17.8013031">
        <ele>22.2476</ele>
        <time>2012-10-08T18:51:54Z</time>
      </trkpt>
      <trkpt lat="59.9539746" lon="17.8013307">
        <ele>21.2864</ele>
        <time>2012-10-08T18:51:55Z</time>
      </trkpt>
      <trkpt lat="59.9539614" lon="17.8013648">
        <ele>20.8057</ele>
        <time>2012-10-08T18:51:56Z</time>
      </trkpt>
      <trkpt lat="59.9539348" lon="17.8014062">
        <ele>21.2864</ele>
        <time>2012-10-08T18:51:57Z</time>
      </trkpt>
      <trkpt lat="59.9539063" lon="17.8014544">
        <ele>21.2864</ele>
        <time>2012-10-08T18:51:58Z</time>
      </trkpt>
      <trkpt lat="59.9538835" lon="17.8015067">
        <ele>21.767</ele>
        <time>2012-10-08T18:51:59Z</time>
      </trkpt>
      <trkpt lat="59.9538676" lon="17.8015497">
        <ele>22.2476</ele>
        <time>2012-10-08T18:52:00Z</time>
      </trkpt>
      <trkpt lat="59.953859" lon="17.8015797">
        <ele>21.767</ele>
        <time>2012-10-08T18:52:01Z</time>
      </trkpt>
      <trkpt lat="59.9538545" lon="17.8016148">
        <ele>22.2476</ele>
        <time>2012-10-08T18:52:02Z</time>
      </trkpt>
      <trkpt lat="59.9538433" lon="17.8016465">
        <ele>21.2864</ele>
        <time>2012-10-08T18:52:03Z</time>
      </trkpt>
      <trkpt lat="59.9538303" lon="17.8016839">
        <ele>20.8057</ele>
        <time>2012-10-08T18:52:04Z</time>
      </trkpt>
      <trkpt lat="59.9538155" lon="17.8017222">
        <ele>20.325</ele>
        <time>2012-10-08T18:52:05Z</time>
      </trkpt>
      <trkpt lat="59.9538012" lon="17.8017641">
        <ele>19.3638</ele>
        <time>2012-10-08T18:52:06Z</time>
      </trkpt>
      <trkpt lat="59.9537945" lon="17.801807">
        <ele>19.3638</ele>
        <time>2012-10-08T18:52:07Z</time>
      </trkpt>
      <trkpt lat="59.9537789" lon="17.8018569">
        <ele>20.325</ele>
        <time>2012-10-08T18:52:08Z</time>
      </trkpt>
      <trkpt lat="59.9537701" lon="17.8018945">
        <ele>20.325</ele>
        <time>2012-10-08T18:52:09Z</time>
      </trkpt>
      <trkpt lat="59.9537623" lon="17.8019359">
        <ele>20.325</ele>
        <time>2012-10-08T18:52:10Z</time>
      </trkpt>
      <trkpt lat="59.9537521" lon="17.8019745">
        <ele>20.325</ele>
        <time>2012-10-08T18:52:11Z</time>
      </trkpt>
      <trkpt lat="59.9537436" lon="17.8020062">
        <ele>20.325</ele>
        <time>2012-10-08T18:52:12Z</time>
      </trkpt>
      <trkpt lat="59.9537396" lon="17.8020434">
        <ele>20.325</ele>
        <time>2012-10-08T18:52:13Z</time>
      </trkpt>
      <trkpt lat="59.953736" lon="17.8020839">
        <ele>20.325</ele>
        <time>2012-10-08T18:52:14Z</time>
      </trkpt>
      <trkpt lat="59.9537318" lon="17.8021266">
        <ele>20.8057</ele>
        <time>2012-10-08T18:52:15Z</time>
      </trkpt>
      <trkpt lat="59.9537266" lon="17.802166">
        <ele>20.325</ele>
        <time>2012-10-08T18:52:16Z</time>
      </trkpt>
      <trkpt lat="59.9537245" lon="17.8022027">
        <ele>20.325</ele>
        <time>2012-10-08T18:52:17Z</time>
      </trkpt>
      <trkpt lat="59.9537245" lon="17.8022387">
        <ele>20.325</ele>
        <time>2012-10-08T18:52:18Z</time>
      </trkpt>
      <trkpt lat="59.9537142" lon="17.8022817">
        <ele>21.2864</ele>
        <time>2012-10-08T18:52:19Z</time>
      </trkpt>
      <trkpt lat="59.9536991" lon="17.8023272">
        <ele>21.2864</ele>
        <time>2012-10-08T18:52:20Z</time>
      </trkpt>
      <trkpt lat="59.9536835" lon="17.8023762">
        <ele>21.767</ele>
        <time>2012-10-08T18:52:21Z</time>
      </trkpt>
      <trkpt lat="59.9536682" lon="17.8024204">
        <ele>21.767</ele>
        <time>2012-10-08T18:52:22Z</time>
      </trkpt>
      <trkpt lat="59.9536568" lon="17.8024593">
        <ele>22.2476</ele>
        <time>2012-10-08T18:52:23Z</time>
      </trkpt>
      <trkpt lat="59.9536459" lon="17.8025018">
        <ele>21.767</ele>
        <time>2012-10-08T18:52:24Z</time>
      </trkpt>
      <trkpt lat="59.9536374" lon="17.8025462">
        <ele>22.2476</ele>
        <time>2012-10-08T18:52:25Z</time>
      </trkpt>
      <trkpt lat="59.9536212" lon="17.8025952">
        <ele>22.2476</ele>
        <time>2012-10-08T18:52:26Z</time>
      </trkpt>
      <trkpt lat="59.9536089" lon="17.8026472">
        <ele>22.7283</ele>
        <time>2012-10-08T18:52:27Z</time>
      </trkpt>
      <trkpt lat="59.9535974" lon="17.8026998">
        <ele>22.7283</ele>
        <time>2012-10-08T18:52:28Z</time>
      </trkpt>
      <trkpt lat="59.9535805" lon="17.8027546">
        <ele>23.209</ele>
        <time>2012-10-08T18:52:29Z</time>
      </trkpt>
      <trkpt lat="59.9535658" lon="17.8028031">
        <ele>23.6896</ele>
        <time>2012-10-08T18:52:30Z</time>
      </trkpt>
      <trkpt lat="59.9535547" lon="17.8028525">
        <ele>24.1703</ele>
        <time>2012-10-08T18:52:31Z</time>
      </trkpt>
      <trkpt lat="59.9535515" lon="17.8028981">
        <ele>24.651</ele>
        <time>2012-10-08T18:52:32Z</time>
      </trkpt>
      <trkpt lat="59.9535442" lon="17.8029426">
        <ele>25.1317</ele>
        <time>2012-10-08T18:52:33Z</time>
      </trkpt>
      <trkpt lat="59.9535325" lon="17.8029859">
        <ele>25.6123</ele>
        <time>2012-10-08T18:52:34Z</time>
      </trkpt>
      <trkpt lat="59.9535231" lon="17.8030281">
        <ele>26.5736</ele>
        <time>2012-10-08T18:52:35Z</time>
      </trkpt>
      <trkpt lat="59.9535148" lon="17.8030624">
        <ele>26.5736</ele>
        <time>2012-10-08T18:52:36Z</time>
      </trkpt>
      <trkpt lat="59.953504" lon="17.803095">
        <ele>26.5736</ele>
        <time>2012-10-08T18:52:37Z</time>
      </trkpt>
      <trkpt lat="59.9534982" lon="17.80313">
        <ele>26.5736</ele>
        <time>2012-10-08T18:52:38Z</time>
      </trkpt>
      <trkpt lat="59.9534898" lon="17.8031662">
        <ele>27.0543</ele>
        <time>2012-10-08T18:52:39Z</time>
      </trkpt>
      <trkpt lat="59.953484" lon="17.803198">
        <ele>27.5349</ele>
        <time>2012-10-08T18:52:40Z</time>
      </trkpt>
      <trkpt lat="59.9534746" lon="17.8032323">
        <ele>26.5736</ele>
        <time>2012-10-08T18:52:41Z</time>
      </trkpt>
      <trkpt lat="59.9534702" lon="17.803261">
        <ele>26.5736</ele>
        <time>2012-10-08T18:52:42Z</time>
      </trkpt>
      <trkpt lat="59.9534618" lon="17.8032895">
        <ele>26.0929</ele>
        <time>2012-10-08T18:52:43Z</time>
      </trkpt>
      <trkpt lat="59.9534508" lon="17.8033222">
        <ele>26.0929</ele>
        <time>2012-10-08T18:52:44Z</time>
      </trkpt>
      <trkpt lat="59.9534344" lon="17.8033558">
        <ele>26.0929</ele>
        <time>2012-10-08T18:52:45Z</time>
      </trkpt>
      <trkpt lat="59.9534168" lon="17.8033929">
        <ele>26.0929</ele>
        <time>2012-10-08T18:52:46Z</time>
      </trkpt>
      <trkpt lat="59.9534009" lon="17.8034393">
        <ele>27.0543</ele>
        <time>2012-10-08T18:52:47Z</time>
      </trkpt>
      <trkpt lat="59.9533867" lon="17.8034783">
        <ele>27.0543</ele>
        <time>2012-10-08T18:52:48Z</time>
      </trkpt>
      <trkpt lat="59.9533676" lon="17.8035073">
        <ele>27.0543</ele>
        <time>2012-10-08T18:52:49Z</time>
      </trkpt>
      <trkpt lat="59.9533416" lon="17.8035213">
        <ele>28.0155</ele>
        <time>2012-10-08T18:52:50Z</time>
      </trkpt>
      <trkpt lat="59.9533438" lon="17.8034948">
        <ele>28.9769</ele>
        <time>2012-10-08T18:52:51Z</time>
      </trkpt>
      <trkpt lat="59.9533488" lon="17.8034714">
        <ele>29.4575</ele>
        <time>2012-10-08T18:52:52Z</time>
      </trkpt>
      <trkpt lat="59.9533589" lon="17.8034425">
        <ele>29.9381</ele>
        <time>2012-10-08T18:52:53Z</time>
      </trkpt>
      <trkpt lat="59.9533674" lon="17.8033994">
        <ele>28.9769</ele>
        <time>2012-10-08T18:52:54Z</time>
      </trkpt>
      <trkpt lat="59.9533765" lon="17.8033656">
        <ele>29.4575</ele>
        <time>2012-10-08T18:52:55Z</time>
      </trkpt>
      <trkpt lat="59.9533871" lon="17.8033218">
        <ele>30.4188</ele>
        <time>2012-10-08T18:52:56Z</time>
      </trkpt>
      <trkpt lat="59.9534016" lon="17.80328">
        <ele>31.3801</ele>
        <time>2012-10-08T18:52:57Z</time>
      </trkpt>
      <trkpt lat="59.9534149" lon="17.8032379">
        <ele>31.8607</ele>
        <time>2012-10-08T18:52:58Z</time>
      </trkpt>
      <trkpt lat="59.9534313" lon="17.8032001">
        <ele>32.3416</ele>
        <time>2012-10-08T18:52:59Z</time>
      </trkpt>
      <trkpt lat="59.9534468" lon="17.80317">
        <ele>32.3416</ele>
        <time>2012-10-08T18:53:00Z</time>
      </trkpt>
      <trkpt lat="59.9534583" lon="17.8031436">
        <ele>32.3416</ele>
        <time>2012-10-08T18:53:01Z</time>
      </trkpt>
      <trkpt lat="59.9534713" lon="17.8031088">
        <ele>32.8223</ele>
        <time>2012-10-08T18:53:02Z</time>
      </trkpt>
      <trkpt lat="59.9534837" lon="17.8030645">
        <ele>32.8223</ele>
        <time>2012-10-08T18:53:03Z</time>
      </trkpt>
      <trkpt lat="59.9534923" lon="17.8030238">
        <ele>32.8223</ele>
        <time>2012-10-08T18:53:04Z</time>
      </trkpt>
      <trkpt lat="59.9535033" lon="17.8029944">
        <ele>32.3416</ele>
        <time>2012-10-08T18:53:05Z</time>
      </trkpt>
      <trkpt lat="59.9535189" lon="17.8029602">
        <ele>32.8223</ele>
        <time>2012-10-08T18:53:06Z</time>
      </trkpt>
      <trkpt lat="59.9535312" lon="17.8029213">
        <ele>32.8223</ele>
        <time>2012-10-08T18:53:07Z</time>
      </trkpt>
      <trkpt lat="59.9535436" lon="17.8028841">
        <ele>33.3029</ele>
        <time>2012-10-08T18:53:08Z</time>
      </trkpt>
      <trkpt lat="59.953553" lon="17.8028395">
        <ele>33.3029</ele>
        <time>2012-10-08T18:53:09Z</time>
      </trkpt>
      <trkpt lat="59.9535604" lon="17.802794">
        <ele>33.3029</ele>
        <time>2012-10-08T18:53:10Z</time>
      </trkpt>
      <trkpt lat="59.953566" lon="17.802752">
        <ele>33.3029</ele>
        <time>2012-10-08T18:53:11Z</time>
      </trkpt>
      <trkpt lat="59.9535687" lon="17.8027062">
        <ele>33.3029</ele>
        <time>2012-10-08T18:53:12Z</time>
      </trkpt>
      <trkpt lat="59.9535712" lon="17.8026593">
        <ele>33.7834</ele>
        <time>2012-10-08T18:53:13Z</time>
      </trkpt>
      <trkpt lat="59.9535764" lon="17.802608">
        <ele>33.7834</ele>
        <time>2012-10-08T18:53:14Z</time>
      </trkpt>
      <trkpt lat="59.9535857" lon="17.8025557">
        <ele>33.3029</ele>
        <time>2012-10-08T18:53:15Z</time>
      </trkpt>
      <trkpt lat="59.953599" lon="17.8025021">
        <ele>33.7834</ele>
        <time>2012-10-08T18:53:16Z</time>
      </trkpt>
      <trkpt lat="59.9536095" lon="17.8024521">
        <ele>33.3029</ele>
        <time>2012-10-08T18:53:17Z</time>
      </trkpt>
      <trkpt lat="59.9536172" lon="17.8024082">
        <ele>32.8223</ele>
        <time>2012-10-08T18:53:18Z</time>
      </trkpt>
      <trkpt lat="59.953626" lon="17.8023677">
        <ele>32.8223</ele>
        <time>2012-10-08T18:53:19Z</time>
      </trkpt>
      <trkpt lat="59.9536338" lon="17.802324">
        <ele>32.3416</ele>
        <time>2012-10-08T18:53:20Z</time>
      </trkpt>
      <trkpt lat="59.9536441" lon="17.8022775">
        <ele>31.8607</ele>
        <time>2012-10-08T18:53:21Z</time>
      </trkpt>
      <trkpt lat="59.9536575" lon="17.8022282">
        <ele>31.3801</ele>
        <time>2012-10-08T18:53:22Z</time>
      </trkpt>
      <trkpt lat="59.953677" lon="17.8021796">
        <ele>31.3801</ele>
        <time>2012-10-08T18:53:23Z</time>
      </trkpt>
      <trkpt lat="59.953695" lon="17.8021362">
        <ele>31.3801</ele>
        <time>2012-10-08T18:53:24Z</time>
      </trkpt>
      <trkpt lat="59.9537052" lon="17.8020978">
        <ele>30.8995</ele>
        <time>2012-10-08T18:53:25Z</time>
      </trkpt>
      <trkpt lat="59.953712" lon="17.8020594">
        <ele>30.4188</ele>
        <time>2012-10-08T18:53:26Z</time>
      </trkpt>
      <trkpt lat="59.9537231" lon="17.802019">
        <ele>29.9381</ele>
        <time>2012-10-08T18:53:27Z</time>
      </trkpt>
      <trkpt lat="59.9537322" lon="17.8019828">
        <ele>29.4575</ele>
        <time>2012-10-08T18:53:28Z</time>
      </trkpt>
      <trkpt lat="59.9537421" lon="17.8019422">
        <ele>28.9769</ele>
        <time>2012-10-08T18:53:29Z</time>
      </trkpt>
      <trkpt lat="59.9537538" lon="17.8018995">
        <ele>28.4962</ele>
        <time>2012-10-08T18:53:30Z</time>
      </trkpt>
      <trkpt lat="59.9537649" lon="17.8018518">
        <ele>28.0155</ele>
        <time>2012-10-08T18:53:31Z</time>
      </trkpt>
      <trkpt lat="59.9537778" lon="17.8018052">
        <ele>28.0155</ele>
        <time>2012-10-08T18:53:32Z</time>
      </trkpt>
      <trkpt lat="59.9537951" lon="17.8017647">
        <ele>27.5349</ele>
        <time>2012-10-08T18:53:33Z</time>
      </trkpt>
      <trkpt lat="59.953811" lon="17.801732">
        <ele>27.5349</ele>
        <time>2012-10-08T18:53:34Z</time>
      </trkpt>
      <trkpt lat="59.9538248" lon="17.8017025">
        <ele>27.5349</ele>
        <time>2012-10-08T18:53:35Z</time>
      </trkpt>
      <trkpt lat="59.9538385" lon="17.8016719">
        <ele>27.0543</ele>
        <time>2012-10-08T18:53:36Z</time>
      </trkpt>
      <trkpt lat="59.9538521" lon="17.8016384">
        <ele>27.0543</ele>
        <time>2012-10-08T18:53:37Z</time>
      </trkpt>
      <trkpt lat="59.9538678" lon="17.8016098">
        <ele>26.5736</ele>
        <time>2012-10-08T18:53:38Z</time>
      </trkpt>
      <trkpt lat="59.9538828" lon="17.8015876">
        <ele>25.6123</ele>
        <time>2012-10-08T18:53:39Z</time>
      </trkpt>
      <trkpt lat="59.9538996" lon="17.8015559">
        <ele>25.6123</ele>
        <time>2012-10-08T18:53:40Z</time>
      </trkpt>
      <trkpt lat="59.953916" lon="17.8015231">
        <ele>25.6123</ele>
        <time>2012-10-08T18:53:41Z</time>
      </trkpt>
      <trkpt lat="59.9539318" lon="17.8014956">
        <ele>24.651</ele>
        <time>2012-10-08T18:53:42Z</time>
      </trkpt>
      <trkpt lat="59.9539483" lon="17.8014739">
        <ele>24.651</ele>
        <time>2012-10-08T18:53:43Z</time>
      </trkpt>
      <trkpt lat="59.9539644" lon="17.801442">
        <ele>24.651</ele>
        <time>2012-10-08T18:53:44Z</time>
      </trkpt>
      <trkpt lat="59.9539809" lon="17.8014073">
        <ele>24.651</ele>
        <time>2012-10-08T18:53:45Z</time>
      </trkpt>
      <trkpt lat="59.9540021" lon="17.8013734">
        <ele>25.1317</ele>
        <time>2012-10-08T18:53:46Z</time>
      </trkpt>
      <trkpt lat="59.954023" lon="17.8013508">
        <ele>25.1317</ele>
        <time>2012-10-08T18:53:47Z</time>
      </trkpt>
      <trkpt lat="59.9540401" lon="17.8013171">
        <ele>25.1317</ele>
        <time>2012-10-08T18:53:48Z</time>
      </trkpt>
      <trkpt lat="59.9540533" lon="17.8012766">
        <ele>25.6123</ele>
        <time>2012-10-08T18:53:49Z</time>
      </trkpt>
      <trkpt lat="59.9540638" lon="17.8012343">
        <ele>26.0929</ele>
        <time>2012-10-08T18:53:50Z</time>
      </trkpt>
      <trkpt lat="59.9540771" lon="17.8011901">
        <ele>26.0929</ele>
        <time>2012-10-08T18:53:51Z</time>
      </trkpt>
      <trkpt lat="59.9540974" lon="17.8011488">
        <ele>26.0929</ele>
        <time>2012-10-08T18:53:52Z</time>
      </trkpt>
      <trkpt lat="59.9541172" lon="17.8011212">
        <ele>26.0929</ele>
        <time>2012-10-08T18:53:53Z</time>
      </trkpt>
      <trkpt lat="59.9541323" lon="17.8010913">
        <ele>26.0929</ele>
        <time>2012-10-08T18:53:54Z</time>
      </trkpt>
      <trkpt lat="59.9541493" lon="17.8010524">
        <ele>26.0929</ele>
        <time>2012-10-08T18:53:55Z</time>
      </trkpt>
      <trkpt lat="59.9541648" lon="17.8010071">
        <ele>26.5736</ele>
        <time>2012-10-08T18:53:56Z</time>
      </trkpt>
      <trkpt lat="59.9541747" lon="17.8009705">
        <ele>26.0929</ele>
        <time>2012-10-08T18:53:57Z</time>
      </trkpt>
      <trkpt lat="59.9541886" lon="17.8009362">
        <ele>26.5736</ele>
        <time>2012-10-08T18:53:58Z</time>
      </trkpt>
      <trkpt lat="59.9542051" lon="17.8009106">
        <ele>27.0543</ele>
        <time>2012-10-08T18:53:59Z</time>
      </trkpt>
      <trkpt lat="59.9542224" lon="17.8008816">
        <ele>27.0543</ele>
        <time>2012-10-08T18:54:00Z</time>
      </trkpt>
      <trkpt lat="59.9542404" lon="17.8008472">
        <ele>26.5736</ele>
        <time>2012-10-08T18:54:01Z</time>
      </trkpt>
      <trkpt lat="59.9542591" lon="17.8008141">
        <ele>26.5736</ele>
        <time>2012-10-08T18:54:02Z</time>
      </trkpt>
      <trkpt lat="59.9542709" lon="17.8007754">
        <ele>26.5736</ele>
        <time>2012-10-08T18:54:03Z</time>
      </trkpt>
      <trkpt lat="59.9542841" lon="17.8007344">
        <ele>26.0929</ele>
        <time>2012-10-08T18:54:04Z</time>
      </trkpt>
      <trkpt lat="59.954298" lon="17.8006915">
        <ele>26.0929</ele>
        <time>2012-10-08T18:54:05Z</time>
      </trkpt>
      <trkpt lat="59.9543083" lon="17.8006489">
        <ele>26.5736</ele>
        <time>2012-10-08T18:54:06Z</time>
      </trkpt>
      <trkpt lat="59.9543242" lon="17.8006047">
        <ele>27.5349</ele>
        <time>2012-10-08T18:54:07Z</time>
      </trkpt>
      <trkpt lat="59.9543393" lon="17.8005583">
        <ele>28.4962</ele>
        <time>2012-10-08T18:54:08Z</time>
      </trkpt>
      <trkpt lat="59.9543509" lon="17.8005182">
        <ele>28.4962</ele>
        <time>2012-10-08T18:54:09Z</time>
      </trkpt>
      <trkpt lat="59.9543683" lon="17.8004711">
        <ele>29.4575</ele>
        <time>2012-10-08T18:54:10Z</time>
      </trkpt>
      <trkpt lat="59.9543846" lon="17.800437">
        <ele>29.4575</ele>
        <time>2012-10-08T18:54:11Z</time>
      </trkpt>
      <trkpt lat="59.9544019" lon="17.8004003">
        <ele>28.9769</ele>
        <time>2012-10-08T18:54:12Z</time>
      </trkpt>
      <trkpt lat="59.9544231" lon="17.8003634">
        <ele>28.9769</ele>
        <time>2012-10-08T18:54:13Z</time>
      </trkpt>
      <trkpt lat="59.9544399" lon="17.8003273">
        <ele>28.9769</ele>
        <time>2012-10-08T18:54:14Z</time>
      </trkpt>
      <trkpt lat="59.954449" lon="17.8002915">
        <ele>29.4575</ele>
        <time>2012-10-08T18:54:15Z</time>
      </trkpt>
      <trkpt lat="59.9544637" lon="17.8002353">
        <ele>30.4188</ele>
        <time>2012-10-08T18:54:16Z</time>
      </trkpt>
      <trkpt lat="59.9544793" lon="17.8001795">
        <ele>30.4188</ele>
        <time>2012-10-08T18:54:17Z</time>
      </trkpt>
      <trkpt lat="59.954492" lon="17.8001313">
        <ele>30.8995</ele>
        <time>2012-10-08T18:54:18Z</time>
      </trkpt>
      <trkpt lat="59.9545076" lon="17.8000699">
        <ele>31.8607</ele>
        <time>2012-10-08T18:54:19Z</time>
      </trkpt>
      <trkpt lat="59.9545242" lon="17.8000004">
        <ele>32.3416</ele>
        <time>2012-10-08T18:54:20Z</time>
      </trkpt>
      <trkpt lat="59.9545421" lon="17.7999466">
        <ele>32.3416</ele>
        <time>2012-10-08T18:54:21Z</time>
      </trkpt>
      <trkpt lat="59.954562" lon="17.7998948">
        <ele>32.8223</ele>
        <time>2012-10-08T18:54:22Z</time>
      </trkpt>
      <trkpt lat="59.9545803" lon="17.7998397">
        <ele>33.7834</ele>
        <time>2012-10-08T18:54:23Z</time>
      </trkpt>
      <trkpt lat="59.9545979" lon="17.7997841">
        <ele>33.7834</ele>
        <time>2012-10-08T18:54:24Z</time>
      </trkpt>
      <trkpt lat="59.954616" lon="17.7997267">
        <ele>34.2642</ele>
        <time>2012-10-08T18:54:25Z</time>
      </trkpt>
      <trkpt lat="59.954634" lon="17.7996719">
        <ele>35.2255</ele>
        <time>2012-10-08T18:54:26Z</time>
      </trkpt>
      <trkpt lat="59.9546542" lon="17.7996372">
        <ele>35.2255</ele>
        <time>2012-10-08T18:54:27Z</time>
      </trkpt>
      <trkpt lat="59.9546754" lon="17.7996161">
        <ele>36.1868</ele>
        <time>2012-10-08T18:54:28Z</time>
      </trkpt>
      <trkpt lat="59.9546982" lon="17.7996015">
        <ele>36.6675</ele>
        <time>2012-10-08T18:54:29Z</time>
      </trkpt>
      <trkpt lat="59.9547247" lon="17.7995666">
        <ele>37.6287</ele>
        <time>2012-10-08T18:54:30Z</time>
      </trkpt>
      <trkpt lat="59.9547417" lon="17.7995273">
        <ele>37.6287</ele>
        <time>2012-10-08T18:54:31Z</time>
      </trkpt>
      <trkpt lat="59.954759" lon="17.7994827">
        <ele>37.6287</ele>
        <time>2012-10-08T18:54:32Z</time>
      </trkpt>
      <trkpt lat="59.954776" lon="17.799444">
        <ele>36.6675</ele>
        <time>2012-10-08T18:54:33Z</time>
      </trkpt>
      <trkpt lat="59.9547958" lon="17.7993936">
        <ele>36.6675</ele>
        <time>2012-10-08T18:54:34Z</time>
      </trkpt>
      <trkpt lat="59.9548144" lon="17.7993507">
        <ele>36.1868</ele>
        <time>2012-10-08T18:54:35Z</time>
      </trkpt>
      <trkpt lat="59.9548346" lon="17.7993233">
        <ele>35.7061</ele>
        <time>2012-10-08T18:54:36Z</time>
      </trkpt>
      <trkpt lat="59.9548508" lon="17.7993084">
        <ele>34.7449</ele>
        <time>2012-10-08T18:54:37Z</time>
      </trkpt>
      <trkpt lat="59.9548652" lon="17.7992879">
        <ele>33.7834</ele>
        <time>2012-10-08T18:54:38Z</time>
      </trkpt>
      <trkpt lat="59.9548807" lon="17.7992662">
        <ele>32.8223</ele>
        <time>2012-10-08T18:54:39Z</time>
      </trkpt>
      <trkpt lat="59.9549004" lon="17.7992363">
        <ele>32.3416</ele>
        <time>2012-10-08T18:54:40Z</time>
      </trkpt>
      <trkpt lat="59.95492" lon="17.7992069">
        <ele>32.3416</ele>
        <time>2012-10-08T18:54:41Z</time>
      </trkpt>
      <trkpt lat="59.9549382" lon="17.7991856">
        <ele>31.8607</ele>
        <time>2012-10-08T18:54:42Z</time>
      </trkpt>
      <trkpt lat="59.9549574" lon="17.7991694">
        <ele>30.8995</ele>
        <time>2012-10-08T18:54:43Z</time>
      </trkpt>
      <trkpt lat="59.9549751" lon="17.7991575">
        <ele>30.4188</ele>
        <time>2012-10-08T18:54:44Z</time>
      </trkpt>
      <trkpt lat="59.954995" lon="17.7991416">
        <ele>29.4575</ele>
        <time>2012-10-08T18:54:45Z</time>
      </trkpt>
      <trkpt lat="59.9550186" lon="17.7991273">
        <ele>28.9769</ele>
        <time>2012-10-08T18:54:46Z</time>
      </trkpt>
      <trkpt lat="59.9550361" lon="17.7991139">
        <ele>28.0155</ele>
        <time>2012-10-08T18:54:47Z</time>
      </trkpt>
      <trkpt lat="59.9550511" lon="17.7990861">
        <ele>28.0155</ele>
        <time>2012-10-08T18:54:48Z</time>
      </trkpt>
      <trkpt lat="59.9550636" lon="17.799057">
        <ele>27.5349</ele>
        <time>2012-10-08T18:54:49Z</time>
      </trkpt>
      <trkpt lat="59.9550738" lon="17.7990115">
        <ele>27.0543</ele>
        <time>2012-10-08T18:54:50Z</time>
      </trkpt>
      <trkpt lat="59.9550886" lon="17.7989756">
        <ele>27.0543</ele>
        <time>2012-10-08T18:54:51Z</time>
      </trkpt>
      <trkpt lat="59.9551081" lon="17.798958">
        <ele>27.0543</ele>
        <time>2012-10-08T18:54:52Z</time>
      </trkpt>
      <trkpt lat="59.9551314" lon="17.7989649">
        <ele>27.0543</ele>
        <time>2012-10-08T18:54:53Z</time>
      </trkpt>
      <trkpt lat="59.9551533" lon="17.7989809">
        <ele>27.0543</ele>
        <time>2012-10-08T18:54:54Z</time>
      </trkpt>
      <trkpt lat="59.955167" lon="17.7989527">
        <ele>27.5349</ele>
        <time>2012-10-08T18:54:55Z</time>
      </trkpt>
      <trkpt lat="59.9551807" lon="17.7989042">
        <ele>27.5349</ele>
        <time>2012-10-08T18:54:56Z</time>
      </trkpt>
      <trkpt lat="59.9551931" lon="17.7988491">
        <ele>28.0155</ele>
        <time>2012-10-08T18:54:57Z</time>
      </trkpt>
      <trkpt lat="59.9552023" lon="17.7987909">
        <ele>28.4962</ele>
        <time>2012-10-08T18:54:58Z</time>
      </trkpt>
      <trkpt lat="59.9552123" lon="17.79873">
        <ele>28.9769</ele>
        <time>2012-10-08T18:54:59Z</time>
      </trkpt>
      <trkpt lat="59.9552283" lon="17.7986824">
        <ele>29.4575</ele>
        <time>2012-10-08T18:55:00Z</time>
      </trkpt>
      <trkpt lat="59.9552439" lon="17.7986437">
        <ele>29.4575</ele>
        <time>2012-10-08T18:55:01Z</time>
      </trkpt>
      <trkpt lat="59.9552562" lon="17.7986078">
        <ele>29.9381</ele>
        <time>2012-10-08T18:55:02Z</time>
      </trkpt>
      <trkpt lat="59.9552708" lon="17.7985705">
        <ele>29.9381</ele>
        <time>2012-10-08T18:55:03Z</time>
      </trkpt>
      <trkpt lat="59.9552869" lon="17.7985286">
        <ele>30.4188</ele>
        <time>2012-10-08T18:55:04Z</time>
      </trkpt>
      <trkpt lat="59.9552988" lon="17.7984852">
        <ele>30.8995</ele>
        <time>2012-10-08T18:55:05Z</time>
      </trkpt>
      <trkpt lat="59.9553086" lon="17.7984364">
        <ele>30.8995</ele>
        <time>2012-10-08T18:55:06Z</time>
      </trkpt>
      <trkpt lat="59.9553206" lon="17.7983913">
        <ele>30.8995</ele>
        <time>2012-10-08T18:55:07Z</time>
      </trkpt>
      <trkpt lat="59.9553317" lon="17.7983364">
        <ele>31.3801</ele>
        <time>2012-10-08T18:55:08Z</time>
      </trkpt>
      <trkpt lat="59.9553397" lon="17.7982803">
        <ele>31.8607</ele>
        <time>2012-10-08T18:55:09Z</time>
      </trkpt>
      <trkpt lat="59.9553507" lon="17.7982254">
        <ele>32.3416</ele>
        <time>2012-10-08T18:55:10Z</time>
      </trkpt>
      <trkpt lat="59.9553651" lon="17.7981682">
        <ele>32.3416</ele>
        <time>2012-10-08T18:55:11Z</time>
      </trkpt>
      <trkpt lat="59.9553797" lon="17.7981236">
        <ele>32.3416</ele>
        <time>2012-10-08T18:55:12Z</time>
      </trkpt>
      <trkpt lat="59.9553951" lon="17.7980802">
        <ele>32.3416</ele>
        <time>2012-10-08T18:55:13Z</time>
      </trkpt>
      <trkpt lat="59.9554096" lon="17.7980416">
        <ele>32.3416</ele>
        <time>2012-10-08T18:55:14Z</time>
      </trkpt>
      <trkpt lat="59.9554249" lon="17.7980027">
        <ele>32.3416</ele>
        <time>2012-10-08T18:55:15Z</time>
      </trkpt>
      <trkpt lat="59.9554381" lon="17.7979662">
        <ele>32.3416</ele>
        <time>2012-10-08T18:55:16Z</time>
      </trkpt>
      <trkpt lat="59.9554488" lon="17.7979252">
        <ele>31.8607</ele>
        <time>2012-10-08T18:55:17Z</time>
      </trkpt>
      <trkpt lat="59.9554593" lon="17.7978837">
        <ele>31.3801</ele>
        <time>2012-10-08T18:55:18Z</time>
      </trkpt>
      <trkpt lat="59.9554701" lon="17.7978497">
        <ele>30.4188</ele>
        <time>2012-10-08T18:55:19Z</time>
      </trkpt>
      <trkpt lat="59.9554801" lon="17.7978066">
        <ele>30.4188</ele>
        <time>2012-10-08T18:55:20Z</time>
      </trkpt>
      <trkpt lat="59.9554939" lon="17.7977628">
        <ele>30.4188</ele>
        <time>2012-10-08T18:55:21Z</time>
      </trkpt>
      <trkpt lat="59.9555064" lon="17.7977145">
        <ele>30.8995</ele>
        <time>2012-10-08T18:55:22Z</time>
      </trkpt>
      <trkpt lat="59.9555179" lon="17.7976683">
        <ele>30.8995</ele>
        <time>2012-10-08T18:55:23Z</time>
      </trkpt>
      <trkpt lat="59.9555322" lon="17.7976188">
        <ele>31.3801</ele>
        <time>2012-10-08T18:55:24Z</time>
      </trkpt>
      <trkpt lat="59.9555449" lon="17.7975733">
        <ele>31.3801</ele>
        <time>2012-10-08T18:55:25Z</time>
      </trkpt>
      <trkpt lat="59.9555566" lon="17.7975254">
        <ele>31.8607</ele>
        <time>2012-10-08T18:55:26Z</time>
      </trkpt>
      <trkpt lat="59.9555692" lon="17.7974707">
        <ele>32.3416</ele>
        <time>2012-10-08T18:55:27Z</time>
      </trkpt>
      <trkpt lat="59.9555836" lon="17.797421">
        <ele>32.8223</ele>
        <time>2012-10-08T18:55:28Z</time>
      </trkpt>
      <trkpt lat="59.9555969" lon="17.7973725">
        <ele>33.3029</ele>
        <time>2012-10-08T18:55:29Z</time>
      </trkpt>
      <trkpt lat="59.955611" lon="17.7973253">
        <ele>33.3029</ele>
        <time>2012-10-08T18:55:30Z</time>
      </trkpt>
      <trkpt lat="59.9556255" lon="17.7972739">
        <ele>34.2642</ele>
        <time>2012-10-08T18:55:31Z</time>
      </trkpt>
      <trkpt lat="59.9556369" lon="17.7972268">
        <ele>34.2642</ele>
        <time>2012-10-08T18:55:32Z</time>
      </trkpt>
      <trkpt lat="59.9556472" lon="17.7971773">
        <ele>34.2642</ele>
        <time>2012-10-08T18:55:33Z</time>
      </trkpt>
      <trkpt lat="59.955658" lon="17.7971203">
        <ele>34.7449</ele>
        <time>2012-10-08T18:55:34Z</time>
      </trkpt>
      <trkpt lat="59.9556669" lon="17.7970684">
        <ele>34.7449</ele>
        <time>2012-10-08T18:55:35Z</time>
      </trkpt>
      <trkpt lat="59.9556785" lon="17.7970201">
        <ele>34.7449</ele>
        <time>2012-10-08T18:55:36Z</time>
      </trkpt>
      <trkpt lat="59.955691" lon="17.7969677">
        <ele>35.2255</ele>
        <time>2012-10-08T18:55:37Z</time>
      </trkpt>
      <trkpt lat="59.9557033" lon="17.7969107">
        <ele>35.7061</ele>
        <time>2012-10-08T18:55:38Z</time>
      </trkpt>
      <trkpt lat="59.9557161" lon="17.7968566">
        <ele>36.1868</ele>
        <time>2012-10-08T18:55:39Z</time>
      </trkpt>
      <trkpt lat="59.9557297" lon="17.7968098">
        <ele>36.6675</ele>
        <time>2012-10-08T18:55:40Z</time>
      </trkpt>
      <trkpt lat="59.9557422" lon="17.7967705">
        <ele>36.6675</ele>
        <time>2012-10-08T18:55:41Z</time>
      </trkpt>
      <trkpt lat="59.9557544" lon="17.7967244">
        <ele>36.6675</ele>
        <time>2012-10-08T18:55:42Z</time>
      </trkpt>
      <trkpt lat="59.9557638" lon="17.7966732">
        <ele>36.6675</ele>
        <time>2012-10-08T18:55:43Z</time>
      </trkpt>
      <trkpt lat="59.9557717" lon="17.7966158">
        <ele>37.1481</ele>
        <time>2012-10-08T18:55:44Z</time>
      </trkpt>
      <trkpt lat="59.9557811" lon="17.796554">
        <ele>37.6287</ele>
        <time>2012-10-08T18:55:45Z</time>
      </trkpt>
      <trkpt lat="59.9557912" lon="17.7965027">
        <ele>38.1094</ele>
        <time>2012-10-08T18:55:46Z</time>
      </trkpt>
      <trkpt lat="59.9558016" lon="17.7964484">
        <ele>39.0707</ele>
        <time>2012-10-08T18:55:47Z</time>
      </trkpt>
      <trkpt lat="59.9558137" lon="17.7963955">
        <ele>39.0707</ele>
        <time>2012-10-08T18:55:48Z</time>
      </trkpt>
      <trkpt lat="59.9558248" lon="17.7963493">
        <ele>39.5513</ele>
        <time>2012-10-08T18:55:49Z</time>
      </trkpt>
      <trkpt lat="59.9558345" lon="17.7963073">
        <ele>39.0707</ele>
        <time>2012-10-08T18:55:50Z</time>
      </trkpt>
      <trkpt lat="59.9558464" lon="17.7962609">
        <ele>39.0707</ele>
        <time>2012-10-08T18:55:51Z</time>
      </trkpt>
      <trkpt lat="59.9558551" lon="17.7962204">
        <ele>38.5901</ele>
        <time>2012-10-08T18:55:52Z</time>
      </trkpt>
      <trkpt lat="59.9558634" lon="17.7961743">
        <ele>38.5901</ele>
        <time>2012-10-08T18:55:53Z</time>
      </trkpt>
      <trkpt lat="59.9558704" lon="17.7961291">
        <ele>38.5901</ele>
        <time>2012-10-08T18:55:54Z</time>
      </trkpt>
      <trkpt lat="59.9558763" lon="17.7960819">
        <ele>38.5901</ele>
        <time>2012-10-08T18:55:55Z</time>
      </trkpt>
      <trkpt lat="59.9558851" lon="17.7960344">
        <ele>38.5901</ele>
        <time>2012-10-08T18:55:56Z</time>
      </trkpt>
      <trkpt lat="59.9558929" lon="17.7959895">
        <ele>38.5901</ele>
        <time>2012-10-08T18:55:57Z</time>
      </trkpt>
      <trkpt lat="59.9558966" lon="17.7959395">
        <ele>38.5901</ele>
        <time>2012-10-08T18:55:58Z</time>
      </trkpt>
      <trkpt lat="59.9559033" lon="17.7958862">
        <ele>39.0707</ele>
        <time>2012-10-08T18:55:59Z</time>
      </trkpt>
      <trkpt lat="59.9559129" lon="17.7958429">
        <ele>39.0707</ele>
        <time>2012-10-08T18:56:00Z</time>
      </trkpt>
      <trkpt lat="59.9559208" lon="17.7958018">
        <ele>39.0707</ele>
        <time>2012-10-08T18:56:01Z</time>
      </trkpt>
      <trkpt lat="59.9559292" lon="17.7957599">
        <ele>39.5513</ele>
        <time>2012-10-08T18:56:02Z</time>
      </trkpt>
      <trkpt lat="59.9559369" lon="17.7957175">
        <ele>40.0321</ele>
        <time>2012-10-08T18:56:03Z</time>
      </trkpt>
      <trkpt lat="59.955943" lon="17.7956838">
        <ele>39.5513</ele>
        <time>2012-10-08T18:56:04Z</time>
      </trkpt>
      <trkpt lat="59.9559505" lon="17.7956468">
        <ele>39.5513</ele>
        <time>2012-10-08T18:56:05Z</time>
      </trkpt>
      <trkpt lat="59.9559545" lon="17.7956087">
        <ele>39.5513</ele>
        <time>2012-10-08T18:56:06Z</time>
      </trkpt>
      <trkpt lat="59.9559592" lon="17.7955711">
        <ele>39.5513</ele>
        <time>2012-10-08T18:56:07Z</time>
      </trkpt>
      <trkpt lat="59.9559658" lon="17.7955352">
        <ele>39.5513</ele>
        <time>2012-10-08T18:56:08Z</time>
      </trkpt>
      <trkpt lat="59.9559716" lon="17.795495">
        <ele>39.5513</ele>
        <time>2012-10-08T18:56:09Z</time>
      </trkpt>
      <trkpt lat="59.955979" lon="17.7954486">
        <ele>39.5513</ele>
        <time>2012-10-08T18:56:10Z</time>
      </trkpt>
      <trkpt lat="59.9559867" lon="17.7954039">
        <ele>40.0321</ele>
        <time>2012-10-08T18:56:11Z</time>
      </trkpt>
      <trkpt lat="59.9559932" lon="17.7953575">
        <ele>40.0321</ele>
        <time>2012-10-08T18:56:12Z</time>
      </trkpt>
      <trkpt lat="59.9559989" lon="17.7953101">
        <ele>40.5128</ele>
        <time>2012-10-08T18:56:13Z</time>
      </trkpt>
      <trkpt lat="59.9560048" lon="17.7952642">
        <ele>40.5128</ele>
        <time>2012-10-08T18:56:14Z</time>
      </trkpt>
      <trkpt lat="59.95601" lon="17.7952194">
        <ele>40.9934</ele>
        <time>2012-10-08T18:56:15Z</time>
      </trkpt>
      <trkpt lat="59.9560146" lon="17.7951725">
        <ele>40.9934</ele>
        <time>2012-10-08T18:56:16Z</time>
      </trkpt>
      <trkpt lat="59.9560227" lon="17.7951191">
        <ele>40.9934</ele>
        <time>2012-10-08T18:56:17Z</time>
      </trkpt>
      <trkpt lat="59.956031" lon="17.7950708">
        <ele>41.474</ele>
        <time>2012-10-08T18:56:18Z</time>
      </trkpt>
      <trkpt lat="59.9560395" lon="17.7950241">
        <ele>41.474</ele>
        <time>2012-10-08T18:56:19Z</time>
      </trkpt>
      <trkpt lat="59.9560519" lon="17.7949714">
        <ele>41.474</ele>
        <time>2012-10-08T18:56:20Z</time>
      </trkpt>
      <trkpt lat="59.9560632" lon="17.7949212">
        <ele>41.9547</ele>
        <time>2012-10-08T18:56:21Z</time>
      </trkpt>
      <trkpt lat="59.9560727" lon="17.7948766">
        <ele>41.9547</ele>
        <time>2012-10-08T18:56:22Z</time>
      </trkpt>
      <trkpt lat="59.9560835" lon="17.7948266">
        <ele>42.4354</ele>
        <time>2012-10-08T18:56:23Z</time>
      </trkpt>
      <trkpt lat="59.9560922" lon="17.7947802">
        <ele>42.4354</ele>
        <time>2012-10-08T18:56:24Z</time>
      </trkpt>
      <trkpt lat="59.956102" lon="17.7947338">
        <ele>42.916</ele>
        <time>2012-10-08T18:56:25Z</time>
      </trkpt>
      <trkpt lat="59.9561137" lon="17.7946881">
        <ele>43.3966</ele>
        <time>2012-10-08T18:56:26Z</time>
      </trkpt>
      <trkpt lat="59.9561217" lon="17.7946409">
        <ele>43.8773</ele>
        <time>2012-10-08T18:56:27Z</time>
      </trkpt>
      <trkpt lat="59.9561285" lon="17.7945996">
        <ele>43.3966</ele>
        <time>2012-10-08T18:56:28Z</time>
      </trkpt>
      <trkpt lat="59.9561393" lon="17.7945548">
        <ele>43.3966</ele>
        <time>2012-10-08T18:56:29Z</time>
      </trkpt>
      <trkpt lat="59.9561488" lon="17.7945098">
        <ele>43.3966</ele>
        <time>2012-10-08T18:56:30Z</time>
      </trkpt>
      <trkpt lat="59.9561607" lon="17.7944715">
        <ele>42.4354</ele>
        <time>2012-10-08T18:56:31Z</time>
      </trkpt>
      <trkpt lat="59.9561784" lon="17.7944333">
        <ele>41.9547</ele>
        <time>2012-10-08T18:56:32Z</time>
      </trkpt>
      <trkpt lat="59.9561954" lon="17.7944028">
        <ele>41.474</ele>
        <time>2012-10-08T18:56:33Z</time>
      </trkpt>
      <trkpt lat="59.956209" lon="17.7943689">
        <ele>41.474</ele>
        <time>2012-10-08T18:56:34Z</time>
      </trkpt>
      <trkpt lat="59.9562229" lon="17.7943324">
        <ele>40.5128</ele>
        <time>2012-10-08T18:56:35Z</time>
      </trkpt>
      <trkpt lat="59.9562388" lon="17.7942943">
        <ele>40.5128</ele>
        <time>2012-10-08T18:56:36Z</time>
      </trkpt>
      <trkpt lat="59.9562535" lon="17.7942602">
        <ele>40.0321</ele>
        <time>2012-10-08T18:56:37Z</time>
      </trkpt>
      <trkpt lat="59.9562628" lon="17.7942188">
        <ele>40.5128</ele>
        <time>2012-10-08T18:56:38Z</time>
      </trkpt>
      <trkpt lat="59.9562696" lon="17.7941821">
        <ele>40.0321</ele>
        <time>2012-10-08T18:56:39Z</time>
      </trkpt>
      <trkpt lat="59.9562762" lon="17.7941406">
        <ele>40.0321</ele>
        <time>2012-10-08T18:56:40Z</time>
      </trkpt>
      <trkpt lat="59.9562846" lon="17.794087">
        <ele>40.5128</ele>
        <time>2012-10-08T18:56:41Z</time>
      </trkpt>
      <trkpt lat="59.9562953" lon="17.794051">
        <ele>40.9934</ele>
        <time>2012-10-08T18:56:42Z</time>
      </trkpt>
      <trkpt lat="59.956303" lon="17.7940224">
        <ele>40.0321</ele>
        <time>2012-10-08T18:56:43Z</time>
      </trkpt>
      <trkpt lat="59.9563102" lon="17.7939895">
        <ele>39.5513</ele>
        <time>2012-10-08T18:56:44Z</time>
      </trkpt>
      <trkpt lat="59.9563196" lon="17.7939565">
        <ele>39.0707</ele>
        <time>2012-10-08T18:56:45Z</time>
      </trkpt>
      <trkpt lat="59.9563279" lon="17.793921">
        <ele>38.5901</ele>
        <time>2012-10-08T18:56:46Z</time>
      </trkpt>
      <trkpt lat="59.9563352" lon="17.7938776">
        <ele>38.5901</ele>
        <time>2012-10-08T18:56:47Z</time>
      </trkpt>
      <trkpt lat="59.9563451" lon="17.7938324">
        <ele>38.5901</ele>
        <time>2012-10-08T18:56:48Z</time>
      </trkpt>
      <trkpt lat="59.9563554" lon="17.7937946">
        <ele>38.1094</ele>
        <time>2012-10-08T18:56:49Z</time>
      </trkpt>
      <trkpt lat="59.9563653" lon="17.7937572">
        <ele>37.6287</ele>
        <time>2012-10-08T18:56:50Z</time>
      </trkpt>
      <trkpt lat="59.9563761" lon="17.7937169">
        <ele>37.1481</ele>
        <time>2012-10-08T18:56:51Z</time>
      </trkpt>
      <trkpt lat="59.9563871" lon="17.7936789">
        <ele>37.1481</ele>
        <time>2012-10-08T18:56:52Z</time>
      </trkpt>
      <trkpt lat="59.9563973" lon="17.7936397">
        <ele>37.1481</ele>
        <time>2012-10-08T18:56:53Z</time>
      </trkpt>
      <trkpt lat="59.9564089" lon="17.7935955">
        <ele>37.1481</ele>
        <time>2012-10-08T18:56:54Z</time>
      </trkpt>
      <trkpt lat="59.9564203" lon="17.7935599">
        <ele>36.6675</ele>
        <time>2012-10-08T18:56:55Z</time>
      </trkpt>
      <trkpt lat="59.9564322" lon="17.7935219">
        <ele>36.6675</ele>
        <time>2012-10-08T18:56:56Z</time>
      </trkpt>
      <trkpt lat="59.9564462" lon="17.7934875">
        <ele>36.1868</ele>
        <time>2012-10-08T18:56:57Z</time>
      </trkpt>
      <trkpt lat="59.9564555" lon="17.7934536">
        <ele>36.1868</ele>
        <time>2012-10-08T18:56:58Z</time>
      </trkpt>
      <trkpt lat="59.9564631" lon="17.7934173">
        <ele>36.1868</ele>
        <time>2012-10-08T18:56:59Z</time>
      </trkpt>
      <trkpt lat="59.9564737" lon="17.7933815">
        <ele>36.1868</ele>
        <time>2012-10-08T18:57:00Z</time>
      </trkpt>
      <trkpt lat="59.9564834" lon="17.7933442">
        <ele>35.7061</ele>
        <time>2012-10-08T18:57:01Z</time>
      </trkpt>
      <trkpt lat="59.9564928" lon="17.7933029">
        <ele>35.7061</ele>
        <time>2012-10-08T18:57:02Z</time>
      </trkpt>
      <trkpt lat="59.9565042" lon="17.7932651">
        <ele>35.2255</ele>
        <time>2012-10-08T18:57:03Z</time>
      </trkpt>
      <trkpt lat="59.9565143" lon="17.7932306">
        <ele>35.2255</ele>
        <time>2012-10-08T18:57:04Z</time>
      </trkpt>
      <trkpt lat="59.9565238" lon="17.7931961">
        <ele>35.2255</ele>
        <time>2012-10-08T18:57:05Z</time>
      </trkpt>
      <trkpt lat="59.9565359" lon="17.7931622">
        <ele>35.2255</ele>
        <time>2012-10-08T18:57:06Z</time>
      </trkpt>
      <trkpt lat="59.9565471" lon="17.7931315">
        <ele>34.7449</ele>
        <time>2012-10-08T18:57:07Z</time>
      </trkpt>
      <trkpt lat="59.9565542" lon="17.7930916">
        <ele>35.2255</ele>
        <time>2012-10-08T18:57:08Z</time>
      </trkpt>
      <trkpt lat="59.9565622" lon="17.7930512">
        <ele>35.2255</ele>
        <time>2012-10-08T18:57:09Z</time>
      </trkpt>
      <trkpt lat="59.9565724" lon="17.7930179">
        <ele>35.2255</ele>
        <time>2012-10-08T18:57:10Z</time>
      </trkpt>
      <trkpt lat="59.9565806" lon="17.7929808">
        <ele>34.7449</ele>
        <time>2012-10-08T18:57:11Z</time>
      </trkpt>
      <trkpt lat="59.9565871" lon="17.7929326">
        <ele>34.7449</ele>
        <time>2012-10-08T18:57:12Z</time>
      </trkpt>
      <trkpt lat="59.9565939" lon="17.7928756">
        <ele>35.2255</ele>
        <time>2012-10-08T18:57:13Z</time>
      </trkpt>
      <trkpt lat="59.9565996" lon="17.7928233">
        <ele>35.2255</ele>
        <time>2012-10-08T18:57:14Z</time>
      </trkpt>
      <trkpt lat="59.956607" lon="17.7927797">
        <ele>35.2255</ele>
        <time>2012-10-08T18:57:15Z</time>
      </trkpt>
      <trkpt lat="59.956617" lon="17.7927414">
        <ele>35.2255</ele>
        <time>2012-10-08T18:57:16Z</time>
      </trkpt>
      <trkpt lat="59.9566234" lon="17.7927021">
        <ele>35.2255</ele>
        <time>2012-10-08T18:57:17Z</time>
      </trkpt>
      <trkpt lat="59.9566293" lon="17.7926623">
        <ele>35.2255</ele>
        <time>2012-10-08T18:57:18Z</time>
      </trkpt>
      <trkpt lat="59.9566383" lon="17.7926222">
        <ele>34.7449</ele>
        <time>2012-10-08T18:57:19Z</time>
      </trkpt>
      <trkpt lat="59.9566444" lon="17.7925819">
        <ele>34.7449</ele>
        <time>2012-10-08T18:57:20Z</time>
      </trkpt>
      <trkpt lat="59.956648" lon="17.7925379">
        <ele>34.7449</ele>
        <time>2012-10-08T18:57:21Z</time>
      </trkpt>
      <trkpt lat="59.9566537" lon="17.79249">
        <ele>34.7449</ele>
        <time>2012-10-08T18:57:22Z</time>
      </trkpt>
      <trkpt lat="59.9566575" lon="17.7924389">
        <ele>34.7449</ele>
        <time>2012-10-08T18:57:23Z</time>
      </trkpt>
      <trkpt lat="59.9566581" lon="17.7923949">
        <ele>34.7449</ele>
        <time>2012-10-08T18:57:24Z</time>
      </trkpt>
      <trkpt lat="59.9566591" lon="17.7923514">
        <ele>34.7449</ele>
        <time>2012-10-08T18:57:25Z</time>
      </trkpt>
      <trkpt lat="59.9566648" lon="17.7923023">
        <ele>34.7449</ele>
        <time>2012-10-08T18:57:26Z</time>
      </trkpt>
      <trkpt lat="59.9566678" lon="17.7922619">
        <ele>34.7449</ele>
        <time>2012-10-08T18:57:27Z</time>
      </trkpt>
      <trkpt lat="59.9566677" lon="17.7922367">
        <ele>35.2255</ele>
        <time>2012-10-08T18:57:28Z</time>
      </trkpt>
      <trkpt lat="59.9566668" lon="17.7922245">
        <ele>35.2255</ele>
        <time>2012-10-08T18:57:29Z</time>
      </trkpt>
      <trkpt lat="59.9566694" lon="17.792207">
        <ele>35.2255</ele>
        <time>2012-10-08T18:57:30Z</time>
      </trkpt>
      <trkpt lat="59.9566726" lon="17.7921748">
        <ele>35.2255</ele>
        <time>2012-10-08T18:57:31Z</time>
      </trkpt>
      <trkpt lat="59.9566746" lon="17.7921411">
        <ele>35.2255</ele>
        <time>2012-10-08T18:57:32Z</time>
      </trkpt>
      <trkpt lat="59.9566773" lon="17.7921013">
        <ele>35.2255</ele>
        <time>2012-10-08T18:57:33Z</time>
      </trkpt>
      <trkpt lat="59.9566817" lon="17.7920533">
        <ele>34.7449</ele>
        <time>2012-10-08T18:57:34Z</time>
      </trkpt>
      <trkpt lat="59.9566873" lon="17.7920081">
        <ele>34.7449</ele>
        <time>2012-10-08T18:57:35Z</time>
      </trkpt>
      <trkpt lat="59.9566917" lon="17.7919666">
        <ele>34.7449</ele>
        <time>2012-10-08T18:57:36Z</time>
      </trkpt>
      <trkpt lat="59.9566957" lon="17.7919207">
        <ele>34.2642</ele>
        <time>2012-10-08T18:57:37Z</time>
      </trkpt>
      <trkpt lat="59.9567013" lon="17.79188">
        <ele>33.7834</ele>
        <time>2012-10-08T18:57:38Z</time>
      </trkpt>
      <trkpt lat="59.956707" lon="17.7918386">
        <ele>33.7834</ele>
        <time>2012-10-08T18:57:39Z</time>
      </trkpt>
      <trkpt lat="59.9567154" lon="17.7917975">
        <ele>33.3029</ele>
        <time>2012-10-08T18:57:40Z</time>
      </trkpt>
      <trkpt lat="59.9567212" lon="17.7917598">
        <ele>33.3029</ele>
        <time>2012-10-08T18:57:41Z</time>
      </trkpt>
      <trkpt lat="59.956722" lon="17.7917128">
        <ele>33.3029</ele>
        <time>2012-10-08T18:57:42Z</time>
      </trkpt>
      <trkpt lat="59.9567243" lon="17.7916651">
        <ele>33.3029</ele>
        <time>2012-10-08T18:57:43Z</time>
      </trkpt>
      <trkpt lat="59.9567294" lon="17.7916231">
        <ele>33.3029</ele>
        <time>2012-10-08T18:57:44Z</time>
      </trkpt>
      <trkpt lat="59.9567346" lon="17.7915935">
        <ele>32.8223</ele>
        <time>2012-10-08T18:57:45Z</time>
      </trkpt>
      <trkpt lat="59.9567389" lon="17.7915563">
        <ele>32.8223</ele>
        <time>2012-10-08T18:57:46Z</time>
      </trkpt>
      <trkpt lat="59.9567456" lon="17.7915076">
        <ele>33.3029</ele>
        <time>2012-10-08T18:57:47Z</time>
      </trkpt>
      <trkpt lat="59.9567517" lon="17.7914639">
        <ele>33.3029</ele>
        <time>2012-10-08T18:57:48Z</time>
      </trkpt>
      <trkpt lat="59.9567564" lon="17.7914256">
        <ele>33.7834</ele>
        <time>2012-10-08T18:57:49Z</time>
      </trkpt>
      <trkpt lat="59.9567599" lon="17.7913817">
        <ele>33.3029</ele>
        <time>2012-10-08T18:57:50Z</time>
      </trkpt>
      <trkpt lat="59.9567637" lon="17.7913374">
        <ele>33.3029</ele>
        <time>2012-10-08T18:57:51Z</time>
      </trkpt>
      <trkpt lat="59.9567652" lon="17.7912948">
        <ele>33.7834</ele>
        <time>2012-10-08T18:57:52Z</time>
      </trkpt>
      <trkpt lat="59.9567666" lon="17.7912507">
        <ele>34.2642</ele>
        <time>2012-10-08T18:57:53Z</time>
      </trkpt>
      <trkpt lat="59.9567708" lon="17.791207">
        <ele>34.2642</ele>
        <time>2012-10-08T18:57:54Z</time>
      </trkpt>
      <trkpt lat="59.9567725" lon="17.7911632">
        <ele>34.7449</ele>
        <time>2012-10-08T18:57:55Z</time>
      </trkpt>
      <trkpt lat="59.9567685" lon="17.7911133">
        <ele>34.7449</ele>
        <time>2012-10-08T18:57:56Z</time>
      </trkpt>
      <trkpt lat="59.9567627" lon="17.7910703">
        <ele>35.2255</ele>
        <time>2012-10-08T18:57:57Z</time>
      </trkpt>
      <trkpt lat="59.956762" lon="17.7910484">
        <ele>34.7449</ele>
        <time>2012-10-08T18:57:58Z</time>
      </trkpt>
      <trkpt lat="59.9567615" lon="17.7910174">
        <ele>34.7449</ele>
        <time>2012-10-08T18:57:59Z</time>
      </trkpt>
      <trkpt lat="59.9567563" lon="17.790971">
        <ele>34.7449</ele>
        <time>2012-10-08T18:58:00Z</time>
      </trkpt>
      <trkpt lat="59.9567503" lon="17.7909232">
        <ele>34.2642</ele>
        <time>2012-10-08T18:58:01Z</time>
      </trkpt>
      <trkpt lat="59.9567419" lon="17.7908721">
        <ele>34.2642</ele>
        <time>2012-10-08T18:58:02Z</time>
      </trkpt>
      <trkpt lat="59.9567345" lon="17.7908253">
        <ele>33.7834</ele>
        <time>2012-10-08T18:58:03Z</time>
      </trkpt>
      <trkpt lat="59.9567293" lon="17.7907847">
        <ele>33.3029</ele>
        <time>2012-10-08T18:58:04Z</time>
      </trkpt>
      <trkpt lat="59.9567226" lon="17.7907454">
        <ele>33.3029</ele>
        <time>2012-10-08T18:58:05Z</time>
      </trkpt>
      <trkpt lat="59.956714" lon="17.7907048">
        <ele>33.3029</ele>
        <time>2012-10-08T18:58:06Z</time>
      </trkpt>
      <trkpt lat="59.9567046" lon="17.7906685">
        <ele>33.3029</ele>
        <time>2012-10-08T18:58:07Z</time>
      </trkpt>
      <trkpt lat="59.9566928" lon="17.7906214">
        <ele>33.3029</ele>
        <time>2012-10-08T18:58:08Z</time>
      </trkpt>
      <trkpt lat="59.9566807" lon="17.7905763">
        <ele>33.3029</ele>
        <time>2012-10-08T18:58:09Z</time>
      </trkpt>
      <trkpt lat="59.9566705" lon="17.7905368">
        <ele>32.8223</ele>
        <time>2012-10-08T18:58:10Z</time>
      </trkpt>
      <trkpt lat="59.9566628" lon="17.7904917">
        <ele>32.8223</ele>
        <time>2012-10-08T18:58:11Z</time>
      </trkpt>
      <trkpt lat="59.9566561" lon="17.7904456">
        <ele>32.3416</ele>
        <time>2012-10-08T18:58:12Z</time>
      </trkpt>
      <trkpt lat="59.9566461" lon="17.7904064">
        <ele>31.8607</ele>
        <time>2012-10-08T18:58:13Z</time>
      </trkpt>
      <trkpt lat="59.9566358" lon="17.7903679">
        <ele>31.8607</ele>
        <time>2012-10-08T18:58:14Z</time>
      </trkpt>
      <trkpt lat="59.956627" lon="17.790325">
        <ele>31.8607</ele>
        <time>2012-10-08T18:58:15Z</time>
      </trkpt>
      <trkpt lat="59.9566143" lon="17.7902817">
        <ele>31.3801</ele>
        <time>2012-10-08T18:58:16Z</time>
      </trkpt>
      <trkpt lat="59.9566019" lon="17.7902364">
        <ele>31.3801</ele>
        <time>2012-10-08T18:58:17Z</time>
      </trkpt>
      <trkpt lat="59.9565921" lon="17.7901882">
        <ele>31.3801</ele>
        <time>2012-10-08T18:58:18Z</time>
      </trkpt>
      <trkpt lat="59.9565823" lon="17.790141">
        <ele>31.3801</ele>
        <time>2012-10-08T18:58:19Z</time>
      </trkpt>
      <trkpt lat="59.9565746" lon="17.790097">
        <ele>30.8995</ele>
        <time>2012-10-08T18:58:20Z</time>
      </trkpt>
      <trkpt lat="59.9565731" lon="17.7900514">
        <ele>30.8995</ele>
        <time>2012-10-08T18:58:21Z</time>
      </trkpt>
      <trkpt lat="59.9565755" lon="17.7900041">
        <ele>30.4188</ele>
        <time>2012-10-08T18:58:22Z</time>
      </trkpt>
      <trkpt lat="59.956575" lon="17.7899472">
        <ele>29.9381</ele>
        <time>2012-10-08T18:58:23Z</time>
      </trkpt>
      <trkpt lat="59.9565746" lon="17.7898767">
        <ele>29.9381</ele>
        <time>2012-10-08T18:58:24Z</time>
      </trkpt>
      <trkpt lat="59.9565839" lon="17.7898283">
        <ele>29.4575</ele>
        <time>2012-10-08T18:58:25Z</time>
      </trkpt>
      <trkpt lat="59.9566016" lon="17.7897899">
        <ele>29.4575</ele>
        <time>2012-10-08T18:58:26Z</time>
      </trkpt>
      <trkpt lat="59.9566167" lon="17.78975">
        <ele>28.9769</ele>
        <time>2012-10-08T18:58:27Z</time>
      </trkpt>
      <trkpt lat="59.956625" lon="17.7897158">
        <ele>28.4962</ele>
        <time>2012-10-08T18:58:28Z</time>
      </trkpt>
      <trkpt lat="59.9566357" lon="17.789685">
        <ele>28.9769</ele>
        <time>2012-10-08T18:58:29Z</time>
      </trkpt>
      <trkpt lat="59.9566464" lon="17.7896572">
        <ele>28.4962</ele>
        <time>2012-10-08T18:58:30Z</time>
      </trkpt>
      <trkpt lat="59.9566542" lon="17.789636">
        <ele>28.0155</ele>
        <time>2012-10-08T18:58:31Z</time>
      </trkpt>
      <trkpt lat="59.956664" lon="17.7896074">
        <ele>28.0155</ele>
        <time>2012-10-08T18:58:32Z</time>
      </trkpt>
      <trkpt lat="59.9566801" lon="17.7895676">
        <ele>27.5349</ele>
        <time>2012-10-08T18:58:33Z</time>
      </trkpt>
      <trkpt lat="59.9566984" lon="17.7895324">
        <ele>27.5349</ele>
        <time>2012-10-08T18:58:34Z</time>
      </trkpt>
      <trkpt lat="59.9567159" lon="17.7895007">
        <ele>27.5349</ele>
        <time>2012-10-08T18:58:35Z</time>
      </trkpt>
      <trkpt lat="59.9567317" lon="17.7894714">
        <ele>27.5349</ele>
        <time>2012-10-08T18:58:36Z</time>
      </trkpt>
      <trkpt lat="59.956748" lon="17.7894474">
        <ele>27.0543</ele>
        <time>2012-10-08T18:58:37Z</time>
      </trkpt>
      <trkpt lat="59.9567657" lon="17.789421">
        <ele>27.0543</ele>
        <time>2012-10-08T18:58:38Z</time>
      </trkpt>
      <trkpt lat="59.9567839" lon="17.7893956">
        <ele>27.0543</ele>
        <time>2012-10-08T18:58:39Z</time>
      </trkpt>
      <trkpt lat="59.9567979" lon="17.7893765">
        <ele>27.0543</ele>
        <time>2012-10-08T18:58:40Z</time>
      </trkpt>
      <trkpt lat="59.9568128" lon="17.7893615">
        <ele>27.0543</ele>
        <time>2012-10-08T18:58:41Z</time>
      </trkpt>
      <trkpt lat="59.9568299" lon="17.7893427">
        <ele>26.5736</ele>
        <time>2012-10-08T18:58:42Z</time>
      </trkpt>
      <trkpt lat="59.9568414" lon="17.7893136">
        <ele>26.5736</ele>
        <time>2012-10-08T18:58:43Z</time>
      </trkpt>
      <trkpt lat="59.9568564" lon="17.7892847">
        <ele>26.5736</ele>
        <time>2012-10-08T18:58:44Z</time>
      </trkpt>
      <trkpt lat="59.9568741" lon="17.7892638">
        <ele>26.5736</ele>
        <time>2012-10-08T18:58:45Z</time>
      </trkpt>
      <trkpt lat="59.9568922" lon="17.7892405">
        <ele>26.0929</ele>
        <time>2012-10-08T18:58:46Z</time>
      </trkpt>
      <trkpt lat="59.9569135" lon="17.7892185">
        <ele>26.0929</ele>
        <time>2012-10-08T18:58:47Z</time>
      </trkpt>
      <trkpt lat="59.9569341" lon="17.7891973">
        <ele>25.6123</ele>
        <time>2012-10-08T18:58:48Z</time>
      </trkpt>
      <trkpt lat="59.9569559" lon="17.7891724">
        <ele>25.6123</ele>
        <time>2012-10-08T18:58:49Z</time>
      </trkpt>
      <trkpt lat="59.9569791" lon="17.7891449">
        <ele>25.1317</ele>
        <time>2012-10-08T18:58:50Z</time>
      </trkpt>
      <trkpt lat="59.9570009" lon="17.7891095">
        <ele>25.6123</ele>
        <time>2012-10-08T18:58:51Z</time>
      </trkpt>
      <trkpt lat="59.9570205" lon="17.7890817">
        <ele>25.6123</ele>
        <time>2012-10-08T18:58:52Z</time>
      </trkpt>
      <trkpt lat="59.9570399" lon="17.7890594">
        <ele>25.1317</ele>
        <time>2012-10-08T18:58:53Z</time>
      </trkpt>
      <trkpt lat="59.9570594" lon="17.7890337">
        <ele>25.1317</ele>
        <time>2012-10-08T18:58:54Z</time>
      </trkpt>
      <trkpt lat="59.9570796" lon="17.7889978">
        <ele>25.6123</ele>
        <time>2012-10-08T18:58:55Z</time>
      </trkpt>
      <trkpt lat="59.9570986" lon="17.7889754">
        <ele>25.6123</ele>
        <time>2012-10-08T18:58:56Z</time>
      </trkpt>
      <trkpt lat="59.957119" lon="17.7889528">
        <ele>25.6123</ele>
        <time>2012-10-08T18:58:57Z</time>
      </trkpt>
      <trkpt lat="59.9571396" lon="17.7889267">
        <ele>25.6123</ele>
        <time>2012-10-08T18:58:58Z</time>
      </trkpt>
      <trkpt lat="59.9571589" lon="17.7889046">
        <ele>25.6123</ele>
        <time>2012-10-08T18:58:59Z</time>
      </trkpt>
      <trkpt lat="59.9571779" lon="17.7888792">
        <ele>25.6123</ele>
        <time>2012-10-08T18:59:00Z</time>
      </trkpt>
      <trkpt lat="59.9571965" lon="17.7888516">
        <ele>25.1317</ele>
        <time>2012-10-08T18:59:01Z</time>
      </trkpt>
      <trkpt lat="59.9572129" lon="17.7888278">
        <ele>24.651</ele>
        <time>2012-10-08T18:59:02Z</time>
      </trkpt>
      <trkpt lat="59.9572282" lon="17.7887973">
        <ele>24.651</ele>
        <time>2012-10-08T18:59:03Z</time>
      </trkpt>
      <trkpt lat="59.9572458" lon="17.7887661">
        <ele>24.651</ele>
        <time>2012-10-08T18:59:04Z</time>
      </trkpt>
      <trkpt lat="59.9572605" lon="17.7887319">
        <ele>24.1703</ele>
        <time>2012-10-08T18:59:05Z</time>
      </trkpt>
      <trkpt lat="59.9572733" lon="17.7887026">
        <ele>24.1703</ele>
        <time>2012-10-08T18:59:06Z</time>
      </trkpt>
      <trkpt lat="59.9572887" lon="17.7886744">
        <ele>23.6896</ele>
        <time>2012-10-08T18:59:07Z</time>
      </trkpt>
      <trkpt lat="59.9573027" lon="17.7886372">
        <ele>23.6896</ele>
        <time>2012-10-08T18:59:08Z</time>
      </trkpt>
      <trkpt lat="59.9573138" lon="17.7885982">
        <ele>23.6896</ele>
        <time>2012-10-08T18:59:09Z</time>
      </trkpt>
      <trkpt lat="59.9573273" lon="17.7885563">
        <ele>23.6896</ele>
        <time>2012-10-08T18:59:10Z</time>
      </trkpt>
      <trkpt lat="59.9573401" lon="17.7885104">
        <ele>23.6896</ele>
        <time>2012-10-08T18:59:11Z</time>
      </trkpt>
      <trkpt lat="59.9573519" lon="17.788461">
        <ele>24.1703</ele>
        <time>2012-10-08T18:59:12Z</time>
      </trkpt>
      <trkpt lat="59.9573651" lon="17.788419">
        <ele>24.1703</ele>
        <time>2012-10-08T18:59:13Z</time>
      </trkpt>
      <trkpt lat="59.9573743" lon="17.788372">
        <ele>24.1703</ele>
        <time>2012-10-08T18:59:14Z</time>
      </trkpt>
      <trkpt lat="59.9573826" lon="17.7883139">
        <ele>25.1317</ele>
        <time>2012-10-08T18:59:15Z</time>
      </trkpt>
      <trkpt lat="59.9573883" lon="17.7882413">
        <ele>26.5736</ele>
        <time>2012-10-08T18:59:16Z</time>
      </trkpt>
      <trkpt lat="59.9573921" lon="17.7881712">
        <ele>27.5349</ele>
        <time>2012-10-08T18:59:17Z</time>
      </trkpt>
      <trkpt lat="59.9573971" lon="17.7880807">
        <ele>29.4575</ele>
        <time>2012-10-08T18:59:18Z</time>
      </trkpt>
      <trkpt lat="59.9573999" lon="17.7879965">
        <ele>29.9381</ele>
        <time>2012-10-08T18:59:19Z</time>
      </trkpt>
      <trkpt lat="59.9574102" lon="17.7879385">
        <ele>30.4188</ele>
        <time>2012-10-08T18:59:20Z</time>
      </trkpt>
      <trkpt lat="59.9574263" lon="17.7878947">
        <ele>31.3801</ele>
        <time>2012-10-08T18:59:21Z</time>
      </trkpt>
      <trkpt lat="59.9574401" lon="17.7878478">
        <ele>32.3416</ele>
        <time>2012-10-08T18:59:22Z</time>
      </trkpt>
      <trkpt lat="59.9574486" lon="17.7877917">
        <ele>32.8223</ele>
        <time>2012-10-08T18:59:23Z</time>
      </trkpt>
      <trkpt lat="59.9574604" lon="17.78774">
        <ele>33.7834</ele>
        <time>2012-10-08T18:59:24Z</time>
      </trkpt>
      <trkpt lat="59.9574744" lon="17.7877023">
        <ele>33.3029</ele>
        <time>2012-10-08T18:59:25Z</time>
      </trkpt>
      <trkpt lat="59.9574875" lon="17.7876632">
        <ele>33.3029</ele>
        <time>2012-10-08T18:59:26Z</time>
      </trkpt>
      <trkpt lat="59.9574994" lon="17.7876183">
        <ele>33.7834</ele>
        <time>2012-10-08T18:59:27Z</time>
      </trkpt>
      <trkpt lat="59.9575151" lon="17.7875705">
        <ele>34.7449</ele>
        <time>2012-10-08T18:59:28Z</time>
      </trkpt>
      <trkpt lat="59.9575278" lon="17.787542">
        <ele>35.2255</ele>
        <time>2012-10-08T18:59:29Z</time>
      </trkpt>
      <trkpt lat="59.9575397" lon="17.7875164">
        <ele>35.2255</ele>
        <time>2012-10-08T18:59:30Z</time>
      </trkpt>
      <trkpt lat="59.9575529" lon="17.7874768">
        <ele>35.7061</ele>
        <time>2012-10-08T18:59:31Z</time>
      </trkpt>
      <trkpt lat="59.9575685" lon="17.7874399">
        <ele>36.1868</ele>
        <time>2012-10-08T18:59:32Z</time>
      </trkpt>
      <trkpt lat="59.957581" lon="17.7874099">
        <ele>35.7061</ele>
        <time>2012-10-08T18:59:33Z</time>
      </trkpt>
      <trkpt lat="59.9575934" lon="17.7873744">
        <ele>35.7061</ele>
        <time>2012-10-08T18:59:34Z</time>
      </trkpt>
      <trkpt lat="59.9576033" lon="17.7873438">
        <ele>35.7061</ele>
        <time>2012-10-08T18:59:35Z</time>
      </trkpt>
      <trkpt lat="59.9576152" lon="17.7873133">
        <ele>35.7061</ele>
        <time>2012-10-08T18:59:36Z</time>
      </trkpt>
      <trkpt lat="59.9576258" lon="17.7872722">
        <ele>36.1868</ele>
        <time>2012-10-08T18:59:37Z</time>
      </trkpt>
      <trkpt lat="59.9576333" lon="17.7872284">
        <ele>36.6675</ele>
        <time>2012-10-08T18:59:38Z</time>
      </trkpt>
      <trkpt lat="59.9576369" lon="17.7871811">
        <ele>37.1481</ele>
        <time>2012-10-08T18:59:39Z</time>
      </trkpt>
      <trkpt lat="59.9576391" lon="17.787135">
        <ele>37.1481</ele>
        <time>2012-10-08T18:59:40Z</time>
      </trkpt>
      <trkpt lat="59.9576432" lon="17.7870889">
        <ele>36.6675</ele>
        <time>2012-10-08T18:59:41Z</time>
      </trkpt>
      <trkpt lat="59.9576495" lon="17.7870359">
        <ele>37.1481</ele>
        <time>2012-10-08T18:59:42Z</time>
      </trkpt>
      <trkpt lat="59.9576542" lon="17.7869888">
        <ele>37.1481</ele>
        <time>2012-10-08T18:59:43Z</time>
      </trkpt>
      <trkpt lat="59.9576583" lon="17.7869381">
        <ele>37.1481</ele>
        <time>2012-10-08T18:59:44Z</time>
      </trkpt>
      <trkpt lat="59.9576662" lon="17.7868802">
        <ele>37.1481</ele>
        <time>2012-10-08T18:59:45Z</time>
      </trkpt>
      <trkpt lat="59.9576765" lon="17.7868297">
        <ele>36.6675</ele>
        <time>2012-10-08T18:59:46Z</time>
      </trkpt>
      <trkpt lat="59.9576873" lon="17.786789">
        <ele>36.6675</ele>
        <time>2012-10-08T18:59:47Z</time>
      </trkpt>
      <trkpt lat="59.9577011" lon="17.786751">
        <ele>36.6675</ele>
        <time>2012-10-08T18:59:48Z</time>
      </trkpt>
      <trkpt lat="59.9577167" lon="17.7867107">
        <ele>36.6675</ele>
        <time>2012-10-08T18:59:49Z</time>
      </trkpt>
      <trkpt lat="59.9577322" lon="17.7866673">
        <ele>36.6675</ele>
        <time>2012-10-08T18:59:50Z</time>
      </trkpt>
      <trkpt lat="59.9577474" lon="17.7866272">
        <ele>36.6675</ele>
        <time>2012-10-08T18:59:51Z</time>
      </trkpt>
      <trkpt lat="59.9577649" lon="17.7865832">
        <ele>36.6675</ele>
        <time>2012-10-08T18:59:52Z</time>
      </trkpt>
      <trkpt lat="59.9577801" lon="17.786549">
        <ele>36.1868</ele>
        <time>2012-10-08T18:59:53Z</time>
      </trkpt>
      <trkpt lat="59.957795" lon="17.7865221">
        <ele>35.2255</ele>
        <time>2012-10-08T18:59:54Z</time>
      </trkpt>
      <trkpt lat="59.9578141" lon="17.7864993">
        <ele>34.7449</ele>
        <time>2012-10-08T18:59:55Z</time>
      </trkpt>
      <trkpt lat="59.9578356" lon="17.786476">
        <ele>34.2642</ele>
        <time>2012-10-08T18:59:56Z</time>
      </trkpt>
      <trkpt lat="59.957856" lon="17.7864528">
        <ele>33.7834</ele>
        <time>2012-10-08T18:59:57Z</time>
      </trkpt>
      <trkpt lat="59.9578759" lon="17.7864295">
        <ele>33.3029</ele>
        <time>2012-10-08T18:59:58Z</time>
      </trkpt>
      <trkpt lat="59.9578982" lon="17.7864108">
        <ele>33.3029</ele>
        <time>2012-10-08T18:59:59Z</time>
      </trkpt>
      <trkpt lat="59.9579178" lon="17.786392">
        <ele>32.8223</ele>
        <time>2012-10-08T19:00:00Z</time>
      </trkpt>
      <trkpt lat="59.957936" lon="17.7863732">
        <ele>32.3416</ele>
        <time>2012-10-08T19:00:01Z</time>
      </trkpt>
      <trkpt lat="59.9579586" lon="17.7863558">
        <ele>32.3416</ele>
        <time>2012-10-08T19:00:02Z</time>
      </trkpt>
      <trkpt lat="59.9579819" lon="17.7863351">
        <ele>32.3416</ele>
        <time>2012-10-08T19:00:03Z</time>
      </trkpt>
      <trkpt lat="59.958002" lon="17.7863129">
        <ele>31.8607</ele>
        <time>2012-10-08T19:00:04Z</time>
      </trkpt>
      <trkpt lat="59.958024" lon="17.7862885">
        <ele>31.8607</ele>
        <time>2012-10-08T19:00:05Z</time>
      </trkpt>
      <trkpt lat="59.9580437" lon="17.7862664">
        <ele>31.3801</ele>
        <time>2012-10-08T19:00:06Z</time>
      </trkpt>
      <trkpt lat="59.9580623" lon="17.7862454">
        <ele>31.3801</ele>
        <time>2012-10-08T19:00:07Z</time>
      </trkpt>
      <trkpt lat="59.9580825" lon="17.7862259">
        <ele>30.8995</ele>
        <time>2012-10-08T19:00:08Z</time>
      </trkpt>
      <trkpt lat="59.9581031" lon="17.786202">
        <ele>30.4188</ele>
        <time>2012-10-08T19:00:09Z</time>
      </trkpt>
      <trkpt lat="59.958123" lon="17.7861714">
        <ele>30.8995</ele>
        <time>2012-10-08T19:00:10Z</time>
      </trkpt>
      <trkpt lat="59.9581445" lon="17.7861482">
        <ele>30.4188</ele>
        <time>2012-10-08T19:00:11Z</time>
      </trkpt>
      <trkpt lat="59.9581678" lon="17.786129">
        <ele>30.4188</ele>
        <time>2012-10-08T19:00:12Z</time>
      </trkpt>
      <trkpt lat="59.9581887" lon="17.7861067">
        <ele>30.4188</ele>
        <time>2012-10-08T19:00:13Z</time>
      </trkpt>
      <trkpt lat="59.958211" lon="17.7860875">
        <ele>30.4188</ele>
        <time>2012-10-08T19:00:14Z</time>
      </trkpt>
      <trkpt lat="59.9582329" lon="17.7860648">
        <ele>29.9381</ele>
        <time>2012-10-08T19:00:15Z</time>
      </trkpt>
      <trkpt lat="59.9582536" lon="17.7860392">
        <ele>30.4188</ele>
        <time>2012-10-08T19:00:16Z</time>
      </trkpt>
      <trkpt lat="59.9582751" lon="17.7860181">
        <ele>30.4188</ele>
        <time>2012-10-08T19:00:17Z</time>
      </trkpt>
      <trkpt lat="59.958297" lon="17.7859996">
        <ele>30.4188</ele>
        <time>2012-10-08T19:00:18Z</time>
      </trkpt>
      <trkpt lat="59.9583165" lon="17.7859783">
        <ele>30.8995</ele>
        <time>2012-10-08T19:00:19Z</time>
      </trkpt>
      <trkpt lat="59.9583341" lon="17.7859479">
        <ele>30.8995</ele>
        <time>2012-10-08T19:00:20Z</time>
      </trkpt>
      <trkpt lat="59.958353" lon="17.7859104">
        <ele>31.3801</ele>
        <time>2012-10-08T19:00:21Z</time>
      </trkpt>
      <trkpt lat="59.9583738" lon="17.7858866">
        <ele>30.8995</ele>
        <time>2012-10-08T19:00:22Z</time>
      </trkpt>
      <trkpt lat="59.9583916" lon="17.7858675">
        <ele>30.8995</ele>
        <time>2012-10-08T19:00:23Z</time>
      </trkpt>
      <trkpt lat="59.9584072" lon="17.785846">
        <ele>30.4188</ele>
        <time>2012-10-08T19:00:24Z</time>
      </trkpt>
      <trkpt lat="59.9584273" lon="17.7858251">
        <ele>30.4188</ele>
        <time>2012-10-08T19:00:25Z</time>
      </trkpt>
      <trkpt lat="59.9584465" lon="17.7858084">
        <ele>30.4188</ele>
        <time>2012-10-08T19:00:26Z</time>
      </trkpt>
      <trkpt lat="59.9584663" lon="17.7857906">
        <ele>30.4188</ele>
        <time>2012-10-08T19:00:27Z</time>
      </trkpt>
      <trkpt lat="59.9584871" lon="17.7857746">
        <ele>29.9381</ele>
        <time>2012-10-08T19:00:28Z</time>
      </trkpt>
      <trkpt lat="59.9585053" lon="17.7857545">
        <ele>29.9381</ele>
        <time>2012-10-08T19:00:29Z</time>
      </trkpt>
      <trkpt lat="59.9585244" lon="17.7857337">
        <ele>29.9381</ele>
        <time>2012-10-08T19:00:30Z</time>
      </trkpt>
      <trkpt lat="59.9585432" lon="17.7857122">
        <ele>29.9381</ele>
        <time>2012-10-08T19:00:31Z</time>
      </trkpt>
      <trkpt lat="59.9585606" lon="17.7856856">
        <ele>29.9381</ele>
        <time>2012-10-08T19:00:32Z</time>
      </trkpt>
      <trkpt lat="59.9585793" lon="17.7856618">
        <ele>29.4575</ele>
        <time>2012-10-08T19:00:33Z</time>
      </trkpt>
      <trkpt lat="59.9585988" lon="17.785638">
        <ele>29.9381</ele>
        <time>2012-10-08T19:00:34Z</time>
      </trkpt>
      <trkpt lat="59.958618" lon="17.7856173">
        <ele>29.4575</ele>
        <time>2012-10-08T19:00:35Z</time>
      </trkpt>
      <trkpt lat="59.95864" lon="17.7855959">
        <ele>29.4575</ele>
        <time>2012-10-08T19:00:36Z</time>
      </trkpt>
      <trkpt lat="59.9586594" lon="17.7855757">
        <ele>29.4575</ele>
        <time>2012-10-08T19:00:37Z</time>
      </trkpt>
      <trkpt lat="59.9586789" lon="17.7855504">
        <ele>29.9381</ele>
        <time>2012-10-08T19:00:38Z</time>
      </trkpt>
      <trkpt lat="59.958702" lon="17.7855349">
        <ele>29.9381</ele>
        <time>2012-10-08T19:00:39Z</time>
      </trkpt>
      <trkpt lat="59.9587238" lon="17.785522">
        <ele>29.9381</ele>
        <time>2012-10-08T19:00:40Z</time>
      </trkpt>
      <trkpt lat="59.9587435" lon="17.7855041">
        <ele>29.9381</ele>
        <time>2012-10-08T19:00:41Z</time>
      </trkpt>
      <trkpt lat="59.9587677" lon="17.7854848">
        <ele>29.9381</ele>
        <time>2012-10-08T19:00:42Z</time>
      </trkpt>
      <trkpt lat="59.9587891" lon="17.785467">
        <ele>30.4188</ele>
        <time>2012-10-08T19:00:43Z</time>
      </trkpt>
      <trkpt lat="59.9588119" lon="17.7854463">
        <ele>30.4188</ele>
        <time>2012-10-08T19:00:44Z</time>
      </trkpt>
      <trkpt lat="59.9588374" lon="17.7854339">
        <ele>30.4188</ele>
        <time>2012-10-08T19:00:45Z</time>
      </trkpt>
      <trkpt lat="59.9588599" lon="17.7854199">
        <ele>30.4188</ele>
        <time>2012-10-08T19:00:46Z</time>
      </trkpt>
      <trkpt lat="59.9588792" lon="17.7854049">
        <ele>30.4188</ele>
        <time>2012-10-08T19:00:47Z</time>
      </trkpt>
      <trkpt lat="59.9589026" lon="17.785395">
        <ele>29.9381</ele>
        <time>2012-10-08T19:00:48Z</time>
      </trkpt>
      <trkpt lat="59.9589269" lon="17.7853817">
        <ele>30.4188</ele>
        <time>2012-10-08T19:00:49Z</time>
      </trkpt>
      <trkpt lat="59.9589485" lon="17.7853676">
        <ele>29.9381</ele>
        <time>2012-10-08T19:00:50Z</time>
      </trkpt>
      <trkpt lat="59.958972" lon="17.7853567">
        <ele>29.4575</ele>
        <time>2012-10-08T19:00:51Z</time>
      </trkpt>
      <trkpt lat="59.9589949" lon="17.7853438">
        <ele>29.9381</ele>
        <time>2012-10-08T19:00:52Z</time>
      </trkpt>
      <trkpt lat="59.959017" lon="17.7853237">
        <ele>29.4575</ele>
        <time>2012-10-08T19:00:53Z</time>
      </trkpt>
      <trkpt lat="59.9590424" lon="17.7853078">
        <ele>29.4575</ele>
        <time>2012-10-08T19:00:54Z</time>
      </trkpt>
      <trkpt lat="59.9590662" lon="17.7852977">
        <ele>29.9381</ele>
        <time>2012-10-08T19:00:55Z</time>
      </trkpt>
      <trkpt lat="59.9590896" lon="17.7852824">
        <ele>29.4575</ele>
        <time>2012-10-08T19:00:56Z</time>
      </trkpt>
      <trkpt lat="59.9591122" lon="17.785262">
        <ele>28.9769</ele>
        <time>2012-10-08T19:00:57Z</time>
      </trkpt>
      <trkpt lat="59.9591315" lon="17.7852437">
        <ele>28.4962</ele>
        <time>2012-10-08T19:00:58Z</time>
      </trkpt>
      <trkpt lat="59.9591528" lon="17.785224">
        <ele>28.9769</ele>
        <time>2012-10-08T19:00:59Z</time>
      </trkpt>
      <trkpt lat="59.9591753" lon="17.785204">
        <ele>28.9769</ele>
        <time>2012-10-08T19:01:00Z</time>
      </trkpt>
      <trkpt lat="59.9591981" lon="17.7851853">
        <ele>28.9769</ele>
        <time>2012-10-08T19:01:01Z</time>
      </trkpt>
      <trkpt lat="59.9592202" lon="17.7851726">
        <ele>28.9769</ele>
        <time>2012-10-08T19:01:02Z</time>
      </trkpt>
      <trkpt lat="59.9592433" lon="17.7851617">
        <ele>28.9769</ele>
        <time>2012-10-08T19:01:03Z</time>
      </trkpt>
      <trkpt lat="59.9592652" lon="17.7851436">
        <ele>29.4575</ele>
        <time>2012-10-08T19:01:04Z</time>
      </trkpt>
      <trkpt lat="59.959289" lon="17.7851226">
        <ele>29.4575</ele>
        <time>2012-10-08T19:01:05Z</time>
      </trkpt>
      <trkpt lat="59.9593107" lon="17.7851024">
        <ele>28.9769</ele>
        <time>2012-10-08T19:01:06Z</time>
      </trkpt>
      <trkpt lat="59.9593324" lon="17.7850796">
        <ele>28.9769</ele>
        <time>2012-10-08T19:01:07Z</time>
      </trkpt>
      <trkpt lat="59.9593562" lon="17.7850643">
        <ele>28.9769</ele>
        <time>2012-10-08T19:01:08Z</time>
      </trkpt>
      <trkpt lat="59.9593744" lon="17.7850437">
        <ele>28.9769</ele>
        <time>2012-10-08T19:01:09Z</time>
      </trkpt>
      <trkpt lat="59.9593925" lon="17.7850156">
        <ele>29.4575</ele>
        <time>2012-10-08T19:01:10Z</time>
      </trkpt>
      <trkpt lat="59.9594122" lon="17.7849843">
        <ele>29.9381</ele>
        <time>2012-10-08T19:01:11Z</time>
      </trkpt>
      <trkpt lat="59.9594309" lon="17.7849454">
        <ele>30.4188</ele>
        <time>2012-10-08T19:01:12Z</time>
      </trkpt>
      <trkpt lat="59.9594515" lon="17.7849158">
        <ele>30.4188</ele>
        <time>2012-10-08T19:01:13Z</time>
      </trkpt>
      <trkpt lat="59.9594698" lon="17.7848919">
        <ele>29.9381</ele>
        <time>2012-10-08T19:01:14Z</time>
      </trkpt>
      <trkpt lat="59.9594878" lon="17.7848605">
        <ele>29.4575</ele>
        <time>2012-10-08T19:01:15Z</time>
      </trkpt>
      <trkpt lat="59.9595076" lon="17.7848302">
        <ele>29.4575</ele>
        <time>2012-10-08T19:01:16Z</time>
      </trkpt>
      <trkpt lat="59.9595267" lon="17.7847947">
        <ele>29.4575</ele>
        <time>2012-10-08T19:01:17Z</time>
      </trkpt>
      <trkpt lat="59.959545" lon="17.7847644">
        <ele>28.9769</ele>
        <time>2012-10-08T19:01:18Z</time>
      </trkpt>
      <trkpt lat="59.9595641" lon="17.7847429">
        <ele>28.9769</ele>
        <time>2012-10-08T19:01:19Z</time>
      </trkpt>
      <trkpt lat="59.9595826" lon="17.7847219">
        <ele>29.4575</ele>
        <time>2012-10-08T19:01:20Z</time>
      </trkpt>
      <trkpt lat="59.9596001" lon="17.7846978">
        <ele>28.9769</ele>
        <time>2012-10-08T19:01:21Z</time>
      </trkpt>
      <trkpt lat="59.9596199" lon="17.7846662">
        <ele>29.4575</ele>
        <time>2012-10-08T19:01:22Z</time>
      </trkpt>
      <trkpt lat="59.9596355" lon="17.7846325">
        <ele>29.9381</ele>
        <time>2012-10-08T19:01:23Z</time>
      </trkpt>
      <trkpt lat="59.9596514" lon="17.7845983">
        <ele>30.4188</ele>
        <time>2012-10-08T19:01:24Z</time>
      </trkpt>
      <trkpt lat="59.9596711" lon="17.7845665">
        <ele>30.8995</ele>
        <time>2012-10-08T19:01:25Z</time>
      </trkpt>
      <trkpt lat="59.9596883" lon="17.7845368">
        <ele>30.8995</ele>
        <time>2012-10-08T19:01:26Z</time>
      </trkpt>
      <trkpt lat="59.9597039" lon="17.7845062">
        <ele>30.8995</ele>
        <time>2012-10-08T19:01:27Z</time>
      </trkpt>
      <trkpt lat="59.9597239" lon="17.7844723">
        <ele>30.8995</ele>
        <time>2012-10-08T19:01:28Z</time>
      </trkpt>
      <trkpt lat="59.9597407" lon="17.7844383">
        <ele>30.8995</ele>
        <time>2012-10-08T19:01:29Z</time>
      </trkpt>
      <trkpt lat="59.9597577" lon="17.7844063">
        <ele>30.4188</ele>
        <time>2012-10-08T19:01:30Z</time>
      </trkpt>
      <trkpt lat="59.959777" lon="17.7843731">
        <ele>30.4188</ele>
        <time>2012-10-08T19:01:31Z</time>
      </trkpt>
      <trkpt lat="59.9597939" lon="17.7843424">
        <ele>29.9381</ele>
        <time>2012-10-08T19:01:32Z</time>
      </trkpt>
      <trkpt lat="59.9598131" lon="17.7843119">
        <ele>29.4575</ele>
        <time>2012-10-08T19:01:33Z</time>
      </trkpt>
      <trkpt lat="59.9598345" lon="17.7842802">
        <ele>29.4575</ele>
        <time>2012-10-08T19:01:34Z</time>
      </trkpt>
      <trkpt lat="59.9598514" lon="17.7842498">
        <ele>29.4575</ele>
        <time>2012-10-08T19:01:35Z</time>
      </trkpt>
      <trkpt lat="59.9598674" lon="17.784227">
        <ele>28.4962</ele>
        <time>2012-10-08T19:01:36Z</time>
      </trkpt>
      <trkpt lat="59.9598876" lon="17.7842102">
        <ele>28.4962</ele>
        <time>2012-10-08T19:01:37Z</time>
      </trkpt>
      <trkpt lat="59.9599052" lon="17.7841899">
        <ele>27.5349</ele>
        <time>2012-10-08T19:01:38Z</time>
      </trkpt>
      <trkpt lat="59.9599198" lon="17.7841607">
        <ele>27.0543</ele>
        <time>2012-10-08T19:01:39Z</time>
      </trkpt>
      <trkpt lat="59.9599371" lon="17.7841316">
        <ele>27.0543</ele>
        <time>2012-10-08T19:01:40Z</time>
      </trkpt>
      <trkpt lat="59.9599553" lon="17.7841016">
        <ele>26.5736</ele>
        <time>2012-10-08T19:01:41Z</time>
      </trkpt>
      <trkpt lat="59.9599722" lon="17.7840663">
        <ele>26.5736</ele>
        <time>2012-10-08T19:01:42Z</time>
      </trkpt>
      <trkpt lat="59.9599896" lon="17.7840353">
        <ele>26.5736</ele>
        <time>2012-10-08T19:01:43Z</time>
      </trkpt>
      <trkpt lat="59.9600042" lon="17.7840025">
        <ele>26.5736</ele>
        <time>2012-10-08T19:01:44Z</time>
      </trkpt>
      <trkpt lat="59.9600174" lon="17.7839669">
        <ele>27.0543</ele>
        <time>2012-10-08T19:01:45Z</time>
      </trkpt>
      <trkpt lat="59.9600313" lon="17.783926">
        <ele>27.0543</ele>
        <time>2012-10-08T19:01:46Z</time>
      </trkpt>
      <trkpt lat="59.9600446" lon="17.7838833">
        <ele>27.0543</ele>
        <time>2012-10-08T19:01:47Z</time>
      </trkpt>
      <trkpt lat="59.9600603" lon="17.7838431">
        <ele>27.5349</ele>
        <time>2012-10-08T19:01:48Z</time>
      </trkpt>
      <trkpt lat="59.9600769" lon="17.7837975">
        <ele>28.0155</ele>
        <time>2012-10-08T19:01:49Z</time>
      </trkpt>
      <trkpt lat="59.960091" lon="17.7837525">
        <ele>28.4962</ele>
        <time>2012-10-08T19:01:50Z</time>
      </trkpt>
      <trkpt lat="59.9601064" lon="17.7837061">
        <ele>28.9769</ele>
        <time>2012-10-08T19:01:51Z</time>
      </trkpt>
      <trkpt lat="59.9601217" lon="17.7836614">
        <ele>29.4575</ele>
        <time>2012-10-08T19:01:52Z</time>
      </trkpt>
      <trkpt lat="59.960136" lon="17.7836093">
        <ele>29.9381</ele>
        <time>2012-10-08T19:01:53Z</time>
      </trkpt>
      <trkpt lat="59.9601504" lon="17.7835629">
        <ele>29.9381</ele>
        <time>2012-10-08T19:01:54Z</time>
      </trkpt>
      <trkpt lat="59.960164" lon="17.7835193">
        <ele>29.9381</ele>
        <time>2012-10-08T19:01:55Z</time>
      </trkpt>
      <trkpt lat="59.9601782" lon="17.783483">
        <ele>29.9381</ele>
        <time>2012-10-08T19:01:56Z</time>
      </trkpt>
      <trkpt lat="59.9601919" lon="17.7834428">
        <ele>29.9381</ele>
        <time>2012-10-08T19:01:57Z</time>
      </trkpt>
      <trkpt lat="59.9602043" lon="17.7834013">
        <ele>30.4188</ele>
        <time>2012-10-08T19:01:58Z</time>
      </trkpt>
      <trkpt lat="59.9602171" lon="17.7833682">
        <ele>30.4188</ele>
        <time>2012-10-08T19:01:59Z</time>
      </trkpt>
      <trkpt lat="59.9602293" lon="17.7833278">
        <ele>30.4188</ele>
        <time>2012-10-08T19:02:00Z</time>
      </trkpt>
      <trkpt lat="59.960238" lon="17.7832841">
        <ele>30.4188</ele>
        <time>2012-10-08T19:02:01Z</time>
      </trkpt>
      <trkpt lat="59.9602489" lon="17.7832396">
        <ele>30.4188</ele>
        <time>2012-10-08T19:02:02Z</time>
      </trkpt>
      <trkpt lat="59.9602609" lon="17.7831948">
        <ele>30.4188</ele>
        <time>2012-10-08T19:02:03Z</time>
      </trkpt>
      <trkpt lat="59.9602725" lon="17.7831489">
        <ele>30.4188</ele>
        <time>2012-10-08T19:02:04Z</time>
      </trkpt>
      <trkpt lat="59.9602836" lon="17.7830915">
        <ele>30.8995</ele>
        <time>2012-10-08T19:02:05Z</time>
      </trkpt>
      <trkpt lat="59.9602958" lon="17.7830369">
        <ele>31.3801</ele>
        <time>2012-10-08T19:02:06Z</time>
      </trkpt>
      <trkpt lat="59.9603082" lon="17.7829993">
        <ele>31.8607</ele>
        <time>2012-10-08T19:02:07Z</time>
      </trkpt>
      <trkpt lat="59.9603202" lon="17.7829683">
        <ele>31.3801</ele>
        <time>2012-10-08T19:02:08Z</time>
      </trkpt>
      <trkpt lat="59.9603311" lon="17.7829349">
        <ele>30.8995</ele>
        <time>2012-10-08T19:02:09Z</time>
      </trkpt>
      <trkpt lat="59.9603416" lon="17.7828993">
        <ele>30.8995</ele>
        <time>2012-10-08T19:02:10Z</time>
      </trkpt>
      <trkpt lat="59.960353" lon="17.7828572">
        <ele>30.8995</ele>
        <time>2012-10-08T19:02:11Z</time>
      </trkpt>
      <trkpt lat="59.9603638" lon="17.7828116">
        <ele>30.4188</ele>
        <time>2012-10-08T19:02:12Z</time>
      </trkpt>
      <trkpt lat="59.960374" lon="17.7827781">
        <ele>30.8995</ele>
        <time>2012-10-08T19:02:13Z</time>
      </trkpt>
      <trkpt lat="59.9603861" lon="17.7827492">
        <ele>30.4188</ele>
        <time>2012-10-08T19:02:14Z</time>
      </trkpt>
      <trkpt lat="59.9603991" lon="17.7827142">
        <ele>30.8995</ele>
        <time>2012-10-08T19:02:15Z</time>
      </trkpt>
      <trkpt lat="59.9604118" lon="17.7826821">
        <ele>31.3801</ele>
        <time>2012-10-08T19:02:16Z</time>
      </trkpt>
      <trkpt lat="59.9604214" lon="17.7826516">
        <ele>30.8995</ele>
        <time>2012-10-08T19:02:17Z</time>
      </trkpt>
      <trkpt lat="59.9604322" lon="17.7826064">
        <ele>31.3801</ele>
        <time>2012-10-08T19:02:18Z</time>
      </trkpt>
      <trkpt lat="59.9604455" lon="17.7825615">
        <ele>31.3801</ele>
        <time>2012-10-08T19:02:19Z</time>
      </trkpt>
      <trkpt lat="59.9604592" lon="17.7825196">
        <ele>31.8607</ele>
        <time>2012-10-08T19:02:20Z</time>
      </trkpt>
      <trkpt lat="59.9604724" lon="17.7824797">
        <ele>31.3801</ele>
        <time>2012-10-08T19:02:21Z</time>
      </trkpt>
      <trkpt lat="59.9604864" lon="17.7824377">
        <ele>31.8607</ele>
        <time>2012-10-08T19:02:22Z</time>
      </trkpt>
      <trkpt lat="59.9604961" lon="17.7824086">
        <ele>30.8995</ele>
        <time>2012-10-08T19:02:23Z</time>
      </trkpt>
      <trkpt lat="59.9605088" lon="17.7823709">
        <ele>30.8995</ele>
        <time>2012-10-08T19:02:24Z</time>
      </trkpt>
      <trkpt lat="59.9605249" lon="17.7823329">
        <ele>30.4188</ele>
        <time>2012-10-08T19:02:25Z</time>
      </trkpt>
      <trkpt lat="59.9605385" lon="17.782299">
        <ele>29.9381</ele>
        <time>2012-10-08T19:02:26Z</time>
      </trkpt>
      <trkpt lat="59.9605519" lon="17.7822624">
        <ele>29.4575</ele>
        <time>2012-10-08T19:02:27Z</time>
      </trkpt>
      <trkpt lat="59.9605678" lon="17.782228">
        <ele>28.9769</ele>
        <time>2012-10-08T19:02:28Z</time>
      </trkpt>
      <trkpt lat="59.9605814" lon="17.7821946">
        <ele>28.9769</ele>
        <time>2012-10-08T19:02:29Z</time>
      </trkpt>
      <trkpt lat="59.960594" lon="17.7821549">
        <ele>28.4962</ele>
        <time>2012-10-08T19:02:30Z</time>
      </trkpt>
      <trkpt lat="59.9606099" lon="17.7821181">
        <ele>28.4962</ele>
        <time>2012-10-08T19:02:31Z</time>
      </trkpt>
      <trkpt lat="59.9606249" lon="17.7820837">
        <ele>28.0155</ele>
        <time>2012-10-08T19:02:32Z</time>
      </trkpt>
      <trkpt lat="59.9606388" lon="17.782048">
        <ele>28.0155</ele>
        <time>2012-10-08T19:02:33Z</time>
      </trkpt>
      <trkpt lat="59.9606574" lon="17.7820129">
        <ele>28.0155</ele>
        <time>2012-10-08T19:02:34Z</time>
      </trkpt>
      <trkpt lat="59.9606756" lon="17.7819835">
        <ele>27.5349</ele>
        <time>2012-10-08T19:02:35Z</time>
      </trkpt>
      <trkpt lat="59.9606939" lon="17.7819482">
        <ele>27.5349</ele>
        <time>2012-10-08T19:02:36Z</time>
      </trkpt>
      <trkpt lat="59.9607146" lon="17.7819123">
        <ele>27.0543</ele>
        <time>2012-10-08T19:02:37Z</time>
      </trkpt>
      <trkpt lat="59.9607348" lon="17.7818762">
        <ele>27.0543</ele>
        <time>2012-10-08T19:02:38Z</time>
      </trkpt>
      <trkpt lat="59.9607535" lon="17.7818388">
        <ele>27.0543</ele>
        <time>2012-10-08T19:02:39Z</time>
      </trkpt>
      <trkpt lat="59.9607725" lon="17.7818082">
        <ele>26.5736</ele>
        <time>2012-10-08T19:02:40Z</time>
      </trkpt>
      <trkpt lat="59.9607901" lon="17.7817819">
        <ele>26.5736</ele>
        <time>2012-10-08T19:02:41Z</time>
      </trkpt>
      <trkpt lat="59.9608091" lon="17.7817534">
        <ele>26.0929</ele>
        <time>2012-10-08T19:02:42Z</time>
      </trkpt>
      <trkpt lat="59.9608285" lon="17.781727">
        <ele>26.0929</ele>
        <time>2012-10-08T19:02:43Z</time>
      </trkpt>
      <trkpt lat="59.9608457" lon="17.7817016">
        <ele>25.6123</ele>
        <time>2012-10-08T19:02:44Z</time>
      </trkpt>
      <trkpt lat="59.9608643" lon="17.7816689">
        <ele>25.1317</ele>
        <time>2012-10-08T19:02:45Z</time>
      </trkpt>
      <trkpt lat="59.9608829" lon="17.7816286">
        <ele>25.6123</ele>
        <time>2012-10-08T19:02:46Z</time>
      </trkpt>
      <trkpt lat="59.9608994" lon="17.7815959">
        <ele>25.1317</ele>
        <time>2012-10-08T19:02:47Z</time>
      </trkpt>
      <trkpt lat="59.9609177" lon="17.7815591">
        <ele>25.1317</ele>
        <time>2012-10-08T19:02:48Z</time>
      </trkpt>
      <trkpt lat="59.9609356" lon="17.7815286">
        <ele>25.1317</ele>
        <time>2012-10-08T19:02:49Z</time>
      </trkpt>
      <trkpt lat="59.9609524" lon="17.7814932">
        <ele>25.1317</ele>
        <time>2012-10-08T19:02:50Z</time>
      </trkpt>
      <trkpt lat="59.9609704" lon="17.7814643">
        <ele>25.1317</ele>
        <time>2012-10-08T19:02:51Z</time>
      </trkpt>
      <trkpt lat="59.9609904" lon="17.7814341">
        <ele>25.1317</ele>
        <time>2012-10-08T19:02:52Z</time>
      </trkpt>
      <trkpt lat="59.9610067" lon="17.7813991">
        <ele>25.6123</ele>
        <time>2012-10-08T19:02:53Z</time>
      </trkpt>
      <trkpt lat="59.9610217" lon="17.7813686">
        <ele>26.0929</ele>
        <time>2012-10-08T19:02:54Z</time>
      </trkpt>
      <trkpt lat="59.9610372" lon="17.7813395">
        <ele>26.0929</ele>
        <time>2012-10-08T19:02:55Z</time>
      </trkpt>
      <trkpt lat="59.9610534" lon="17.7813079">
        <ele>26.0929</ele>
        <time>2012-10-08T19:02:56Z</time>
      </trkpt>
      <trkpt lat="59.9610709" lon="17.7812765">
        <ele>26.0929</ele>
        <time>2012-10-08T19:02:57Z</time>
      </trkpt>
      <trkpt lat="59.961087" lon="17.7812419">
        <ele>26.0929</ele>
        <time>2012-10-08T19:02:58Z</time>
      </trkpt>
      <trkpt lat="59.9611042" lon="17.781208">
        <ele>26.5736</ele>
        <time>2012-10-08T19:02:59Z</time>
      </trkpt>
      <trkpt lat="59.9611233" lon="17.7811784">
        <ele>26.5736</ele>
        <time>2012-10-08T19:03:00Z</time>
      </trkpt>
      <trkpt lat="59.9611393" lon="17.7811433">
        <ele>26.5736</ele>
        <time>2012-10-08T19:03:01Z</time>
      </trkpt>
      <trkpt lat="59.9611529" lon="17.781107">
        <ele>27.0543</ele>
        <time>2012-10-08T19:03:02Z</time>
      </trkpt>
      <trkpt lat="59.9611683" lon="17.7810726">
        <ele>27.0543</ele>
        <time>2012-10-08T19:03:03Z</time>
      </trkpt>
      <trkpt lat="59.9611866" lon="17.7810355">
        <ele>27.5349</ele>
        <time>2012-10-08T19:03:04Z</time>
      </trkpt>
      <trkpt lat="59.9612052" lon="17.7809951">
        <ele>28.0155</ele>
        <time>2012-10-08T19:03:05Z</time>
      </trkpt>
      <trkpt lat="59.961222" lon="17.780957">
        <ele>28.4962</ele>
        <time>2012-10-08T19:03:06Z</time>
      </trkpt>
      <trkpt lat="59.9612388" lon="17.7809201">
        <ele>28.9769</ele>
        <time>2012-10-08T19:03:07Z</time>
      </trkpt>
      <trkpt lat="59.9612522" lon="17.7808778">
        <ele>29.4575</ele>
        <time>2012-10-08T19:03:08Z</time>
      </trkpt>
      <trkpt lat="59.9612661" lon="17.7808287">
        <ele>29.4575</ele>
        <time>2012-10-08T19:03:09Z</time>
      </trkpt>
      <trkpt lat="59.9612831" lon="17.7807864">
        <ele>29.4575</ele>
        <time>2012-10-08T19:03:10Z</time>
      </trkpt>
      <trkpt lat="59.9613007" lon="17.7807511">
        <ele>29.9381</ele>
        <time>2012-10-08T19:03:11Z</time>
      </trkpt>
      <trkpt lat="59.9613129" lon="17.7807265">
        <ele>29.4575</ele>
        <time>2012-10-08T19:03:12Z</time>
      </trkpt>
      <trkpt lat="59.961328" lon="17.7806991">
        <ele>29.4575</ele>
        <time>2012-10-08T19:03:13Z</time>
      </trkpt>
      <trkpt lat="59.961348" lon="17.7806732">
        <ele>29.9381</ele>
        <time>2012-10-08T19:03:14Z</time>
      </trkpt>
      <trkpt lat="59.9613648" lon="17.7806501">
        <ele>29.9381</ele>
        <time>2012-10-08T19:03:15Z</time>
      </trkpt>
      <trkpt lat="59.9613817" lon="17.780618">
        <ele>29.9381</ele>
        <time>2012-10-08T19:03:16Z</time>
      </trkpt>
      <trkpt lat="59.9613992" lon="17.7805873">
        <ele>30.4188</ele>
        <time>2012-10-08T19:03:17Z</time>
      </trkpt>
      <trkpt lat="59.9614155" lon="17.7805578">
        <ele>30.4188</ele>
        <time>2012-10-08T19:03:18Z</time>
      </trkpt>
      <trkpt lat="59.9614304" lon="17.7805283">
        <ele>30.4188</ele>
        <time>2012-10-08T19:03:19Z</time>
      </trkpt>
      <trkpt lat="59.9614485" lon="17.7805003">
        <ele>30.4188</ele>
        <time>2012-10-08T19:03:20Z</time>
      </trkpt>
      <trkpt lat="59.9614666" lon="17.7804708">
        <ele>29.9381</ele>
        <time>2012-10-08T19:03:21Z</time>
      </trkpt>
      <trkpt lat="59.9614808" lon="17.7804382">
        <ele>29.9381</ele>
        <time>2012-10-08T19:03:22Z</time>
      </trkpt>
      <trkpt lat="59.9614966" lon="17.7804087">
        <ele>29.9381</ele>
        <time>2012-10-08T19:03:23Z</time>
      </trkpt>
      <trkpt lat="59.9615143" lon="17.7803764">
        <ele>29.4575</ele>
        <time>2012-10-08T19:03:24Z</time>
      </trkpt>
      <trkpt lat="59.9615305" lon="17.7803377">
        <ele>29.4575</ele>
        <time>2012-10-08T19:03:25Z</time>
      </trkpt>
      <trkpt lat="59.961545" lon="17.7803004">
        <ele>29.4575</ele>
        <time>2012-10-08T19:03:26Z</time>
      </trkpt>
      <trkpt lat="59.9615603" lon="17.7802598">
        <ele>28.9769</ele>
        <time>2012-10-08T19:03:27Z</time>
      </trkpt>
      <trkpt lat="59.9615749" lon="17.7802231">
        <ele>28.9769</ele>
        <time>2012-10-08T19:03:28Z</time>
      </trkpt>
      <trkpt lat="59.9615914" lon="17.7801865">
        <ele>28.4962</ele>
        <time>2012-10-08T19:03:29Z</time>
      </trkpt>
      <trkpt lat="59.9616092" lon="17.7801497">
        <ele>28.4962</ele>
        <time>2012-10-08T19:03:30Z</time>
      </trkpt>
      <trkpt lat="59.9616248" lon="17.7801161">
        <ele>28.4962</ele>
        <time>2012-10-08T19:03:31Z</time>
      </trkpt>
      <trkpt lat="59.9616431" lon="17.780088">
        <ele>28.4962</ele>
        <time>2012-10-08T19:03:32Z</time>
      </trkpt>
      <trkpt lat="59.9616651" lon="17.7800601">
        <ele>28.4962</ele>
        <time>2012-10-08T19:03:33Z</time>
      </trkpt>
      <trkpt lat="59.9616854" lon="17.7800222">
        <ele>28.4962</ele>
        <time>2012-10-08T19:03:34Z</time>
      </trkpt>
      <trkpt lat="59.9617029" lon="17.7799848">
        <ele>28.9769</ele>
        <time>2012-10-08T19:03:35Z</time>
      </trkpt>
      <trkpt lat="59.9617204" lon="17.7799505">
        <ele>28.9769</ele>
        <time>2012-10-08T19:03:36Z</time>
      </trkpt>
      <trkpt lat="59.9617387" lon="17.7799153">
        <ele>28.9769</ele>
        <time>2012-10-08T19:03:37Z</time>
      </trkpt>
      <trkpt lat="59.9617558" lon="17.7798763">
        <ele>28.9769</ele>
        <time>2012-10-08T19:03:38Z</time>
      </trkpt>
      <trkpt lat="59.9617726" lon="17.7798338">
        <ele>29.4575</ele>
        <time>2012-10-08T19:03:39Z</time>
      </trkpt>
      <trkpt lat="59.9617892" lon="17.7797907">
        <ele>28.9769</ele>
        <time>2012-10-08T19:03:40Z</time>
      </trkpt>
      <trkpt lat="59.9618024" lon="17.7797424">
        <ele>28.9769</ele>
        <time>2012-10-08T19:03:41Z</time>
      </trkpt>
      <trkpt lat="59.9618146" lon="17.7796892">
        <ele>29.9381</ele>
        <time>2012-10-08T19:03:42Z</time>
      </trkpt>
      <trkpt lat="59.9618315" lon="17.7796411">
        <ele>29.9381</ele>
        <time>2012-10-08T19:03:43Z</time>
      </trkpt>
      <trkpt lat="59.9618475" lon="17.7796047">
        <ele>29.9381</ele>
        <time>2012-10-08T19:03:44Z</time>
      </trkpt>
      <trkpt lat="59.9618659" lon="17.7795659">
        <ele>29.9381</ele>
        <time>2012-10-08T19:03:45Z</time>
      </trkpt>
      <trkpt lat="59.9618835" lon="17.7795321">
        <ele>29.9381</ele>
        <time>2012-10-08T19:03:46Z</time>
      </trkpt>
      <trkpt lat="59.9618992" lon="17.7795032">
        <ele>29.4575</ele>
        <time>2012-10-08T19:03:47Z</time>
      </trkpt>
      <trkpt lat="59.9619148" lon="17.7794781">
        <ele>29.4575</ele>
        <time>2012-10-08T19:03:48Z</time>
      </trkpt>
      <trkpt lat="59.9619308" lon="17.7794553">
        <ele>28.4962</ele>
        <time>2012-10-08T19:03:49Z</time>
      </trkpt>
      <trkpt lat="59.9619469" lon="17.7794295">
        <ele>28.4962</ele>
        <time>2012-10-08T19:03:50Z</time>
      </trkpt>
      <trkpt lat="59.9619645" lon="17.7794">
        <ele>28.0155</ele>
        <time>2012-10-08T19:03:51Z</time>
      </trkpt>
      <trkpt lat="59.9619837" lon="17.7793643">
        <ele>28.0155</ele>
        <time>2012-10-08T19:03:52Z</time>
      </trkpt>
      <trkpt lat="59.9619992" lon="17.7793249">
        <ele>28.0155</ele>
        <time>2012-10-08T19:03:53Z</time>
      </trkpt>
      <trkpt lat="59.962014" lon="17.7792937">
        <ele>28.0155</ele>
        <time>2012-10-08T19:03:54Z</time>
      </trkpt>
      <trkpt lat="59.9620328" lon="17.7792578">
        <ele>28.0155</ele>
        <time>2012-10-08T19:03:55Z</time>
      </trkpt>
      <trkpt lat="59.9620505" lon="17.7792228">
        <ele>28.0155</ele>
        <time>2012-10-08T19:03:56Z</time>
      </trkpt>
      <trkpt lat="59.9620682" lon="17.7791881">
        <ele>27.5349</ele>
        <time>2012-10-08T19:03:57Z</time>
      </trkpt>
      <trkpt lat="59.9620857" lon="17.7791544">
        <ele>27.5349</ele>
        <time>2012-10-08T19:03:58Z</time>
      </trkpt>
      <trkpt lat="59.9621006" lon="17.7791205">
        <ele>27.0543</ele>
        <time>2012-10-08T19:03:59Z</time>
      </trkpt>
      <trkpt lat="59.9621171" lon="17.7790929">
        <ele>27.0543</ele>
        <time>2012-10-08T19:04:00Z</time>
      </trkpt>
      <trkpt lat="59.9621349" lon="17.7790691">
        <ele>26.5736</ele>
        <time>2012-10-08T19:04:01Z</time>
      </trkpt>
      <trkpt lat="59.9621514" lon="17.7790394">
        <ele>26.0929</ele>
        <time>2012-10-08T19:04:02Z</time>
      </trkpt>
      <trkpt lat="59.9621671" lon="17.7790028">
        <ele>26.0929</ele>
        <time>2012-10-08T19:04:03Z</time>
      </trkpt>
      <trkpt lat="59.962184" lon="17.7789629">
        <ele>26.0929</ele>
        <time>2012-10-08T19:04:04Z</time>
      </trkpt>
      <trkpt lat="59.9621998" lon="17.7789292">
        <ele>25.6123</ele>
        <time>2012-10-08T19:04:05Z</time>
      </trkpt>
      <trkpt lat="59.9622147" lon="17.7789">
        <ele>25.1317</ele>
        <time>2012-10-08T19:04:06Z</time>
      </trkpt>
      <trkpt lat="59.9622327" lon="17.7788679">
        <ele>25.1317</ele>
        <time>2012-10-08T19:04:07Z</time>
      </trkpt>
      <trkpt lat="59.9622484" lon="17.7788324">
        <ele>24.651</ele>
        <time>2012-10-08T19:04:08Z</time>
      </trkpt>
      <trkpt lat="59.9622639" lon="17.7787996">
        <ele>24.651</ele>
        <time>2012-10-08T19:04:09Z</time>
      </trkpt>
      <trkpt lat="59.9622836" lon="17.7787713">
        <ele>24.651</ele>
        <time>2012-10-08T19:04:10Z</time>
      </trkpt>
      <trkpt lat="59.9623007" lon="17.7787277">
        <ele>24.651</ele>
        <time>2012-10-08T19:04:11Z</time>
      </trkpt>
      <trkpt lat="59.9623152" lon="17.7786833">
        <ele>24.1703</ele>
        <time>2012-10-08T19:04:12Z</time>
      </trkpt>
      <trkpt lat="59.9623316" lon="17.7786562">
        <ele>23.6896</ele>
        <time>2012-10-08T19:04:13Z</time>
      </trkpt>
      <trkpt lat="59.9623479" lon="17.7786244">
        <ele>23.6896</ele>
        <time>2012-10-08T19:04:14Z</time>
      </trkpt>
      <trkpt lat="59.9623616" lon="17.7785883">
        <ele>23.209</ele>
        <time>2012-10-08T19:04:15Z</time>
      </trkpt>
      <trkpt lat="59.9623763" lon="17.7785646">
        <ele>23.209</ele>
        <time>2012-10-08T19:04:16Z</time>
      </trkpt>
      <trkpt lat="59.9623917" lon="17.7785328">
        <ele>23.209</ele>
        <time>2012-10-08T19:04:17Z</time>
      </trkpt>
      <trkpt lat="59.9624031" lon="17.7784952">
        <ele>22.7283</ele>
        <time>2012-10-08T19:04:18Z</time>
      </trkpt>
      <trkpt lat="59.9624173" lon="17.7784685">
        <ele>22.7283</ele>
        <time>2012-10-08T19:04:19Z</time>
      </trkpt>
      <trkpt lat="59.9624317" lon="17.7784408">
        <ele>22.2476</ele>
        <time>2012-10-08T19:04:20Z</time>
      </trkpt>
      <trkpt lat="59.9624436" lon="17.7784015">
        <ele>22.2476</ele>
        <time>2012-10-08T19:04:21Z</time>
      </trkpt>
      <trkpt lat="59.962457" lon="17.7783678">
        <ele>21.767</ele>
        <time>2012-10-08T19:04:22Z</time>
      </trkpt>
      <trkpt lat="59.9624689" lon="17.7783437">
        <ele>21.2864</ele>
        <time>2012-10-08T19:04:23Z</time>
      </trkpt>
      <trkpt lat="59.9624792" lon="17.7783113">
        <ele>21.2864</ele>
        <time>2012-10-08T19:04:24Z</time>
      </trkpt>
      <trkpt lat="59.9624929" lon="17.7782754">
        <ele>21.2864</ele>
        <time>2012-10-08T19:04:25Z</time>
      </trkpt>
      <trkpt lat="59.9625108" lon="17.7782423">
        <ele>21.2864</ele>
        <time>2012-10-08T19:04:26Z</time>
      </trkpt>
      <trkpt lat="59.9625265" lon="17.7782112">
        <ele>21.2864</ele>
        <time>2012-10-08T19:04:27Z</time>
      </trkpt>
      <trkpt lat="59.9625405" lon="17.7781749">
        <ele>21.2864</ele>
        <time>2012-10-08T19:04:28Z</time>
      </trkpt>
      <trkpt lat="59.9625551" lon="17.7781413">
        <ele>21.2864</ele>
        <time>2012-10-08T19:04:29Z</time>
      </trkpt>
      <trkpt lat="59.962568" lon="17.7781134">
        <ele>21.767</ele>
        <time>2012-10-08T19:04:30Z</time>
      </trkpt>
      <trkpt lat="59.9625818" lon="17.7780754">
        <ele>21.767</ele>
        <time>2012-10-08T19:04:31Z</time>
      </trkpt>
      <trkpt lat="59.9625984" lon="17.7780298">
        <ele>21.767</ele>
        <time>2012-10-08T19:04:32Z</time>
      </trkpt>
      <trkpt lat="59.9626141" lon="17.7779938">
        <ele>22.2476</ele>
        <time>2012-10-08T19:04:33Z</time>
      </trkpt>
      <trkpt lat="59.9626312" lon="17.7779549">
        <ele>22.2476</ele>
        <time>2012-10-08T19:04:34Z</time>
      </trkpt>
      <trkpt lat="59.9626505" lon="17.7779098">
        <ele>22.2476</ele>
        <time>2012-10-08T19:04:35Z</time>
      </trkpt>
      <trkpt lat="59.9626675" lon="17.7778734">
        <ele>22.2476</ele>
        <time>2012-10-08T19:04:36Z</time>
      </trkpt>
      <trkpt lat="59.962684" lon="17.7778393">
        <ele>22.2476</ele>
        <time>2012-10-08T19:04:37Z</time>
      </trkpt>
      <trkpt lat="59.9627023" lon="17.7778015">
        <ele>22.7283</ele>
        <time>2012-10-08T19:04:38Z</time>
      </trkpt>
      <trkpt lat="59.9627168" lon="17.7777704">
        <ele>22.2476</ele>
        <time>2012-10-08T19:04:39Z</time>
      </trkpt>
      <trkpt lat="59.9627323" lon="17.777735">
        <ele>22.2476</ele>
        <time>2012-10-08T19:04:40Z</time>
      </trkpt>
      <trkpt lat="59.9627492" lon="17.7777003">
        <ele>22.2476</ele>
        <time>2012-10-08T19:04:41Z</time>
      </trkpt>
      <trkpt lat="59.9627643" lon="17.7776685">
        <ele>22.2476</ele>
        <time>2012-10-08T19:04:42Z</time>
      </trkpt>
      <trkpt lat="59.9627794" lon="17.7776364">
        <ele>22.2476</ele>
        <time>2012-10-08T19:04:43Z</time>
      </trkpt>
      <trkpt lat="59.9627978" lon="17.7776">
        <ele>22.2476</ele>
        <time>2012-10-08T19:04:44Z</time>
      </trkpt>
      <trkpt lat="59.9628133" lon="17.7775628">
        <ele>22.2476</ele>
        <time>2012-10-08T19:04:45Z</time>
      </trkpt>
      <trkpt lat="59.9628284" lon="17.7775269">
        <ele>22.2476</ele>
        <time>2012-10-08T19:04:46Z</time>
      </trkpt>
      <trkpt lat="59.9628467" lon="17.7774929">
        <ele>22.2476</ele>
        <time>2012-10-08T19:04:47Z</time>
      </trkpt>
      <trkpt lat="59.9628618" lon="17.7774634">
        <ele>22.2476</ele>
        <time>2012-10-08T19:04:48Z</time>
      </trkpt>
      <trkpt lat="59.9628778" lon="17.7774344">
        <ele>22.2476</ele>
        <time>2012-10-08T19:04:49Z</time>
      </trkpt>
      <trkpt lat="59.9628967" lon="17.7774092">
        <ele>22.2476</ele>
        <time>2012-10-08T19:04:50Z</time>
      </trkpt>
      <trkpt lat="59.9629152" lon="17.7773742">
        <ele>22.2476</ele>
        <time>2012-10-08T19:04:51Z</time>
      </trkpt>
      <trkpt lat="59.9629316" lon="17.7773286">
        <ele>22.2476</ele>
        <time>2012-10-08T19:04:52Z</time>
      </trkpt>
      <trkpt lat="59.9629487" lon="17.7772903">
        <ele>21.767</ele>
        <time>2012-10-08T19:04:53Z</time>
      </trkpt>
      <trkpt lat="59.9629651" lon="17.7772601">
        <ele>21.2864</ele>
        <time>2012-10-08T19:04:54Z</time>
      </trkpt>
      <trkpt lat="59.9629797" lon="17.7772214">
        <ele>21.2864</ele>
        <time>2012-10-08T19:04:55Z</time>
      </trkpt>
      <trkpt lat="59.9629959" lon="17.7771763">
        <ele>21.767</ele>
        <time>2012-10-08T19:04:56Z</time>
      </trkpt>
      <trkpt lat="59.963011" lon="17.7771468">
        <ele>21.767</ele>
        <time>2012-10-08T19:04:57Z</time>
      </trkpt>
      <trkpt lat="59.9630223" lon="17.7771171">
        <ele>21.767</ele>
        <time>2012-10-08T19:04:58Z</time>
      </trkpt>
      <trkpt lat="59.9630353" lon="17.7770847">
        <ele>21.767</ele>
        <time>2012-10-08T19:04:59Z</time>
      </trkpt>
      <trkpt lat="59.9630509" lon="17.7770565">
        <ele>21.2864</ele>
        <time>2012-10-08T19:05:00Z</time>
      </trkpt>
      <trkpt lat="59.9630623" lon="17.7770276">
        <ele>21.2864</ele>
        <time>2012-10-08T19:05:01Z</time>
      </trkpt>
      <trkpt lat="59.963074" lon="17.7769938">
        <ele>21.2864</ele>
        <time>2012-10-08T19:05:02Z</time>
      </trkpt>
      <trkpt lat="59.9630896" lon="17.7769634">
        <ele>21.2864</ele>
        <time>2012-10-08T19:05:03Z</time>
      </trkpt>
      <trkpt lat="59.9631013" lon="17.7769316">
        <ele>20.8057</ele>
        <time>2012-10-08T19:05:04Z</time>
      </trkpt>
      <trkpt lat="59.9631099" lon="17.7768997">
        <ele>20.8057</ele>
        <time>2012-10-08T19:05:05Z</time>
      </trkpt>
      <trkpt lat="59.9631223" lon="17.7768702">
        <ele>21.2864</ele>
        <time>2012-10-08T19:05:06Z</time>
      </trkpt>
      <trkpt lat="59.9631378" lon="17.776849">
        <ele>21.767</ele>
        <time>2012-10-08T19:05:07Z</time>
      </trkpt>
      <trkpt lat="59.9631492" lon="17.7768213">
        <ele>21.767</ele>
        <time>2012-10-08T19:05:08Z</time>
      </trkpt>
      <trkpt lat="59.9631595" lon="17.7767928">
        <ele>21.767</ele>
        <time>2012-10-08T19:05:09Z</time>
      </trkpt>
      <trkpt lat="59.9631709" lon="17.7767676">
        <ele>22.7283</ele>
        <time>2012-10-08T19:05:10Z</time>
      </trkpt>
      <trkpt lat="59.9631802" lon="17.7767406">
        <ele>23.209</ele>
        <time>2012-10-08T19:05:11Z</time>
      </trkpt>
      <trkpt lat="59.9631915" lon="17.7767099">
        <ele>23.6896</ele>
        <time>2012-10-08T19:05:12Z</time>
      </trkpt>
      <trkpt lat="59.9632037" lon="17.7766693">
        <ele>23.6896</ele>
        <time>2012-10-08T19:05:13Z</time>
      </trkpt>
      <trkpt lat="59.9632139" lon="17.7766293">
        <ele>24.1703</ele>
        <time>2012-10-08T19:05:14Z</time>
      </trkpt>
      <trkpt lat="59.9632253" lon="17.7765842">
        <ele>25.1317</ele>
        <time>2012-10-08T19:05:15Z</time>
      </trkpt>
      <trkpt lat="59.9632389" lon="17.7765345">
        <ele>25.6123</ele>
        <time>2012-10-08T19:05:16Z</time>
      </trkpt>
      <trkpt lat="59.963249" lon="17.7764859">
        <ele>26.0929</ele>
        <time>2012-10-08T19:05:17Z</time>
      </trkpt>
      <trkpt lat="59.963258" lon="17.7764386">
        <ele>26.5736</ele>
        <time>2012-10-08T19:05:18Z</time>
      </trkpt>
      <trkpt lat="59.9632703" lon="17.7763981">
        <ele>26.5736</ele>
        <time>2012-10-08T19:05:19Z</time>
      </trkpt>
      <trkpt lat="59.9632814" lon="17.7763558">
        <ele>26.0929</ele>
        <time>2012-10-08T19:05:20Z</time>
      </trkpt>
      <trkpt lat="59.9632896" lon="17.7763102">
        <ele>26.0929</ele>
        <time>2012-10-08T19:05:21Z</time>
      </trkpt>
      <trkpt lat="59.9633009" lon="17.7762714">
        <ele>26.5736</ele>
        <time>2012-10-08T19:05:22Z</time>
      </trkpt>
      <trkpt lat="59.9633154" lon="17.7762253">
        <ele>26.5736</ele>
        <time>2012-10-08T19:05:23Z</time>
      </trkpt>
      <trkpt lat="59.9633278" lon="17.7761825">
        <ele>26.5736</ele>
        <time>2012-10-08T19:05:24Z</time>
      </trkpt>
      <trkpt lat="59.9633382" lon="17.7761449">
        <ele>26.5736</ele>
        <time>2012-10-08T19:05:25Z</time>
      </trkpt>
      <trkpt lat="59.9633512" lon="17.776105">
        <ele>26.5736</ele>
        <time>2012-10-08T19:05:26Z</time>
      </trkpt>
      <trkpt lat="59.9633648" lon="17.7760639">
        <ele>26.0929</ele>
        <time>2012-10-08T19:05:27Z</time>
      </trkpt>
      <trkpt lat="59.9633792" lon="17.7760249">
        <ele>26.0929</ele>
        <time>2012-10-08T19:05:28Z</time>
      </trkpt>
      <trkpt lat="59.9633941" lon="17.7759928">
        <ele>25.6123</ele>
        <time>2012-10-08T19:05:29Z</time>
      </trkpt>
      <trkpt lat="59.9634109" lon="17.775964">
        <ele>25.6123</ele>
        <time>2012-10-08T19:05:30Z</time>
      </trkpt>
      <trkpt lat="59.9634283" lon="17.775932">
        <ele>26.0929</ele>
        <time>2012-10-08T19:05:31Z</time>
      </trkpt>
      <trkpt lat="59.9634427" lon="17.7758948">
        <ele>26.5736</ele>
        <time>2012-10-08T19:05:32Z</time>
      </trkpt>
      <trkpt lat="59.9634547" lon="17.7758536">
        <ele>27.0543</ele>
        <time>2012-10-08T19:05:33Z</time>
      </trkpt>
      <trkpt lat="59.9634641" lon="17.775815">
        <ele>27.0543</ele>
        <time>2012-10-08T19:05:34Z</time>
      </trkpt>
      <trkpt lat="59.9634724" lon="17.7757695">
        <ele>27.5349</ele>
        <time>2012-10-08T19:05:35Z</time>
      </trkpt>
      <trkpt lat="59.9634795" lon="17.7757316">
        <ele>27.0543</ele>
        <time>2012-10-08T19:05:36Z</time>
      </trkpt>
      <trkpt lat="59.9634885" lon="17.7756912">
        <ele>27.0543</ele>
        <time>2012-10-08T19:05:37Z</time>
      </trkpt>
      <trkpt lat="59.9634953" lon="17.7756435">
        <ele>27.0543</ele>
        <time>2012-10-08T19:05:38Z</time>
      </trkpt>
      <trkpt lat="59.9635036" lon="17.7756013">
        <ele>27.5349</ele>
        <time>2012-10-08T19:05:39Z</time>
      </trkpt>
      <trkpt lat="59.9635126" lon="17.7755609">
        <ele>27.5349</ele>
        <time>2012-10-08T19:05:40Z</time>
      </trkpt>
      <trkpt lat="59.9635206" lon="17.7755162">
        <ele>27.5349</ele>
        <time>2012-10-08T19:05:41Z</time>
      </trkpt>
      <trkpt lat="59.9635326" lon="17.7754766">
        <ele>27.5349</ele>
        <time>2012-10-08T19:05:42Z</time>
      </trkpt>
      <trkpt lat="59.9635449" lon="17.775439">
        <ele>27.5349</ele>
        <time>2012-10-08T19:05:43Z</time>
      </trkpt>
      <trkpt lat="59.9635564" lon="17.7753964">
        <ele>27.5349</ele>
        <time>2012-10-08T19:05:44Z</time>
      </trkpt>
      <trkpt lat="59.9635699" lon="17.7753648">
        <ele>27.0543</ele>
        <time>2012-10-08T19:05:45Z</time>
      </trkpt>
      <trkpt lat="59.9635837" lon="17.7753327">
        <ele>26.5736</ele>
        <time>2012-10-08T19:05:46Z</time>
      </trkpt>
      <trkpt lat="59.9635945" lon="17.7752959">
        <ele>26.5736</ele>
        <time>2012-10-08T19:05:47Z</time>
      </trkpt>
      <trkpt lat="59.963605" lon="17.7752603">
        <ele>26.0929</ele>
        <time>2012-10-08T19:05:48Z</time>
      </trkpt>
      <trkpt lat="59.9636159" lon="17.7752263">
        <ele>26.0929</ele>
        <time>2012-10-08T19:05:49Z</time>
      </trkpt>
      <trkpt lat="59.9636262" lon="17.7751902">
        <ele>26.0929</ele>
        <time>2012-10-08T19:05:50Z</time>
      </trkpt>
      <trkpt lat="59.9636355" lon="17.7751509">
        <ele>26.0929</ele>
        <time>2012-10-08T19:05:51Z</time>
      </trkpt>
      <trkpt lat="59.9636423" lon="17.775115">
        <ele>26.0929</ele>
        <time>2012-10-08T19:05:52Z</time>
      </trkpt>
      <trkpt lat="59.9636522" lon="17.7750793">
        <ele>26.0929</ele>
        <time>2012-10-08T19:05:53Z</time>
      </trkpt>
      <trkpt lat="59.9636661" lon="17.7750453">
        <ele>25.6123</ele>
        <time>2012-10-08T19:05:54Z</time>
      </trkpt>
      <trkpt lat="59.9636753" lon="17.7750114">
        <ele>25.6123</ele>
        <time>2012-10-08T19:05:55Z</time>
      </trkpt>
      <trkpt lat="59.9636822" lon="17.7749799">
        <ele>25.1317</ele>
        <time>2012-10-08T19:05:56Z</time>
      </trkpt>
      <trkpt lat="59.9636931" lon="17.7749499">
        <ele>25.1317</ele>
        <time>2012-10-08T19:05:57Z</time>
      </trkpt>
      <trkpt lat="59.9637069" lon="17.7749167">
        <ele>25.1317</ele>
        <time>2012-10-08T19:05:58Z</time>
      </trkpt>
      <trkpt lat="59.9637178" lon="17.7748789">
        <ele>25.1317</ele>
        <time>2012-10-08T19:05:59Z</time>
      </trkpt>
      <trkpt lat="59.9637262" lon="17.7748355">
        <ele>25.1317</ele>
        <time>2012-10-08T19:06:00Z</time>
      </trkpt>
      <trkpt lat="59.9637346" lon="17.774796">
        <ele>25.1317</ele>
        <time>2012-10-08T19:06:01Z</time>
      </trkpt>
      <trkpt lat="59.9637431" lon="17.7747577">
        <ele>25.1317</ele>
        <time>2012-10-08T19:06:02Z</time>
      </trkpt>
      <trkpt lat="59.9637506" lon="17.77471">
        <ele>25.1317</ele>
        <time>2012-10-08T19:06:03Z</time>
      </trkpt>
      <trkpt lat="59.9637551" lon="17.7746663">
        <ele>25.1317</ele>
        <time>2012-10-08T19:06:04Z</time>
      </trkpt>
      <trkpt lat="59.9637594" lon="17.774621">
        <ele>25.1317</ele>
        <time>2012-10-08T19:06:05Z</time>
      </trkpt>
      <trkpt lat="59.9637656" lon="17.7745741">
        <ele>25.1317</ele>
        <time>2012-10-08T19:06:06Z</time>
      </trkpt>
      <trkpt lat="59.9637703" lon="17.7745288">
        <ele>25.1317</ele>
        <time>2012-10-08T19:06:07Z</time>
      </trkpt>
      <trkpt lat="59.9637753" lon="17.7744771">
        <ele>25.6123</ele>
        <time>2012-10-08T19:06:08Z</time>
      </trkpt>
      <trkpt lat="59.9637827" lon="17.7744205">
        <ele>25.6123</ele>
        <time>2012-10-08T19:06:09Z</time>
      </trkpt>
      <trkpt lat="59.9637905" lon="17.7743712">
        <ele>25.1317</ele>
        <time>2012-10-08T19:06:10Z</time>
      </trkpt>
      <trkpt lat="59.9637993" lon="17.7743231">
        <ele>25.6123</ele>
        <time>2012-10-08T19:06:11Z</time>
      </trkpt>
      <trkpt lat="59.9638076" lon="17.774276">
        <ele>25.6123</ele>
        <time>2012-10-08T19:06:12Z</time>
      </trkpt>
      <trkpt lat="59.9638146" lon="17.7742387">
        <ele>26.0929</ele>
        <time>2012-10-08T19:06:13Z</time>
      </trkpt>
      <trkpt lat="59.9638227" lon="17.7741988">
        <ele>26.0929</ele>
        <time>2012-10-08T19:06:14Z</time>
      </trkpt>
      <trkpt lat="59.9638313" lon="17.7741541">
        <ele>25.6123</ele>
        <time>2012-10-08T19:06:15Z</time>
      </trkpt>
      <trkpt lat="59.9638395" lon="17.7741195">
        <ele>25.6123</ele>
        <time>2012-10-08T19:06:16Z</time>
      </trkpt>
      <trkpt lat="59.9638473" lon="17.7740796">
        <ele>25.6123</ele>
        <time>2012-10-08T19:06:17Z</time>
      </trkpt>
      <trkpt lat="59.9638554" lon="17.7740326">
        <ele>25.1317</ele>
        <time>2012-10-08T19:06:18Z</time>
      </trkpt>
      <trkpt lat="59.9638645" lon="17.7739895">
        <ele>25.1317</ele>
        <time>2012-10-08T19:06:19Z</time>
      </trkpt>
      <trkpt lat="59.9638718" lon="17.7739449">
        <ele>25.1317</ele>
        <time>2012-10-08T19:06:20Z</time>
      </trkpt>
      <trkpt lat="59.9638807" lon="17.7739004">
        <ele>25.1317</ele>
        <time>2012-10-08T19:06:21Z</time>
      </trkpt>
      <trkpt lat="59.9638905" lon="17.7738676">
        <ele>24.651</ele>
        <time>2012-10-08T19:06:22Z</time>
      </trkpt>
      <trkpt lat="59.9638992" lon="17.7738254">
        <ele>24.651</ele>
        <time>2012-10-08T19:06:23Z</time>
      </trkpt>
      <trkpt lat="59.9639099" lon="17.7737814">
        <ele>25.1317</ele>
        <time>2012-10-08T19:06:24Z</time>
      </trkpt>
      <trkpt lat="59.9639188" lon="17.7737439">
        <ele>24.651</ele>
        <time>2012-10-08T19:06:25Z</time>
      </trkpt>
      <trkpt lat="59.9639245" lon="17.7736979">
        <ele>24.651</ele>
        <time>2012-10-08T19:06:26Z</time>
      </trkpt>
      <trkpt lat="59.9639307" lon="17.7736459">
        <ele>24.651</ele>
        <time>2012-10-08T19:06:27Z</time>
      </trkpt>
      <trkpt lat="59.9639381" lon="17.7736015">
        <ele>24.651</ele>
        <time>2012-10-08T19:06:28Z</time>
      </trkpt>
      <trkpt lat="59.9639445" lon="17.7735553">
        <ele>24.651</ele>
        <time>2012-10-08T19:06:29Z</time>
      </trkpt>
      <trkpt lat="59.9639495" lon="17.7735041">
        <ele>25.1317</ele>
        <time>2012-10-08T19:06:30Z</time>
      </trkpt>
      <trkpt lat="59.9639521" lon="17.77346">
        <ele>25.1317</ele>
        <time>2012-10-08T19:06:31Z</time>
      </trkpt>
      <trkpt lat="59.9639583" lon="17.7734192">
        <ele>25.1317</ele>
        <time>2012-10-08T19:06:32Z</time>
      </trkpt>
      <trkpt lat="59.9639691" lon="17.7733715">
        <ele>24.651</ele>
        <time>2012-10-08T19:06:33Z</time>
      </trkpt>
      <trkpt lat="59.9639769" lon="17.7733208">
        <ele>24.1703</ele>
        <time>2012-10-08T19:06:34Z</time>
      </trkpt>
      <trkpt lat="59.9639822" lon="17.7732763">
        <ele>24.1703</ele>
        <time>2012-10-08T19:06:35Z</time>
      </trkpt>
      <trkpt lat="59.9639874" lon="17.7732271">
        <ele>24.651</ele>
        <time>2012-10-08T19:06:36Z</time>
      </trkpt>
      <trkpt lat="59.9639899" lon="17.7731814">
        <ele>24.651</ele>
        <time>2012-10-08T19:06:37Z</time>
      </trkpt>
      <trkpt lat="59.9639918" lon="17.7731387">
        <ele>24.651</ele>
        <time>2012-10-08T19:06:38Z</time>
      </trkpt>
      <trkpt lat="59.9639939" lon="17.77309">
        <ele>24.651</ele>
        <time>2012-10-08T19:06:39Z</time>
      </trkpt>
      <trkpt lat="59.9639935" lon="17.7730404">
        <ele>24.651</ele>
        <time>2012-10-08T19:06:40Z</time>
      </trkpt>
      <trkpt lat="59.963991" lon="17.7729887">
        <ele>25.1317</ele>
        <time>2012-10-08T19:06:41Z</time>
      </trkpt>
      <trkpt lat="59.9639869" lon="17.7729336">
        <ele>25.1317</ele>
        <time>2012-10-08T19:06:42Z</time>
      </trkpt>
      <trkpt lat="59.9639832" lon="17.7728813">
        <ele>25.1317</ele>
        <time>2012-10-08T19:06:43Z</time>
      </trkpt>
      <trkpt lat="59.9639778" lon="17.7728321">
        <ele>25.6123</ele>
        <time>2012-10-08T19:06:44Z</time>
      </trkpt>
      <trkpt lat="59.9639662" lon="17.7727818">
        <ele>26.0929</ele>
        <time>2012-10-08T19:06:45Z</time>
      </trkpt>
      <trkpt lat="59.9639542" lon="17.7727275">
        <ele>26.0929</ele>
        <time>2012-10-08T19:06:46Z</time>
      </trkpt>
      <trkpt lat="59.9639462" lon="17.7726794">
        <ele>26.5736</ele>
        <time>2012-10-08T19:06:47Z</time>
      </trkpt>
      <trkpt lat="59.963939" lon="17.7726338">
        <ele>27.0543</ele>
        <time>2012-10-08T19:06:48Z</time>
      </trkpt>
      <trkpt lat="59.9639289" lon="17.7725777">
        <ele>27.0543</ele>
        <time>2012-10-08T19:06:49Z</time>
      </trkpt>
      <trkpt lat="59.9639189" lon="17.772524">
        <ele>27.0543</ele>
        <time>2012-10-08T19:06:50Z</time>
      </trkpt>
      <trkpt lat="59.9639101" lon="17.7724748">
        <ele>27.5349</ele>
        <time>2012-10-08T19:06:51Z</time>
      </trkpt>
      <trkpt lat="59.9639008" lon="17.7724178">
        <ele>28.0155</ele>
        <time>2012-10-08T19:06:52Z</time>
      </trkpt>
      <trkpt lat="59.963892" lon="17.7723671">
        <ele>28.0155</ele>
        <time>2012-10-08T19:06:53Z</time>
      </trkpt>
      <trkpt lat="59.9638847" lon="17.7723218">
        <ele>28.0155</ele>
        <time>2012-10-08T19:06:54Z</time>
      </trkpt>
      <trkpt lat="59.9638774" lon="17.7722732">
        <ele>28.0155</ele>
        <time>2012-10-08T19:06:55Z</time>
      </trkpt>
      <trkpt lat="59.9638691" lon="17.7722287">
        <ele>28.0155</ele>
        <time>2012-10-08T19:06:56Z</time>
      </trkpt>
      <trkpt lat="59.9638594" lon="17.7721822">
        <ele>28.0155</ele>
        <time>2012-10-08T19:06:57Z</time>
      </trkpt>
      <trkpt lat="59.9638483" lon="17.7721309">
        <ele>28.9769</ele>
        <time>2012-10-08T19:06:58Z</time>
      </trkpt>
      <trkpt lat="59.963836" lon="17.7720817">
        <ele>28.9769</ele>
        <time>2012-10-08T19:06:59Z</time>
      </trkpt>
      <trkpt lat="59.963823" lon="17.7720258">
        <ele>28.9769</ele>
        <time>2012-10-08T19:07:00Z</time>
      </trkpt>
      <trkpt lat="59.9638131" lon="17.7719692">
        <ele>28.9769</ele>
        <time>2012-10-08T19:07:01Z</time>
      </trkpt>
      <trkpt lat="59.9638043" lon="17.7719205">
        <ele>28.9769</ele>
        <time>2012-10-08T19:07:02Z</time>
      </trkpt>
      <trkpt lat="59.9637931" lon="17.7718739">
        <ele>28.9769</ele>
        <time>2012-10-08T19:07:03Z</time>
      </trkpt>
      <trkpt lat="59.963781" lon="17.7718228">
        <ele>29.4575</ele>
        <time>2012-10-08T19:07:04Z</time>
      </trkpt>
      <trkpt lat="59.9637687" lon="17.7717724">
        <ele>29.4575</ele>
        <time>2012-10-08T19:07:05Z</time>
      </trkpt>
      <trkpt lat="59.9637563" lon="17.7717232">
        <ele>29.4575</ele>
        <time>2012-10-08T19:07:06Z</time>
      </trkpt>
      <trkpt lat="59.9637489" lon="17.7716812">
        <ele>29.4575</ele>
        <time>2012-10-08T19:07:07Z</time>
      </trkpt>
      <trkpt lat="59.96374" lon="17.771642">
        <ele>29.4575</ele>
        <time>2012-10-08T19:07:08Z</time>
      </trkpt>
      <trkpt lat="59.9637294" lon="17.7716008">
        <ele>29.9381</ele>
        <time>2012-10-08T19:07:09Z</time>
      </trkpt>
      <trkpt lat="59.963718" lon="17.7715542">
        <ele>29.9381</ele>
        <time>2012-10-08T19:07:10Z</time>
      </trkpt>
      <trkpt lat="59.9637057" lon="17.7715106">
        <ele>30.4188</ele>
        <time>2012-10-08T19:07:11Z</time>
      </trkpt>
      <trkpt lat="59.9636946" lon="17.7714679">
        <ele>30.4188</ele>
        <time>2012-10-08T19:07:12Z</time>
      </trkpt>
      <trkpt lat="59.9636839" lon="17.7714192">
        <ele>30.4188</ele>
        <time>2012-10-08T19:07:13Z</time>
      </trkpt>
      <trkpt lat="59.9636733" lon="17.7713741">
        <ele>30.8995</ele>
        <time>2012-10-08T19:07:14Z</time>
      </trkpt>
      <trkpt lat="59.9636629" lon="17.771328">
        <ele>30.8995</ele>
        <time>2012-10-08T19:07:15Z</time>
      </trkpt>
      <trkpt lat="59.9636522" lon="17.7712789">
        <ele>30.8995</ele>
        <time>2012-10-08T19:07:16Z</time>
      </trkpt>
      <trkpt lat="59.9636398" lon="17.7712332">
        <ele>31.3801</ele>
        <time>2012-10-08T19:07:17Z</time>
      </trkpt>
      <trkpt lat="59.9636276" lon="17.7711846">
        <ele>31.8607</ele>
        <time>2012-10-08T19:07:18Z</time>
      </trkpt>
      <trkpt lat="59.963616" lon="17.7711343">
        <ele>31.8607</ele>
        <time>2012-10-08T19:07:19Z</time>
      </trkpt>
      <trkpt lat="59.9636049" lon="17.7710879">
        <ele>31.8607</ele>
        <time>2012-10-08T19:07:20Z</time>
      </trkpt>
      <trkpt lat="59.9635956" lon="17.7710406">
        <ele>31.8607</ele>
        <time>2012-10-08T19:07:21Z</time>
      </trkpt>
      <trkpt lat="59.9635853" lon="17.7709944">
        <ele>32.3416</ele>
        <time>2012-10-08T19:07:22Z</time>
      </trkpt>
      <trkpt lat="59.9635745" lon="17.7709519">
        <ele>32.3416</ele>
        <time>2012-10-08T19:07:23Z</time>
      </trkpt>
      <trkpt lat="59.9635652" lon="17.7709016">
        <ele>32.3416</ele>
        <time>2012-10-08T19:07:24Z</time>
      </trkpt>
      <trkpt lat="59.9635541" lon="17.7708501">
        <ele>32.8223</ele>
        <time>2012-10-08T19:07:25Z</time>
      </trkpt>
      <trkpt lat="59.963543" lon="17.7708044">
        <ele>32.8223</ele>
        <time>2012-10-08T19:07:26Z</time>
      </trkpt>
      <trkpt lat="59.9635339" lon="17.7707587">
        <ele>33.3029</ele>
        <time>2012-10-08T19:07:27Z</time>
      </trkpt>
      <trkpt lat="59.9635237" lon="17.7707188">
        <ele>33.7834</ele>
        <time>2012-10-08T19:07:28Z</time>
      </trkpt>
      <trkpt lat="59.9635144" lon="17.7706804">
        <ele>33.7834</ele>
        <time>2012-10-08T19:07:29Z</time>
      </trkpt>
      <trkpt lat="59.9635066" lon="17.7706306">
        <ele>34.2642</ele>
        <time>2012-10-08T19:07:30Z</time>
      </trkpt>
      <trkpt lat="59.9635028" lon="17.7705951">
        <ele>34.2642</ele>
        <time>2012-10-08T19:07:31Z</time>
      </trkpt>
      <trkpt lat="59.9635066" lon="17.7705763">
        <ele>33.3029</ele>
        <time>2012-10-08T19:07:32Z</time>
      </trkpt>
      <trkpt lat="59.9635106" lon="17.770554">
        <ele>33.3029</ele>
        <time>2012-10-08T19:07:33Z</time>
      </trkpt>
      <trkpt lat="59.9635134" lon="17.7705265">
        <ele>33.3029</ele>
        <time>2012-10-08T19:07:34Z</time>
      </trkpt>
      <trkpt lat="59.9635088" lon="17.7704887">
        <ele>33.3029</ele>
        <time>2012-10-08T19:07:35Z</time>
      </trkpt>
      <trkpt lat="59.9635072" lon="17.7704463">
        <ele>33.7834</ele>
        <time>2012-10-08T19:07:36Z</time>
      </trkpt>
      <trkpt lat="59.9635144" lon="17.7704044">
        <ele>33.7834</ele>
        <time>2012-10-08T19:07:37Z</time>
      </trkpt>
      <trkpt lat="59.9635165" lon="17.7703619">
        <ele>33.7834</ele>
        <time>2012-10-08T19:07:38Z</time>
      </trkpt>
      <trkpt lat="59.9635087" lon="17.7703127">
        <ele>34.2642</ele>
        <time>2012-10-08T19:07:39Z</time>
      </trkpt>
      <trkpt lat="59.9635" lon="17.7702681">
        <ele>34.7449</ele>
        <time>2012-10-08T19:07:40Z</time>
      </trkpt>
      <trkpt lat="59.9634947" lon="17.7702232">
        <ele>35.2255</ele>
        <time>2012-10-08T19:07:41Z</time>
      </trkpt>
      <trkpt lat="59.9634798" lon="17.7701872">
        <ele>35.7061</ele>
        <time>2012-10-08T19:07:42Z</time>
      </trkpt>
      <trkpt lat="59.9634705" lon="17.7701417">
        <ele>36.1868</ele>
        <time>2012-10-08T19:07:43Z</time>
      </trkpt>
      <trkpt lat="59.9634671" lon="17.7700883">
        <ele>36.1868</ele>
        <time>2012-10-08T19:07:44Z</time>
      </trkpt>
      <trkpt lat="59.963463" lon="17.7700531">
        <ele>36.6675</ele>
        <time>2012-10-08T19:07:45Z</time>
      </trkpt>
      <trkpt lat="59.9634631" lon="17.7700148">
        <ele>36.6675</ele>
        <time>2012-10-08T19:07:46Z</time>
      </trkpt>
      <trkpt lat="59.9634636" lon="17.7699649">
        <ele>36.6675</ele>
        <time>2012-10-08T19:07:47Z</time>
      </trkpt>
      <trkpt lat="59.9634634" lon="17.7699209">
        <ele>36.6675</ele>
        <time>2012-10-08T19:07:48Z</time>
      </trkpt>
      <trkpt lat="59.9634626" lon="17.7698799">
        <ele>37.1481</ele>
        <time>2012-10-08T19:07:49Z</time>
      </trkpt>
      <trkpt lat="59.9634599" lon="17.7698309">
        <ele>36.6675</ele>
        <time>2012-10-08T19:07:50Z</time>
      </trkpt>
      <trkpt lat="59.9634538" lon="17.7697864">
        <ele>37.1481</ele>
        <time>2012-10-08T19:07:51Z</time>
      </trkpt>
      <trkpt lat="59.9634527" lon="17.769747">
        <ele>37.1481</ele>
        <time>2012-10-08T19:07:52Z</time>
      </trkpt>
      <trkpt lat="59.9634558" lon="17.7697059">
        <ele>37.1481</ele>
        <time>2012-10-08T19:07:53Z</time>
      </trkpt>
      <trkpt lat="59.963456" lon="17.7696649">
        <ele>37.6287</ele>
        <time>2012-10-08T19:07:54Z</time>
      </trkpt>
      <trkpt lat="59.9634565" lon="17.7696209">
        <ele>37.6287</ele>
        <time>2012-10-08T19:07:55Z</time>
      </trkpt>
      <trkpt lat="59.9634626" lon="17.7695748">
        <ele>37.6287</ele>
        <time>2012-10-08T19:07:56Z</time>
      </trkpt>
      <trkpt lat="59.9634686" lon="17.7695328">
        <ele>37.1481</ele>
        <time>2012-10-08T19:07:57Z</time>
      </trkpt>
      <trkpt lat="59.9634779" lon="17.7694927">
        <ele>37.6287</ele>
        <time>2012-10-08T19:07:58Z</time>
      </trkpt>
      <trkpt lat="59.9634898" lon="17.7694549">
        <ele>37.1481</ele>
        <time>2012-10-08T19:07:59Z</time>
      </trkpt>
      <trkpt lat="59.9635021" lon="17.7694129">
        <ele>37.1481</ele>
        <time>2012-10-08T19:08:00Z</time>
      </trkpt>
      <trkpt lat="59.963516" lon="17.7693761">
        <ele>37.1481</ele>
        <time>2012-10-08T19:08:01Z</time>
      </trkpt>
      <trkpt lat="59.9635292" lon="17.7693341">
        <ele>37.6287</ele>
        <time>2012-10-08T19:08:02Z</time>
      </trkpt>
      <trkpt lat="59.9635427" lon="17.7692969">
        <ele>36.6675</ele>
        <time>2012-10-08T19:08:03Z</time>
      </trkpt>
      <trkpt lat="59.9635564" lon="17.7692601">
        <ele>36.6675</ele>
        <time>2012-10-08T19:08:04Z</time>
      </trkpt>
      <trkpt lat="59.9635697" lon="17.7692171">
        <ele>37.1481</ele>
        <time>2012-10-08T19:08:05Z</time>
      </trkpt>
      <trkpt lat="59.9635833" lon="17.7691824">
        <ele>37.1481</ele>
        <time>2012-10-08T19:08:06Z</time>
      </trkpt>
      <trkpt lat="59.9635974" lon="17.7691477">
        <ele>36.6675</ele>
        <time>2012-10-08T19:08:07Z</time>
      </trkpt>
      <trkpt lat="59.9636107" lon="17.7691118">
        <ele>36.1868</ele>
        <time>2012-10-08T19:08:08Z</time>
      </trkpt>
      <trkpt lat="59.9636263" lon="17.7690679">
        <ele>36.1868</ele>
        <time>2012-10-08T19:08:09Z</time>
      </trkpt>
      <trkpt lat="59.9636409" lon="17.7690274">
        <ele>36.1868</ele>
        <time>2012-10-08T19:08:10Z</time>
      </trkpt>
      <trkpt lat="59.9636553" lon="17.7689814">
        <ele>36.6675</ele>
        <time>2012-10-08T19:08:11Z</time>
      </trkpt>
      <trkpt lat="59.9636703" lon="17.7689425">
        <ele>36.6675</ele>
        <time>2012-10-08T19:08:12Z</time>
      </trkpt>
      <trkpt lat="59.9636873" lon="17.7689088">
        <ele>37.1481</ele>
        <time>2012-10-08T19:08:13Z</time>
      </trkpt>
      <trkpt lat="59.9637041" lon="17.7688708">
        <ele>37.6287</ele>
        <time>2012-10-08T19:08:14Z</time>
      </trkpt>
      <trkpt lat="59.9637221" lon="17.7688255">
        <ele>38.5901</ele>
        <time>2012-10-08T19:08:15Z</time>
      </trkpt>
      <trkpt lat="59.9637361" lon="17.7687892">
        <ele>38.1094</ele>
        <time>2012-10-08T19:08:16Z</time>
      </trkpt>
      <trkpt lat="59.9637489" lon="17.7687475">
        <ele>38.1094</ele>
        <time>2012-10-08T19:08:17Z</time>
      </trkpt>
      <trkpt lat="59.9637651" lon="17.7687128">
        <ele>38.1094</ele>
        <time>2012-10-08T19:08:18Z</time>
      </trkpt>
      <trkpt lat="59.96378" lon="17.7686818">
        <ele>38.1094</ele>
        <time>2012-10-08T19:08:19Z</time>
      </trkpt>
      <trkpt lat="59.9637955" lon="17.7686466">
        <ele>38.1094</ele>
        <time>2012-10-08T19:08:20Z</time>
      </trkpt>
      <trkpt lat="59.963811" lon="17.7685997">
        <ele>38.5901</ele>
        <time>2012-10-08T19:08:21Z</time>
      </trkpt>
      <trkpt lat="59.9638252" lon="17.7685533">
        <ele>38.5901</ele>
        <time>2012-10-08T19:08:22Z</time>
      </trkpt>
      <trkpt lat="59.9638403" lon="17.7685083">
        <ele>38.5901</ele>
        <time>2012-10-08T19:08:23Z</time>
      </trkpt>
      <trkpt lat="59.9638536" lon="17.7684634">
        <ele>38.5901</ele>
        <time>2012-10-08T19:08:24Z</time>
      </trkpt>
      <trkpt lat="59.9638677" lon="17.7684214">
        <ele>38.5901</ele>
        <time>2012-10-08T19:08:25Z</time>
      </trkpt>
      <trkpt lat="59.9638827" lon="17.7683789">
        <ele>38.1094</ele>
        <time>2012-10-08T19:08:26Z</time>
      </trkpt>
      <trkpt lat="59.9638982" lon="17.7683302">
        <ele>38.5901</ele>
        <time>2012-10-08T19:08:27Z</time>
      </trkpt>
      <trkpt lat="59.9639164" lon="17.7682867">
        <ele>39.0707</ele>
        <time>2012-10-08T19:08:28Z</time>
      </trkpt>
      <trkpt lat="59.9639278" lon="17.7682412">
        <ele>39.0707</ele>
        <time>2012-10-08T19:08:29Z</time>
      </trkpt>
      <trkpt lat="59.9639356" lon="17.7681924">
        <ele>39.0707</ele>
        <time>2012-10-08T19:08:30Z</time>
      </trkpt>
      <trkpt lat="59.9639445" lon="17.7681458">
        <ele>38.5901</ele>
        <time>2012-10-08T19:08:31Z</time>
      </trkpt>
      <trkpt lat="59.9639595" lon="17.7681003">
        <ele>39.0707</ele>
        <time>2012-10-08T19:08:32Z</time>
      </trkpt>
      <trkpt lat="59.963978" lon="17.7680731">
        <ele>40.0321</ele>
        <time>2012-10-08T19:08:33Z</time>
      </trkpt>
      <trkpt lat="59.9639899" lon="17.7680278">
        <ele>40.0321</ele>
        <time>2012-10-08T19:08:34Z</time>
      </trkpt>
      <trkpt lat="59.9639972" lon="17.7679714">
        <ele>40.0321</ele>
        <time>2012-10-08T19:08:35Z</time>
      </trkpt>
      <trkpt lat="59.9640044" lon="17.7679203">
        <ele>40.5128</ele>
        <time>2012-10-08T19:08:36Z</time>
      </trkpt>
      <trkpt lat="59.9640151" lon="17.7678729">
        <ele>40.5128</ele>
        <time>2012-10-08T19:08:37Z</time>
      </trkpt>
      <trkpt lat="59.9640256" lon="17.7678325">
        <ele>40.0321</ele>
        <time>2012-10-08T19:08:38Z</time>
      </trkpt>
      <trkpt lat="59.9640338" lon="17.767794">
        <ele>39.5513</ele>
        <time>2012-10-08T19:08:39Z</time>
      </trkpt>
      <trkpt lat="59.964042" lon="17.7677517">
        <ele>39.5513</ele>
        <time>2012-10-08T19:08:40Z</time>
      </trkpt>
      <trkpt lat="59.9640508" lon="17.7677108">
        <ele>39.0707</ele>
        <time>2012-10-08T19:08:41Z</time>
      </trkpt>
      <trkpt lat="59.9640609" lon="17.7676623">
        <ele>39.0707</ele>
        <time>2012-10-08T19:08:42Z</time>
      </trkpt>
      <trkpt lat="59.9640708" lon="17.767611">
        <ele>39.0707</ele>
        <time>2012-10-08T19:08:43Z</time>
      </trkpt>
      <trkpt lat="59.9640795" lon="17.7675588">
        <ele>39.0707</ele>
        <time>2012-10-08T19:08:44Z</time>
      </trkpt>
      <trkpt lat="59.9640878" lon="17.7675105">
        <ele>39.0707</ele>
        <time>2012-10-08T19:08:45Z</time>
      </trkpt>
      <trkpt lat="59.9640955" lon="17.7674567">
        <ele>39.0707</ele>
        <time>2012-10-08T19:08:46Z</time>
      </trkpt>
      <trkpt lat="59.9641044" lon="17.7674077">
        <ele>38.1094</ele>
        <time>2012-10-08T19:08:47Z</time>
      </trkpt>
      <trkpt lat="59.9641153" lon="17.7673687">
        <ele>38.1094</ele>
        <time>2012-10-08T19:08:48Z</time>
      </trkpt>
      <trkpt lat="59.9641267" lon="17.7673252">
        <ele>38.5901</ele>
        <time>2012-10-08T19:08:49Z</time>
      </trkpt>
      <trkpt lat="59.9641355" lon="17.7672828">
        <ele>38.1094</ele>
        <time>2012-10-08T19:08:50Z</time>
      </trkpt>
      <trkpt lat="59.9641368" lon="17.7672383">
        <ele>37.6287</ele>
        <time>2012-10-08T19:08:51Z</time>
      </trkpt>
      <trkpt lat="59.9641381" lon="17.767194">
        <ele>37.6287</ele>
        <time>2012-10-08T19:08:52Z</time>
      </trkpt>
      <trkpt lat="59.9641382" lon="17.7671466">
        <ele>37.1481</ele>
        <time>2012-10-08T19:08:53Z</time>
      </trkpt>
      <trkpt lat="59.964137" lon="17.7671039">
        <ele>37.1481</ele>
        <time>2012-10-08T19:08:54Z</time>
      </trkpt>
      <trkpt lat="59.9641377" lon="17.7670641">
        <ele>36.6675</ele>
        <time>2012-10-08T19:08:55Z</time>
      </trkpt>
      <trkpt lat="59.9641381" lon="17.7670242">
        <ele>36.1868</ele>
        <time>2012-10-08T19:08:56Z</time>
      </trkpt>
      <trkpt lat="59.9641361" lon="17.766987">
        <ele>36.1868</ele>
        <time>2012-10-08T19:08:57Z</time>
      </trkpt>
      <trkpt lat="59.9641335" lon="17.7669363">
        <ele>35.7061</ele>
        <time>2012-10-08T19:08:58Z</time>
      </trkpt>
      <trkpt lat="59.9641301" lon="17.7668803">
        <ele>35.7061</ele>
        <time>2012-10-08T19:08:59Z</time>
      </trkpt>
      <trkpt lat="59.9641292" lon="17.7668363">
        <ele>35.7061</ele>
        <time>2012-10-08T19:09:00Z</time>
      </trkpt>
      <trkpt lat="59.9641287" lon="17.7667918">
        <ele>35.2255</ele>
        <time>2012-10-08T19:09:01Z</time>
      </trkpt>
      <trkpt lat="59.9641297" lon="17.7667432">
        <ele>35.2255</ele>
        <time>2012-10-08T19:09:02Z</time>
      </trkpt>
      <trkpt lat="59.9641298" lon="17.7666969">
        <ele>35.2255</ele>
        <time>2012-10-08T19:09:03Z</time>
      </trkpt>
      <trkpt lat="59.9641298" lon="17.7666504">
        <ele>34.7449</ele>
        <time>2012-10-08T19:09:04Z</time>
      </trkpt>
      <trkpt lat="59.9641288" lon="17.7666027">
        <ele>34.7449</ele>
        <time>2012-10-08T19:09:05Z</time>
      </trkpt>
      <trkpt lat="59.9641277" lon="17.7665544">
        <ele>34.7449</ele>
        <time>2012-10-08T19:09:06Z</time>
      </trkpt>
      <trkpt lat="59.964127" lon="17.7665053">
        <ele>34.2642</ele>
        <time>2012-10-08T19:09:07Z</time>
      </trkpt>
      <trkpt lat="59.9641282" lon="17.7664583">
        <ele>34.7449</ele>
        <time>2012-10-08T19:09:08Z</time>
      </trkpt>
      <trkpt lat="59.9641292" lon="17.7664219">
        <ele>34.2642</ele>
        <time>2012-10-08T19:09:09Z</time>
      </trkpt>
      <trkpt lat="59.9641297" lon="17.766387">
        <ele>33.3029</ele>
        <time>2012-10-08T19:09:10Z</time>
      </trkpt>
      <trkpt lat="59.9641339" lon="17.7663525">
        <ele>33.3029</ele>
        <time>2012-10-08T19:09:11Z</time>
      </trkpt>
      <trkpt lat="59.9641395" lon="17.7663184">
        <ele>32.8223</ele>
        <time>2012-10-08T19:09:12Z</time>
      </trkpt>
      <trkpt lat="59.9641449" lon="17.766272">
        <ele>32.3416</ele>
        <time>2012-10-08T19:09:13Z</time>
      </trkpt>
      <trkpt lat="59.964149" lon="17.7662225">
        <ele>31.8607</ele>
        <time>2012-10-08T19:09:14Z</time>
      </trkpt>
      <trkpt lat="59.9641484" lon="17.7661697">
        <ele>30.8995</ele>
        <time>2012-10-08T19:09:15Z</time>
      </trkpt>
      <trkpt lat="59.9641486" lon="17.7661178">
        <ele>30.8995</ele>
        <time>2012-10-08T19:09:16Z</time>
      </trkpt>
      <trkpt lat="59.9641408" lon="17.7660541">
        <ele>30.4188</ele>
        <time>2012-10-08T19:09:17Z</time>
      </trkpt>
      <trkpt lat="59.9641327" lon="17.7659976">
        <ele>29.9381</ele>
        <time>2012-10-08T19:09:18Z</time>
      </trkpt>
      <trkpt lat="59.9641219" lon="17.7659438">
        <ele>29.4575</ele>
        <time>2012-10-08T19:09:19Z</time>
      </trkpt>
      <trkpt lat="59.9641113" lon="17.7658888">
        <ele>28.9769</ele>
        <time>2012-10-08T19:09:20Z</time>
      </trkpt>
      <trkpt lat="59.9641075" lon="17.7658418">
        <ele>28.4962</ele>
        <time>2012-10-08T19:09:21Z</time>
      </trkpt>
      <trkpt lat="59.9641078" lon="17.7657934">
        <ele>28.0155</ele>
        <time>2012-10-08T19:09:22Z</time>
      </trkpt>
      <trkpt lat="59.9641096" lon="17.7657403">
        <ele>28.0155</ele>
        <time>2012-10-08T19:09:23Z</time>
      </trkpt>
      <trkpt lat="59.9641143" lon="17.7656882">
        <ele>27.5349</ele>
        <time>2012-10-08T19:09:24Z</time>
      </trkpt>
      <trkpt lat="59.9641164" lon="17.7656348">
        <ele>27.5349</ele>
        <time>2012-10-08T19:09:25Z</time>
      </trkpt>
      <trkpt lat="59.9641203" lon="17.765582">
        <ele>27.0543</ele>
        <time>2012-10-08T19:09:26Z</time>
      </trkpt>
      <trkpt lat="59.9641242" lon="17.7655302">
        <ele>26.5736</ele>
        <time>2012-10-08T19:09:27Z</time>
      </trkpt>
      <trkpt lat="59.9641271" lon="17.7654672">
        <ele>26.0929</ele>
        <time>2012-10-08T19:09:28Z</time>
      </trkpt>
      <trkpt lat="59.9641292" lon="17.7654157">
        <ele>26.0929</ele>
        <time>2012-10-08T19:09:29Z</time>
      </trkpt>
      <trkpt lat="59.964132" lon="17.7653847">
        <ele>25.6123</ele>
        <time>2012-10-08T19:09:30Z</time>
      </trkpt>
      <trkpt lat="59.9641376" lon="17.7653371">
        <ele>26.0929</ele>
        <time>2012-10-08T19:09:31Z</time>
      </trkpt>
      <trkpt lat="59.9641436" lon="17.7652839">
        <ele>25.6123</ele>
        <time>2012-10-08T19:09:32Z</time>
      </trkpt>
      <trkpt lat="59.9641544" lon="17.7652258">
        <ele>25.6123</ele>
        <time>2012-10-08T19:09:33Z</time>
      </trkpt>
      <trkpt lat="59.964163" lon="17.7651735">
        <ele>26.0929</ele>
        <time>2012-10-08T19:09:34Z</time>
      </trkpt>
      <trkpt lat="59.9641686" lon="17.7651256">
        <ele>26.0929</ele>
        <time>2012-10-08T19:09:35Z</time>
      </trkpt>
      <trkpt lat="59.9641765" lon="17.7650697">
        <ele>26.5736</ele>
        <time>2012-10-08T19:09:36Z</time>
      </trkpt>
      <trkpt lat="59.9641877" lon="17.765027">
        <ele>26.5736</ele>
        <time>2012-10-08T19:09:37Z</time>
      </trkpt>
      <trkpt lat="59.9642039" lon="17.765">
        <ele>26.5736</ele>
        <time>2012-10-08T19:09:38Z</time>
      </trkpt>
      <trkpt lat="59.9642233" lon="17.764959">
        <ele>27.0543</ele>
        <time>2012-10-08T19:09:39Z</time>
      </trkpt>
      <trkpt lat="59.9642324" lon="17.7648989">
        <ele>27.5349</ele>
        <time>2012-10-08T19:09:40Z</time>
      </trkpt>
      <trkpt lat="59.9642394" lon="17.7648341">
        <ele>27.5349</ele>
        <time>2012-10-08T19:09:41Z</time>
      </trkpt>
      <trkpt lat="59.9642552" lon="17.764789">
        <ele>28.0155</ele>
        <time>2012-10-08T19:09:42Z</time>
      </trkpt>
      <trkpt lat="59.964264" lon="17.7647411">
        <ele>28.0155</ele>
        <time>2012-10-08T19:09:43Z</time>
      </trkpt>
      <trkpt lat="59.9642708" lon="17.7646874">
        <ele>28.0155</ele>
        <time>2012-10-08T19:09:44Z</time>
      </trkpt>
      <trkpt lat="59.9642803" lon="17.7646366">
        <ele>28.4962</ele>
        <time>2012-10-08T19:09:45Z</time>
      </trkpt>
      <trkpt lat="59.9642891" lon="17.7645828">
        <ele>28.9769</ele>
        <time>2012-10-08T19:09:46Z</time>
      </trkpt>
      <trkpt lat="59.9642976" lon="17.7645196">
        <ele>29.4575</ele>
        <time>2012-10-08T19:09:47Z</time>
      </trkpt>
      <trkpt lat="59.964309" lon="17.7644667">
        <ele>29.4575</ele>
        <time>2012-10-08T19:09:48Z</time>
      </trkpt>
      <trkpt lat="59.9643219" lon="17.7644089">
        <ele>30.4188</ele>
        <time>2012-10-08T19:09:49Z</time>
      </trkpt>
      <trkpt lat="59.9643349" lon="17.7643581">
        <ele>30.8995</ele>
        <time>2012-10-08T19:09:50Z</time>
      </trkpt>
      <trkpt lat="59.9643454" lon="17.7643126">
        <ele>30.8995</ele>
        <time>2012-10-08T19:09:51Z</time>
      </trkpt>
      <trkpt lat="59.9643541" lon="17.7642499">
        <ele>31.3801</ele>
        <time>2012-10-08T19:09:52Z</time>
      </trkpt>
      <trkpt lat="59.9643677" lon="17.7641906">
        <ele>31.8607</ele>
        <time>2012-10-08T19:09:53Z</time>
      </trkpt>
      <trkpt lat="59.9643872" lon="17.7641426">
        <ele>32.3416</ele>
        <time>2012-10-08T19:09:54Z</time>
      </trkpt>
      <trkpt lat="59.9644018" lon="17.7640951">
        <ele>31.8607</ele>
        <time>2012-10-08T19:09:55Z</time>
      </trkpt>
      <trkpt lat="59.9644168" lon="17.7640446">
        <ele>31.8607</ele>
        <time>2012-10-08T19:09:56Z</time>
      </trkpt>
      <trkpt lat="59.9644287" lon="17.7640032">
        <ele>31.3801</ele>
        <time>2012-10-08T19:09:57Z</time>
      </trkpt>
      <trkpt lat="59.9644406" lon="17.7639656">
        <ele>30.4188</ele>
        <time>2012-10-08T19:09:58Z</time>
      </trkpt>
      <trkpt lat="59.9644585" lon="17.7639293">
        <ele>29.4575</ele>
        <time>2012-10-08T19:09:59Z</time>
      </trkpt>
      <trkpt lat="59.9644758" lon="17.7639021">
        <ele>28.4962</ele>
        <time>2012-10-08T19:10:00Z</time>
      </trkpt>
      <trkpt lat="59.9644913" lon="17.7638754">
        <ele>27.5349</ele>
        <time>2012-10-08T19:10:01Z</time>
      </trkpt>
      <trkpt lat="59.9645047" lon="17.7638461">
        <ele>26.5736</ele>
        <time>2012-10-08T19:10:02Z</time>
      </trkpt>
      <trkpt lat="59.9645163" lon="17.7638162">
        <ele>25.6123</ele>
        <time>2012-10-08T19:10:03Z</time>
      </trkpt>
      <trkpt lat="59.9645323" lon="17.7637926">
        <ele>25.1317</ele>
        <time>2012-10-08T19:10:04Z</time>
      </trkpt>
      <trkpt lat="59.9645422" lon="17.7637671">
        <ele>24.1703</ele>
        <time>2012-10-08T19:10:05Z</time>
      </trkpt>
      <trkpt lat="59.9645528" lon="17.763733">
        <ele>23.6896</ele>
        <time>2012-10-08T19:10:06Z</time>
      </trkpt>
      <trkpt lat="59.9645648" lon="17.7636992">
        <ele>23.209</ele>
        <time>2012-10-08T19:10:07Z</time>
      </trkpt>
      <trkpt lat="59.9645779" lon="17.7636614">
        <ele>22.7283</ele>
        <time>2012-10-08T19:10:08Z</time>
      </trkpt>
      <trkpt lat="59.9645937" lon="17.7636301">
        <ele>22.2476</ele>
        <time>2012-10-08T19:10:09Z</time>
      </trkpt>
      <trkpt lat="59.9646039" lon="17.7635977">
        <ele>21.767</ele>
        <time>2012-10-08T19:10:10Z</time>
      </trkpt>
      <trkpt lat="59.9646167" lon="17.7635625">
        <ele>21.767</ele>
        <time>2012-10-08T19:10:11Z</time>
      </trkpt>
      <trkpt lat="59.964626" lon="17.7635142">
        <ele>21.767</ele>
        <time>2012-10-08T19:10:12Z</time>
      </trkpt>
      <trkpt lat="59.9646342" lon="17.7634662">
        <ele>21.2864</ele>
        <time>2012-10-08T19:10:13Z</time>
      </trkpt>
      <trkpt lat="59.9646469" lon="17.763426">
        <ele>21.2864</ele>
        <time>2012-10-08T19:10:14Z</time>
      </trkpt>
      <trkpt lat="59.9646606" lon="17.7633955">
        <ele>20.8057</ele>
        <time>2012-10-08T19:10:15Z</time>
      </trkpt>
      <trkpt lat="59.964675" lon="17.7633566">
        <ele>19.8444</ele>
        <time>2012-10-08T19:10:16Z</time>
      </trkpt>
      <trkpt lat="59.964694" lon="17.7633143">
        <ele>19.3638</ele>
        <time>2012-10-08T19:10:17Z</time>
      </trkpt>
      <trkpt lat="59.9647098" lon="17.7632801">
        <ele>19.3638</ele>
        <time>2012-10-08T19:10:18Z</time>
      </trkpt>
      <trkpt lat="59.9647224" lon="17.7632393">
        <ele>18.8831</ele>
        <time>2012-10-08T19:10:19Z</time>
      </trkpt>
      <trkpt lat="59.9647352" lon="17.7631911">
        <ele>18.8831</ele>
        <time>2012-10-08T19:10:20Z</time>
      </trkpt>
      <trkpt lat="59.9647471" lon="17.7631491">
        <ele>18.4023</ele>
        <time>2012-10-08T19:10:21Z</time>
      </trkpt>
      <trkpt lat="59.9647579" lon="17.7630984">
        <ele>18.4023</ele>
        <time>2012-10-08T19:10:22Z</time>
      </trkpt>
      <trkpt lat="59.9647693" lon="17.7630518">
        <ele>18.4023</ele>
        <time>2012-10-08T19:10:23Z</time>
      </trkpt>
      <trkpt lat="59.9647785" lon="17.7630111">
        <ele>17.9218</ele>
        <time>2012-10-08T19:10:24Z</time>
      </trkpt>
      <trkpt lat="59.964784" lon="17.7629627">
        <ele>18.4023</ele>
        <time>2012-10-08T19:10:25Z</time>
      </trkpt>
      <trkpt lat="59.9647881" lon="17.7629148">
        <ele>17.9218</ele>
        <time>2012-10-08T19:10:26Z</time>
      </trkpt>
      <trkpt lat="59.964794" lon="17.762869">
        <ele>17.9218</ele>
        <time>2012-10-08T19:10:27Z</time>
      </trkpt>
      <trkpt lat="59.9647994" lon="17.7628108">
        <ele>18.4023</ele>
        <time>2012-10-08T19:10:28Z</time>
      </trkpt>
      <trkpt lat="59.9648066" lon="17.7627626">
        <ele>18.4023</ele>
        <time>2012-10-08T19:10:29Z</time>
      </trkpt>
      <trkpt lat="59.9648146" lon="17.7627189">
        <ele>17.9218</ele>
        <time>2012-10-08T19:10:30Z</time>
      </trkpt>
      <trkpt lat="59.964823" lon="17.7626723">
        <ele>17.9218</ele>
        <time>2012-10-08T19:10:31Z</time>
      </trkpt>
      <trkpt lat="59.9648353" lon="17.7626274">
        <ele>17.9218</ele>
        <time>2012-10-08T19:10:32Z</time>
      </trkpt>
      <trkpt lat="59.9648472" lon="17.7625865">
        <ele>17.4412</ele>
        <time>2012-10-08T19:10:33Z</time>
      </trkpt>
      <trkpt lat="59.9648586" lon="17.7625371">
        <ele>17.9218</ele>
        <time>2012-10-08T19:10:34Z</time>
      </trkpt>
      <trkpt lat="59.9648703" lon="17.7624954">
        <ele>17.9218</ele>
        <time>2012-10-08T19:10:35Z</time>
      </trkpt>
      <trkpt lat="59.9648814" lon="17.7624462">
        <ele>17.9218</ele>
        <time>2012-10-08T19:10:36Z</time>
      </trkpt>
      <trkpt lat="59.9648928" lon="17.7623969">
        <ele>18.4023</ele>
        <time>2012-10-08T19:10:37Z</time>
      </trkpt>
      <trkpt lat="59.9649053" lon="17.7623519">
        <ele>18.4023</ele>
        <time>2012-10-08T19:10:38Z</time>
      </trkpt>
      <trkpt lat="59.9649177" lon="17.7623097">
        <ele>18.4023</ele>
        <time>2012-10-08T19:10:39Z</time>
      </trkpt>
      <trkpt lat="59.9649286" lon="17.7622706">
        <ele>18.8831</ele>
        <time>2012-10-08T19:10:40Z</time>
      </trkpt>
      <trkpt lat="59.964939" lon="17.7622187">
        <ele>19.8444</ele>
        <time>2012-10-08T19:10:41Z</time>
      </trkpt>
      <trkpt lat="59.9649522" lon="17.7621706">
        <ele>19.8444</ele>
        <time>2012-10-08T19:10:42Z</time>
      </trkpt>
      <trkpt lat="59.9649662" lon="17.7621209">
        <ele>20.325</ele>
        <time>2012-10-08T19:10:43Z</time>
      </trkpt>
      <trkpt lat="59.9649792" lon="17.7620727">
        <ele>20.8057</ele>
        <time>2012-10-08T19:10:44Z</time>
      </trkpt>
      <trkpt lat="59.9649963" lon="17.7620271">
        <ele>20.8057</ele>
        <time>2012-10-08T19:10:45Z</time>
      </trkpt>
      <trkpt lat="59.9650114" lon="17.7619854">
        <ele>21.2864</ele>
        <time>2012-10-08T19:10:46Z</time>
      </trkpt>
      <trkpt lat="59.9650259" lon="17.7619406">
        <ele>21.767</ele>
        <time>2012-10-08T19:10:47Z</time>
      </trkpt>
      <trkpt lat="59.9650431" lon="17.7618945">
        <ele>21.767</ele>
        <time>2012-10-08T19:10:48Z</time>
      </trkpt>
      <trkpt lat="59.9650575" lon="17.7618422">
        <ele>22.2476</ele>
        <time>2012-10-08T19:10:49Z</time>
      </trkpt>
      <trkpt lat="59.9650736" lon="17.7617923">
        <ele>22.7283</ele>
        <time>2012-10-08T19:10:50Z</time>
      </trkpt>
      <trkpt lat="59.9650923" lon="17.7617588">
        <ele>22.7283</ele>
        <time>2012-10-08T19:10:51Z</time>
      </trkpt>
      <trkpt lat="59.9651104" lon="17.7617215">
        <ele>22.7283</ele>
        <time>2012-10-08T19:10:52Z</time>
      </trkpt>
      <trkpt lat="59.9651248" lon="17.7616712">
        <ele>22.7283</ele>
        <time>2012-10-08T19:10:53Z</time>
      </trkpt>
      <trkpt lat="59.9651385" lon="17.7616308">
        <ele>23.209</ele>
        <time>2012-10-08T19:10:54Z</time>
      </trkpt>
      <trkpt lat="59.9651523" lon="17.761593">
        <ele>22.7283</ele>
        <time>2012-10-08T19:10:55Z</time>
      </trkpt>
      <trkpt lat="59.9651653" lon="17.7615531">
        <ele>22.7283</ele>
        <time>2012-10-08T19:10:56Z</time>
      </trkpt>
      <trkpt lat="59.9651782" lon="17.7615117">
        <ele>22.7283</ele>
        <time>2012-10-08T19:10:57Z</time>
      </trkpt>
      <trkpt lat="59.9651925" lon="17.7614748">
        <ele>22.2476</ele>
        <time>2012-10-08T19:10:58Z</time>
      </trkpt>
      <trkpt lat="59.9652042" lon="17.761434">
        <ele>22.2476</ele>
        <time>2012-10-08T19:10:59Z</time>
      </trkpt>
      <trkpt lat="59.965215" lon="17.7613872">
        <ele>22.7283</ele>
        <time>2012-10-08T19:11:00Z</time>
      </trkpt>
      <trkpt lat="59.9652305" lon="17.7613403">
        <ele>22.7283</ele>
        <time>2012-10-08T19:11:01Z</time>
      </trkpt>
      <trkpt lat="59.9652461" lon="17.7612942">
        <ele>22.7283</ele>
        <time>2012-10-08T19:11:02Z</time>
      </trkpt>
      <trkpt lat="59.9652575" lon="17.7612448">
        <ele>23.209</ele>
        <time>2012-10-08T19:11:03Z</time>
      </trkpt>
      <trkpt lat="59.9652708" lon="17.7612029">
        <ele>23.209</ele>
        <time>2012-10-08T19:11:04Z</time>
      </trkpt>
      <trkpt lat="59.9652849" lon="17.7611662">
        <ele>23.209</ele>
        <time>2012-10-08T19:11:05Z</time>
      </trkpt>
      <trkpt lat="59.965298" lon="17.7611243">
        <ele>23.209</ele>
        <time>2012-10-08T19:11:06Z</time>
      </trkpt>
      <trkpt lat="59.9653113" lon="17.7610828">
        <ele>23.6896</ele>
        <time>2012-10-08T19:11:07Z</time>
      </trkpt>
      <trkpt lat="59.9653238" lon="17.7610377">
        <ele>24.1703</ele>
        <time>2012-10-08T19:11:08Z</time>
      </trkpt>
      <trkpt lat="59.9653389" lon="17.7609987">
        <ele>24.651</ele>
        <time>2012-10-08T19:11:09Z</time>
      </trkpt>
      <trkpt lat="59.965355" lon="17.760963">
        <ele>24.1703</ele>
        <time>2012-10-08T19:11:10Z</time>
      </trkpt>
      <trkpt lat="59.9653692" lon="17.7609398">
        <ele>24.1703</ele>
        <time>2012-10-08T19:11:11Z</time>
      </trkpt>
      <trkpt lat="59.9653822" lon="17.7609155">
        <ele>24.1703</ele>
        <time>2012-10-08T19:11:12Z</time>
      </trkpt>
      <trkpt lat="59.9653982" lon="17.7608881">
        <ele>24.651</ele>
        <time>2012-10-08T19:11:13Z</time>
      </trkpt>
      <trkpt lat="59.9654232" lon="17.7608585">
        <ele>25.1317</ele>
        <time>2012-10-08T19:11:14Z</time>
      </trkpt>
      <trkpt lat="59.9654459" lon="17.7608272">
        <ele>25.1317</ele>
        <time>2012-10-08T19:11:15Z</time>
      </trkpt>
      <trkpt lat="59.9654645" lon="17.7607931">
        <ele>25.6123</ele>
        <time>2012-10-08T19:11:16Z</time>
      </trkpt>
      <trkpt lat="59.9654834" lon="17.7607641">
        <ele>26.0929</ele>
        <time>2012-10-08T19:11:17Z</time>
      </trkpt>
      <trkpt lat="59.9655003" lon="17.7607422">
        <ele>25.6123</ele>
        <time>2012-10-08T19:11:18Z</time>
      </trkpt>
      <trkpt lat="59.9655179" lon="17.7607118">
        <ele>25.6123</ele>
        <time>2012-10-08T19:11:19Z</time>
      </trkpt>
      <trkpt lat="59.9655377" lon="17.7606809">
        <ele>25.6123</ele>
        <time>2012-10-08T19:11:20Z</time>
      </trkpt>
      <trkpt lat="59.9655583" lon="17.7606513">
        <ele>26.0929</ele>
        <time>2012-10-08T19:11:21Z</time>
      </trkpt>
      <trkpt lat="59.965579" lon="17.7606238">
        <ele>26.0929</ele>
        <time>2012-10-08T19:11:22Z</time>
      </trkpt>
      <trkpt lat="59.9656019" lon="17.7605989">
        <ele>25.6123</ele>
        <time>2012-10-08T19:11:23Z</time>
      </trkpt>
      <trkpt lat="59.9656247" lon="17.760583">
        <ele>25.6123</ele>
        <time>2012-10-08T19:11:24Z</time>
      </trkpt>
      <trkpt lat="59.9656456" lon="17.7605658">
        <ele>25.6123</ele>
        <time>2012-10-08T19:11:25Z</time>
      </trkpt>
      <trkpt lat="59.9656653" lon="17.7605466">
        <ele>25.1317</ele>
        <time>2012-10-08T19:11:26Z</time>
      </trkpt>
      <trkpt lat="59.965687" lon="17.760527">
        <ele>25.1317</ele>
        <time>2012-10-08T19:11:27Z</time>
      </trkpt>
      <trkpt lat="59.9657051" lon="17.7605083">
        <ele>25.1317</ele>
        <time>2012-10-08T19:11:28Z</time>
      </trkpt>
      <trkpt lat="59.9657225" lon="17.7604782">
        <ele>25.6123</ele>
        <time>2012-10-08T19:11:29Z</time>
      </trkpt>
      <trkpt lat="59.9657428" lon="17.7604528">
        <ele>25.1317</ele>
        <time>2012-10-08T19:11:30Z</time>
      </trkpt>
      <trkpt lat="59.9657616" lon="17.7604233">
        <ele>25.1317</ele>
        <time>2012-10-08T19:11:31Z</time>
      </trkpt>
      <trkpt lat="59.9657764" lon="17.7603885">
        <ele>25.1317</ele>
        <time>2012-10-08T19:11:32Z</time>
      </trkpt>
      <trkpt lat="59.9657952" lon="17.7603492">
        <ele>26.0929</ele>
        <time>2012-10-08T19:11:33Z</time>
      </trkpt>
      <trkpt lat="59.9658136" lon="17.7603318">
        <ele>25.6123</ele>
        <time>2012-10-08T19:11:34Z</time>
      </trkpt>
      <trkpt lat="59.9658339" lon="17.7603063">
        <ele>25.6123</ele>
        <time>2012-10-08T19:11:35Z</time>
      </trkpt>
      <trkpt lat="59.9658537" lon="17.7602815">
        <ele>25.6123</ele>
        <time>2012-10-08T19:11:36Z</time>
      </trkpt>
      <trkpt lat="59.9658739" lon="17.7602556">
        <ele>25.1317</ele>
        <time>2012-10-08T19:11:37Z</time>
      </trkpt>
      <trkpt lat="59.9658921" lon="17.7602291">
        <ele>25.1317</ele>
        <time>2012-10-08T19:11:38Z</time>
      </trkpt>
      <trkpt lat="59.965908" lon="17.7602073">
        <ele>24.651</ele>
        <time>2012-10-08T19:11:39Z</time>
      </trkpt>
      <trkpt lat="59.9659242" lon="17.7601771">
        <ele>24.651</ele>
        <time>2012-10-08T19:11:40Z</time>
      </trkpt>
      <trkpt lat="59.9659391" lon="17.7601422">
        <ele>24.651</ele>
        <time>2012-10-08T19:11:41Z</time>
      </trkpt>
      <trkpt lat="59.9659579" lon="17.7601118">
        <ele>24.1703</ele>
        <time>2012-10-08T19:11:42Z</time>
      </trkpt>
      <trkpt lat="59.965978" lon="17.7600825">
        <ele>23.6896</ele>
        <time>2012-10-08T19:11:43Z</time>
      </trkpt>
      <trkpt lat="59.965993" lon="17.7600522">
        <ele>23.6896</ele>
        <time>2012-10-08T19:11:44Z</time>
      </trkpt>
      <trkpt lat="59.9660076" lon="17.7600183">
        <ele>23.6896</ele>
        <time>2012-10-08T19:11:45Z</time>
      </trkpt>
      <trkpt lat="59.9660262" lon="17.759996">
        <ele>23.209</ele>
        <time>2012-10-08T19:11:46Z</time>
      </trkpt>
      <trkpt lat="59.9660443" lon="17.7599747">
        <ele>22.7283</ele>
        <time>2012-10-08T19:11:47Z</time>
      </trkpt>
      <trkpt lat="59.966061" lon="17.7599429">
        <ele>22.7283</ele>
        <time>2012-10-08T19:11:48Z</time>
      </trkpt>
      <trkpt lat="59.966078" lon="17.7599067">
        <ele>22.2476</ele>
        <time>2012-10-08T19:11:49Z</time>
      </trkpt>
      <trkpt lat="59.9660932" lon="17.7598714">
        <ele>22.2476</ele>
        <time>2012-10-08T19:11:50Z</time>
      </trkpt>
      <trkpt lat="59.9661099" lon="17.7598338">
        <ele>22.2476</ele>
        <time>2012-10-08T19:11:51Z</time>
      </trkpt>
      <trkpt lat="59.9661294" lon="17.7597996">
        <ele>21.767</ele>
        <time>2012-10-08T19:11:52Z</time>
      </trkpt>
      <trkpt lat="59.9661479" lon="17.7597694">
        <ele>21.2864</ele>
        <time>2012-10-08T19:11:53Z</time>
      </trkpt>
      <trkpt lat="59.9661665" lon="17.7597295">
        <ele>21.767</ele>
        <time>2012-10-08T19:11:54Z</time>
      </trkpt>
      <trkpt lat="59.9661864" lon="17.7596981">
        <ele>21.767</ele>
        <time>2012-10-08T19:11:55Z</time>
      </trkpt>
      <trkpt lat="59.9662054" lon="17.7596727">
        <ele>21.767</ele>
        <time>2012-10-08T19:11:56Z</time>
      </trkpt>
      <trkpt lat="59.9662215" lon="17.7596506">
        <ele>21.2864</ele>
        <time>2012-10-08T19:11:57Z</time>
      </trkpt>
      <trkpt lat="59.9662386" lon="17.75962">
        <ele>21.2864</ele>
        <time>2012-10-08T19:11:58Z</time>
      </trkpt>
      <trkpt lat="59.9662577" lon="17.7595928">
        <ele>20.8057</ele>
        <time>2012-10-08T19:11:59Z</time>
      </trkpt>
      <trkpt lat="59.9662763" lon="17.7595643">
        <ele>20.8057</ele>
        <time>2012-10-08T19:12:00Z</time>
      </trkpt>
      <trkpt lat="59.9662941" lon="17.7595344">
        <ele>20.8057</ele>
        <time>2012-10-08T19:12:01Z</time>
      </trkpt>
      <trkpt lat="59.9663151" lon="17.7595028">
        <ele>20.8057</ele>
        <time>2012-10-08T19:12:02Z</time>
      </trkpt>
      <trkpt lat="59.966335" lon="17.7594736">
        <ele>20.325</ele>
        <time>2012-10-08T19:12:03Z</time>
      </trkpt>
      <trkpt lat="59.9663552" lon="17.7594444">
        <ele>20.325</ele>
        <time>2012-10-08T19:12:04Z</time>
      </trkpt>
      <trkpt lat="59.9663793" lon="17.7594205">
        <ele>19.8444</ele>
        <time>2012-10-08T19:12:05Z</time>
      </trkpt>
      <trkpt lat="59.9664013" lon="17.7593907">
        <ele>19.8444</ele>
        <time>2012-10-08T19:12:06Z</time>
      </trkpt>
      <trkpt lat="59.966421" lon="17.7593633">
        <ele>19.8444</ele>
        <time>2012-10-08T19:12:07Z</time>
      </trkpt>
      <trkpt lat="59.9664428" lon="17.759337">
        <ele>19.3638</ele>
        <time>2012-10-08T19:12:08Z</time>
      </trkpt>
      <trkpt lat="59.9664633" lon="17.7593033">
        <ele>19.3638</ele>
        <time>2012-10-08T19:12:09Z</time>
      </trkpt>
      <trkpt lat="59.9664851" lon="17.7592722">
        <ele>19.3638</ele>
        <time>2012-10-08T19:12:10Z</time>
      </trkpt>
      <trkpt lat="59.9665064" lon="17.7592439">
        <ele>18.8831</ele>
        <time>2012-10-08T19:12:11Z</time>
      </trkpt>
      <trkpt lat="59.9665241" lon="17.7592059">
        <ele>18.8831</ele>
        <time>2012-10-08T19:12:12Z</time>
      </trkpt>
      <trkpt lat="59.9665435" lon="17.7591768">
        <ele>18.8831</ele>
        <time>2012-10-08T19:12:13Z</time>
      </trkpt>
      <trkpt lat="59.9665665" lon="17.7591506">
        <ele>18.4023</ele>
        <time>2012-10-08T19:12:14Z</time>
      </trkpt>
      <trkpt lat="59.9665883" lon="17.7591208">
        <ele>18.8831</ele>
        <time>2012-10-08T19:12:15Z</time>
      </trkpt>
      <trkpt lat="59.9666083" lon="17.759097">
        <ele>18.8831</ele>
        <time>2012-10-08T19:12:16Z</time>
      </trkpt>
      <trkpt lat="59.9666302" lon="17.7590759">
        <ele>18.4023</ele>
        <time>2012-10-08T19:12:17Z</time>
      </trkpt>
      <trkpt lat="59.9666511" lon="17.7590481">
        <ele>17.9218</ele>
        <time>2012-10-08T19:12:18Z</time>
      </trkpt>
      <trkpt lat="59.9666731" lon="17.7590298">
        <ele>17.9218</ele>
        <time>2012-10-08T19:12:19Z</time>
      </trkpt>
      <trkpt lat="59.9666969" lon="17.7590174">
        <ele>17.4412</ele>
        <time>2012-10-08T19:12:20Z</time>
      </trkpt>
      <trkpt lat="59.9667167" lon="17.7590027">
        <ele>17.4412</ele>
        <time>2012-10-08T19:12:21Z</time>
      </trkpt>
      <trkpt lat="59.9667364" lon="17.7589848">
        <ele>17.4412</ele>
        <time>2012-10-08T19:12:22Z</time>
      </trkpt>
      <trkpt lat="59.9667596" lon="17.7589647">
        <ele>17.4412</ele>
        <time>2012-10-08T19:12:23Z</time>
      </trkpt>
      <trkpt lat="59.9667805" lon="17.7589403">
        <ele>17.9218</ele>
        <time>2012-10-08T19:12:24Z</time>
      </trkpt>
      <trkpt lat="59.9667996" lon="17.7589226">
        <ele>17.4412</ele>
        <time>2012-10-08T19:12:25Z</time>
      </trkpt>
      <trkpt lat="59.966822" lon="17.7589057">
        <ele>17.4412</ele>
        <time>2012-10-08T19:12:26Z</time>
      </trkpt>
      <trkpt lat="59.9668427" lon="17.7588857">
        <ele>17.4412</ele>
        <time>2012-10-08T19:12:27Z</time>
      </trkpt>
      <trkpt lat="59.9668627" lon="17.7588662">
        <ele>17.4412</ele>
        <time>2012-10-08T19:12:28Z</time>
      </trkpt>
      <trkpt lat="59.9668836" lon="17.7588491">
        <ele>17.4412</ele>
        <time>2012-10-08T19:12:29Z</time>
      </trkpt>
      <trkpt lat="59.9669022" lon="17.7588264">
        <ele>17.4412</ele>
        <time>2012-10-08T19:12:30Z</time>
      </trkpt>
      <trkpt lat="59.9669215" lon="17.7587971">
        <ele>17.4412</ele>
        <time>2012-10-08T19:12:31Z</time>
      </trkpt>
      <trkpt lat="59.9669439" lon="17.7587709">
        <ele>16.9604</ele>
        <time>2012-10-08T19:12:32Z</time>
      </trkpt>
      <trkpt lat="59.966965" lon="17.758746">
        <ele>16.9604</ele>
        <time>2012-10-08T19:12:33Z</time>
      </trkpt>
      <trkpt lat="59.9669876" lon="17.7587268">
        <ele>16.9604</ele>
        <time>2012-10-08T19:12:34Z</time>
      </trkpt>
      <trkpt lat="59.9670116" lon="17.7587163">
        <ele>16.4797</ele>
        <time>2012-10-08T19:12:35Z</time>
      </trkpt>
      <trkpt lat="59.9670333" lon="17.7586997">
        <ele>15.999</ele>
        <time>2012-10-08T19:12:36Z</time>
      </trkpt>
      <trkpt lat="59.9670564" lon="17.7586864">
        <ele>15.999</ele>
        <time>2012-10-08T19:12:37Z</time>
      </trkpt>
      <trkpt lat="59.9670818" lon="17.7586775">
        <ele>15.5184</ele>
        <time>2012-10-08T19:12:38Z</time>
      </trkpt>
      <trkpt lat="59.9671033" lon="17.758659">
        <ele>15.0377</ele>
        <time>2012-10-08T19:12:39Z</time>
      </trkpt>
      <trkpt lat="59.9671244" lon="17.7586389">
        <ele>15.0377</ele>
        <time>2012-10-08T19:12:40Z</time>
      </trkpt>
      <trkpt lat="59.9671462" lon="17.7586232">
        <ele>15.0377</ele>
        <time>2012-10-08T19:12:41Z</time>
      </trkpt>
      <trkpt lat="59.967167" lon="17.7586087">
        <ele>15.0377</ele>
        <time>2012-10-08T19:12:42Z</time>
      </trkpt>
      <trkpt lat="59.9671872" lon="17.7585958">
        <ele>15.0377</ele>
        <time>2012-10-08T19:12:43Z</time>
      </trkpt>
      <trkpt lat="59.9672074" lon="17.7585777">
        <ele>15.0377</ele>
        <time>2012-10-08T19:12:44Z</time>
      </trkpt>
      <trkpt lat="59.9672265" lon="17.7585624">
        <ele>15.5184</ele>
        <time>2012-10-08T19:12:45Z</time>
      </trkpt>
      <trkpt lat="59.9672433" lon="17.758517">
        <ele>16.4797</ele>
        <time>2012-10-08T19:12:46Z</time>
      </trkpt>
      <trkpt lat="59.967261" lon="17.7584926">
        <ele>16.4797</ele>
        <time>2012-10-08T19:12:47Z</time>
      </trkpt>
      <trkpt lat="59.9672793" lon="17.7584668">
        <ele>16.4797</ele>
        <time>2012-10-08T19:12:48Z</time>
      </trkpt>
      <trkpt lat="59.967298" lon="17.7584386">
        <ele>15.999</ele>
        <time>2012-10-08T19:12:49Z</time>
      </trkpt>
      <trkpt lat="59.96732" lon="17.7584172">
        <ele>15.999</ele>
        <time>2012-10-08T19:12:50Z</time>
      </trkpt>
      <trkpt lat="59.9673408" lon="17.7584046">
        <ele>15.999</ele>
        <time>2012-10-08T19:12:51Z</time>
      </trkpt>
      <trkpt lat="59.9673638" lon="17.7583927">
        <ele>15.5184</ele>
        <time>2012-10-08T19:12:52Z</time>
      </trkpt>
      <trkpt lat="59.9673868" lon="17.758372">
        <ele>15.5184</ele>
        <time>2012-10-08T19:12:53Z</time>
      </trkpt>
      <trkpt lat="59.9674063" lon="17.7583549">
        <ele>15.5184</ele>
        <time>2012-10-08T19:12:54Z</time>
      </trkpt>
      <trkpt lat="59.9674259" lon="17.7583356">
        <ele>15.0377</ele>
        <time>2012-10-08T19:12:55Z</time>
      </trkpt>
      <trkpt lat="59.9674496" lon="17.7583138">
        <ele>15.0377</ele>
        <time>2012-10-08T19:12:56Z</time>
      </trkpt>
      <trkpt lat="59.967473" lon="17.7582916">
        <ele>14.557</ele>
        <time>2012-10-08T19:12:57Z</time>
      </trkpt>
      <trkpt lat="59.9674938" lon="17.758275">
        <ele>14.557</ele>
        <time>2012-10-08T19:12:58Z</time>
      </trkpt>
      <trkpt lat="59.9675156" lon="17.7582622">
        <ele>14.0764</ele>
        <time>2012-10-08T19:12:59Z</time>
      </trkpt>
      <trkpt lat="59.9675357" lon="17.7582446">
        <ele>13.5958</ele>
        <time>2012-10-08T19:13:00Z</time>
      </trkpt>
      <trkpt lat="59.9675533" lon="17.7582268">
        <ele>13.5958</ele>
        <time>2012-10-08T19:13:01Z</time>
      </trkpt>
      <trkpt lat="59.9675725" lon="17.7582088">
        <ele>13.1151</ele>
        <time>2012-10-08T19:13:02Z</time>
      </trkpt>
      <trkpt lat="59.9675938" lon="17.7581876">
        <ele>12.6344</ele>
        <time>2012-10-08T19:13:03Z</time>
      </trkpt>
      <trkpt lat="59.9676127" lon="17.7581628">
        <ele>12.6344</ele>
        <time>2012-10-08T19:13:04Z</time>
      </trkpt>
      <trkpt lat="59.9676303" lon="17.7581478">
        <ele>12.6344</ele>
        <time>2012-10-08T19:13:05Z</time>
      </trkpt>
      <trkpt lat="59.9676491" lon="17.7581341">
        <ele>12.1538</ele>
        <time>2012-10-08T19:13:06Z</time>
      </trkpt>
      <trkpt lat="59.9676662" lon="17.7581135">
        <ele>11.6732</ele>
        <time>2012-10-08T19:13:07Z</time>
      </trkpt>
      <trkpt lat="59.9676812" lon="17.758091">
        <ele>11.6732</ele>
        <time>2012-10-08T19:13:08Z</time>
      </trkpt>
      <trkpt lat="59.9676984" lon="17.7580708">
        <ele>11.6732</ele>
        <time>2012-10-08T19:13:09Z</time>
      </trkpt>
      <trkpt lat="59.9677168" lon="17.7580517">
        <ele>12.1538</ele>
        <time>2012-10-08T19:13:10Z</time>
      </trkpt>
      <trkpt lat="59.9677409" lon="17.7580628">
        <ele>12.6344</ele>
        <time>2012-10-08T19:13:11Z</time>
      </trkpt>
      <trkpt lat="59.9677674" lon="17.7580721">
        <ele>12.1538</ele>
        <time>2012-10-08T19:13:12Z</time>
      </trkpt>
      <trkpt lat="59.9677909" lon="17.7580451">
        <ele>12.6344</ele>
        <time>2012-10-08T19:13:13Z</time>
      </trkpt>
      <trkpt lat="59.9678106" lon="17.7580173">
        <ele>13.1151</ele>
        <time>2012-10-08T19:13:14Z</time>
      </trkpt>
      <trkpt lat="59.9678275" lon="17.7579957">
        <ele>13.1151</ele>
        <time>2012-10-08T19:13:15Z</time>
      </trkpt>
      <trkpt lat="59.9678435" lon="17.7579667">
        <ele>13.1151</ele>
        <time>2012-10-08T19:13:16Z</time>
      </trkpt>
      <trkpt lat="59.9678583" lon="17.7579359">
        <ele>13.1151</ele>
        <time>2012-10-08T19:13:17Z</time>
      </trkpt>
      <trkpt lat="59.9678729" lon="17.7579004">
        <ele>12.6344</ele>
        <time>2012-10-08T19:13:18Z</time>
      </trkpt>
      <trkpt lat="59.9678924" lon="17.7578659">
        <ele>12.1538</ele>
        <time>2012-10-08T19:13:19Z</time>
      </trkpt>
      <trkpt lat="59.9679116" lon="17.7578396">
        <ele>12.1538</ele>
        <time>2012-10-08T19:13:20Z</time>
      </trkpt>
      <trkpt lat="59.967931" lon="17.7578113">
        <ele>12.1538</ele>
        <time>2012-10-08T19:13:21Z</time>
      </trkpt>
      <trkpt lat="59.9679506" lon="17.7577815">
        <ele>11.6732</ele>
        <time>2012-10-08T19:13:22Z</time>
      </trkpt>
      <trkpt lat="59.967968" lon="17.7577505">
        <ele>11.6732</ele>
        <time>2012-10-08T19:13:23Z</time>
      </trkpt>
      <trkpt lat="59.9679851" lon="17.7577266">
        <ele>11.6732</ele>
        <time>2012-10-08T19:13:24Z</time>
      </trkpt>
      <trkpt lat="59.9680051" lon="17.7576984">
        <ele>12.1538</ele>
        <time>2012-10-08T19:13:25Z</time>
      </trkpt>
      <trkpt lat="59.9680263" lon="17.7576582">
        <ele>12.6344</ele>
        <time>2012-10-08T19:13:26Z</time>
      </trkpt>
      <trkpt lat="59.9680463" lon="17.7576279">
        <ele>12.6344</ele>
        <time>2012-10-08T19:13:27Z</time>
      </trkpt>
      <trkpt lat="59.9680702" lon="17.7576188">
        <ele>12.6344</ele>
        <time>2012-10-08T19:13:28Z</time>
      </trkpt>
      <trkpt lat="59.9680932" lon="17.7576105">
        <ele>12.6344</ele>
        <time>2012-10-08T19:13:29Z</time>
      </trkpt>
      <trkpt lat="59.9681132" lon="17.7575936">
        <ele>12.6344</ele>
        <time>2012-10-08T19:13:30Z</time>
      </trkpt>
      <trkpt lat="59.968135" lon="17.7575746">
        <ele>12.6344</ele>
        <time>2012-10-08T19:13:31Z</time>
      </trkpt>
      <trkpt lat="59.9681578" lon="17.7575587">
        <ele>12.1538</ele>
        <time>2012-10-08T19:13:32Z</time>
      </trkpt>
      <trkpt lat="59.9681775" lon="17.7575404">
        <ele>12.1538</ele>
        <time>2012-10-08T19:13:33Z</time>
      </trkpt>
      <trkpt lat="59.9681961" lon="17.757522">
        <ele>11.6732</ele>
        <time>2012-10-08T19:13:34Z</time>
      </trkpt>
      <trkpt lat="59.9682147" lon="17.7574981">
        <ele>11.1925</ele>
        <time>2012-10-08T19:13:35Z</time>
      </trkpt>
      <trkpt lat="59.968232" lon="17.7574726">
        <ele>11.1925</ele>
        <time>2012-10-08T19:13:36Z</time>
      </trkpt>
      <trkpt lat="59.9682475" lon="17.7574484">
        <ele>10.7118</ele>
        <time>2012-10-08T19:13:37Z</time>
      </trkpt>
      <trkpt lat="59.9682671" lon="17.7574254">
        <ele>10.7118</ele>
        <time>2012-10-08T19:13:38Z</time>
      </trkpt>
      <trkpt lat="59.9682863" lon="17.7573987">
        <ele>10.7118</ele>
        <time>2012-10-08T19:13:39Z</time>
      </trkpt>
      <trkpt lat="59.968305" lon="17.7573715">
        <ele>10.2312</ele>
        <time>2012-10-08T19:13:40Z</time>
      </trkpt>
      <trkpt lat="59.9683237" lon="17.7573418">
        <ele>10.7118</ele>
        <time>2012-10-08T19:13:41Z</time>
      </trkpt>
      <trkpt lat="59.9683415" lon="17.7573159">
        <ele>10.2312</ele>
        <time>2012-10-08T19:13:42Z</time>
      </trkpt>
      <trkpt lat="59.9683614" lon="17.7572882">
        <ele>10.2312</ele>
        <time>2012-10-08T19:13:43Z</time>
      </trkpt>
      <trkpt lat="59.9683819" lon="17.7572612">
        <ele>9.75061</ele>
        <time>2012-10-08T19:13:44Z</time>
      </trkpt>
      <trkpt lat="59.9684029" lon="17.7572371">
        <ele>9.75061</ele>
        <time>2012-10-08T19:13:45Z</time>
      </trkpt>
      <trkpt lat="59.9684198" lon="17.7571635">
        <ele>11.6732</ele>
        <time>2012-10-08T19:13:46Z</time>
      </trkpt>
      <trkpt lat="59.9684345" lon="17.7571073">
        <ele>12.6344</ele>
        <time>2012-10-08T19:13:47Z</time>
      </trkpt>
      <trkpt lat="59.9684498" lon="17.7570778">
        <ele>12.6344</ele>
        <time>2012-10-08T19:13:48Z</time>
      </trkpt>
      <trkpt lat="59.9684679" lon="17.757045">
        <ele>12.6344</ele>
        <time>2012-10-08T19:13:49Z</time>
      </trkpt>
      <trkpt lat="59.9684886" lon="17.7570102">
        <ele>13.1151</ele>
        <time>2012-10-08T19:13:50Z</time>
      </trkpt>
      <trkpt lat="59.968507" lon="17.7569792">
        <ele>13.1151</ele>
        <time>2012-10-08T19:13:51Z</time>
      </trkpt>
      <trkpt lat="59.9685246" lon="17.7569531">
        <ele>12.6344</ele>
        <time>2012-10-08T19:13:52Z</time>
      </trkpt>
      <trkpt lat="59.9685421" lon="17.7569313">
        <ele>13.1151</ele>
        <time>2012-10-08T19:13:53Z</time>
      </trkpt>
      <trkpt lat="59.9685615" lon="17.7569071">
        <ele>13.1151</ele>
        <time>2012-10-08T19:13:54Z</time>
      </trkpt>
      <trkpt lat="59.9685801" lon="17.7568799">
        <ele>13.1151</ele>
        <time>2012-10-08T19:13:55Z</time>
      </trkpt>
      <trkpt lat="59.9685981" lon="17.7568557">
        <ele>12.6344</ele>
        <time>2012-10-08T19:13:56Z</time>
      </trkpt>
      <trkpt lat="59.9686192" lon="17.7568283">
        <ele>13.1151</ele>
        <time>2012-10-08T19:13:57Z</time>
      </trkpt>
      <trkpt lat="59.9686363" lon="17.7568051">
        <ele>13.1151</ele>
        <time>2012-10-08T19:13:58Z</time>
      </trkpt>
      <trkpt lat="59.9686541" lon="17.7567821">
        <ele>13.1151</ele>
        <time>2012-10-08T19:13:59Z</time>
      </trkpt>
      <trkpt lat="59.9686731" lon="17.7567568">
        <ele>13.5958</ele>
        <time>2012-10-08T19:14:00Z</time>
      </trkpt>
      <trkpt lat="59.9686888" lon="17.7567289">
        <ele>14.0764</ele>
        <time>2012-10-08T19:14:01Z</time>
      </trkpt>
      <trkpt lat="59.9687039" lon="17.7566955">
        <ele>14.0764</ele>
        <time>2012-10-08T19:14:02Z</time>
      </trkpt>
      <trkpt lat="59.9687225" lon="17.7566617">
        <ele>14.0764</ele>
        <time>2012-10-08T19:14:03Z</time>
      </trkpt>
      <trkpt lat="59.968739" lon="17.7566262">
        <ele>14.0764</ele>
        <time>2012-10-08T19:14:04Z</time>
      </trkpt>
      <trkpt lat="59.9687546" lon="17.7565963">
        <ele>14.0764</ele>
        <time>2012-10-08T19:14:05Z</time>
      </trkpt>
      <trkpt lat="59.9687728" lon="17.7565678">
        <ele>14.0764</ele>
        <time>2012-10-08T19:14:06Z</time>
      </trkpt>
      <trkpt lat="59.9687919" lon="17.7565321">
        <ele>14.0764</ele>
        <time>2012-10-08T19:14:07Z</time>
      </trkpt>
      <trkpt lat="59.96881" lon="17.7564949">
        <ele>14.557</ele>
        <time>2012-10-08T19:14:08Z</time>
      </trkpt>
      <trkpt lat="59.9688298" lon="17.7564611">
        <ele>15.0377</ele>
        <time>2012-10-08T19:14:09Z</time>
      </trkpt>
      <trkpt lat="59.9688489" lon="17.7564329">
        <ele>15.5184</ele>
        <time>2012-10-08T19:14:10Z</time>
      </trkpt>
      <trkpt lat="59.9688668" lon="17.7564104">
        <ele>15.999</ele>
        <time>2012-10-08T19:14:11Z</time>
      </trkpt>
      <trkpt lat="59.9688892" lon="17.756386">
        <ele>15.999</ele>
        <time>2012-10-08T19:14:12Z</time>
      </trkpt>
      <trkpt lat="59.96891" lon="17.7563548">
        <ele>15.5184</ele>
        <time>2012-10-08T19:14:13Z</time>
      </trkpt>
      <trkpt lat="59.9689281" lon="17.7563164">
        <ele>15.5184</ele>
        <time>2012-10-08T19:14:14Z</time>
      </trkpt>
      <trkpt lat="59.9689452" lon="17.7562775">
        <ele>15.5184</ele>
        <time>2012-10-08T19:14:15Z</time>
      </trkpt>
      <trkpt lat="59.9689618" lon="17.7562451">
        <ele>15.5184</ele>
        <time>2012-10-08T19:14:16Z</time>
      </trkpt>
      <trkpt lat="59.9689799" lon="17.7562103">
        <ele>16.4797</ele>
        <time>2012-10-08T19:14:17Z</time>
      </trkpt>
      <trkpt lat="59.9689975" lon="17.7561793">
        <ele>15.999</ele>
        <time>2012-10-08T19:14:18Z</time>
      </trkpt>
      <trkpt lat="59.9690157" lon="17.7561415">
        <ele>16.4797</ele>
        <time>2012-10-08T19:14:19Z</time>
      </trkpt>
      <trkpt lat="59.9690327" lon="17.7561048">
        <ele>16.9604</ele>
        <time>2012-10-08T19:14:20Z</time>
      </trkpt>
      <trkpt lat="59.9690499" lon="17.7560714">
        <ele>16.9604</ele>
        <time>2012-10-08T19:14:21Z</time>
      </trkpt>
      <trkpt lat="59.9690691" lon="17.7560384">
        <ele>16.9604</ele>
        <time>2012-10-08T19:14:22Z</time>
      </trkpt>
      <trkpt lat="59.9690866" lon="17.7560037">
        <ele>16.9604</ele>
        <time>2012-10-08T19:14:23Z</time>
      </trkpt>
      <trkpt lat="59.9691026" lon="17.7559684">
        <ele>16.9604</ele>
        <time>2012-10-08T19:14:24Z</time>
      </trkpt>
      <trkpt lat="59.9691199" lon="17.7559367">
        <ele>16.4797</ele>
        <time>2012-10-08T19:14:25Z</time>
      </trkpt>
      <trkpt lat="59.9691379" lon="17.7559045">
        <ele>16.9604</ele>
        <time>2012-10-08T19:14:26Z</time>
      </trkpt>
      <trkpt lat="59.9691545" lon="17.7558756">
        <ele>16.9604</ele>
        <time>2012-10-08T19:14:27Z</time>
      </trkpt>
      <trkpt lat="59.969173" lon="17.7558436">
        <ele>16.9604</ele>
        <time>2012-10-08T19:14:28Z</time>
      </trkpt>
      <trkpt lat="59.9691886" lon="17.7558018">
        <ele>16.4797</ele>
        <time>2012-10-08T19:14:29Z</time>
      </trkpt>
      <trkpt lat="59.9692014" lon="17.7557577">
        <ele>16.4797</ele>
        <time>2012-10-08T19:14:30Z</time>
      </trkpt>
      <trkpt lat="59.9692192" lon="17.7557192">
        <ele>16.4797</ele>
        <time>2012-10-08T19:14:31Z</time>
      </trkpt>
      <trkpt lat="59.9692385" lon="17.7556757">
        <ele>16.9604</ele>
        <time>2012-10-08T19:14:32Z</time>
      </trkpt>
      <trkpt lat="59.969256" lon="17.7556411">
        <ele>16.9604</ele>
        <time>2012-10-08T19:14:33Z</time>
      </trkpt>
      <trkpt lat="59.9692778" lon="17.755613">
        <ele>17.4412</ele>
        <time>2012-10-08T19:14:34Z</time>
      </trkpt>
      <trkpt lat="59.9692998" lon="17.7555815">
        <ele>17.4412</ele>
        <time>2012-10-08T19:14:35Z</time>
      </trkpt>
      <trkpt lat="59.9693187" lon="17.7555448">
        <ele>17.4412</ele>
        <time>2012-10-08T19:14:36Z</time>
      </trkpt>
      <trkpt lat="59.9693375" lon="17.7555094">
        <ele>17.4412</ele>
        <time>2012-10-08T19:14:37Z</time>
      </trkpt>
      <trkpt lat="59.9693539" lon="17.7554768">
        <ele>17.4412</ele>
        <time>2012-10-08T19:14:38Z</time>
      </trkpt>
      <trkpt lat="59.9693688" lon="17.7554412">
        <ele>17.4412</ele>
        <time>2012-10-08T19:14:39Z</time>
      </trkpt>
      <trkpt lat="59.9693877" lon="17.75541">
        <ele>17.4412</ele>
        <time>2012-10-08T19:14:40Z</time>
      </trkpt>
      <trkpt lat="59.9694074" lon="17.755381">
        <ele>17.4412</ele>
        <time>2012-10-08T19:14:41Z</time>
      </trkpt>
      <trkpt lat="59.9694239" lon="17.7553422">
        <ele>17.9218</ele>
        <time>2012-10-08T19:14:42Z</time>
      </trkpt>
      <trkpt lat="59.9694394" lon="17.7553059">
        <ele>17.9218</ele>
        <time>2012-10-08T19:14:43Z</time>
      </trkpt>
      <trkpt lat="59.969456" lon="17.7552726">
        <ele>18.4023</ele>
        <time>2012-10-08T19:14:44Z</time>
      </trkpt>
      <trkpt lat="59.9694718" lon="17.7552408">
        <ele>18.4023</ele>
        <time>2012-10-08T19:14:45Z</time>
      </trkpt>
      <trkpt lat="59.9694876" lon="17.7552054">
        <ele>18.4023</ele>
        <time>2012-10-08T19:14:46Z</time>
      </trkpt>
      <trkpt lat="59.9695041" lon="17.7551727">
        <ele>18.4023</ele>
        <time>2012-10-08T19:14:47Z</time>
      </trkpt>
      <trkpt lat="59.96952" lon="17.7551387">
        <ele>18.4023</ele>
        <time>2012-10-08T19:14:48Z</time>
      </trkpt>
      <trkpt lat="59.9695374" lon="17.7551049">
        <ele>18.4023</ele>
        <time>2012-10-08T19:14:49Z</time>
      </trkpt>
      <trkpt lat="59.969556" lon="17.7550719">
        <ele>18.4023</ele>
        <time>2012-10-08T19:14:50Z</time>
      </trkpt>
      <trkpt lat="59.9695718" lon="17.755041">
        <ele>18.4023</ele>
        <time>2012-10-08T19:14:51Z</time>
      </trkpt>
      <trkpt lat="59.9695882" lon="17.7550034">
        <ele>18.4023</ele>
        <time>2012-10-08T19:14:52Z</time>
      </trkpt>
      <trkpt lat="59.9696078" lon="17.7549678">
        <ele>18.4023</ele>
        <time>2012-10-08T19:14:53Z</time>
      </trkpt>
      <trkpt lat="59.9696277" lon="17.7549388">
        <ele>18.4023</ele>
        <time>2012-10-08T19:14:54Z</time>
      </trkpt>
      <trkpt lat="59.9696465" lon="17.7549058">
        <ele>18.4023</ele>
        <time>2012-10-08T19:14:55Z</time>
      </trkpt>
      <trkpt lat="59.9696658" lon="17.7548651">
        <ele>18.8831</ele>
        <time>2012-10-08T19:14:56Z</time>
      </trkpt>
      <trkpt lat="59.9696835" lon="17.7548248">
        <ele>18.8831</ele>
        <time>2012-10-08T19:14:57Z</time>
      </trkpt>
      <trkpt lat="59.9696998" lon="17.7547911">
        <ele>18.4023</ele>
        <time>2012-10-08T19:14:58Z</time>
      </trkpt>
      <trkpt lat="59.9697176" lon="17.7547604">
        <ele>18.4023</ele>
        <time>2012-10-08T19:14:59Z</time>
      </trkpt>
      <trkpt lat="59.969737" lon="17.7547293">
        <ele>18.4023</ele>
        <time>2012-10-08T19:15:00Z</time>
      </trkpt>
      <trkpt lat="59.9697542" lon="17.7546973">
        <ele>17.9218</ele>
        <time>2012-10-08T19:15:01Z</time>
      </trkpt>
      <trkpt lat="59.9697699" lon="17.7546657">
        <ele>17.9218</ele>
        <time>2012-10-08T19:15:02Z</time>
      </trkpt>
      <trkpt lat="59.9697863" lon="17.7546341">
        <ele>17.9218</ele>
        <time>2012-10-08T19:15:03Z</time>
      </trkpt>
      <trkpt lat="59.9698024" lon="17.7546035">
        <ele>17.9218</ele>
        <time>2012-10-08T19:15:04Z</time>
      </trkpt>
      <trkpt lat="59.9698177" lon="17.7545758">
        <ele>17.9218</ele>
        <time>2012-10-08T19:15:05Z</time>
      </trkpt>
      <trkpt lat="59.9698347" lon="17.7545403">
        <ele>17.9218</ele>
        <time>2012-10-08T19:15:06Z</time>
      </trkpt>
      <trkpt lat="59.9698515" lon="17.7545007">
        <ele>17.9218</ele>
        <time>2012-10-08T19:15:07Z</time>
      </trkpt>
      <trkpt lat="59.9698666" lon="17.7544634">
        <ele>17.4412</ele>
        <time>2012-10-08T19:15:08Z</time>
      </trkpt>
      <trkpt lat="59.9698826" lon="17.7544336">
        <ele>17.4412</ele>
        <time>2012-10-08T19:15:09Z</time>
      </trkpt>
      <trkpt lat="59.9698994" lon="17.7544077">
        <ele>17.4412</ele>
        <time>2012-10-08T19:15:10Z</time>
      </trkpt>
      <trkpt lat="59.9699139" lon="17.7543803">
        <ele>17.4412</ele>
        <time>2012-10-08T19:15:11Z</time>
      </trkpt>
      <trkpt lat="59.9699305" lon="17.7543471">
        <ele>17.4412</ele>
        <time>2012-10-08T19:15:12Z</time>
      </trkpt>
      <trkpt lat="59.9699487" lon="17.7543065">
        <ele>17.4412</ele>
        <time>2012-10-08T19:15:13Z</time>
      </trkpt>
      <trkpt lat="59.9699645" lon="17.7542653">
        <ele>17.4412</ele>
        <time>2012-10-08T19:15:14Z</time>
      </trkpt>
      <trkpt lat="59.9699781" lon="17.754233">
        <ele>17.9218</ele>
        <time>2012-10-08T19:15:15Z</time>
      </trkpt>
      <trkpt lat="59.9699947" lon="17.7541984">
        <ele>17.9218</ele>
        <time>2012-10-08T19:15:16Z</time>
      </trkpt>
      <trkpt lat="59.9700118" lon="17.7541595">
        <ele>17.9218</ele>
        <time>2012-10-08T19:15:17Z</time>
      </trkpt>
      <trkpt lat="59.9700268" lon="17.7541232">
        <ele>18.4023</ele>
        <time>2012-10-08T19:15:18Z</time>
      </trkpt>
      <trkpt lat="59.9700465" lon="17.7540865">
        <ele>18.8831</ele>
        <time>2012-10-08T19:15:19Z</time>
      </trkpt>
      <trkpt lat="59.9700651" lon="17.7540441">
        <ele>18.8831</ele>
        <time>2012-10-08T19:15:20Z</time>
      </trkpt>
      <trkpt lat="59.9700791" lon="17.753999">
        <ele>18.8831</ele>
        <time>2012-10-08T19:15:21Z</time>
      </trkpt>
      <trkpt lat="59.970095" lon="17.7539544">
        <ele>19.3638</ele>
        <time>2012-10-08T19:15:22Z</time>
      </trkpt>
      <trkpt lat="59.9701113" lon="17.753914">
        <ele>18.8831</ele>
        <time>2012-10-08T19:15:23Z</time>
      </trkpt>
      <trkpt lat="59.9701246" lon="17.7538684">
        <ele>18.8831</ele>
        <time>2012-10-08T19:15:24Z</time>
      </trkpt>
      <trkpt lat="59.9701401" lon="17.7538166">
        <ele>19.3638</ele>
        <time>2012-10-08T19:15:25Z</time>
      </trkpt>
      <trkpt lat="59.9701579" lon="17.7537694">
        <ele>19.3638</ele>
        <time>2012-10-08T19:15:26Z</time>
      </trkpt>
      <trkpt lat="59.9701748" lon="17.753729">
        <ele>19.8444</ele>
        <time>2012-10-08T19:15:27Z</time>
      </trkpt>
      <trkpt lat="59.970192" lon="17.7536926">
        <ele>20.325</ele>
        <time>2012-10-08T19:15:28Z</time>
      </trkpt>
      <trkpt lat="59.9702102" lon="17.7536496">
        <ele>20.325</ele>
        <time>2012-10-08T19:15:29Z</time>
      </trkpt>
      <trkpt lat="59.9702276" lon="17.7536067">
        <ele>20.325</ele>
        <time>2012-10-08T19:15:30Z</time>
      </trkpt>
      <trkpt lat="59.9702406" lon="17.7535712">
        <ele>20.325</ele>
        <time>2012-10-08T19:15:31Z</time>
      </trkpt>
      <trkpt lat="59.9702532" lon="17.7535275">
        <ele>20.325</ele>
        <time>2012-10-08T19:15:32Z</time>
      </trkpt>
      <trkpt lat="59.970262" lon="17.7534836">
        <ele>20.8057</ele>
        <time>2012-10-08T19:15:33Z</time>
      </trkpt>
      <trkpt lat="59.9702666" lon="17.7534375">
        <ele>20.8057</ele>
        <time>2012-10-08T19:15:34Z</time>
      </trkpt>
      <trkpt lat="59.9702744" lon="17.7533913">
        <ele>21.2864</ele>
        <time>2012-10-08T19:15:35Z</time>
      </trkpt>
      <trkpt lat="59.9702874" lon="17.7533472">
        <ele>21.2864</ele>
        <time>2012-10-08T19:15:36Z</time>
      </trkpt>
      <trkpt lat="59.970298" lon="17.7532996">
        <ele>21.767</ele>
        <time>2012-10-08T19:15:37Z</time>
      </trkpt>
      <trkpt lat="59.9703112" lon="17.7532566">
        <ele>21.767</ele>
        <time>2012-10-08T19:15:38Z</time>
      </trkpt>
      <trkpt lat="59.9703266" lon="17.7532192">
        <ele>21.767</ele>
        <time>2012-10-08T19:15:39Z</time>
      </trkpt>
      <trkpt lat="59.9703382" lon="17.7531784">
        <ele>21.767</ele>
        <time>2012-10-08T19:15:40Z</time>
      </trkpt>
      <trkpt lat="59.9703494" lon="17.7531283">
        <ele>22.2476</ele>
        <time>2012-10-08T19:15:41Z</time>
      </trkpt>
      <trkpt lat="59.9703604" lon="17.7530794">
        <ele>22.7283</ele>
        <time>2012-10-08T19:15:42Z</time>
      </trkpt>
      <trkpt lat="59.9703728" lon="17.7530287">
        <ele>23.209</ele>
        <time>2012-10-08T19:15:43Z</time>
      </trkpt>
      <trkpt lat="59.9703842" lon="17.7529733">
        <ele>23.6896</ele>
        <time>2012-10-08T19:15:44Z</time>
      </trkpt>
      <trkpt lat="59.9703977" lon="17.752921">
        <ele>24.1703</ele>
        <time>2012-10-08T19:15:45Z</time>
      </trkpt>
      <trkpt lat="59.9704151" lon="17.7528759">
        <ele>25.1317</ele>
        <time>2012-10-08T19:15:46Z</time>
      </trkpt>
      <trkpt lat="59.970438" lon="17.7528309">
        <ele>25.1317</ele>
        <time>2012-10-08T19:15:47Z</time>
      </trkpt>
      <trkpt lat="59.9704578" lon="17.7527863">
        <ele>26.0929</ele>
        <time>2012-10-08T19:15:48Z</time>
      </trkpt>
      <trkpt lat="59.9704754" lon="17.7527463">
        <ele>26.5736</ele>
        <time>2012-10-08T19:15:49Z</time>
      </trkpt>
      <trkpt lat="59.9704934" lon="17.752706">
        <ele>26.5736</ele>
        <time>2012-10-08T19:15:50Z</time>
      </trkpt>
      <trkpt lat="59.9705068" lon="17.7526615">
        <ele>26.5736</ele>
        <time>2012-10-08T19:15:51Z</time>
      </trkpt>
      <trkpt lat="59.9705182" lon="17.7526123">
        <ele>27.0543</ele>
        <time>2012-10-08T19:15:52Z</time>
      </trkpt>
      <trkpt lat="59.9705322" lon="17.7525656">
        <ele>27.0543</ele>
        <time>2012-10-08T19:15:53Z</time>
      </trkpt>
      <trkpt lat="59.9705454" lon="17.7525169">
        <ele>27.5349</ele>
        <time>2012-10-08T19:15:54Z</time>
      </trkpt>
      <trkpt lat="59.9705562" lon="17.7524774">
        <ele>27.5349</ele>
        <time>2012-10-08T19:15:55Z</time>
      </trkpt>
      <trkpt lat="59.9705712" lon="17.7524367">
        <ele>27.5349</ele>
        <time>2012-10-08T19:15:56Z</time>
      </trkpt>
      <trkpt lat="59.9705873" lon="17.7523957">
        <ele>28.0155</ele>
        <time>2012-10-08T19:15:57Z</time>
      </trkpt>
      <trkpt lat="59.9706028" lon="17.7523544">
        <ele>28.0155</ele>
        <time>2012-10-08T19:15:58Z</time>
      </trkpt>
      <trkpt lat="59.9706204" lon="17.7523129">
        <ele>28.0155</ele>
        <time>2012-10-08T19:15:59Z</time>
      </trkpt>
      <trkpt lat="59.9706394" lon="17.7522762">
        <ele>28.0155</ele>
        <time>2012-10-08T19:16:00Z</time>
      </trkpt>
      <trkpt lat="59.9706572" lon="17.7522402">
        <ele>28.0155</ele>
        <time>2012-10-08T19:16:01Z</time>
      </trkpt>
      <trkpt lat="59.9706757" lon="17.7522072">
        <ele>28.0155</ele>
        <time>2012-10-08T19:16:02Z</time>
      </trkpt>
      <trkpt lat="59.970691" lon="17.7521778">
        <ele>27.5349</ele>
        <time>2012-10-08T19:16:03Z</time>
      </trkpt>
      <trkpt lat="59.9707044" lon="17.7521453">
        <ele>27.0543</ele>
        <time>2012-10-08T19:16:04Z</time>
      </trkpt>
      <trkpt lat="59.9707189" lon="17.7521195">
        <ele>26.5736</ele>
        <time>2012-10-08T19:16:05Z</time>
      </trkpt>
      <trkpt lat="59.9707313" lon="17.752088">
        <ele>26.0929</ele>
        <time>2012-10-08T19:16:06Z</time>
      </trkpt>
      <trkpt lat="59.9707421" lon="17.7520511">
        <ele>26.0929</ele>
        <time>2012-10-08T19:16:07Z</time>
      </trkpt>
      <trkpt lat="59.970757" lon="17.7520223">
        <ele>26.0929</ele>
        <time>2012-10-08T19:16:08Z</time>
      </trkpt>
      <trkpt lat="59.9707782" lon="17.7519956">
        <ele>25.6123</ele>
        <time>2012-10-08T19:16:09Z</time>
      </trkpt>
      <trkpt lat="59.9708002" lon="17.7519698">
        <ele>25.6123</ele>
        <time>2012-10-08T19:16:10Z</time>
      </trkpt>
      <trkpt lat="59.970823" lon="17.7519457">
        <ele>25.6123</ele>
        <time>2012-10-08T19:16:11Z</time>
      </trkpt>
      <trkpt lat="59.9708463" lon="17.7519068">
        <ele>26.0929</ele>
        <time>2012-10-08T19:16:12Z</time>
      </trkpt>
      <trkpt lat="59.9708661" lon="17.7518741">
        <ele>26.0929</ele>
        <time>2012-10-08T19:16:13Z</time>
      </trkpt>
      <trkpt lat="59.9708834" lon="17.7518462">
        <ele>26.0929</ele>
        <time>2012-10-08T19:16:14Z</time>
      </trkpt>
      <trkpt lat="59.9709017" lon="17.7518233">
        <ele>26.0929</ele>
        <time>2012-10-08T19:16:15Z</time>
      </trkpt>
      <trkpt lat="59.9709186" lon="17.7517892">
        <ele>26.0929</ele>
        <time>2012-10-08T19:16:16Z</time>
      </trkpt>
      <trkpt lat="59.9709376" lon="17.7517653">
        <ele>26.0929</ele>
        <time>2012-10-08T19:16:17Z</time>
      </trkpt>
      <trkpt lat="59.9709577" lon="17.751745">
        <ele>26.0929</ele>
        <time>2012-10-08T19:16:18Z</time>
      </trkpt>
      <trkpt lat="59.9709816" lon="17.7517252">
        <ele>26.0929</ele>
        <time>2012-10-08T19:16:19Z</time>
      </trkpt>
      <trkpt lat="59.9710105" lon="17.7517072">
        <ele>26.5736</ele>
        <time>2012-10-08T19:16:20Z</time>
      </trkpt>
      <trkpt lat="59.9710343" lon="17.7516895">
        <ele>26.5736</ele>
        <time>2012-10-08T19:16:21Z</time>
      </trkpt>
      <trkpt lat="59.9710714" lon="17.7516677">
        <ele>27.0543</ele>
        <time>2012-10-08T19:16:22Z</time>
      </trkpt>
      <trkpt lat="59.9711087" lon="17.7516447">
        <ele>27.0543</ele>
        <time>2012-10-08T19:16:23Z</time>
      </trkpt>
      <trkpt lat="59.9711272" lon="17.7516221">
        <ele>27.0543</ele>
        <time>2012-10-08T19:16:24Z</time>
      </trkpt>
      <trkpt lat="59.9711478" lon="17.7515947">
        <ele>28.0155</ele>
        <time>2012-10-08T19:16:25Z</time>
      </trkpt>
      <trkpt lat="59.971166" lon="17.7515766">
        <ele>28.4962</ele>
        <time>2012-10-08T19:16:26Z</time>
      </trkpt>
      <trkpt lat="59.9711829" lon="17.75156">
        <ele>28.0155</ele>
        <time>2012-10-08T19:16:27Z</time>
      </trkpt>
      <trkpt lat="59.9711975" lon="17.7515389">
        <ele>28.4962</ele>
        <time>2012-10-08T19:16:28Z</time>
      </trkpt>
      <trkpt lat="59.9712066" lon="17.7515185">
        <ele>28.4962</ele>
        <time>2012-10-08T19:16:29Z</time>
      </trkpt>
      <trkpt lat="59.9712225" lon="17.7514991">
        <ele>28.4962</ele>
        <time>2012-10-08T19:16:30Z</time>
      </trkpt>
      <trkpt lat="59.9712424" lon="17.7514759">
        <ele>28.4962</ele>
        <time>2012-10-08T19:16:31Z</time>
      </trkpt>
      <trkpt lat="59.9712641" lon="17.7514436">
        <ele>28.4962</ele>
        <time>2012-10-08T19:16:32Z</time>
      </trkpt>
      <trkpt lat="59.9712878" lon="17.751417">
        <ele>28.9769</ele>
        <time>2012-10-08T19:16:33Z</time>
      </trkpt>
      <trkpt lat="59.971308" lon="17.7513948">
        <ele>29.4575</ele>
        <time>2012-10-08T19:16:34Z</time>
      </trkpt>
      <trkpt lat="59.9713224" lon="17.751375">
        <ele>29.4575</ele>
        <time>2012-10-08T19:16:35Z</time>
      </trkpt>
      <trkpt lat="59.9713374" lon="17.7513355">
        <ele>29.9381</ele>
        <time>2012-10-08T19:16:36Z</time>
      </trkpt>
      <trkpt lat="59.9713541" lon="17.7513062">
        <ele>29.9381</ele>
        <time>2012-10-08T19:16:37Z</time>
      </trkpt>
      <trkpt lat="59.9713756" lon="17.7512825">
        <ele>29.9381</ele>
        <time>2012-10-08T19:16:38Z</time>
      </trkpt>
      <trkpt lat="59.9713985" lon="17.7512602">
        <ele>30.4188</ele>
        <time>2012-10-08T19:16:39Z</time>
      </trkpt>
      <trkpt lat="59.9714203" lon="17.7512391">
        <ele>30.4188</ele>
        <time>2012-10-08T19:16:40Z</time>
      </trkpt>
      <trkpt lat="59.9714379" lon="17.7512183">
        <ele>29.9381</ele>
        <time>2012-10-08T19:16:41Z</time>
      </trkpt>
      <trkpt lat="59.9714545" lon="17.7511862">
        <ele>29.9381</ele>
        <time>2012-10-08T19:16:42Z</time>
      </trkpt>
      <trkpt lat="59.9714721" lon="17.7511568">
        <ele>29.4575</ele>
        <time>2012-10-08T19:16:43Z</time>
      </trkpt>
      <trkpt lat="59.9714897" lon="17.7511318">
        <ele>29.4575</ele>
        <time>2012-10-08T19:16:44Z</time>
      </trkpt>
      <trkpt lat="59.9715109" lon="17.7511205">
        <ele>28.9769</ele>
        <time>2012-10-08T19:16:45Z</time>
      </trkpt>
      <trkpt lat="59.9715323" lon="17.7511003">
        <ele>28.9769</ele>
        <time>2012-10-08T19:16:46Z</time>
      </trkpt>
      <trkpt lat="59.9715513" lon="17.7510821">
        <ele>28.9769</ele>
        <time>2012-10-08T19:16:47Z</time>
      </trkpt>
      <trkpt lat="59.9715735" lon="17.7510655">
        <ele>28.9769</ele>
        <time>2012-10-08T19:16:48Z</time>
      </trkpt>
      <trkpt lat="59.9715944" lon="17.7510513">
        <ele>28.9769</ele>
        <time>2012-10-08T19:16:49Z</time>
      </trkpt>
      <trkpt lat="59.9716162" lon="17.7510297">
        <ele>28.4962</ele>
        <time>2012-10-08T19:16:50Z</time>
      </trkpt>
      <trkpt lat="59.9716387" lon="17.7510032">
        <ele>28.4962</ele>
        <time>2012-10-08T19:16:51Z</time>
      </trkpt>
      <trkpt lat="59.971658" lon="17.7509793">
        <ele>28.0155</ele>
        <time>2012-10-08T19:16:52Z</time>
      </trkpt>
      <trkpt lat="59.9716777" lon="17.7509511">
        <ele>28.0155</ele>
        <time>2012-10-08T19:16:53Z</time>
      </trkpt>
      <trkpt lat="59.9716953" lon="17.7509225">
        <ele>28.0155</ele>
        <time>2012-10-08T19:16:54Z</time>
      </trkpt>
      <trkpt lat="59.9717119" lon="17.7508944">
        <ele>28.0155</ele>
        <time>2012-10-08T19:16:55Z</time>
      </trkpt>
      <trkpt lat="59.9717258" lon="17.7508726">
        <ele>28.0155</ele>
        <time>2012-10-08T19:16:56Z</time>
      </trkpt>
      <trkpt lat="59.9717388" lon="17.7508474">
        <ele>28.0155</ele>
        <time>2012-10-08T19:16:57Z</time>
      </trkpt>
      <trkpt lat="59.9717538" lon="17.7508076">
        <ele>28.0155</ele>
        <time>2012-10-08T19:16:58Z</time>
      </trkpt>
      <trkpt lat="59.9717685" lon="17.7507784">
        <ele>27.5349</ele>
        <time>2012-10-08T19:16:59Z</time>
      </trkpt>
      <trkpt lat="59.9717832" lon="17.750749">
        <ele>27.5349</ele>
        <time>2012-10-08T19:17:00Z</time>
      </trkpt>
      <trkpt lat="59.9717958" lon="17.7507033">
        <ele>27.0543</ele>
        <time>2012-10-08T19:17:01Z</time>
      </trkpt>
      <trkpt lat="59.9718093" lon="17.7506437">
        <ele>27.0543</ele>
        <time>2012-10-08T19:17:02Z</time>
      </trkpt>
      <trkpt lat="59.9718217" lon="17.7505692">
        <ele>27.0543</ele>
        <time>2012-10-08T19:17:03Z</time>
      </trkpt>
      <trkpt lat="59.9718388" lon="17.7505263">
        <ele>28.0155</ele>
        <time>2012-10-08T19:17:04Z</time>
      </trkpt>
      <trkpt lat="59.9718538" lon="17.7504879">
        <ele>28.0155</ele>
        <time>2012-10-08T19:17:05Z</time>
      </trkpt>
      <trkpt lat="59.9718677" lon="17.7504283">
        <ele>28.0155</ele>
        <time>2012-10-08T19:17:06Z</time>
      </trkpt>
      <trkpt lat="59.9718865" lon="17.7503859">
        <ele>28.0155</ele>
        <time>2012-10-08T19:17:07Z</time>
      </trkpt>
      <trkpt lat="59.9719066" lon="17.7503548">
        <ele>28.0155</ele>
        <time>2012-10-08T19:17:08Z</time>
      </trkpt>
      <trkpt lat="59.9719268" lon="17.7503176">
        <ele>28.4962</ele>
        <time>2012-10-08T19:17:09Z</time>
      </trkpt>
      <trkpt lat="59.9719441" lon="17.7502745">
        <ele>28.0155</ele>
        <time>2012-10-08T19:17:10Z</time>
      </trkpt>
      <trkpt lat="59.9719624" lon="17.7502206">
        <ele>28.0155</ele>
        <time>2012-10-08T19:17:11Z</time>
      </trkpt>
      <trkpt lat="59.9719807" lon="17.7501859">
        <ele>28.0155</ele>
        <time>2012-10-08T19:17:12Z</time>
      </trkpt>
      <trkpt lat="59.9719973" lon="17.7501582">
        <ele>28.0155</ele>
        <time>2012-10-08T19:17:13Z</time>
      </trkpt>
      <trkpt lat="59.9720108" lon="17.7501277">
        <ele>28.0155</ele>
        <time>2012-10-08T19:17:14Z</time>
      </trkpt>
      <trkpt lat="59.9720311" lon="17.7501055">
        <ele>28.0155</ele>
        <time>2012-10-08T19:17:15Z</time>
      </trkpt>
      <trkpt lat="59.9720461" lon="17.7500806">
        <ele>28.0155</ele>
        <time>2012-10-08T19:17:16Z</time>
      </trkpt>
      <trkpt lat="59.972064" lon="17.7500647">
        <ele>28.0155</ele>
        <time>2012-10-08T19:17:17Z</time>
      </trkpt>
      <trkpt lat="59.9720823" lon="17.7500456">
        <ele>27.5349</ele>
        <time>2012-10-08T19:17:18Z</time>
      </trkpt>
      <trkpt lat="59.9720976" lon="17.7500222">
        <ele>27.0543</ele>
        <time>2012-10-08T19:17:19Z</time>
      </trkpt>
      <trkpt lat="59.9721113" lon="17.7499963">
        <ele>26.5736</ele>
        <time>2012-10-08T19:17:20Z</time>
      </trkpt>
      <trkpt lat="59.9721294" lon="17.7499714">
        <ele>26.5736</ele>
        <time>2012-10-08T19:17:21Z</time>
      </trkpt>
      <trkpt lat="59.9721474" lon="17.7499632">
        <ele>26.5736</ele>
        <time>2012-10-08T19:17:22Z</time>
      </trkpt>
      <trkpt lat="59.9721603" lon="17.7499446">
        <ele>25.6123</ele>
        <time>2012-10-08T19:17:23Z</time>
      </trkpt>
      <trkpt lat="59.9721766" lon="17.7499291">
        <ele>24.651</ele>
        <time>2012-10-08T19:17:24Z</time>
      </trkpt>
      <trkpt lat="59.9721926" lon="17.7499075">
        <ele>24.1703</ele>
        <time>2012-10-08T19:17:25Z</time>
      </trkpt>
      <trkpt lat="59.9722071" lon="17.7498819">
        <ele>23.209</ele>
        <time>2012-10-08T19:17:26Z</time>
      </trkpt>
      <trkpt lat="59.9722247" lon="17.7498585">
        <ele>22.7283</ele>
        <time>2012-10-08T19:17:27Z</time>
      </trkpt>
      <trkpt lat="59.9722402" lon="17.7498459">
        <ele>22.2476</ele>
        <time>2012-10-08T19:17:28Z</time>
      </trkpt>
      <trkpt lat="59.9722551" lon="17.7498228">
        <ele>21.767</ele>
        <time>2012-10-08T19:17:29Z</time>
      </trkpt>
      <trkpt lat="59.972273" lon="17.7497998">
        <ele>21.2864</ele>
        <time>2012-10-08T19:17:30Z</time>
      </trkpt>
      <trkpt lat="59.972291" lon="17.7497806">
        <ele>20.325</ele>
        <time>2012-10-08T19:17:31Z</time>
      </trkpt>
      <trkpt lat="59.9723025" lon="17.749754">
        <ele>19.3638</ele>
        <time>2012-10-08T19:17:32Z</time>
      </trkpt>
      <trkpt lat="59.9723154" lon="17.7497223">
        <ele>18.8831</ele>
        <time>2012-10-08T19:17:33Z</time>
      </trkpt>
      <trkpt lat="59.9723325" lon="17.7496977">
        <ele>17.9218</ele>
        <time>2012-10-08T19:17:34Z</time>
      </trkpt>
      <trkpt lat="59.972347" lon="17.7496695">
        <ele>17.4412</ele>
        <time>2012-10-08T19:17:35Z</time>
      </trkpt>
      <trkpt lat="59.9723649" lon="17.7496364">
        <ele>16.9604</ele>
        <time>2012-10-08T19:17:36Z</time>
      </trkpt>
      <trkpt lat="59.972379" lon="17.7495968">
        <ele>16.4797</ele>
        <time>2012-10-08T19:17:37Z</time>
      </trkpt>
      <trkpt lat="59.972389" lon="17.7495647">
        <ele>15.5184</ele>
        <time>2012-10-08T19:17:38Z</time>
      </trkpt>
      <trkpt lat="59.9724039" lon="17.7495394">
        <ele>14.557</ele>
        <time>2012-10-08T19:17:39Z</time>
      </trkpt>
      <trkpt lat="59.9724212" lon="17.7495108">
        <ele>14.0764</ele>
        <time>2012-10-08T19:17:40Z</time>
      </trkpt>
      <trkpt lat="59.9724356" lon="17.7494901">
        <ele>13.1151</ele>
        <time>2012-10-08T19:17:41Z</time>
      </trkpt>
      <trkpt lat="59.9724499" lon="17.749462">
        <ele>12.6344</ele>
        <time>2012-10-08T19:17:42Z</time>
      </trkpt>
      <trkpt lat="59.9724662" lon="17.7494286">
        <ele>12.6344</ele>
        <time>2012-10-08T19:17:43Z</time>
      </trkpt>
      <trkpt lat="59.9724791" lon="17.7493966">
        <ele>12.1538</ele>
        <time>2012-10-08T19:17:44Z</time>
      </trkpt>
      <trkpt lat="59.9724944" lon="17.7493753">
        <ele>12.1538</ele>
        <time>2012-10-08T19:17:45Z</time>
      </trkpt>
      <trkpt lat="59.9725091" lon="17.749356">
        <ele>11.6732</ele>
        <time>2012-10-08T19:17:46Z</time>
      </trkpt>
      <trkpt lat="59.9725227" lon="17.7493308">
        <ele>10.7118</ele>
        <time>2012-10-08T19:17:47Z</time>
      </trkpt>
      <trkpt lat="59.9725426" lon="17.7493144">
        <ele>10.7118</ele>
        <time>2012-10-08T19:17:48Z</time>
      </trkpt>
      <trkpt lat="59.9725645" lon="17.7493046">
        <ele>10.7118</ele>
        <time>2012-10-08T19:17:49Z</time>
      </trkpt>
      <trkpt lat="59.9725914" lon="17.7492693">
        <ele>12.6344</ele>
        <time>2012-10-08T19:17:50Z</time>
      </trkpt>
      <trkpt lat="59.9726189" lon="17.7492322">
        <ele>14.0764</ele>
        <time>2012-10-08T19:17:51Z</time>
      </trkpt>
      <trkpt lat="59.9726433" lon="17.7491831">
        <ele>15.5184</ele>
        <time>2012-10-08T19:17:52Z</time>
      </trkpt>
      <trkpt lat="59.9726649" lon="17.7491279">
        <ele>16.9604</ele>
        <time>2012-10-08T19:17:53Z</time>
      </trkpt>
      <trkpt lat="59.9726832" lon="17.7490878">
        <ele>16.9604</ele>
        <time>2012-10-08T19:17:54Z</time>
      </trkpt>
      <trkpt lat="59.9727013" lon="17.7490378">
        <ele>16.4797</ele>
        <time>2012-10-08T19:17:55Z</time>
      </trkpt>
      <trkpt lat="59.972718" lon="17.7489894">
        <ele>15.999</ele>
        <time>2012-10-08T19:17:56Z</time>
      </trkpt>
      <trkpt lat="59.9727368" lon="17.7489442">
        <ele>15.5184</ele>
        <time>2012-10-08T19:17:57Z</time>
      </trkpt>
      <trkpt lat="59.9727516" lon="17.7488991">
        <ele>15.0377</ele>
        <time>2012-10-08T19:17:58Z</time>
      </trkpt>
      <trkpt lat="59.9727697" lon="17.7488515">
        <ele>15.0377</ele>
        <time>2012-10-08T19:17:59Z</time>
      </trkpt>
      <trkpt lat="59.9727905" lon="17.7488136">
        <ele>15.0377</ele>
        <time>2012-10-08T19:18:00Z</time>
      </trkpt>
      <trkpt lat="59.9728089" lon="17.7487691">
        <ele>15.5184</ele>
        <time>2012-10-08T19:18:01Z</time>
      </trkpt>
      <trkpt lat="59.9728293" lon="17.748711">
        <ele>16.4797</ele>
        <time>2012-10-08T19:18:02Z</time>
      </trkpt>
      <trkpt lat="59.9728508" lon="17.7486592">
        <ele>16.4797</ele>
        <time>2012-10-08T19:18:03Z</time>
      </trkpt>
      <trkpt lat="59.9728702" lon="17.7486179">
        <ele>16.4797</ele>
        <time>2012-10-08T19:18:04Z</time>
      </trkpt>
      <trkpt lat="59.9728913" lon="17.7485651">
        <ele>15.999</ele>
        <time>2012-10-08T19:18:05Z</time>
      </trkpt>
      <trkpt lat="59.9729128" lon="17.7485152">
        <ele>15.999</ele>
        <time>2012-10-08T19:18:06Z</time>
      </trkpt>
      <trkpt lat="59.9729292" lon="17.7484806">
        <ele>15.5184</ele>
        <time>2012-10-08T19:18:07Z</time>
      </trkpt>
      <trkpt lat="59.9729466" lon="17.7484471">
        <ele>15.999</ele>
        <time>2012-10-08T19:18:08Z</time>
      </trkpt>
      <trkpt lat="59.9729691" lon="17.7484142">
        <ele>15.999</ele>
        <time>2012-10-08T19:18:09Z</time>
      </trkpt>
      <trkpt lat="59.9729924" lon="17.7483755">
        <ele>16.4797</ele>
        <time>2012-10-08T19:18:10Z</time>
      </trkpt>
      <trkpt lat="59.9730151" lon="17.7483352">
        <ele>17.4412</ele>
        <time>2012-10-08T19:18:11Z</time>
      </trkpt>
      <trkpt lat="59.9730417" lon="17.7483035">
        <ele>17.4412</ele>
        <time>2012-10-08T19:18:12Z</time>
      </trkpt>
      <trkpt lat="59.973066" lon="17.748276">
        <ele>17.9218</ele>
        <time>2012-10-08T19:18:13Z</time>
      </trkpt>
      <trkpt lat="59.9730888" lon="17.7482398">
        <ele>18.4023</ele>
        <time>2012-10-08T19:18:14Z</time>
      </trkpt>
      <trkpt lat="59.9731147" lon="17.7482069">
        <ele>18.4023</ele>
        <time>2012-10-08T19:18:15Z</time>
      </trkpt>
      <trkpt lat="59.9731381" lon="17.7481775">
        <ele>18.4023</ele>
        <time>2012-10-08T19:18:16Z</time>
      </trkpt>
      <trkpt lat="59.9731614" lon="17.748148">
        <ele>18.4023</ele>
        <time>2012-10-08T19:18:17Z</time>
      </trkpt>
      <trkpt lat="59.973187" lon="17.7481216">
        <ele>18.4023</ele>
        <time>2012-10-08T19:18:18Z</time>
      </trkpt>
      <trkpt lat="59.9732113" lon="17.7480942">
        <ele>18.4023</ele>
        <time>2012-10-08T19:18:19Z</time>
      </trkpt>
      <trkpt lat="59.9732376" lon="17.7480681">
        <ele>18.8831</ele>
        <time>2012-10-08T19:18:20Z</time>
      </trkpt>
      <trkpt lat="59.9732618" lon="17.7480318">
        <ele>19.3638</ele>
        <time>2012-10-08T19:18:21Z</time>
      </trkpt>
      <trkpt lat="59.9732857" lon="17.7479901">
        <ele>19.8444</ele>
        <time>2012-10-08T19:18:22Z</time>
      </trkpt>
      <trkpt lat="59.9733115" lon="17.7479639">
        <ele>19.8444</ele>
        <time>2012-10-08T19:18:23Z</time>
      </trkpt>
      <trkpt lat="59.9733362" lon="17.7479388">
        <ele>19.8444</ele>
        <time>2012-10-08T19:18:24Z</time>
      </trkpt>
      <trkpt lat="59.9733618" lon="17.7479128">
        <ele>19.8444</ele>
        <time>2012-10-08T19:18:25Z</time>
      </trkpt>
      <trkpt lat="59.9733878" lon="17.7478884">
        <ele>20.325</ele>
        <time>2012-10-08T19:18:26Z</time>
      </trkpt>
      <trkpt lat="59.9734131" lon="17.7478573">
        <ele>20.325</ele>
        <time>2012-10-08T19:18:27Z</time>
      </trkpt>
      <trkpt lat="59.9734385" lon="17.747834">
        <ele>20.8057</ele>
        <time>2012-10-08T19:18:28Z</time>
      </trkpt>
      <trkpt lat="59.9734628" lon="17.7478119">
        <ele>20.8057</ele>
        <time>2012-10-08T19:18:29Z</time>
      </trkpt>
      <trkpt lat="59.9734875" lon="17.7477901">
        <ele>20.8057</ele>
        <time>2012-10-08T19:18:30Z</time>
      </trkpt>
      <trkpt lat="59.9735126" lon="17.7477664">
        <ele>20.8057</ele>
        <time>2012-10-08T19:18:31Z</time>
      </trkpt>
      <trkpt lat="59.9735374" lon="17.7477388">
        <ele>21.2864</ele>
        <time>2012-10-08T19:18:32Z</time>
      </trkpt>
      <trkpt lat="59.9735622" lon="17.7477122">
        <ele>21.2864</ele>
        <time>2012-10-08T19:18:33Z</time>
      </trkpt>
      <trkpt lat="59.9735855" lon="17.747678">
        <ele>21.767</ele>
        <time>2012-10-08T19:18:34Z</time>
      </trkpt>
      <trkpt lat="59.9736094" lon="17.7476477">
        <ele>22.2476</ele>
        <time>2012-10-08T19:18:35Z</time>
      </trkpt>
      <trkpt lat="59.9736337" lon="17.7476171">
        <ele>22.7283</ele>
        <time>2012-10-08T19:18:36Z</time>
      </trkpt>
      <trkpt lat="59.9736537" lon="17.7475807">
        <ele>22.7283</ele>
        <time>2012-10-08T19:18:37Z</time>
      </trkpt>
      <trkpt lat="59.9736722" lon="17.7475373">
        <ele>23.209</ele>
        <time>2012-10-08T19:18:38Z</time>
      </trkpt>
      <trkpt lat="59.9736849" lon="17.747499">
        <ele>23.209</ele>
        <time>2012-10-08T19:18:39Z</time>
      </trkpt>
      <trkpt lat="59.9737015" lon="17.74747">
        <ele>23.209</ele>
        <time>2012-10-08T19:18:40Z</time>
      </trkpt>
      <trkpt lat="59.9737205" lon="17.7474411">
        <ele>23.6896</ele>
        <time>2012-10-08T19:18:41Z</time>
      </trkpt>
      <trkpt lat="59.9737402" lon="17.74741">
        <ele>23.6896</ele>
        <time>2012-10-08T19:18:42Z</time>
      </trkpt>
      <trkpt lat="59.9737601" lon="17.7473805">
        <ele>24.1703</ele>
        <time>2012-10-08T19:18:43Z</time>
      </trkpt>
      <trkpt lat="59.9737773" lon="17.7473379">
        <ele>25.1317</ele>
        <time>2012-10-08T19:18:44Z</time>
      </trkpt>
      <trkpt lat="59.973799" lon="17.7473059">
        <ele>25.6123</ele>
        <time>2012-10-08T19:18:45Z</time>
      </trkpt>
      <trkpt lat="59.9738229" lon="17.7472731">
        <ele>26.0929</ele>
        <time>2012-10-08T19:18:46Z</time>
      </trkpt>
      <trkpt lat="59.9738446" lon="17.7472364">
        <ele>26.5736</ele>
        <time>2012-10-08T19:18:47Z</time>
      </trkpt>
      <trkpt lat="59.9738599" lon="17.7471691">
        <ele>28.0155</ele>
        <time>2012-10-08T19:18:48Z</time>
      </trkpt>
      <trkpt lat="59.9738799" lon="17.7471365">
        <ele>28.4962</ele>
        <time>2012-10-08T19:18:49Z</time>
      </trkpt>
      <trkpt lat="59.973902" lon="17.7471052">
        <ele>29.4575</ele>
        <time>2012-10-08T19:18:50Z</time>
      </trkpt>
      <trkpt lat="59.9739215" lon="17.7470802">
        <ele>29.9381</ele>
        <time>2012-10-08T19:18:51Z</time>
      </trkpt>
      <trkpt lat="59.9739394" lon="17.7470543">
        <ele>29.9381</ele>
        <time>2012-10-08T19:18:52Z</time>
      </trkpt>
      <trkpt lat="59.9739578" lon="17.7470322">
        <ele>29.9381</ele>
        <time>2012-10-08T19:18:53Z</time>
      </trkpt>
      <trkpt lat="59.9739773" lon="17.7470006">
        <ele>30.4188</ele>
        <time>2012-10-08T19:18:54Z</time>
      </trkpt>
      <trkpt lat="59.9739967" lon="17.7469745">
        <ele>29.9381</ele>
        <time>2012-10-08T19:18:55Z</time>
      </trkpt>
      <trkpt lat="59.974021" lon="17.7469464">
        <ele>29.9381</ele>
        <time>2012-10-08T19:18:56Z</time>
      </trkpt>
      <trkpt lat="59.9740443" lon="17.7468979">
        <ele>31.3801</ele>
        <time>2012-10-08T19:18:57Z</time>
      </trkpt>
      <trkpt lat="59.9740651" lon="17.7468634">
        <ele>31.3801</ele>
        <time>2012-10-08T19:18:58Z</time>
      </trkpt>
      <trkpt lat="59.9740819" lon="17.7468224">
        <ele>32.3416</ele>
        <time>2012-10-08T19:18:59Z</time>
      </trkpt>
      <trkpt lat="59.9741026" lon="17.7467943">
        <ele>32.3416</ele>
        <time>2012-10-08T19:19:00Z</time>
      </trkpt>
      <trkpt lat="59.9741236" lon="17.7467685">
        <ele>32.3416</ele>
        <time>2012-10-08T19:19:01Z</time>
      </trkpt>
      <trkpt lat="59.9741465" lon="17.746738">
        <ele>32.3416</ele>
        <time>2012-10-08T19:19:02Z</time>
      </trkpt>
      <trkpt lat="59.9741725" lon="17.7467075">
        <ele>32.3416</ele>
        <time>2012-10-08T19:19:03Z</time>
      </trkpt>
      <trkpt lat="59.9741953" lon="17.7466695">
        <ele>32.8223</ele>
        <time>2012-10-08T19:19:04Z</time>
      </trkpt>
      <trkpt lat="59.9742191" lon="17.7466399">
        <ele>32.8223</ele>
        <time>2012-10-08T19:19:05Z</time>
      </trkpt>
      <trkpt lat="59.9742434" lon="17.7466119">
        <ele>32.8223</ele>
        <time>2012-10-08T19:19:06Z</time>
      </trkpt>
      <trkpt lat="59.9742673" lon="17.7465809">
        <ele>32.3416</ele>
        <time>2012-10-08T19:19:07Z</time>
      </trkpt>
      <trkpt lat="59.9742915" lon="17.7465525">
        <ele>31.8607</ele>
        <time>2012-10-08T19:19:08Z</time>
      </trkpt>
      <trkpt lat="59.9743154" lon="17.7465508">
        <ele>31.8607</ele>
        <time>2012-10-08T19:19:09Z</time>
      </trkpt>
      <trkpt lat="59.9743366" lon="17.7465451">
        <ele>31.3801</ele>
        <time>2012-10-08T19:19:10Z</time>
      </trkpt>
      <trkpt lat="59.9743595" lon="17.7465265">
        <ele>30.4188</ele>
        <time>2012-10-08T19:19:11Z</time>
      </trkpt>
      <trkpt lat="59.9743833" lon="17.7465111">
        <ele>30.4188</ele>
        <time>2012-10-08T19:19:12Z</time>
      </trkpt>
      <trkpt lat="59.9744039" lon="17.7464929">
        <ele>30.4188</ele>
        <time>2012-10-08T19:19:13Z</time>
      </trkpt>
      <trkpt lat="59.974424" lon="17.7464671">
        <ele>30.4188</ele>
        <time>2012-10-08T19:19:14Z</time>
      </trkpt>
      <trkpt lat="59.9744465" lon="17.7464361">
        <ele>29.9381</ele>
        <time>2012-10-08T19:19:15Z</time>
      </trkpt>
      <trkpt lat="59.9744706" lon="17.7464045">
        <ele>29.9381</ele>
        <time>2012-10-08T19:19:16Z</time>
      </trkpt>
      <trkpt lat="59.9744915" lon="17.7463719">
        <ele>30.4188</ele>
        <time>2012-10-08T19:19:17Z</time>
      </trkpt>
      <trkpt lat="59.9745088" lon="17.7463385">
        <ele>30.4188</ele>
        <time>2012-10-08T19:19:18Z</time>
      </trkpt>
      <trkpt lat="59.9745233" lon="17.7463002">
        <ele>30.4188</ele>
        <time>2012-10-08T19:19:19Z</time>
      </trkpt>
      <trkpt lat="59.9745397" lon="17.746263">
        <ele>30.4188</ele>
        <time>2012-10-08T19:19:20Z</time>
      </trkpt>
      <trkpt lat="59.9745568" lon="17.746233">
        <ele>30.8995</ele>
        <time>2012-10-08T19:19:21Z</time>
      </trkpt>
      <trkpt lat="59.9745734" lon="17.7461989">
        <ele>30.8995</ele>
        <time>2012-10-08T19:19:22Z</time>
      </trkpt>
      <trkpt lat="59.9745918" lon="17.7461646">
        <ele>30.8995</ele>
        <time>2012-10-08T19:19:23Z</time>
      </trkpt>
      <trkpt lat="59.974612" lon="17.7461313">
        <ele>30.8995</ele>
        <time>2012-10-08T19:19:24Z</time>
      </trkpt>
      <trkpt lat="59.9746314" lon="17.7461004">
        <ele>31.3801</ele>
        <time>2012-10-08T19:19:25Z</time>
      </trkpt>
      <trkpt lat="59.9746512" lon="17.7460808">
        <ele>31.3801</ele>
        <time>2012-10-08T19:19:26Z</time>
      </trkpt>
      <trkpt lat="59.9746716" lon="17.7460525">
        <ele>30.8995</ele>
        <time>2012-10-08T19:19:27Z</time>
      </trkpt>
      <trkpt lat="59.9746931" lon="17.7460112">
        <ele>31.3801</ele>
        <time>2012-10-08T19:19:28Z</time>
      </trkpt>
      <trkpt lat="59.9747121" lon="17.7459775">
        <ele>31.3801</ele>
        <time>2012-10-08T19:19:29Z</time>
      </trkpt>
      <trkpt lat="59.9747327" lon="17.7459428">
        <ele>31.3801</ele>
        <time>2012-10-08T19:19:30Z</time>
      </trkpt>
      <trkpt lat="59.9747504" lon="17.7459051">
        <ele>31.3801</ele>
        <time>2012-10-08T19:19:31Z</time>
      </trkpt>
      <trkpt lat="59.9747691" lon="17.7458731">
        <ele>30.8995</ele>
        <time>2012-10-08T19:19:32Z</time>
      </trkpt>
      <trkpt lat="59.9747868" lon="17.7458408">
        <ele>30.8995</ele>
        <time>2012-10-08T19:19:33Z</time>
      </trkpt>
      <trkpt lat="59.9748019" lon="17.7458029">
        <ele>30.8995</ele>
        <time>2012-10-08T19:19:34Z</time>
      </trkpt>
      <trkpt lat="59.97482" lon="17.7457699">
        <ele>30.4188</ele>
        <time>2012-10-08T19:19:35Z</time>
      </trkpt>
      <trkpt lat="59.9748379" lon="17.7457367">
        <ele>30.4188</ele>
        <time>2012-10-08T19:19:36Z</time>
      </trkpt>
      <trkpt lat="59.9748529" lon="17.7456953">
        <ele>30.8995</ele>
        <time>2012-10-08T19:19:37Z</time>
      </trkpt>
      <trkpt lat="59.9748696" lon="17.7456589">
        <ele>30.4188</ele>
        <time>2012-10-08T19:19:38Z</time>
      </trkpt>
      <trkpt lat="59.9748863" lon="17.7456222">
        <ele>30.4188</ele>
        <time>2012-10-08T19:19:39Z</time>
      </trkpt>
      <trkpt lat="59.9748985" lon="17.7455808">
        <ele>30.4188</ele>
        <time>2012-10-08T19:19:40Z</time>
      </trkpt>
      <trkpt lat="59.9749126" lon="17.7455434">
        <ele>30.4188</ele>
        <time>2012-10-08T19:19:41Z</time>
      </trkpt>
      <trkpt lat="59.9749282" lon="17.7455071">
        <ele>29.9381</ele>
        <time>2012-10-08T19:19:42Z</time>
      </trkpt>
      <trkpt lat="59.9749417" lon="17.7454659">
        <ele>30.4188</ele>
        <time>2012-10-08T19:19:43Z</time>
      </trkpt>
      <trkpt lat="59.9749567" lon="17.7454265">
        <ele>29.9381</ele>
        <time>2012-10-08T19:19:44Z</time>
      </trkpt>
      <trkpt lat="59.9749748" lon="17.7453898">
        <ele>29.9381</ele>
        <time>2012-10-08T19:19:45Z</time>
      </trkpt>
      <trkpt lat="59.97499" lon="17.7453554">
        <ele>29.9381</ele>
        <time>2012-10-08T19:19:46Z</time>
      </trkpt>
      <trkpt lat="59.9750054" lon="17.7453161">
        <ele>29.4575</ele>
        <time>2012-10-08T19:19:47Z</time>
      </trkpt>
      <trkpt lat="59.9750216" lon="17.745269">
        <ele>29.4575</ele>
        <time>2012-10-08T19:19:48Z</time>
      </trkpt>
      <trkpt lat="59.9750359" lon="17.7452238">
        <ele>28.9769</ele>
        <time>2012-10-08T19:19:49Z</time>
      </trkpt>
      <trkpt lat="59.9750535" lon="17.7451773">
        <ele>29.4575</ele>
        <time>2012-10-08T19:19:50Z</time>
      </trkpt>
      <trkpt lat="59.9750695" lon="17.7451338">
        <ele>29.4575</ele>
        <time>2012-10-08T19:19:51Z</time>
      </trkpt>
      <trkpt lat="59.9750868" lon="17.7450909">
        <ele>29.9381</ele>
        <time>2012-10-08T19:19:52Z</time>
      </trkpt>
      <trkpt lat="59.9751044" lon="17.7450463">
        <ele>29.9381</ele>
        <time>2012-10-08T19:19:53Z</time>
      </trkpt>
      <trkpt lat="59.9751187" lon="17.7449952">
        <ele>30.4188</ele>
        <time>2012-10-08T19:19:54Z</time>
      </trkpt>
      <trkpt lat="59.9751328" lon="17.7449535">
        <ele>30.4188</ele>
        <time>2012-10-08T19:19:55Z</time>
      </trkpt>
      <trkpt lat="59.9751479" lon="17.7449122">
        <ele>30.4188</ele>
        <time>2012-10-08T19:19:56Z</time>
      </trkpt>
      <trkpt lat="59.9751619" lon="17.7448618">
        <ele>30.4188</ele>
        <time>2012-10-08T19:19:57Z</time>
      </trkpt>
      <trkpt lat="59.9751767" lon="17.7448134">
        <ele>30.8995</ele>
        <time>2012-10-08T19:19:58Z</time>
      </trkpt>
      <trkpt lat="59.9751914" lon="17.7447713">
        <ele>31.3801</ele>
        <time>2012-10-08T19:19:59Z</time>
      </trkpt>
      <trkpt lat="59.9752075" lon="17.7447264">
        <ele>31.8607</ele>
        <time>2012-10-08T19:20:00Z</time>
      </trkpt>
      <trkpt lat="59.9752221" lon="17.7446811">
        <ele>31.8607</ele>
        <time>2012-10-08T19:20:01Z</time>
      </trkpt>
      <trkpt lat="59.9752371" lon="17.7446308">
        <ele>32.3416</ele>
        <time>2012-10-08T19:20:02Z</time>
      </trkpt>
      <trkpt lat="59.9752535" lon="17.7445796">
        <ele>32.3416</ele>
        <time>2012-10-08T19:20:03Z</time>
      </trkpt>
      <trkpt lat="59.9752665" lon="17.7445218">
        <ele>32.3416</ele>
        <time>2012-10-08T19:20:04Z</time>
      </trkpt>
      <trkpt lat="59.9752795" lon="17.7444675">
        <ele>32.3416</ele>
        <time>2012-10-08T19:20:05Z</time>
      </trkpt>
      <trkpt lat="59.9752918" lon="17.7444245">
        <ele>32.8223</ele>
        <time>2012-10-08T19:20:06Z</time>
      </trkpt>
      <trkpt lat="59.975302" lon="17.7443799">
        <ele>32.8223</ele>
        <time>2012-10-08T19:20:07Z</time>
      </trkpt>
      <trkpt lat="59.9753145" lon="17.7443313">
        <ele>33.3029</ele>
        <time>2012-10-08T19:20:08Z</time>
      </trkpt>
      <trkpt lat="59.975325" lon="17.7442879">
        <ele>33.3029</ele>
        <time>2012-10-08T19:20:09Z</time>
      </trkpt>
      <trkpt lat="59.9753388" lon="17.7442354">
        <ele>33.3029</ele>
        <time>2012-10-08T19:20:10Z</time>
      </trkpt>
      <trkpt lat="59.9753503" lon="17.7441786">
        <ele>33.3029</ele>
        <time>2012-10-08T19:20:11Z</time>
      </trkpt>
      <trkpt lat="59.975357" lon="17.7441273">
        <ele>33.3029</ele>
        <time>2012-10-08T19:20:12Z</time>
      </trkpt>
      <trkpt lat="59.9753655" lon="17.7440765">
        <ele>33.3029</ele>
        <time>2012-10-08T19:20:13Z</time>
      </trkpt>
      <trkpt lat="59.9753737" lon="17.7440262">
        <ele>32.8223</ele>
        <time>2012-10-08T19:20:14Z</time>
      </trkpt>
      <trkpt lat="59.9753816" lon="17.7439719">
        <ele>32.8223</ele>
        <time>2012-10-08T19:20:15Z</time>
      </trkpt>
      <trkpt lat="59.9753889" lon="17.7439183">
        <ele>32.8223</ele>
        <time>2012-10-08T19:20:16Z</time>
      </trkpt>
      <trkpt lat="59.9753939" lon="17.7438684">
        <ele>33.3029</ele>
        <time>2012-10-08T19:20:17Z</time>
      </trkpt>
      <trkpt lat="59.9753991" lon="17.743818">
        <ele>32.8223</ele>
        <time>2012-10-08T19:20:18Z</time>
      </trkpt>
      <trkpt lat="59.9754068" lon="17.7437653">
        <ele>33.3029</ele>
        <time>2012-10-08T19:20:19Z</time>
      </trkpt>
      <trkpt lat="59.9754129" lon="17.7437169">
        <ele>33.3029</ele>
        <time>2012-10-08T19:20:20Z</time>
      </trkpt>
      <trkpt lat="59.9754191" lon="17.7436662">
        <ele>33.3029</ele>
        <time>2012-10-08T19:20:21Z</time>
      </trkpt>
      <trkpt lat="59.9754219" lon="17.7436078">
        <ele>32.8223</ele>
        <time>2012-10-08T19:20:22Z</time>
      </trkpt>
      <trkpt lat="59.9754246" lon="17.7435563">
        <ele>32.8223</ele>
        <time>2012-10-08T19:20:23Z</time>
      </trkpt>
      <trkpt lat="59.9754329" lon="17.7435089">
        <ele>32.8223</ele>
        <time>2012-10-08T19:20:24Z</time>
      </trkpt>
      <trkpt lat="59.9754435" lon="17.7434624">
        <ele>32.3416</ele>
        <time>2012-10-08T19:20:25Z</time>
      </trkpt>
      <trkpt lat="59.9754517" lon="17.7434189">
        <ele>32.3416</ele>
        <time>2012-10-08T19:20:26Z</time>
      </trkpt>
      <trkpt lat="59.9754597" lon="17.7433739">
        <ele>32.3416</ele>
        <time>2012-10-08T19:20:27Z</time>
      </trkpt>
      <trkpt lat="59.975471" lon="17.7433317">
        <ele>32.3416</ele>
        <time>2012-10-08T19:20:28Z</time>
      </trkpt>
      <trkpt lat="59.9754825" lon="17.7432948">
        <ele>31.8607</ele>
        <time>2012-10-08T19:20:29Z</time>
      </trkpt>
      <trkpt lat="59.9754923" lon="17.7432497">
        <ele>31.8607</ele>
        <time>2012-10-08T19:20:30Z</time>
      </trkpt>
      <trkpt lat="59.9755018" lon="17.7432022">
        <ele>32.3416</ele>
        <time>2012-10-08T19:20:31Z</time>
      </trkpt>
      <trkpt lat="59.9755129" lon="17.7431616">
        <ele>32.3416</ele>
        <time>2012-10-08T19:20:32Z</time>
      </trkpt>
      <trkpt lat="59.9755237" lon="17.7431134">
        <ele>31.8607</ele>
        <time>2012-10-08T19:20:33Z</time>
      </trkpt>
      <trkpt lat="59.9755341" lon="17.7430639">
        <ele>32.3416</ele>
        <time>2012-10-08T19:20:34Z</time>
      </trkpt>
      <trkpt lat="59.9755446" lon="17.7430201">
        <ele>32.3416</ele>
        <time>2012-10-08T19:20:35Z</time>
      </trkpt>
      <trkpt lat="59.975557" lon="17.7429709">
        <ele>32.3416</ele>
        <time>2012-10-08T19:20:36Z</time>
      </trkpt>
      <trkpt lat="59.9755721" lon="17.7429222">
        <ele>32.3416</ele>
        <time>2012-10-08T19:20:37Z</time>
      </trkpt>
      <trkpt lat="59.975583" lon="17.7428782">
        <ele>32.3416</ele>
        <time>2012-10-08T19:20:38Z</time>
      </trkpt>
      <trkpt lat="59.9755918" lon="17.7428298">
        <ele>32.3416</ele>
        <time>2012-10-08T19:20:39Z</time>
      </trkpt>
      <trkpt lat="59.9756047" lon="17.7427851">
        <ele>32.3416</ele>
        <time>2012-10-08T19:20:40Z</time>
      </trkpt>
      <trkpt lat="59.9756163" lon="17.7427432">
        <ele>32.3416</ele>
        <time>2012-10-08T19:20:41Z</time>
      </trkpt>
      <trkpt lat="59.975626" lon="17.7427016">
        <ele>32.3416</ele>
        <time>2012-10-08T19:20:42Z</time>
      </trkpt>
      <trkpt lat="59.9756395" lon="17.7426546">
        <ele>31.8607</ele>
        <time>2012-10-08T19:20:43Z</time>
      </trkpt>
      <trkpt lat="59.975654" lon="17.742615">
        <ele>31.8607</ele>
        <time>2012-10-08T19:20:44Z</time>
      </trkpt>
      <trkpt lat="59.9756654" lon="17.7425704">
        <ele>31.8607</ele>
        <time>2012-10-08T19:20:45Z</time>
      </trkpt>
      <trkpt lat="59.9756777" lon="17.7425248">
        <ele>31.8607</ele>
        <time>2012-10-08T19:20:46Z</time>
      </trkpt>
      <trkpt lat="59.9756902" lon="17.7424827">
        <ele>31.3801</ele>
        <time>2012-10-08T19:20:47Z</time>
      </trkpt>
      <trkpt lat="59.9757021" lon="17.7424373">
        <ele>30.8995</ele>
        <time>2012-10-08T19:20:48Z</time>
      </trkpt>
      <trkpt lat="59.9757133" lon="17.742393">
        <ele>30.4188</ele>
        <time>2012-10-08T19:20:49Z</time>
      </trkpt>
      <trkpt lat="59.9757268" lon="17.7423539">
        <ele>30.4188</ele>
        <time>2012-10-08T19:20:50Z</time>
      </trkpt>
      <trkpt lat="59.9757397" lon="17.7423169">
        <ele>29.9381</ele>
        <time>2012-10-08T19:20:51Z</time>
      </trkpt>
      <trkpt lat="59.9757529" lon="17.7422752">
        <ele>29.9381</ele>
        <time>2012-10-08T19:20:52Z</time>
      </trkpt>
      <trkpt lat="59.9757684" lon="17.7422416">
        <ele>29.4575</ele>
        <time>2012-10-08T19:20:53Z</time>
      </trkpt>
      <trkpt lat="59.9757789" lon="17.7422018">
        <ele>28.9769</ele>
        <time>2012-10-08T19:20:54Z</time>
      </trkpt>
      <trkpt lat="59.9757891" lon="17.7421582">
        <ele>28.9769</ele>
        <time>2012-10-08T19:20:55Z</time>
      </trkpt>
      <trkpt lat="59.9758006" lon="17.7421205">
        <ele>28.9769</ele>
        <time>2012-10-08T19:20:56Z</time>
      </trkpt>
      <trkpt lat="59.9758123" lon="17.7420868">
        <ele>28.4962</ele>
        <time>2012-10-08T19:20:57Z</time>
      </trkpt>
      <trkpt lat="59.9758211" lon="17.7420387">
        <ele>28.4962</ele>
        <time>2012-10-08T19:20:58Z</time>
      </trkpt>
      <trkpt lat="59.9758327" lon="17.7419915">
        <ele>28.0155</ele>
        <time>2012-10-08T19:20:59Z</time>
      </trkpt>
      <trkpt lat="59.9758462" lon="17.7419542">
        <ele>28.0155</ele>
        <time>2012-10-08T19:21:00Z</time>
      </trkpt>
      <trkpt lat="59.9758595" lon="17.7419065">
        <ele>27.5349</ele>
        <time>2012-10-08T19:21:01Z</time>
      </trkpt>
      <trkpt lat="59.9758736" lon="17.7418561">
        <ele>27.5349</ele>
        <time>2012-10-08T19:21:02Z</time>
      </trkpt>
      <trkpt lat="59.975886" lon="17.741805">
        <ele>27.0543</ele>
        <time>2012-10-08T19:21:03Z</time>
      </trkpt>
      <trkpt lat="59.9758955" lon="17.7417525">
        <ele>27.0543</ele>
        <time>2012-10-08T19:21:04Z</time>
      </trkpt>
      <trkpt lat="59.9759057" lon="17.7417041">
        <ele>27.0543</ele>
        <time>2012-10-08T19:21:05Z</time>
      </trkpt>
      <trkpt lat="59.9759156" lon="17.7416537">
        <ele>26.5736</ele>
        <time>2012-10-08T19:21:06Z</time>
      </trkpt>
      <trkpt lat="59.9759275" lon="17.7416013">
        <ele>27.0543</ele>
        <time>2012-10-08T19:21:07Z</time>
      </trkpt>
      <trkpt lat="59.9759393" lon="17.7415515">
        <ele>27.0543</ele>
        <time>2012-10-08T19:21:08Z</time>
      </trkpt>
      <trkpt lat="59.9759456" lon="17.7415034">
        <ele>26.5736</ele>
        <time>2012-10-08T19:21:09Z</time>
      </trkpt>
      <trkpt lat="59.9759527" lon="17.741461">
        <ele>26.5736</ele>
        <time>2012-10-08T19:21:10Z</time>
      </trkpt>
      <trkpt lat="59.9759617" lon="17.7414257">
        <ele>26.0929</ele>
        <time>2012-10-08T19:21:11Z</time>
      </trkpt>
      <trkpt lat="59.975972" lon="17.7413834">
        <ele>25.6123</ele>
        <time>2012-10-08T19:21:12Z</time>
      </trkpt>
      <trkpt lat="59.975984" lon="17.7413424">
        <ele>25.6123</ele>
        <time>2012-10-08T19:21:13Z</time>
      </trkpt>
      <trkpt lat="59.9759943" lon="17.7413025">
        <ele>25.1317</ele>
        <time>2012-10-08T19:21:14Z</time>
      </trkpt>
      <trkpt lat="59.9759989" lon="17.741255">
        <ele>24.651</ele>
        <time>2012-10-08T19:21:15Z</time>
      </trkpt>
      <trkpt lat="59.9760067" lon="17.7412056">
        <ele>24.1703</ele>
        <time>2012-10-08T19:21:16Z</time>
      </trkpt>
      <trkpt lat="59.9760151" lon="17.74116">
        <ele>24.1703</ele>
        <time>2012-10-08T19:21:17Z</time>
      </trkpt>
      <trkpt lat="59.9760252" lon="17.7411176">
        <ele>23.6896</ele>
        <time>2012-10-08T19:21:18Z</time>
      </trkpt>
      <trkpt lat="59.9760395" lon="17.7410808">
        <ele>23.209</ele>
        <time>2012-10-08T19:21:19Z</time>
      </trkpt>
      <trkpt lat="59.9760528" lon="17.741048">
        <ele>22.7283</ele>
        <time>2012-10-08T19:21:20Z</time>
      </trkpt>
      <trkpt lat="59.9760637" lon="17.7410073">
        <ele>22.2476</ele>
        <time>2012-10-08T19:21:21Z</time>
      </trkpt>
      <trkpt lat="59.976079" lon="17.7409657">
        <ele>22.2476</ele>
        <time>2012-10-08T19:21:22Z</time>
      </trkpt>
      <trkpt lat="59.9760944" lon="17.7409301">
        <ele>22.2476</ele>
        <time>2012-10-08T19:21:23Z</time>
      </trkpt>
      <trkpt lat="59.9761075" lon="17.7408886">
        <ele>22.2476</ele>
        <time>2012-10-08T19:21:24Z</time>
      </trkpt>
      <trkpt lat="59.9761233" lon="17.7408453">
        <ele>22.2476</ele>
        <time>2012-10-08T19:21:25Z</time>
      </trkpt>
      <trkpt lat="59.9761414" lon="17.7408119">
        <ele>22.2476</ele>
        <time>2012-10-08T19:21:26Z</time>
      </trkpt>
      <trkpt lat="59.9761615" lon="17.740775">
        <ele>22.2476</ele>
        <time>2012-10-08T19:21:27Z</time>
      </trkpt>
      <trkpt lat="59.9761828" lon="17.7407354">
        <ele>22.7283</ele>
        <time>2012-10-08T19:21:28Z</time>
      </trkpt>
      <trkpt lat="59.9762003" lon="17.7406989">
        <ele>22.7283</ele>
        <time>2012-10-08T19:21:29Z</time>
      </trkpt>
      <trkpt lat="59.976215" lon="17.7406598">
        <ele>23.209</ele>
        <time>2012-10-08T19:21:30Z</time>
      </trkpt>
      <trkpt lat="59.9762345" lon="17.740627">
        <ele>23.209</ele>
        <time>2012-10-08T19:21:31Z</time>
      </trkpt>
      <trkpt lat="59.9762538" lon="17.7405901">
        <ele>23.6896</ele>
        <time>2012-10-08T19:21:32Z</time>
      </trkpt>
      <trkpt lat="59.9762694" lon="17.7405407">
        <ele>24.1703</ele>
        <time>2012-10-08T19:21:33Z</time>
      </trkpt>
      <trkpt lat="59.9762828" lon="17.7404897">
        <ele>24.1703</ele>
        <time>2012-10-08T19:21:34Z</time>
      </trkpt>
      <trkpt lat="59.9762956" lon="17.7404355">
        <ele>24.651</ele>
        <time>2012-10-08T19:21:35Z</time>
      </trkpt>
      <trkpt lat="59.9763103" lon="17.7403829">
        <ele>25.1317</ele>
        <time>2012-10-08T19:21:36Z</time>
      </trkpt>
      <trkpt lat="59.9763269" lon="17.7403302">
        <ele>25.1317</ele>
        <time>2012-10-08T19:21:37Z</time>
      </trkpt>
      <trkpt lat="59.9763418" lon="17.7402681">
        <ele>25.1317</ele>
        <time>2012-10-08T19:21:38Z</time>
      </trkpt>
      <trkpt lat="59.9763591" lon="17.7402141">
        <ele>24.651</ele>
        <time>2012-10-08T19:21:39Z</time>
      </trkpt>
      <trkpt lat="59.976381" lon="17.7401685">
        <ele>25.1317</ele>
        <time>2012-10-08T19:21:40Z</time>
      </trkpt>
      <trkpt lat="59.9763961" lon="17.7401188">
        <ele>24.651</ele>
        <time>2012-10-08T19:21:41Z</time>
      </trkpt>
      <trkpt lat="59.9764082" lon="17.7400624">
        <ele>24.651</ele>
        <time>2012-10-08T19:21:42Z</time>
      </trkpt>
      <trkpt lat="59.9764271" lon="17.7400137">
        <ele>24.651</ele>
        <time>2012-10-08T19:21:43Z</time>
      </trkpt>
      <trkpt lat="59.9764448" lon="17.7399635">
        <ele>24.651</ele>
        <time>2012-10-08T19:21:44Z</time>
      </trkpt>
      <trkpt lat="59.976461" lon="17.7399137">
        <ele>24.651</ele>
        <time>2012-10-08T19:21:45Z</time>
      </trkpt>
      <trkpt lat="59.9764817" lon="17.7398743">
        <ele>24.651</ele>
        <time>2012-10-08T19:21:46Z</time>
      </trkpt>
      <trkpt lat="59.9765049" lon="17.73985">
        <ele>24.1703</ele>
        <time>2012-10-08T19:21:47Z</time>
      </trkpt>
      <trkpt lat="59.9765247" lon="17.7398272">
        <ele>24.1703</ele>
        <time>2012-10-08T19:21:48Z</time>
      </trkpt>
      <trkpt lat="59.9765439" lon="17.7398068">
        <ele>23.6896</ele>
        <time>2012-10-08T19:21:49Z</time>
      </trkpt>
      <trkpt lat="59.9765634" lon="17.7397823">
        <ele>23.6896</ele>
        <time>2012-10-08T19:21:50Z</time>
      </trkpt>
      <trkpt lat="59.9765805" lon="17.739761">
        <ele>23.6896</ele>
        <time>2012-10-08T19:21:51Z</time>
      </trkpt>
      <trkpt lat="59.9766036" lon="17.7397355">
        <ele>23.6896</ele>
        <time>2012-10-08T19:21:52Z</time>
      </trkpt>
      <trkpt lat="59.97663" lon="17.73971">
        <ele>23.6896</ele>
        <time>2012-10-08T19:21:53Z</time>
      </trkpt>
      <trkpt lat="59.976652" lon="17.739692">
        <ele>23.6896</ele>
        <time>2012-10-08T19:21:54Z</time>
      </trkpt>
      <trkpt lat="59.9766739" lon="17.739675">
        <ele>24.1703</ele>
        <time>2012-10-08T19:21:55Z</time>
      </trkpt>
      <trkpt lat="59.9766972" lon="17.7396323">
        <ele>25.6123</ele>
        <time>2012-10-08T19:21:56Z</time>
      </trkpt>
      <trkpt lat="59.9767224" lon="17.7396149">
        <ele>25.6123</ele>
        <time>2012-10-08T19:21:57Z</time>
      </trkpt>
      <trkpt lat="59.9767521" lon="17.7395984">
        <ele>26.0929</ele>
        <time>2012-10-08T19:21:58Z</time>
      </trkpt>
      <trkpt lat="59.976783" lon="17.7395883">
        <ele>26.0929</ele>
        <time>2012-10-08T19:21:59Z</time>
      </trkpt>
      <trkpt lat="59.9768065" lon="17.7395728">
        <ele>26.0929</ele>
        <time>2012-10-08T19:22:00Z</time>
      </trkpt>
      <trkpt lat="59.9768234" lon="17.7395366">
        <ele>26.0929</ele>
        <time>2012-10-08T19:22:01Z</time>
      </trkpt>
      <trkpt lat="59.9768393" lon="17.7394977">
        <ele>26.5736</ele>
        <time>2012-10-08T19:22:02Z</time>
      </trkpt>
      <trkpt lat="59.9768527" lon="17.7394616">
        <ele>26.5736</ele>
        <time>2012-10-08T19:22:03Z</time>
      </trkpt>
      <trkpt lat="59.9768718" lon="17.739434">
        <ele>27.0543</ele>
        <time>2012-10-08T19:22:04Z</time>
      </trkpt>
      <trkpt lat="59.9769064" lon="17.7394202">
        <ele>27.0543</ele>
        <time>2012-10-08T19:22:05Z</time>
      </trkpt>
      <trkpt lat="59.9769361" lon="17.7394009">
        <ele>27.5349</ele>
        <time>2012-10-08T19:22:06Z</time>
      </trkpt>
      <trkpt lat="59.9769598" lon="17.7393667">
        <ele>28.0155</ele>
        <time>2012-10-08T19:22:07Z</time>
      </trkpt>
      <trkpt lat="59.9769819" lon="17.7393465">
        <ele>28.9769</ele>
        <time>2012-10-08T19:22:08Z</time>
      </trkpt>
      <trkpt lat="59.9769966" lon="17.7393282">
        <ele>29.4575</ele>
        <time>2012-10-08T19:22:09Z</time>
      </trkpt>
      <trkpt lat="59.9770143" lon="17.7393067">
        <ele>29.9381</ele>
        <time>2012-10-08T19:22:10Z</time>
      </trkpt>
      <trkpt lat="59.9770359" lon="17.7392805">
        <ele>30.4188</ele>
        <time>2012-10-08T19:22:11Z</time>
      </trkpt>
      <trkpt lat="59.9770614" lon="17.7392402">
        <ele>31.8607</ele>
        <time>2012-10-08T19:22:12Z</time>
      </trkpt>
      <trkpt lat="59.9770873" lon="17.7392215">
        <ele>32.3416</ele>
        <time>2012-10-08T19:22:13Z</time>
      </trkpt>
      <trkpt lat="59.9771136" lon="17.7392041">
        <ele>32.8223</ele>
        <time>2012-10-08T19:22:14Z</time>
      </trkpt>
      <trkpt lat="59.9771405" lon="17.7391829">
        <ele>33.7834</ele>
        <time>2012-10-08T19:22:15Z</time>
      </trkpt>
      <trkpt lat="59.9771676" lon="17.7391646">
        <ele>34.2642</ele>
        <time>2012-10-08T19:22:16Z</time>
      </trkpt>
      <trkpt lat="59.9771956" lon="17.7391483">
        <ele>34.7449</ele>
        <time>2012-10-08T19:22:17Z</time>
      </trkpt>
      <trkpt lat="59.9772239" lon="17.7391315">
        <ele>35.2255</ele>
        <time>2012-10-08T19:22:18Z</time>
      </trkpt>
      <trkpt lat="59.9772546" lon="17.7391103">
        <ele>35.7061</ele>
        <time>2012-10-08T19:22:19Z</time>
      </trkpt>
      <trkpt lat="59.9772872" lon="17.7390918">
        <ele>35.7061</ele>
        <time>2012-10-08T19:22:20Z</time>
      </trkpt>
      <trkpt lat="59.9773137" lon="17.7390828">
        <ele>35.7061</ele>
        <time>2012-10-08T19:22:21Z</time>
      </trkpt>
      <trkpt lat="59.9773401" lon="17.7390663">
        <ele>35.7061</ele>
        <time>2012-10-08T19:22:22Z</time>
      </trkpt>
      <trkpt lat="59.9773643" lon="17.7390526">
        <ele>36.1868</ele>
        <time>2012-10-08T19:22:23Z</time>
      </trkpt>
      <trkpt lat="59.9773829" lon="17.7390424">
        <ele>36.6675</ele>
        <time>2012-10-08T19:22:24Z</time>
      </trkpt>
      <trkpt lat="59.9774031" lon="17.7390201">
        <ele>37.1481</ele>
        <time>2012-10-08T19:22:25Z</time>
      </trkpt>
      <trkpt lat="59.9774257" lon="17.7390072">
        <ele>38.1094</ele>
        <time>2012-10-08T19:22:26Z</time>
      </trkpt>
      <trkpt lat="59.9774514" lon="17.7389954">
        <ele>38.1094</ele>
        <time>2012-10-08T19:22:27Z</time>
      </trkpt>
      <trkpt lat="59.977478" lon="17.7389822">
        <ele>38.5901</ele>
        <time>2012-10-08T19:22:28Z</time>
      </trkpt>
      <trkpt lat="59.9775033" lon="17.7389714">
        <ele>38.5901</ele>
        <time>2012-10-08T19:22:29Z</time>
      </trkpt>
      <trkpt lat="59.9775302" lon="17.7389632">
        <ele>39.0707</ele>
        <time>2012-10-08T19:22:30Z</time>
      </trkpt>
      <trkpt lat="59.9775576" lon="17.7389497">
        <ele>39.5513</ele>
        <time>2012-10-08T19:22:31Z</time>
      </trkpt>
      <trkpt lat="59.9775825" lon="17.7389362">
        <ele>39.5513</ele>
        <time>2012-10-08T19:22:32Z</time>
      </trkpt>
      <trkpt lat="59.9776082" lon="17.738929">
        <ele>39.5513</ele>
        <time>2012-10-08T19:22:33Z</time>
      </trkpt>
      <trkpt lat="59.9776318" lon="17.7389267">
        <ele>39.0707</ele>
        <time>2012-10-08T19:22:34Z</time>
      </trkpt>
      <trkpt lat="59.9776546" lon="17.7389224">
        <ele>39.5513</ele>
        <time>2012-10-08T19:22:35Z</time>
      </trkpt>
      <trkpt lat="59.9776737" lon="17.7389175">
        <ele>39.0707</ele>
        <time>2012-10-08T19:22:36Z</time>
      </trkpt>
      <trkpt lat="59.9776937" lon="17.7389212">
        <ele>38.5901</ele>
        <time>2012-10-08T19:22:37Z</time>
      </trkpt>
      <trkpt lat="59.9777142" lon="17.7389325">
        <ele>38.1094</ele>
        <time>2012-10-08T19:22:38Z</time>
      </trkpt>
      <trkpt lat="59.9777333" lon="17.7389398">
        <ele>37.6287</ele>
        <time>2012-10-08T19:22:39Z</time>
      </trkpt>
      <trkpt lat="59.9777551" lon="17.7389407">
        <ele>38.1094</ele>
        <time>2012-10-08T19:22:40Z</time>
      </trkpt>
      <trkpt lat="59.9777787" lon="17.7389402">
        <ele>37.6287</ele>
        <time>2012-10-08T19:22:41Z</time>
      </trkpt>
      <trkpt lat="59.9778004" lon="17.7389423">
        <ele>37.6287</ele>
        <time>2012-10-08T19:22:42Z</time>
      </trkpt>
      <trkpt lat="59.9778232" lon="17.738944">
        <ele>37.6287</ele>
        <time>2012-10-08T19:22:43Z</time>
      </trkpt>
      <trkpt lat="59.977846" lon="17.7389516">
        <ele>37.6287</ele>
        <time>2012-10-08T19:22:44Z</time>
      </trkpt>
      <trkpt lat="59.9778679" lon="17.7389571">
        <ele>37.6287</ele>
        <time>2012-10-08T19:22:45Z</time>
      </trkpt>
      <trkpt lat="59.9778846" lon="17.7389548">
        <ele>37.6287</ele>
        <time>2012-10-08T19:22:46Z</time>
      </trkpt>
      <trkpt lat="59.9778994" lon="17.7389534">
        <ele>37.6287</ele>
        <time>2012-10-08T19:22:47Z</time>
      </trkpt>
      <trkpt lat="59.9779208" lon="17.7389594">
        <ele>37.6287</ele>
        <time>2012-10-08T19:22:48Z</time>
      </trkpt>
      <trkpt lat="59.9779426" lon="17.7389725">
        <ele>37.1481</ele>
        <time>2012-10-08T19:22:49Z</time>
      </trkpt>
      <trkpt lat="59.9779651" lon="17.7389938">
        <ele>37.6287</ele>
        <time>2012-10-08T19:22:50Z</time>
      </trkpt>
      <trkpt lat="59.9779862" lon="17.739014">
        <ele>37.6287</ele>
        <time>2012-10-08T19:22:51Z</time>
      </trkpt>
      <trkpt lat="59.9780061" lon="17.7390295">
        <ele>37.1481</ele>
        <time>2012-10-08T19:22:52Z</time>
      </trkpt>
      <trkpt lat="59.9780285" lon="17.7390445">
        <ele>37.1481</ele>
        <time>2012-10-08T19:22:53Z</time>
      </trkpt>
      <trkpt lat="59.9780524" lon="17.7390599">
        <ele>36.6675</ele>
        <time>2012-10-08T19:22:54Z</time>
      </trkpt>
      <trkpt lat="59.9780739" lon="17.7390725">
        <ele>36.6675</ele>
        <time>2012-10-08T19:22:55Z</time>
      </trkpt>
      <trkpt lat="59.978099" lon="17.7390837">
        <ele>36.1868</ele>
        <time>2012-10-08T19:22:56Z</time>
      </trkpt>
      <trkpt lat="59.978126" lon="17.7391">
        <ele>36.1868</ele>
        <time>2012-10-08T19:22:57Z</time>
      </trkpt>
      <trkpt lat="59.9781496" lon="17.7391114">
        <ele>35.7061</ele>
        <time>2012-10-08T19:22:58Z</time>
      </trkpt>
      <trkpt lat="59.9781706" lon="17.7391208">
        <ele>35.7061</ele>
        <time>2012-10-08T19:22:59Z</time>
      </trkpt>
      <trkpt lat="59.9781949" lon="17.7391308">
        <ele>36.1868</ele>
        <time>2012-10-08T19:23:00Z</time>
      </trkpt>
      <trkpt lat="59.978216" lon="17.7391377">
        <ele>36.1868</ele>
        <time>2012-10-08T19:23:01Z</time>
      </trkpt>
      <trkpt lat="59.9782415" lon="17.7391424">
        <ele>36.1868</ele>
        <time>2012-10-08T19:23:02Z</time>
      </trkpt>
      <trkpt lat="59.9782689" lon="17.7391578">
        <ele>36.6675</ele>
        <time>2012-10-08T19:23:03Z</time>
      </trkpt>
      <trkpt lat="59.9782957" lon="17.7391678">
        <ele>36.6675</ele>
        <time>2012-10-08T19:23:04Z</time>
      </trkpt>
      <trkpt lat="59.9783207" lon="17.739172">
        <ele>36.6675</ele>
        <time>2012-10-08T19:23:05Z</time>
      </trkpt>
      <trkpt lat="59.9783409" lon="17.7391699">
        <ele>36.1868</ele>
        <time>2012-10-08T19:23:06Z</time>
      </trkpt>
      <trkpt lat="59.9783671" lon="17.739172">
        <ele>35.7061</ele>
        <time>2012-10-08T19:23:07Z</time>
      </trkpt>
      <trkpt lat="59.9783959" lon="17.7391781">
        <ele>35.7061</ele>
        <time>2012-10-08T19:23:08Z</time>
      </trkpt>
      <trkpt lat="59.9784252" lon="17.7391824">
        <ele>35.7061</ele>
        <time>2012-10-08T19:23:09Z</time>
      </trkpt>
      <trkpt lat="59.9784513" lon="17.7391839">
        <ele>35.7061</ele>
        <time>2012-10-08T19:23:10Z</time>
      </trkpt>
      <trkpt lat="59.9784772" lon="17.7391915">
        <ele>35.7061</ele>
        <time>2012-10-08T19:23:11Z</time>
      </trkpt>
      <trkpt lat="59.9785052" lon="17.7392044">
        <ele>35.7061</ele>
        <time>2012-10-08T19:23:12Z</time>
      </trkpt>
      <trkpt lat="59.978532" lon="17.7392139">
        <ele>35.2255</ele>
        <time>2012-10-08T19:23:13Z</time>
      </trkpt>
      <trkpt lat="59.9785609" lon="17.7392217">
        <ele>34.7449</ele>
        <time>2012-10-08T19:23:14Z</time>
      </trkpt>
      <trkpt lat="59.9785932" lon="17.7392331">
        <ele>34.7449</ele>
        <time>2012-10-08T19:23:15Z</time>
      </trkpt>
      <trkpt lat="59.9786232" lon="17.7392327">
        <ele>34.2642</ele>
        <time>2012-10-08T19:23:16Z</time>
      </trkpt>
      <trkpt lat="59.9786455" lon="17.7392311">
        <ele>34.2642</ele>
        <time>2012-10-08T19:23:17Z</time>
      </trkpt>
      <trkpt lat="59.9786671" lon="17.7392304">
        <ele>33.7834</ele>
        <time>2012-10-08T19:23:18Z</time>
      </trkpt>
      <trkpt lat="59.978691" lon="17.7392358">
        <ele>33.7834</ele>
        <time>2012-10-08T19:23:19Z</time>
      </trkpt>
      <trkpt lat="59.9787159" lon="17.7392441">
        <ele>33.3029</ele>
        <time>2012-10-08T19:23:20Z</time>
      </trkpt>
      <trkpt lat="59.9787419" lon="17.7392532">
        <ele>32.8223</ele>
        <time>2012-10-08T19:23:21Z</time>
      </trkpt>
      <trkpt lat="59.9787651" lon="17.7392538">
        <ele>32.8223</ele>
        <time>2012-10-08T19:23:22Z</time>
      </trkpt>
      <trkpt lat="59.9787911" lon="17.7392387">
        <ele>32.8223</ele>
        <time>2012-10-08T19:23:23Z</time>
      </trkpt>
      <trkpt lat="59.9788159" lon="17.7392322">
        <ele>32.8223</ele>
        <time>2012-10-08T19:23:24Z</time>
      </trkpt>
      <trkpt lat="59.9788398" lon="17.7392418">
        <ele>33.3029</ele>
        <time>2012-10-08T19:23:25Z</time>
      </trkpt>
      <trkpt lat="59.9788634" lon="17.7392615">
        <ele>33.3029</ele>
        <time>2012-10-08T19:23:26Z</time>
      </trkpt>
    </trkseg>
  </trk>
</gpx>